<?xml version="1.0" encoding="UTF-8" standalone="no" ?>
<gpx xmlns="http://www.topografix.com/GPX/1/1" xmlns:xsi="http://www.w3.org/2001/XMLSchema-instance" xsi:schemaLocation="http://www.topografix.com/GPX/1/1 http://www.topografix.com/GPX/1/1/gpx.xsd" version="1.1" creator="VisuGPX - https://www.visugpx.com">
  <metadata>
    <name>Mont Aurélien</name>
    <desc><![CDATA[belle randonnée avec très belles vues sur la Sainte Victoire]]></desc>
  </metadata>
  <trk>
    <name><![CDATA[ZZ Mont aurélien]]></name>
    <desc><![CDATA[26/01/19 Avec Diana,
Belle ballade, beau temps, température fraiche mais pas de vent.
profité du col de l'oympe pour pique-niquer
Nota : bon bistro chez toine (bar rugby) à Trets car pas trouvé à pourcieux]]></desc>
    <trkseg>
      <trkpt lat="43.46721" lon="5.74538">
        <ele>295.74</ele>
        <time>2019-01-26T09:47:43Z</time>
      </trkpt>
      <trkpt lat="43.46719" lon="5.7454">
        <ele>295.74</ele>
        <time>2019-01-26T09:47:50Z</time>
      </trkpt>
      <trkpt lat="43.46718" lon="5.7454">
        <ele>295.74</ele>
        <time>2019-01-26T09:47:51Z</time>
      </trkpt>
      <trkpt lat="43.46715" lon="5.74542">
        <ele>296.22</ele>
        <time>2019-01-26T09:47:57Z</time>
      </trkpt>
      <trkpt lat="43.46714" lon="5.74544">
        <ele>296.22</ele>
        <time>2019-01-26T09:48:00Z</time>
      </trkpt>
      <trkpt lat="43.46711" lon="5.74552">
        <ele>296.22</ele>
        <time>2019-01-26T09:48:07Z</time>
      </trkpt>
      <trkpt lat="43.46709" lon="5.74559">
        <ele>297.18</ele>
        <time>2019-01-26T09:48:13Z</time>
      </trkpt>
      <trkpt lat="43.46706" lon="5.7457">
        <ele>297.18</ele>
        <time>2019-01-26T09:48:21Z</time>
      </trkpt>
      <trkpt lat="43.46703" lon="5.7458">
        <ele>297.67</ele>
        <time>2019-01-26T09:48:29Z</time>
      </trkpt>
      <trkpt lat="43.46701" lon="5.74586">
        <ele>297.67</ele>
        <time>2019-01-26T09:48:36Z</time>
      </trkpt>
      <trkpt lat="43.46699" lon="5.7459">
        <ele>297.67</ele>
        <time>2019-01-26T09:48:38Z</time>
      </trkpt>
      <trkpt lat="43.4669" lon="5.74603">
        <ele>298.15</ele>
        <time>2019-01-26T09:48:44Z</time>
      </trkpt>
      <trkpt lat="43.46688" lon="5.74607">
        <ele>298.63</ele>
        <time>2019-01-26T09:48:48Z</time>
      </trkpt>
      <trkpt lat="43.46682" lon="5.74607">
        <ele>298.63</ele>
        <time>2019-01-26T09:48:53Z</time>
      </trkpt>
      <trkpt lat="43.46674" lon="5.74603">
        <ele>299.11</ele>
        <time>2019-01-26T09:49:00Z</time>
      </trkpt>
      <trkpt lat="43.46663" lon="5.74599">
        <ele>300.55</ele>
        <time>2019-01-26T09:49:08Z</time>
      </trkpt>
      <trkpt lat="43.46658" lon="5.74599">
        <ele>300.55</ele>
        <time>2019-01-26T09:49:12Z</time>
      </trkpt>
      <trkpt lat="43.4665" lon="5.746">
        <ele>301.03</ele>
        <time>2019-01-26T09:49:21Z</time>
      </trkpt>
      <trkpt lat="43.46642" lon="5.74602">
        <ele>301.51</ele>
        <time>2019-01-26T09:49:29Z</time>
      </trkpt>
      <trkpt lat="43.46633" lon="5.74603">
        <ele>301.99</ele>
        <time>2019-01-26T09:49:36Z</time>
      </trkpt>
      <trkpt lat="43.46625" lon="5.74605">
        <ele>302.47</ele>
        <time>2019-01-26T09:49:43Z</time>
      </trkpt>
      <trkpt lat="43.46618" lon="5.74608">
        <ele>303.43</ele>
        <time>2019-01-26T09:49:50Z</time>
      </trkpt>
      <trkpt lat="43.46611" lon="5.74611">
        <ele>303.91</ele>
        <time>2019-01-26T09:49:57Z</time>
      </trkpt>
      <trkpt lat="43.46605" lon="5.74615">
        <ele>304.88</ele>
        <time>2019-01-26T09:50:03Z</time>
      </trkpt>
      <trkpt lat="43.46596" lon="5.74619">
        <ele>305.84</ele>
        <time>2019-01-26T09:50:12Z</time>
      </trkpt>
      <trkpt lat="43.46585" lon="5.74624">
        <ele>306.8</ele>
        <time>2019-01-26T09:50:19Z</time>
      </trkpt>
      <trkpt lat="43.46579" lon="5.74627">
        <ele>306.8</ele>
        <time>2019-01-26T09:50:24Z</time>
      </trkpt>
      <trkpt lat="43.46565" lon="5.74631">
        <ele>307.76</ele>
        <time>2019-01-26T09:50:33Z</time>
      </trkpt>
      <trkpt lat="43.46558" lon="5.74632">
        <ele>308.24</ele>
        <time>2019-01-26T09:50:40Z</time>
      </trkpt>
      <trkpt lat="43.46547" lon="5.74636">
        <ele>308.72</ele>
        <time>2019-01-26T09:50:48Z</time>
      </trkpt>
      <trkpt lat="43.46536" lon="5.7464">
        <ele>309.2</ele>
        <time>2019-01-26T09:50:56Z</time>
      </trkpt>
      <trkpt lat="43.46528" lon="5.74644">
        <ele>309.68</ele>
        <time>2019-01-26T09:51:03Z</time>
      </trkpt>
      <trkpt lat="43.46521" lon="5.74646">
        <ele>310.64</ele>
        <time>2019-01-26T09:51:09Z</time>
      </trkpt>
      <trkpt lat="43.46512" lon="5.7465">
        <ele>311.12</ele>
        <time>2019-01-26T09:51:15Z</time>
      </trkpt>
      <trkpt lat="43.46508" lon="5.74652">
        <ele>311.6</ele>
        <time>2019-01-26T09:51:19Z</time>
      </trkpt>
      <trkpt lat="43.46506" lon="5.74653">
        <ele>311.6</ele>
        <time>2019-01-26T09:51:20Z</time>
      </trkpt>
      <trkpt lat="43.46504" lon="5.74653">
        <ele>312.09</ele>
        <time>2019-01-26T09:51:21Z</time>
      </trkpt>
      <trkpt lat="43.46503" lon="5.74654">
        <ele>312.09</ele>
        <time>2019-01-26T09:51:22Z</time>
      </trkpt>
      <trkpt lat="43.46502" lon="5.74654">
        <ele>312.09</ele>
        <time>2019-01-26T09:51:23Z</time>
      </trkpt>
      <trkpt lat="43.46496" lon="5.74656">
        <ele>312.57</ele>
        <time>2019-01-26T09:51:29Z</time>
      </trkpt>
      <trkpt lat="43.46493" lon="5.74656">
        <ele>312.57</ele>
        <time>2019-01-26T09:51:31Z</time>
      </trkpt>
      <trkpt lat="43.46492" lon="5.74656">
        <ele>312.57</ele>
        <time>2019-01-26T09:51:32Z</time>
      </trkpt>
      <trkpt lat="43.4649" lon="5.74656">
        <ele>312.57</ele>
        <time>2019-01-26T09:51:33Z</time>
      </trkpt>
      <trkpt lat="43.46489" lon="5.74657">
        <ele>313.53</ele>
        <time>2019-01-26T09:51:34Z</time>
      </trkpt>
      <trkpt lat="43.46487" lon="5.74658">
        <ele>313.53</ele>
        <time>2019-01-26T09:51:35Z</time>
      </trkpt>
      <trkpt lat="43.46481" lon="5.74661">
        <ele>313.53</ele>
        <time>2019-01-26T09:51:42Z</time>
      </trkpt>
      <trkpt lat="43.46479" lon="5.74661">
        <ele>313.53</ele>
        <time>2019-01-26T09:51:43Z</time>
      </trkpt>
      <trkpt lat="43.46468" lon="5.74665">
        <ele>314.01</ele>
        <time>2019-01-26T09:51:51Z</time>
      </trkpt>
      <trkpt lat="43.46461" lon="5.74667">
        <ele>314.49</ele>
        <time>2019-01-26T09:51:57Z</time>
      </trkpt>
      <trkpt lat="43.4646" lon="5.74668">
        <ele>314.97</ele>
        <time>2019-01-26T09:51:58Z</time>
      </trkpt>
      <trkpt lat="43.46458" lon="5.74668">
        <ele>314.97</ele>
        <time>2019-01-26T09:51:59Z</time>
      </trkpt>
      <trkpt lat="43.46456" lon="5.74669">
        <ele>314.97</ele>
        <time>2019-01-26T09:52:00Z</time>
      </trkpt>
      <trkpt lat="43.46454" lon="5.74669">
        <ele>314.97</ele>
        <time>2019-01-26T09:52:01Z</time>
      </trkpt>
      <trkpt lat="43.46453" lon="5.7467">
        <ele>314.97</ele>
        <time>2019-01-26T09:52:02Z</time>
      </trkpt>
      <trkpt lat="43.46445" lon="5.74674">
        <ele>315.93</ele>
        <time>2019-01-26T09:52:10Z</time>
      </trkpt>
      <trkpt lat="43.46434" lon="5.74676">
        <ele>316.41</ele>
        <time>2019-01-26T09:52:17Z</time>
      </trkpt>
      <trkpt lat="43.46428" lon="5.7468">
        <ele>317.37</ele>
        <time>2019-01-26T09:52:25Z</time>
      </trkpt>
      <trkpt lat="43.46417" lon="5.74685">
        <ele>317.85</ele>
        <time>2019-01-26T09:52:32Z</time>
      </trkpt>
      <trkpt lat="43.46412" lon="5.74692">
        <ele>318.33</ele>
        <time>2019-01-26T09:52:40Z</time>
      </trkpt>
      <trkpt lat="43.46401" lon="5.74697">
        <ele>318.81</ele>
        <time>2019-01-26T09:52:47Z</time>
      </trkpt>
      <trkpt lat="43.46393" lon="5.74704">
        <ele>319.3</ele>
        <time>2019-01-26T09:52:54Z</time>
      </trkpt>
      <trkpt lat="43.46384" lon="5.74705">
        <ele>320.26</ele>
        <time>2019-01-26T09:53:01Z</time>
      </trkpt>
      <trkpt lat="43.46373" lon="5.74711">
        <ele>320.26</ele>
        <time>2019-01-26T09:53:10Z</time>
      </trkpt>
      <trkpt lat="43.46361" lon="5.74714">
        <ele>320.74</ele>
        <time>2019-01-26T09:53:17Z</time>
      </trkpt>
      <trkpt lat="43.46354" lon="5.74718">
        <ele>321.7</ele>
        <time>2019-01-26T09:53:24Z</time>
      </trkpt>
      <trkpt lat="43.46343" lon="5.74719">
        <ele>322.18</ele>
        <time>2019-01-26T09:53:31Z</time>
      </trkpt>
      <trkpt lat="43.46335" lon="5.74722">
        <ele>322.66</ele>
        <time>2019-01-26T09:53:38Z</time>
      </trkpt>
      <trkpt lat="43.46332" lon="5.74723">
        <ele>322.66</ele>
        <time>2019-01-26T09:53:41Z</time>
      </trkpt>
      <trkpt lat="43.4633" lon="5.74724">
        <ele>322.66</ele>
        <time>2019-01-26T09:53:42Z</time>
      </trkpt>
      <trkpt lat="43.46329" lon="5.74724">
        <ele>323.14</ele>
        <time>2019-01-26T09:53:43Z</time>
      </trkpt>
      <trkpt lat="43.46325" lon="5.74725">
        <ele>323.14</ele>
        <time>2019-01-26T09:53:45Z</time>
      </trkpt>
      <trkpt lat="43.46324" lon="5.74725">
        <ele>323.14</ele>
        <time>2019-01-26T09:53:46Z</time>
      </trkpt>
      <trkpt lat="43.46323" lon="5.74725">
        <ele>323.14</ele>
        <time>2019-01-26T09:53:47Z</time>
      </trkpt>
      <trkpt lat="43.46322" lon="5.74726">
        <ele>323.62</ele>
        <time>2019-01-26T09:53:48Z</time>
      </trkpt>
      <trkpt lat="43.46313" lon="5.74728">
        <ele>323.62</ele>
        <time>2019-01-26T09:53:55Z</time>
      </trkpt>
      <trkpt lat="43.46305" lon="5.7473">
        <ele>323.62</ele>
        <time>2019-01-26T09:54:03Z</time>
      </trkpt>
      <trkpt lat="43.46292" lon="5.74735">
        <ele>324.58</ele>
        <time>2019-01-26T09:54:10Z</time>
      </trkpt>
      <trkpt lat="43.46286" lon="5.74739">
        <ele>324.58</ele>
        <time>2019-01-26T09:54:17Z</time>
      </trkpt>
      <trkpt lat="43.4628" lon="5.7474">
        <ele>324.58</ele>
        <time>2019-01-26T09:54:23Z</time>
      </trkpt>
      <trkpt lat="43.46267" lon="5.74744">
        <ele>325.06</ele>
        <time>2019-01-26T09:54:31Z</time>
      </trkpt>
      <trkpt lat="43.46265" lon="5.74745">
        <ele>325.06</ele>
        <time>2019-01-26T09:54:32Z</time>
      </trkpt>
      <trkpt lat="43.46263" lon="5.74746">
        <ele>325.06</ele>
        <time>2019-01-26T09:54:33Z</time>
      </trkpt>
      <trkpt lat="43.46262" lon="5.74747">
        <ele>325.06</ele>
        <time>2019-01-26T09:54:34Z</time>
      </trkpt>
      <trkpt lat="43.46255" lon="5.7475">
        <ele>326.02</ele>
        <time>2019-01-26T09:54:42Z</time>
      </trkpt>
      <trkpt lat="43.46242" lon="5.74754">
        <ele>326.5</ele>
        <time>2019-01-26T09:54:50Z</time>
      </trkpt>
      <trkpt lat="43.46235" lon="5.74758">
        <ele>327.47</ele>
        <time>2019-01-26T09:54:58Z</time>
      </trkpt>
      <trkpt lat="43.46224" lon="5.74762">
        <ele>327.47</ele>
        <time>2019-01-26T09:55:06Z</time>
      </trkpt>
      <trkpt lat="43.46223" lon="5.74762">
        <ele>327.47</ele>
        <time>2019-01-26T09:55:08Z</time>
      </trkpt>
      <trkpt lat="43.46224" lon="5.7476">
        <ele>328.43</ele>
        <time>2019-01-26T09:55:09Z</time>
      </trkpt>
      <trkpt lat="43.46224" lon="5.74757">
        <ele>328.43</ele>
        <time>2019-01-26T09:55:12Z</time>
      </trkpt>
      <trkpt lat="43.4622" lon="5.74758">
        <ele>328.43</ele>
        <time>2019-01-26T09:55:15Z</time>
      </trkpt>
      <trkpt lat="43.46218" lon="5.7476">
        <ele>328.43</ele>
        <time>2019-01-26T09:55:16Z</time>
      </trkpt>
      <trkpt lat="43.46216" lon="5.74762">
        <ele>328.43</ele>
        <time>2019-01-26T09:55:17Z</time>
      </trkpt>
      <trkpt lat="43.46206" lon="5.74773">
        <ele>328.91</ele>
        <time>2019-01-26T09:55:25Z</time>
      </trkpt>
      <trkpt lat="43.46196" lon="5.7478">
        <ele>329.87</ele>
        <time>2019-01-26T09:55:31Z</time>
      </trkpt>
      <trkpt lat="43.46189" lon="5.74785">
        <ele>330.83</ele>
        <time>2019-01-26T09:55:39Z</time>
      </trkpt>
      <trkpt lat="43.46179" lon="5.7479">
        <ele>332.27</ele>
        <time>2019-01-26T09:55:46Z</time>
      </trkpt>
      <trkpt lat="43.46175" lon="5.74791">
        <ele>332.75</ele>
        <time>2019-01-26T09:55:49Z</time>
      </trkpt>
      <trkpt lat="43.46172" lon="5.7479">
        <ele>333.23</ele>
        <time>2019-01-26T09:55:51Z</time>
      </trkpt>
      <trkpt lat="43.46161" lon="5.74795">
        <ele>333.23</ele>
        <time>2019-01-26T09:55:58Z</time>
      </trkpt>
      <trkpt lat="43.46149" lon="5.74797">
        <ele>333.71</ele>
        <time>2019-01-26T09:56:06Z</time>
      </trkpt>
      <trkpt lat="43.4614" lon="5.74796">
        <ele>334.2</ele>
        <time>2019-01-26T09:56:16Z</time>
      </trkpt>
      <trkpt lat="43.46135" lon="5.748">
        <ele>334.2</ele>
        <time>2019-01-26T09:56:25Z</time>
      </trkpt>
      <trkpt lat="43.46133" lon="5.74802">
        <ele>334.2</ele>
        <time>2019-01-26T09:56:33Z</time>
      </trkpt>
      <trkpt lat="43.46133" lon="5.74799">
        <ele>334.2</ele>
        <time>2019-01-26T09:56:35Z</time>
      </trkpt>
      <trkpt lat="43.46132" lon="5.74798">
        <ele>334.2</ele>
        <time>2019-01-26T09:56:36Z</time>
      </trkpt>
      <trkpt lat="43.46128" lon="5.74796">
        <ele>334.2</ele>
        <time>2019-01-26T09:56:44Z</time>
      </trkpt>
      <trkpt lat="43.46124" lon="5.74799">
        <ele>334.2</ele>
        <time>2019-01-26T09:56:52Z</time>
      </trkpt>
      <trkpt lat="43.46124" lon="5.74799">
        <ele>334.2</ele>
        <time>2019-01-26T09:56:55Z</time>
      </trkpt>
      <trkpt lat="43.46124" lon="5.748">
        <ele>334.2</ele>
        <time>2019-01-26T09:56:56Z</time>
      </trkpt>
      <trkpt lat="43.46123" lon="5.74802">
        <ele>334.2</ele>
        <time>2019-01-26T09:56:57Z</time>
      </trkpt>
      <trkpt lat="43.46119" lon="5.74807">
        <ele>334.68</ele>
        <time>2019-01-26T09:57:02Z</time>
      </trkpt>
      <trkpt lat="43.46117" lon="5.7481">
        <ele>334.68</ele>
        <time>2019-01-26T09:57:06Z</time>
      </trkpt>
      <trkpt lat="43.46116" lon="5.74811">
        <ele>335.16</ele>
        <time>2019-01-26T09:57:07Z</time>
      </trkpt>
      <trkpt lat="43.46113" lon="5.74814">
        <ele>335.64</ele>
        <time>2019-01-26T09:57:11Z</time>
      </trkpt>
      <trkpt lat="43.4611" lon="5.74818">
        <ele>336.6</ele>
        <time>2019-01-26T09:57:15Z</time>
      </trkpt>
      <trkpt lat="43.46106" lon="5.74824">
        <ele>337.08</ele>
        <time>2019-01-26T09:57:20Z</time>
      </trkpt>
      <trkpt lat="43.46101" lon="5.74829">
        <ele>338.04</ele>
        <time>2019-01-26T09:57:26Z</time>
      </trkpt>
      <trkpt lat="43.46096" lon="5.74833">
        <ele>339</ele>
        <time>2019-01-26T09:57:31Z</time>
      </trkpt>
      <trkpt lat="43.46092" lon="5.74838">
        <ele>339.48</ele>
        <time>2019-01-26T09:57:36Z</time>
      </trkpt>
      <trkpt lat="43.4609" lon="5.74847">
        <ele>340.44</ele>
        <time>2019-01-26T09:57:42Z</time>
      </trkpt>
      <trkpt lat="43.46089" lon="5.74848">
        <ele>340.44</ele>
        <time>2019-01-26T09:57:43Z</time>
      </trkpt>
      <trkpt lat="43.46084" lon="5.74857">
        <ele>341.41</ele>
        <time>2019-01-26T09:57:50Z</time>
      </trkpt>
      <trkpt lat="43.46083" lon="5.7486">
        <ele>341.89</ele>
        <time>2019-01-26T09:57:52Z</time>
      </trkpt>
      <trkpt lat="43.46079" lon="5.74867">
        <ele>342.37</ele>
        <time>2019-01-26T09:57:59Z</time>
      </trkpt>
      <trkpt lat="43.46076" lon="5.74874">
        <ele>343.33</ele>
        <time>2019-01-26T09:58:03Z</time>
      </trkpt>
      <trkpt lat="43.4607" lon="5.7488">
        <ele>344.29</ele>
        <time>2019-01-26T09:58:10Z</time>
      </trkpt>
      <trkpt lat="43.46062" lon="5.7489">
        <ele>344.77</ele>
        <time>2019-01-26T09:58:18Z</time>
      </trkpt>
      <trkpt lat="43.46056" lon="5.74897">
        <ele>344.77</ele>
        <time>2019-01-26T09:58:25Z</time>
      </trkpt>
      <trkpt lat="43.46056" lon="5.74899">
        <ele>345.73</ele>
        <time>2019-01-26T09:58:27Z</time>
      </trkpt>
      <trkpt lat="43.46054" lon="5.74902">
        <ele>346.69</ele>
        <time>2019-01-26T09:58:29Z</time>
      </trkpt>
      <trkpt lat="43.46048" lon="5.74912">
        <ele>347.17</ele>
        <time>2019-01-26T09:58:36Z</time>
      </trkpt>
      <trkpt lat="43.46046" lon="5.74915">
        <ele>347.65</ele>
        <time>2019-01-26T09:58:38Z</time>
      </trkpt>
      <trkpt lat="43.46039" lon="5.74925">
        <ele>348.62</ele>
        <time>2019-01-26T09:58:44Z</time>
      </trkpt>
      <trkpt lat="43.46037" lon="5.74927">
        <ele>348.62</ele>
        <time>2019-01-26T09:58:47Z</time>
      </trkpt>
      <trkpt lat="43.46032" lon="5.74938">
        <ele>349.58</ele>
        <time>2019-01-26T09:58:56Z</time>
      </trkpt>
      <trkpt lat="43.46026" lon="5.74943">
        <ele>351.02</ele>
        <time>2019-01-26T09:59:01Z</time>
      </trkpt>
      <trkpt lat="43.46014" lon="5.74957">
        <ele>351.5</ele>
        <time>2019-01-26T09:59:11Z</time>
      </trkpt>
      <trkpt lat="43.46012" lon="5.74964">
        <ele>353.9</ele>
        <time>2019-01-26T09:59:18Z</time>
      </trkpt>
      <trkpt lat="43.46009" lon="5.74967">
        <ele>353.9</ele>
        <time>2019-01-26T09:59:21Z</time>
      </trkpt>
      <trkpt lat="43.46004" lon="5.74972">
        <ele>353.9</ele>
        <time>2019-01-26T09:59:26Z</time>
      </trkpt>
      <trkpt lat="43.46001" lon="5.74976">
        <ele>354.38</ele>
        <time>2019-01-26T09:59:29Z</time>
      </trkpt>
      <trkpt lat="43.45997" lon="5.74983">
        <ele>354.86</ele>
        <time>2019-01-26T09:59:34Z</time>
      </trkpt>
      <trkpt lat="43.45996" lon="5.74984">
        <ele>354.86</ele>
        <time>2019-01-26T09:59:35Z</time>
      </trkpt>
      <trkpt lat="43.45994" lon="5.74985">
        <ele>354.86</ele>
        <time>2019-01-26T09:59:36Z</time>
      </trkpt>
      <trkpt lat="43.45992" lon="5.74987">
        <ele>355.83</ele>
        <time>2019-01-26T09:59:37Z</time>
      </trkpt>
      <trkpt lat="43.45987" lon="5.7499">
        <ele>356.31</ele>
        <time>2019-01-26T09:59:43Z</time>
      </trkpt>
      <trkpt lat="43.45986" lon="5.74991">
        <ele>356.79</ele>
        <time>2019-01-26T09:59:44Z</time>
      </trkpt>
      <trkpt lat="43.45981" lon="5.74992">
        <ele>357.27</ele>
        <time>2019-01-26T09:59:50Z</time>
      </trkpt>
      <trkpt lat="43.45975" lon="5.74996">
        <ele>358.23</ele>
        <time>2019-01-26T09:59:55Z</time>
      </trkpt>
      <trkpt lat="43.45974" lon="5.74997">
        <ele>358.71</ele>
        <time>2019-01-26T09:59:56Z</time>
      </trkpt>
      <trkpt lat="43.45972" lon="5.74998">
        <ele>358.71</ele>
        <time>2019-01-26T09:59:57Z</time>
      </trkpt>
      <trkpt lat="43.45968" lon="5.75002">
        <ele>359.67</ele>
        <time>2019-01-26T10:00:01Z</time>
      </trkpt>
      <trkpt lat="43.45967" lon="5.75003">
        <ele>359.67</ele>
        <time>2019-01-26T10:00:02Z</time>
      </trkpt>
      <trkpt lat="43.4596" lon="5.75008">
        <ele>360.63</ele>
        <time>2019-01-26T10:00:08Z</time>
      </trkpt>
      <trkpt lat="43.45953" lon="5.75013">
        <ele>362.07</ele>
        <time>2019-01-26T10:00:14Z</time>
      </trkpt>
      <trkpt lat="43.45945" lon="5.75018">
        <ele>363.04</ele>
        <time>2019-01-26T10:00:22Z</time>
      </trkpt>
      <trkpt lat="43.45939" lon="5.75023">
        <ele>364</ele>
        <time>2019-01-26T10:00:28Z</time>
      </trkpt>
      <trkpt lat="43.45931" lon="5.75029">
        <ele>364.48</ele>
        <time>2019-01-26T10:00:36Z</time>
      </trkpt>
      <trkpt lat="43.45924" lon="5.75036">
        <ele>364.96</ele>
        <time>2019-01-26T10:00:43Z</time>
      </trkpt>
      <trkpt lat="43.45915" lon="5.75045">
        <ele>364.96</ele>
        <time>2019-01-26T10:00:50Z</time>
      </trkpt>
      <trkpt lat="43.45906" lon="5.75053">
        <ele>364.96</ele>
        <time>2019-01-26T10:00:57Z</time>
      </trkpt>
      <trkpt lat="43.45899" lon="5.75059">
        <ele>365.44</ele>
        <time>2019-01-26T10:01:05Z</time>
      </trkpt>
      <trkpt lat="43.45896" lon="5.75061">
        <ele>365.44</ele>
        <time>2019-01-26T10:01:08Z</time>
      </trkpt>
      <trkpt lat="43.45894" lon="5.75062">
        <ele>365.44</ele>
        <time>2019-01-26T10:01:09Z</time>
      </trkpt>
      <trkpt lat="43.45892" lon="5.75062">
        <ele>365.44</ele>
        <time>2019-01-26T10:01:10Z</time>
      </trkpt>
      <trkpt lat="43.4589" lon="5.75063">
        <ele>365.44</ele>
        <time>2019-01-26T10:01:11Z</time>
      </trkpt>
      <trkpt lat="43.45888" lon="5.75063">
        <ele>365.44</ele>
        <time>2019-01-26T10:01:12Z</time>
      </trkpt>
      <trkpt lat="43.45887" lon="5.75063">
        <ele>365.44</ele>
        <time>2019-01-26T10:01:13Z</time>
      </trkpt>
      <trkpt lat="43.4588" lon="5.75065">
        <ele>365.92</ele>
        <time>2019-01-26T10:01:18Z</time>
      </trkpt>
      <trkpt lat="43.45874" lon="5.75069">
        <ele>366.4</ele>
        <time>2019-01-26T10:01:24Z</time>
      </trkpt>
      <trkpt lat="43.45871" lon="5.75069">
        <ele>366.4</ele>
        <time>2019-01-26T10:01:26Z</time>
      </trkpt>
      <trkpt lat="43.45863" lon="5.75068">
        <ele>366.88</ele>
        <time>2019-01-26T10:01:32Z</time>
      </trkpt>
      <trkpt lat="43.45858" lon="5.7507">
        <ele>367.36</ele>
        <time>2019-01-26T10:01:37Z</time>
      </trkpt>
      <trkpt lat="43.45846" lon="5.75078">
        <ele>368.32</ele>
        <time>2019-01-26T10:01:45Z</time>
      </trkpt>
      <trkpt lat="43.45842" lon="5.75087">
        <ele>369.28</ele>
        <time>2019-01-26T10:01:52Z</time>
      </trkpt>
      <trkpt lat="43.45841" lon="5.75089">
        <ele>369.28</ele>
        <time>2019-01-26T10:01:53Z</time>
      </trkpt>
      <trkpt lat="43.45836" lon="5.75098">
        <ele>369.76</ele>
        <time>2019-01-26T10:01:59Z</time>
      </trkpt>
      <trkpt lat="43.45831" lon="5.75105">
        <ele>371.21</ele>
        <time>2019-01-26T10:02:05Z</time>
      </trkpt>
      <trkpt lat="43.45824" lon="5.75115">
        <ele>371.21</ele>
        <time>2019-01-26T10:02:13Z</time>
      </trkpt>
      <trkpt lat="43.45819" lon="5.75121">
        <ele>371.69</ele>
        <time>2019-01-26T10:02:20Z</time>
      </trkpt>
      <trkpt lat="43.45808" lon="5.75131">
        <ele>372.65</ele>
        <time>2019-01-26T10:02:27Z</time>
      </trkpt>
      <trkpt lat="43.45802" lon="5.75137">
        <ele>373.13</ele>
        <time>2019-01-26T10:02:35Z</time>
      </trkpt>
      <trkpt lat="43.45792" lon="5.75143">
        <ele>373.61</ele>
        <time>2019-01-26T10:02:42Z</time>
      </trkpt>
      <trkpt lat="43.45782" lon="5.75152">
        <ele>375.05</ele>
        <time>2019-01-26T10:02:51Z</time>
      </trkpt>
      <trkpt lat="43.4578" lon="5.75153">
        <ele>375.05</ele>
        <time>2019-01-26T10:02:52Z</time>
      </trkpt>
      <trkpt lat="43.45779" lon="5.75154">
        <ele>375.53</ele>
        <time>2019-01-26T10:02:53Z</time>
      </trkpt>
      <trkpt lat="43.45777" lon="5.75155">
        <ele>375.53</ele>
        <time>2019-01-26T10:02:54Z</time>
      </trkpt>
      <trkpt lat="43.45769" lon="5.75161">
        <ele>376.49</ele>
        <time>2019-01-26T10:03:02Z</time>
      </trkpt>
      <trkpt lat="43.45765" lon="5.75164">
        <ele>376.49</ele>
        <time>2019-01-26T10:03:05Z</time>
      </trkpt>
      <trkpt lat="43.45764" lon="5.75165">
        <ele>376.97</ele>
        <time>2019-01-26T10:03:06Z</time>
      </trkpt>
      <trkpt lat="43.45757" lon="5.75169">
        <ele>376.97</ele>
        <time>2019-01-26T10:03:12Z</time>
      </trkpt>
      <trkpt lat="43.45751" lon="5.75177">
        <ele>377.45</ele>
        <time>2019-01-26T10:03:19Z</time>
      </trkpt>
      <trkpt lat="43.45748" lon="5.75183">
        <ele>377.94</ele>
        <time>2019-01-26T10:03:23Z</time>
      </trkpt>
      <trkpt lat="43.45743" lon="5.75194">
        <ele>378.9</ele>
        <time>2019-01-26T10:03:30Z</time>
      </trkpt>
      <trkpt lat="43.45739" lon="5.75208">
        <ele>379.86</ele>
        <time>2019-01-26T10:03:38Z</time>
      </trkpt>
      <trkpt lat="43.45739" lon="5.7521">
        <ele>379.86</ele>
        <time>2019-01-26T10:03:39Z</time>
      </trkpt>
      <trkpt lat="43.45739" lon="5.75212">
        <ele>379.86</ele>
        <time>2019-01-26T10:03:40Z</time>
      </trkpt>
      <trkpt lat="43.45739" lon="5.75213">
        <ele>380.34</ele>
        <time>2019-01-26T10:03:41Z</time>
      </trkpt>
      <trkpt lat="43.45739" lon="5.75218">
        <ele>380.82</ele>
        <time>2019-01-26T10:03:45Z</time>
      </trkpt>
      <trkpt lat="43.45739" lon="5.75222">
        <ele>380.82</ele>
        <time>2019-01-26T10:03:47Z</time>
      </trkpt>
      <trkpt lat="43.45739" lon="5.75235">
        <ele>381.78</ele>
        <time>2019-01-26T10:03:54Z</time>
      </trkpt>
      <trkpt lat="43.45738" lon="5.75239">
        <ele>382.26</ele>
        <time>2019-01-26T10:03:58Z</time>
      </trkpt>
      <trkpt lat="43.45738" lon="5.75241">
        <ele>382.74</ele>
        <time>2019-01-26T10:03:59Z</time>
      </trkpt>
      <trkpt lat="43.45735" lon="5.75258">
        <ele>383.22</ele>
        <time>2019-01-26T10:04:06Z</time>
      </trkpt>
      <trkpt lat="43.45732" lon="5.75273">
        <ele>384.66</ele>
        <time>2019-01-26T10:04:16Z</time>
      </trkpt>
      <trkpt lat="43.45728" lon="5.75286">
        <ele>385.15</ele>
        <time>2019-01-26T10:04:23Z</time>
      </trkpt>
      <trkpt lat="43.45726" lon="5.75296">
        <ele>385.63</ele>
        <time>2019-01-26T10:04:30Z</time>
      </trkpt>
      <trkpt lat="43.45721" lon="5.7531">
        <ele>386.11</ele>
        <time>2019-01-26T10:04:37Z</time>
      </trkpt>
      <trkpt lat="43.45716" lon="5.75319">
        <ele>386.59</ele>
        <time>2019-01-26T10:04:45Z</time>
      </trkpt>
      <trkpt lat="43.45715" lon="5.7532">
        <ele>386.59</ele>
        <time>2019-01-26T10:04:46Z</time>
      </trkpt>
      <trkpt lat="43.45713" lon="5.75321">
        <ele>386.59</ele>
        <time>2019-01-26T10:04:47Z</time>
      </trkpt>
      <trkpt lat="43.45712" lon="5.75323">
        <ele>386.59</ele>
        <time>2019-01-26T10:04:48Z</time>
      </trkpt>
      <trkpt lat="43.4571" lon="5.75324">
        <ele>386.59</ele>
        <time>2019-01-26T10:04:49Z</time>
      </trkpt>
      <trkpt lat="43.45709" lon="5.75324">
        <ele>387.55</ele>
        <time>2019-01-26T10:04:50Z</time>
      </trkpt>
      <trkpt lat="43.45707" lon="5.75325">
        <ele>387.55</ele>
        <time>2019-01-26T10:04:51Z</time>
      </trkpt>
      <trkpt lat="43.45701" lon="5.7533">
        <ele>388.03</ele>
        <time>2019-01-26T10:04:58Z</time>
      </trkpt>
      <trkpt lat="43.45698" lon="5.75332">
        <ele>388.99</ele>
        <time>2019-01-26T10:05:04Z</time>
      </trkpt>
      <trkpt lat="43.45698" lon="5.75333">
        <ele>388.99</ele>
        <time>2019-01-26T10:05:13Z</time>
      </trkpt>
      <trkpt lat="43.45697" lon="5.75332">
        <ele>388.99</ele>
        <time>2019-01-26T10:05:27Z</time>
      </trkpt>
      <trkpt lat="43.45695" lon="5.75331">
        <ele>388.99</ele>
        <time>2019-01-26T10:05:34Z</time>
      </trkpt>
      <trkpt lat="43.45695" lon="5.75328">
        <ele>388.99</ele>
        <time>2019-01-26T10:05:51Z</time>
      </trkpt>
      <trkpt lat="43.45695" lon="5.75322">
        <ele>388.99</ele>
        <time>2019-01-26T10:06:09Z</time>
      </trkpt>
      <trkpt lat="43.45694" lon="5.75326">
        <ele>388.99</ele>
        <time>2019-01-26T10:06:31Z</time>
      </trkpt>
      <trkpt lat="43.45692" lon="5.75328">
        <ele>388.99</ele>
        <time>2019-01-26T10:06:43Z</time>
      </trkpt>
      <trkpt lat="43.45695" lon="5.75326">
        <ele>388.99</ele>
        <time>2019-01-26T10:07:06Z</time>
      </trkpt>
      <trkpt lat="43.45693" lon="5.75328">
        <ele>388.99</ele>
        <time>2019-01-26T10:07:27Z</time>
      </trkpt>
      <trkpt lat="43.45694" lon="5.75329">
        <ele>388.99</ele>
        <time>2019-01-26T10:07:37Z</time>
      </trkpt>
      <trkpt lat="43.45695" lon="5.75334">
        <ele>388.99</ele>
        <time>2019-01-26T10:07:43Z</time>
      </trkpt>
      <trkpt lat="43.45695" lon="5.75336">
        <ele>388.99</ele>
        <time>2019-01-26T10:07:44Z</time>
      </trkpt>
      <trkpt lat="43.45696" lon="5.75337">
        <ele>388.99</ele>
        <time>2019-01-26T10:07:45Z</time>
      </trkpt>
      <trkpt lat="43.45694" lon="5.75343">
        <ele>388.99</ele>
        <time>2019-01-26T10:07:50Z</time>
      </trkpt>
      <trkpt lat="43.45694" lon="5.75345">
        <ele>388.99</ele>
        <time>2019-01-26T10:07:51Z</time>
      </trkpt>
      <trkpt lat="43.45693" lon="5.75347">
        <ele>388.99</ele>
        <time>2019-01-26T10:07:52Z</time>
      </trkpt>
      <trkpt lat="43.45692" lon="5.75349">
        <ele>388.99</ele>
        <time>2019-01-26T10:07:53Z</time>
      </trkpt>
      <trkpt lat="43.45691" lon="5.75351">
        <ele>388.99</ele>
        <time>2019-01-26T10:07:54Z</time>
      </trkpt>
      <trkpt lat="43.45688" lon="5.75364">
        <ele>388.99</ele>
        <time>2019-01-26T10:08:02Z</time>
      </trkpt>
      <trkpt lat="43.45687" lon="5.75368">
        <ele>388.99</ele>
        <time>2019-01-26T10:08:05Z</time>
      </trkpt>
      <trkpt lat="43.45686" lon="5.7537">
        <ele>388.99</ele>
        <time>2019-01-26T10:08:06Z</time>
      </trkpt>
      <trkpt lat="43.45686" lon="5.75372">
        <ele>388.99</ele>
        <time>2019-01-26T10:08:07Z</time>
      </trkpt>
      <trkpt lat="43.45686" lon="5.75373">
        <ele>388.99</ele>
        <time>2019-01-26T10:08:08Z</time>
      </trkpt>
      <trkpt lat="43.45685" lon="5.75376">
        <ele>388.99</ele>
        <time>2019-01-26T10:08:09Z</time>
      </trkpt>
      <trkpt lat="43.45684" lon="5.75378">
        <ele>388.99</ele>
        <time>2019-01-26T10:08:10Z</time>
      </trkpt>
      <trkpt lat="43.45684" lon="5.75384">
        <ele>387.55</ele>
        <time>2019-01-26T10:08:13Z</time>
      </trkpt>
      <trkpt lat="43.45688" lon="5.75392">
        <ele>387.55</ele>
        <time>2019-01-26T10:08:22Z</time>
      </trkpt>
      <trkpt lat="43.45689" lon="5.75393">
        <ele>387.55</ele>
        <time>2019-01-26T10:08:23Z</time>
      </trkpt>
      <trkpt lat="43.45691" lon="5.75393">
        <ele>387.55</ele>
        <time>2019-01-26T10:08:24Z</time>
      </trkpt>
      <trkpt lat="43.45699" lon="5.75394">
        <ele>387.55</ele>
        <time>2019-01-26T10:08:30Z</time>
      </trkpt>
      <trkpt lat="43.45709" lon="5.75394">
        <ele>387.55</ele>
        <time>2019-01-26T10:08:39Z</time>
      </trkpt>
      <trkpt lat="43.45719" lon="5.75393">
        <ele>388.99</ele>
        <time>2019-01-26T10:08:46Z</time>
      </trkpt>
      <trkpt lat="43.4572" lon="5.75392">
        <ele>388.99</ele>
        <time>2019-01-26T10:08:47Z</time>
      </trkpt>
      <trkpt lat="43.4573" lon="5.75397">
        <ele>389.47</ele>
        <time>2019-01-26T10:08:55Z</time>
      </trkpt>
      <trkpt lat="43.45737" lon="5.75406">
        <ele>390.43</ele>
        <time>2019-01-26T10:09:00Z</time>
      </trkpt>
      <trkpt lat="43.45738" lon="5.75407">
        <ele>390.43</ele>
        <time>2019-01-26T10:09:01Z</time>
      </trkpt>
      <trkpt lat="43.4574" lon="5.75415">
        <ele>391.39</ele>
        <time>2019-01-26T10:09:07Z</time>
      </trkpt>
      <trkpt lat="43.4574" lon="5.75418">
        <ele>391.39</ele>
        <time>2019-01-26T10:09:08Z</time>
      </trkpt>
      <trkpt lat="43.45739" lon="5.7542">
        <ele>391.39</ele>
        <time>2019-01-26T10:09:09Z</time>
      </trkpt>
      <trkpt lat="43.45739" lon="5.75423">
        <ele>391.39</ele>
        <time>2019-01-26T10:09:10Z</time>
      </trkpt>
      <trkpt lat="43.45738" lon="5.75425">
        <ele>391.87</ele>
        <time>2019-01-26T10:09:11Z</time>
      </trkpt>
      <trkpt lat="43.45737" lon="5.75427">
        <ele>391.87</ele>
        <time>2019-01-26T10:09:12Z</time>
      </trkpt>
      <trkpt lat="43.45735" lon="5.75438">
        <ele>393.32</ele>
        <time>2019-01-26T10:09:20Z</time>
      </trkpt>
      <trkpt lat="43.4573" lon="5.7545">
        <ele>393.8</ele>
        <time>2019-01-26T10:09:27Z</time>
      </trkpt>
      <trkpt lat="43.45726" lon="5.75461">
        <ele>395.24</ele>
        <time>2019-01-26T10:09:35Z</time>
      </trkpt>
      <trkpt lat="43.45724" lon="5.75468">
        <ele>396.2</ele>
        <time>2019-01-26T10:09:40Z</time>
      </trkpt>
      <trkpt lat="43.45722" lon="5.75471">
        <ele>396.2</ele>
        <time>2019-01-26T10:09:42Z</time>
      </trkpt>
      <trkpt lat="43.45718" lon="5.75473">
        <ele>396.2</ele>
        <time>2019-01-26T10:09:44Z</time>
      </trkpt>
      <trkpt lat="43.45714" lon="5.75477">
        <ele>396.2</ele>
        <time>2019-01-26T10:09:46Z</time>
      </trkpt>
      <trkpt lat="43.45716" lon="5.75484">
        <ele>397.64</ele>
        <time>2019-01-26T10:09:51Z</time>
      </trkpt>
      <trkpt lat="43.45717" lon="5.75486">
        <ele>397.64</ele>
        <time>2019-01-26T10:09:52Z</time>
      </trkpt>
      <trkpt lat="43.45716" lon="5.75488">
        <ele>398.12</ele>
        <time>2019-01-26T10:09:53Z</time>
      </trkpt>
      <trkpt lat="43.45714" lon="5.75497">
        <ele>398.6</ele>
        <time>2019-01-26T10:09:58Z</time>
      </trkpt>
      <trkpt lat="43.45711" lon="5.75506">
        <ele>400.05</ele>
        <time>2019-01-26T10:10:03Z</time>
      </trkpt>
      <trkpt lat="43.45711" lon="5.75513">
        <ele>400.53</ele>
        <time>2019-01-26T10:10:09Z</time>
      </trkpt>
      <trkpt lat="43.4571" lon="5.75516">
        <ele>400.53</ele>
        <time>2019-01-26T10:10:10Z</time>
      </trkpt>
      <trkpt lat="43.4571" lon="5.75518">
        <ele>401.01</ele>
        <time>2019-01-26T10:10:11Z</time>
      </trkpt>
      <trkpt lat="43.45707" lon="5.75527">
        <ele>401.97</ele>
        <time>2019-01-26T10:10:18Z</time>
      </trkpt>
      <trkpt lat="43.45706" lon="5.75539">
        <ele>402.93</ele>
        <time>2019-01-26T10:10:24Z</time>
      </trkpt>
      <trkpt lat="43.45706" lon="5.75543">
        <ele>403.41</ele>
        <time>2019-01-26T10:10:28Z</time>
      </trkpt>
      <trkpt lat="43.45705" lon="5.75545">
        <ele>403.41</ele>
        <time>2019-01-26T10:10:29Z</time>
      </trkpt>
      <trkpt lat="43.45705" lon="5.75547">
        <ele>403.89</ele>
        <time>2019-01-26T10:10:30Z</time>
      </trkpt>
      <trkpt lat="43.45704" lon="5.75549">
        <ele>403.89</ele>
        <time>2019-01-26T10:10:31Z</time>
      </trkpt>
      <trkpt lat="43.45704" lon="5.75552">
        <ele>403.89</ele>
        <time>2019-01-26T10:10:32Z</time>
      </trkpt>
      <trkpt lat="43.45704" lon="5.75554">
        <ele>403.89</ele>
        <time>2019-01-26T10:10:33Z</time>
      </trkpt>
      <trkpt lat="43.45704" lon="5.75564">
        <ele>405.33</ele>
        <time>2019-01-26T10:10:41Z</time>
      </trkpt>
      <trkpt lat="43.45704" lon="5.75574">
        <ele>406.29</ele>
        <time>2019-01-26T10:10:47Z</time>
      </trkpt>
      <trkpt lat="43.45704" lon="5.75575">
        <ele>406.77</ele>
        <time>2019-01-26T10:10:48Z</time>
      </trkpt>
      <trkpt lat="43.45704" lon="5.75579">
        <ele>406.77</ele>
        <time>2019-01-26T10:10:50Z</time>
      </trkpt>
      <trkpt lat="43.45704" lon="5.75582">
        <ele>407.74</ele>
        <time>2019-01-26T10:10:51Z</time>
      </trkpt>
      <trkpt lat="43.45703" lon="5.75584">
        <ele>407.74</ele>
        <time>2019-01-26T10:10:52Z</time>
      </trkpt>
      <trkpt lat="43.45703" lon="5.75586">
        <ele>407.74</ele>
        <time>2019-01-26T10:10:53Z</time>
      </trkpt>
      <trkpt lat="43.45702" lon="5.75596">
        <ele>409.18</ele>
        <time>2019-01-26T10:11:00Z</time>
      </trkpt>
      <trkpt lat="43.45701" lon="5.75606">
        <ele>409.66</ele>
        <time>2019-01-26T10:11:06Z</time>
      </trkpt>
      <trkpt lat="43.457" lon="5.75619">
        <ele>410.62</ele>
        <time>2019-01-26T10:11:13Z</time>
      </trkpt>
      <trkpt lat="43.45699" lon="5.75629">
        <ele>411.58</ele>
        <time>2019-01-26T10:11:20Z</time>
      </trkpt>
      <trkpt lat="43.45698" lon="5.75642">
        <ele>412.54</ele>
        <time>2019-01-26T10:11:26Z</time>
      </trkpt>
      <trkpt lat="43.45698" lon="5.75647">
        <ele>413.02</ele>
        <time>2019-01-26T10:11:30Z</time>
      </trkpt>
      <trkpt lat="43.45698" lon="5.75648">
        <ele>413.5</ele>
        <time>2019-01-26T10:11:31Z</time>
      </trkpt>
      <trkpt lat="43.45698" lon="5.7565">
        <ele>413.5</ele>
        <time>2019-01-26T10:11:32Z</time>
      </trkpt>
      <trkpt lat="43.45698" lon="5.75653">
        <ele>413.5</ele>
        <time>2019-01-26T10:11:33Z</time>
      </trkpt>
      <trkpt lat="43.45698" lon="5.75656">
        <ele>413.98</ele>
        <time>2019-01-26T10:11:34Z</time>
      </trkpt>
      <trkpt lat="43.45697" lon="5.75658">
        <ele>413.98</ele>
        <time>2019-01-26T10:11:35Z</time>
      </trkpt>
      <trkpt lat="43.45697" lon="5.75659">
        <ele>413.98</ele>
        <time>2019-01-26T10:11:36Z</time>
      </trkpt>
      <trkpt lat="43.45694" lon="5.75668">
        <ele>415.43</ele>
        <time>2019-01-26T10:11:43Z</time>
      </trkpt>
      <trkpt lat="43.45692" lon="5.75675">
        <ele>416.39</ele>
        <time>2019-01-26T10:11:49Z</time>
      </trkpt>
      <trkpt lat="43.45689" lon="5.75684">
        <ele>417.83</ele>
        <time>2019-01-26T10:11:55Z</time>
      </trkpt>
      <trkpt lat="43.45685" lon="5.75697">
        <ele>418.79</ele>
        <time>2019-01-26T10:12:02Z</time>
      </trkpt>
      <trkpt lat="43.45684" lon="5.75704">
        <ele>419.75</ele>
        <time>2019-01-26T10:12:08Z</time>
      </trkpt>
      <trkpt lat="43.45684" lon="5.75706">
        <ele>419.75</ele>
        <time>2019-01-26T10:12:09Z</time>
      </trkpt>
      <trkpt lat="43.45683" lon="5.75708">
        <ele>419.75</ele>
        <time>2019-01-26T10:12:10Z</time>
      </trkpt>
      <trkpt lat="43.45683" lon="5.75711">
        <ele>420.23</ele>
        <time>2019-01-26T10:12:11Z</time>
      </trkpt>
      <trkpt lat="43.45682" lon="5.75713">
        <ele>419.75</ele>
        <time>2019-01-26T10:12:12Z</time>
      </trkpt>
      <trkpt lat="43.45682" lon="5.75714">
        <ele>419.75</ele>
        <time>2019-01-26T10:12:13Z</time>
      </trkpt>
      <trkpt lat="43.4568" lon="5.75727">
        <ele>421.19</ele>
        <time>2019-01-26T10:12:21Z</time>
      </trkpt>
      <trkpt lat="43.45678" lon="5.75736">
        <ele>422.16</ele>
        <time>2019-01-26T10:12:27Z</time>
      </trkpt>
      <trkpt lat="43.45677" lon="5.7575">
        <ele>423.12</ele>
        <time>2019-01-26T10:12:34Z</time>
      </trkpt>
      <trkpt lat="43.45676" lon="5.75764">
        <ele>423.6</ele>
        <time>2019-01-26T10:12:42Z</time>
      </trkpt>
      <trkpt lat="43.45676" lon="5.75773">
        <ele>424.56</ele>
        <time>2019-01-26T10:12:48Z</time>
      </trkpt>
      <trkpt lat="43.45676" lon="5.75786">
        <ele>424.56</ele>
        <time>2019-01-26T10:12:55Z</time>
      </trkpt>
      <trkpt lat="43.45675" lon="5.75795">
        <ele>425.04</ele>
        <time>2019-01-26T10:13:02Z</time>
      </trkpt>
      <trkpt lat="43.45674" lon="5.75797">
        <ele>425.52</ele>
        <time>2019-01-26T10:13:09Z</time>
      </trkpt>
      <trkpt lat="43.45674" lon="5.75796">
        <ele>424.08</ele>
        <time>2019-01-26T10:13:16Z</time>
      </trkpt>
      <trkpt lat="43.45674" lon="5.75797">
        <ele>424.08</ele>
        <time>2019-01-26T10:13:17Z</time>
      </trkpt>
      <trkpt lat="43.45676" lon="5.75796">
        <ele>424.08</ele>
        <time>2019-01-26T10:13:33Z</time>
      </trkpt>
      <trkpt lat="43.45677" lon="5.75794">
        <ele>424.08</ele>
        <time>2019-01-26T10:13:45Z</time>
      </trkpt>
      <trkpt lat="43.45678" lon="5.75791">
        <ele>424.08</ele>
        <time>2019-01-26T10:13:58Z</time>
      </trkpt>
      <trkpt lat="43.45676" lon="5.7579">
        <ele>423.6</ele>
        <time>2019-01-26T10:14:11Z</time>
      </trkpt>
      <trkpt lat="43.45675" lon="5.75793">
        <ele>423.6</ele>
        <time>2019-01-26T10:14:34Z</time>
      </trkpt>
      <trkpt lat="43.45675" lon="5.75794">
        <ele>423.6</ele>
        <time>2019-01-26T10:14:47Z</time>
      </trkpt>
      <trkpt lat="43.45675" lon="5.75795">
        <ele>423.6</ele>
        <time>2019-01-26T10:15:07Z</time>
      </trkpt>
      <trkpt lat="43.45676" lon="5.75795">
        <ele>423.6</ele>
        <time>2019-01-26T10:15:24Z</time>
      </trkpt>
      <trkpt lat="43.45675" lon="5.75795">
        <ele>423.6</ele>
        <time>2019-01-26T10:15:36Z</time>
      </trkpt>
      <trkpt lat="43.45674" lon="5.75795">
        <ele>423.6</ele>
        <time>2019-01-26T10:15:54Z</time>
      </trkpt>
      <trkpt lat="43.45673" lon="5.75794">
        <ele>423.6</ele>
        <time>2019-01-26T10:16:09Z</time>
      </trkpt>
      <trkpt lat="43.45672" lon="5.75794">
        <ele>423.6</ele>
        <time>2019-01-26T10:16:26Z</time>
      </trkpt>
      <trkpt lat="43.45672" lon="5.75795">
        <ele>423.6</ele>
        <time>2019-01-26T10:16:43Z</time>
      </trkpt>
      <trkpt lat="43.45675" lon="5.75793">
        <ele>423.6</ele>
        <time>2019-01-26T10:16:57Z</time>
      </trkpt>
      <trkpt lat="43.45675" lon="5.75792">
        <ele>423.6</ele>
        <time>2019-01-26T10:17:14Z</time>
      </trkpt>
      <trkpt lat="43.45674" lon="5.75792">
        <ele>423.6</ele>
        <time>2019-01-26T10:17:25Z</time>
      </trkpt>
      <trkpt lat="43.45675" lon="5.75792">
        <ele>425.52</ele>
        <time>2019-01-26T10:17:38Z</time>
      </trkpt>
      <trkpt lat="43.45673" lon="5.75793">
        <ele>424.56</ele>
        <time>2019-01-26T10:17:45Z</time>
      </trkpt>
      <trkpt lat="43.45672" lon="5.75793">
        <ele>426</ele>
        <time>2019-01-26T10:17:49Z</time>
      </trkpt>
      <trkpt lat="43.45677" lon="5.75793">
        <ele>424.08</ele>
        <time>2019-01-26T10:17:56Z</time>
      </trkpt>
      <trkpt lat="43.45677" lon="5.75793">
        <ele>425.52</ele>
        <time>2019-01-26T10:18:01Z</time>
      </trkpt>
      <trkpt lat="43.45675" lon="5.75795">
        <ele>425.52</ele>
        <time>2019-01-26T10:18:07Z</time>
      </trkpt>
      <trkpt lat="43.45676" lon="5.75794">
        <ele>425.52</ele>
        <time>2019-01-26T10:18:13Z</time>
      </trkpt>
      <trkpt lat="43.45677" lon="5.75795">
        <ele>425.52</ele>
        <time>2019-01-26T10:18:14Z</time>
      </trkpt>
      <trkpt lat="43.45683" lon="5.75805">
        <ele>425.52</ele>
        <time>2019-01-26T10:18:22Z</time>
      </trkpt>
      <trkpt lat="43.45689" lon="5.75811">
        <ele>424.56</ele>
        <time>2019-01-26T10:18:29Z</time>
      </trkpt>
      <trkpt lat="43.457" lon="5.75818">
        <ele>424.56</ele>
        <time>2019-01-26T10:18:37Z</time>
      </trkpt>
      <trkpt lat="43.45711" lon="5.75824">
        <ele>424.56</ele>
        <time>2019-01-26T10:18:45Z</time>
      </trkpt>
      <trkpt lat="43.45717" lon="5.75826">
        <ele>426</ele>
        <time>2019-01-26T10:18:53Z</time>
      </trkpt>
      <trkpt lat="43.45726" lon="5.75835">
        <ele>426.48</ele>
        <time>2019-01-26T10:19:02Z</time>
      </trkpt>
      <trkpt lat="43.45735" lon="5.7585">
        <ele>426.48</ele>
        <time>2019-01-26T10:19:11Z</time>
      </trkpt>
      <trkpt lat="43.45739" lon="5.75859">
        <ele>426.96</ele>
        <time>2019-01-26T10:19:17Z</time>
      </trkpt>
      <trkpt lat="43.45741" lon="5.75861">
        <ele>426.96</ele>
        <time>2019-01-26T10:19:25Z</time>
      </trkpt>
      <trkpt lat="43.45737" lon="5.75859">
        <ele>426.96</ele>
        <time>2019-01-26T10:19:39Z</time>
      </trkpt>
      <trkpt lat="43.45741" lon="5.7586">
        <ele>426.96</ele>
        <time>2019-01-26T10:19:50Z</time>
      </trkpt>
      <trkpt lat="43.45744" lon="5.75861">
        <ele>426.96</ele>
        <time>2019-01-26T10:19:58Z</time>
      </trkpt>
      <trkpt lat="43.45746" lon="5.75862">
        <ele>426.96</ele>
        <time>2019-01-26T10:20:08Z</time>
      </trkpt>
      <trkpt lat="43.45749" lon="5.75869">
        <ele>426.96</ele>
        <time>2019-01-26T10:20:14Z</time>
      </trkpt>
      <trkpt lat="43.45752" lon="5.7588">
        <ele>425.52</ele>
        <time>2019-01-26T10:20:21Z</time>
      </trkpt>
      <trkpt lat="43.45751" lon="5.75884">
        <ele>425.04</ele>
        <time>2019-01-26T10:20:24Z</time>
      </trkpt>
      <trkpt lat="43.45751" lon="5.75886">
        <ele>425.04</ele>
        <time>2019-01-26T10:20:25Z</time>
      </trkpt>
      <trkpt lat="43.45747" lon="5.75893">
        <ele>425.04</ele>
        <time>2019-01-26T10:20:29Z</time>
      </trkpt>
      <trkpt lat="43.45745" lon="5.75895">
        <ele>424.56</ele>
        <time>2019-01-26T10:20:30Z</time>
      </trkpt>
      <trkpt lat="43.45744" lon="5.75897">
        <ele>424.56</ele>
        <time>2019-01-26T10:20:31Z</time>
      </trkpt>
      <trkpt lat="43.45743" lon="5.75899">
        <ele>424.56</ele>
        <time>2019-01-26T10:20:32Z</time>
      </trkpt>
      <trkpt lat="43.45743" lon="5.75901">
        <ele>424.08</ele>
        <time>2019-01-26T10:20:33Z</time>
      </trkpt>
      <trkpt lat="43.45742" lon="5.75902">
        <ele>424.08</ele>
        <time>2019-01-26T10:20:34Z</time>
      </trkpt>
      <trkpt lat="43.45742" lon="5.75903">
        <ele>424.08</ele>
        <time>2019-01-26T10:20:35Z</time>
      </trkpt>
      <trkpt lat="43.45741" lon="5.75906">
        <ele>424.08</ele>
        <time>2019-01-26T10:20:37Z</time>
      </trkpt>
      <trkpt lat="43.4574" lon="5.75907">
        <ele>423.6</ele>
        <time>2019-01-26T10:20:38Z</time>
      </trkpt>
      <trkpt lat="43.45739" lon="5.75916">
        <ele>423.12</ele>
        <time>2019-01-26T10:20:45Z</time>
      </trkpt>
      <trkpt lat="43.45738" lon="5.7592">
        <ele>423.12</ele>
        <time>2019-01-26T10:20:48Z</time>
      </trkpt>
      <trkpt lat="43.45738" lon="5.75922">
        <ele>423.12</ele>
        <time>2019-01-26T10:20:49Z</time>
      </trkpt>
      <trkpt lat="43.45738" lon="5.75925">
        <ele>423.12</ele>
        <time>2019-01-26T10:20:50Z</time>
      </trkpt>
      <trkpt lat="43.45737" lon="5.75931">
        <ele>423.12</ele>
        <time>2019-01-26T10:20:53Z</time>
      </trkpt>
      <trkpt lat="43.45735" lon="5.75935">
        <ele>422.64</ele>
        <time>2019-01-26T10:20:55Z</time>
      </trkpt>
      <trkpt lat="43.45734" lon="5.75954">
        <ele>422.64</ele>
        <time>2019-01-26T10:21:03Z</time>
      </trkpt>
      <trkpt lat="43.45738" lon="5.75966">
        <ele>422.64</ele>
        <time>2019-01-26T10:21:10Z</time>
      </trkpt>
      <trkpt lat="43.45739" lon="5.75967">
        <ele>422.64</ele>
        <time>2019-01-26T10:21:11Z</time>
      </trkpt>
      <trkpt lat="43.4574" lon="5.75968">
        <ele>422.64</ele>
        <time>2019-01-26T10:21:12Z</time>
      </trkpt>
      <trkpt lat="43.4574" lon="5.75969">
        <ele>422.64</ele>
        <time>2019-01-26T10:21:13Z</time>
      </trkpt>
      <trkpt lat="43.45745" lon="5.75977">
        <ele>422.64</ele>
        <time>2019-01-26T10:21:21Z</time>
      </trkpt>
      <trkpt lat="43.45747" lon="5.75982">
        <ele>422.64</ele>
        <time>2019-01-26T10:21:24Z</time>
      </trkpt>
      <trkpt lat="43.45748" lon="5.75984">
        <ele>422.64</ele>
        <time>2019-01-26T10:21:25Z</time>
      </trkpt>
      <trkpt lat="43.45749" lon="5.75985">
        <ele>422.64</ele>
        <time>2019-01-26T10:21:26Z</time>
      </trkpt>
      <trkpt lat="43.45751" lon="5.75987">
        <ele>424.08</ele>
        <time>2019-01-26T10:21:27Z</time>
      </trkpt>
      <trkpt lat="43.45752" lon="5.75989">
        <ele>424.08</ele>
        <time>2019-01-26T10:21:28Z</time>
      </trkpt>
      <trkpt lat="43.45758" lon="5.76001">
        <ele>424.56</ele>
        <time>2019-01-26T10:21:36Z</time>
      </trkpt>
      <trkpt lat="43.45761" lon="5.76011">
        <ele>425.04</ele>
        <time>2019-01-26T10:21:43Z</time>
      </trkpt>
      <trkpt lat="43.45764" lon="5.76024">
        <ele>425.52</ele>
        <time>2019-01-26T10:21:49Z</time>
      </trkpt>
      <trkpt lat="43.45765" lon="5.76026">
        <ele>425.52</ele>
        <time>2019-01-26T10:21:50Z</time>
      </trkpt>
      <trkpt lat="43.45766" lon="5.7604">
        <ele>425.52</ele>
        <time>2019-01-26T10:21:56Z</time>
      </trkpt>
      <trkpt lat="43.45766" lon="5.76057">
        <ele>425.52</ele>
        <time>2019-01-26T10:22:04Z</time>
      </trkpt>
      <trkpt lat="43.45766" lon="5.76076">
        <ele>426</ele>
        <time>2019-01-26T10:22:13Z</time>
      </trkpt>
      <trkpt lat="43.45769" lon="5.76091">
        <ele>426.48</ele>
        <time>2019-01-26T10:22:22Z</time>
      </trkpt>
      <trkpt lat="43.45772" lon="5.76101">
        <ele>426.96</ele>
        <time>2019-01-26T10:22:30Z</time>
      </trkpt>
      <trkpt lat="43.45774" lon="5.76108">
        <ele>427.44</ele>
        <time>2019-01-26T10:22:34Z</time>
      </trkpt>
      <trkpt lat="43.45775" lon="5.7611">
        <ele>427.44</ele>
        <time>2019-01-26T10:22:35Z</time>
      </trkpt>
      <trkpt lat="43.45776" lon="5.76112">
        <ele>427.44</ele>
        <time>2019-01-26T10:22:36Z</time>
      </trkpt>
      <trkpt lat="43.45776" lon="5.76114">
        <ele>427.44</ele>
        <time>2019-01-26T10:22:37Z</time>
      </trkpt>
      <trkpt lat="43.45777" lon="5.76117">
        <ele>427.44</ele>
        <time>2019-01-26T10:22:38Z</time>
      </trkpt>
      <trkpt lat="43.45777" lon="5.76118">
        <ele>427.44</ele>
        <time>2019-01-26T10:22:39Z</time>
      </trkpt>
      <trkpt lat="43.45778" lon="5.7612">
        <ele>427.92</ele>
        <time>2019-01-26T10:22:40Z</time>
      </trkpt>
      <trkpt lat="43.45785" lon="5.76132">
        <ele>427.92</ele>
        <time>2019-01-26T10:22:47Z</time>
      </trkpt>
      <trkpt lat="43.4579" lon="5.76139">
        <ele>428.4</ele>
        <time>2019-01-26T10:22:54Z</time>
      </trkpt>
      <trkpt lat="43.45798" lon="5.76151">
        <ele>429.85</ele>
        <time>2019-01-26T10:23:02Z</time>
      </trkpt>
      <trkpt lat="43.45803" lon="5.7616">
        <ele>430.33</ele>
        <time>2019-01-26T10:23:08Z</time>
      </trkpt>
      <trkpt lat="43.45808" lon="5.76173">
        <ele>431.29</ele>
        <time>2019-01-26T10:23:16Z</time>
      </trkpt>
      <trkpt lat="43.45808" lon="5.76175">
        <ele>431.77</ele>
        <time>2019-01-26T10:23:17Z</time>
      </trkpt>
      <trkpt lat="43.45808" lon="5.76177">
        <ele>431.77</ele>
        <time>2019-01-26T10:23:18Z</time>
      </trkpt>
      <trkpt lat="43.45809" lon="5.7618">
        <ele>431.77</ele>
        <time>2019-01-26T10:23:19Z</time>
      </trkpt>
      <trkpt lat="43.4581" lon="5.76182">
        <ele>431.77</ele>
        <time>2019-01-26T10:23:20Z</time>
      </trkpt>
      <trkpt lat="43.45811" lon="5.76184">
        <ele>431.77</ele>
        <time>2019-01-26T10:23:21Z</time>
      </trkpt>
      <trkpt lat="43.45811" lon="5.76186">
        <ele>432.25</ele>
        <time>2019-01-26T10:23:22Z</time>
      </trkpt>
      <trkpt lat="43.45815" lon="5.76203">
        <ele>432.73</ele>
        <time>2019-01-26T10:23:30Z</time>
      </trkpt>
      <trkpt lat="43.45819" lon="5.76215">
        <ele>432.73</ele>
        <time>2019-01-26T10:23:39Z</time>
      </trkpt>
      <trkpt lat="43.45825" lon="5.76233">
        <ele>432.25</ele>
        <time>2019-01-26T10:23:51Z</time>
      </trkpt>
      <trkpt lat="43.45824" lon="5.76235">
        <ele>430.81</ele>
        <time>2019-01-26T10:23:52Z</time>
      </trkpt>
      <trkpt lat="43.45824" lon="5.76237">
        <ele>430.81</ele>
        <time>2019-01-26T10:23:53Z</time>
      </trkpt>
      <trkpt lat="43.45824" lon="5.76251">
        <ele>429.37</ele>
        <time>2019-01-26T10:23:59Z</time>
      </trkpt>
      <trkpt lat="43.45824" lon="5.76253">
        <ele>429.37</ele>
        <time>2019-01-26T10:24:00Z</time>
      </trkpt>
      <trkpt lat="43.45824" lon="5.76256">
        <ele>429.37</ele>
        <time>2019-01-26T10:24:01Z</time>
      </trkpt>
      <trkpt lat="43.45824" lon="5.76258">
        <ele>428.89</ele>
        <time>2019-01-26T10:24:02Z</time>
      </trkpt>
      <trkpt lat="43.45823" lon="5.7626">
        <ele>428.89</ele>
        <time>2019-01-26T10:24:03Z</time>
      </trkpt>
      <trkpt lat="43.45824" lon="5.76276">
        <ele>427.44</ele>
        <time>2019-01-26T10:24:11Z</time>
      </trkpt>
      <trkpt lat="43.45825" lon="5.76283">
        <ele>426.96</ele>
        <time>2019-01-26T10:24:14Z</time>
      </trkpt>
      <trkpt lat="43.45824" lon="5.76285">
        <ele>426.96</ele>
        <time>2019-01-26T10:24:15Z</time>
      </trkpt>
      <trkpt lat="43.45826" lon="5.76287">
        <ele>426.96</ele>
        <time>2019-01-26T10:24:16Z</time>
      </trkpt>
      <trkpt lat="43.45827" lon="5.76289">
        <ele>426.96</ele>
        <time>2019-01-26T10:24:17Z</time>
      </trkpt>
      <trkpt lat="43.45829" lon="5.76291">
        <ele>426.48</ele>
        <time>2019-01-26T10:24:18Z</time>
      </trkpt>
      <trkpt lat="43.4583" lon="5.76295">
        <ele>426.48</ele>
        <time>2019-01-26T10:24:21Z</time>
      </trkpt>
      <trkpt lat="43.45834" lon="5.76304">
        <ele>425.52</ele>
        <time>2019-01-26T10:24:28Z</time>
      </trkpt>
      <trkpt lat="43.45838" lon="5.76315">
        <ele>424.56</ele>
        <time>2019-01-26T10:24:36Z</time>
      </trkpt>
      <trkpt lat="43.45839" lon="5.76317">
        <ele>424.08</ele>
        <time>2019-01-26T10:24:37Z</time>
      </trkpt>
      <trkpt lat="43.45843" lon="5.76323">
        <ele>423.6</ele>
        <time>2019-01-26T10:24:40Z</time>
      </trkpt>
      <trkpt lat="43.45844" lon="5.76325">
        <ele>423.6</ele>
        <time>2019-01-26T10:24:41Z</time>
      </trkpt>
      <trkpt lat="43.45848" lon="5.76339">
        <ele>422.64</ele>
        <time>2019-01-26T10:24:47Z</time>
      </trkpt>
      <trkpt lat="43.45849" lon="5.76354">
        <ele>422.16</ele>
        <time>2019-01-26T10:24:54Z</time>
      </trkpt>
      <trkpt lat="43.45848" lon="5.76362">
        <ele>422.16</ele>
        <time>2019-01-26T10:24:58Z</time>
      </trkpt>
      <trkpt lat="43.45848" lon="5.76364">
        <ele>422.16</ele>
        <time>2019-01-26T10:24:59Z</time>
      </trkpt>
      <trkpt lat="43.45848" lon="5.76366">
        <ele>422.16</ele>
        <time>2019-01-26T10:25:00Z</time>
      </trkpt>
      <trkpt lat="43.45848" lon="5.76368">
        <ele>422.16</ele>
        <time>2019-01-26T10:25:01Z</time>
      </trkpt>
      <trkpt lat="43.45847" lon="5.7637">
        <ele>422.16</ele>
        <time>2019-01-26T10:25:02Z</time>
      </trkpt>
      <trkpt lat="43.45847" lon="5.76372">
        <ele>422.16</ele>
        <time>2019-01-26T10:25:03Z</time>
      </trkpt>
      <trkpt lat="43.45843" lon="5.76381">
        <ele>422.16</ele>
        <time>2019-01-26T10:25:09Z</time>
      </trkpt>
      <trkpt lat="43.45834" lon="5.76389">
        <ele>423.6</ele>
        <time>2019-01-26T10:25:15Z</time>
      </trkpt>
      <trkpt lat="43.45827" lon="5.76395">
        <ele>424.56</ele>
        <time>2019-01-26T10:25:21Z</time>
      </trkpt>
      <trkpt lat="43.45822" lon="5.76397">
        <ele>425.52</ele>
        <time>2019-01-26T10:25:27Z</time>
      </trkpt>
      <trkpt lat="43.45815" lon="5.76402">
        <ele>426.48</ele>
        <time>2019-01-26T10:25:34Z</time>
      </trkpt>
      <trkpt lat="43.45812" lon="5.76406">
        <ele>426.96</ele>
        <time>2019-01-26T10:25:39Z</time>
      </trkpt>
      <trkpt lat="43.45811" lon="5.76407">
        <ele>426.96</ele>
        <time>2019-01-26T10:25:40Z</time>
      </trkpt>
      <trkpt lat="43.45809" lon="5.76408">
        <ele>426.96</ele>
        <time>2019-01-26T10:25:41Z</time>
      </trkpt>
      <trkpt lat="43.45806" lon="5.76409">
        <ele>426.96</ele>
        <time>2019-01-26T10:25:42Z</time>
      </trkpt>
      <trkpt lat="43.45804" lon="5.76409">
        <ele>427.44</ele>
        <time>2019-01-26T10:25:43Z</time>
      </trkpt>
      <trkpt lat="43.45802" lon="5.7641">
        <ele>427.44</ele>
        <time>2019-01-26T10:25:44Z</time>
      </trkpt>
      <trkpt lat="43.45794" lon="5.76413">
        <ele>427.92</ele>
        <time>2019-01-26T10:25:50Z</time>
      </trkpt>
      <trkpt lat="43.45787" lon="5.76416">
        <ele>427.92</ele>
        <time>2019-01-26T10:25:58Z</time>
      </trkpt>
      <trkpt lat="43.45785" lon="5.76416">
        <ele>427.92</ele>
        <time>2019-01-26T10:26:01Z</time>
      </trkpt>
      <trkpt lat="43.45783" lon="5.76418">
        <ele>427.92</ele>
        <time>2019-01-26T10:26:03Z</time>
      </trkpt>
      <trkpt lat="43.45782" lon="5.76418">
        <ele>427.92</ele>
        <time>2019-01-26T10:26:04Z</time>
      </trkpt>
      <trkpt lat="43.4578" lon="5.76419">
        <ele>427.92</ele>
        <time>2019-01-26T10:26:05Z</time>
      </trkpt>
      <trkpt lat="43.45778" lon="5.7642">
        <ele>428.4</ele>
        <time>2019-01-26T10:26:06Z</time>
      </trkpt>
      <trkpt lat="43.45777" lon="5.7642">
        <ele>428.4</ele>
        <time>2019-01-26T10:26:07Z</time>
      </trkpt>
      <trkpt lat="43.45775" lon="5.7642">
        <ele>428.4</ele>
        <time>2019-01-26T10:26:08Z</time>
      </trkpt>
      <trkpt lat="43.45764" lon="5.76422">
        <ele>428.89</ele>
        <time>2019-01-26T10:26:14Z</time>
      </trkpt>
      <trkpt lat="43.45757" lon="5.76426">
        <ele>429.37</ele>
        <time>2019-01-26T10:26:18Z</time>
      </trkpt>
      <trkpt lat="43.45755" lon="5.76428">
        <ele>429.37</ele>
        <time>2019-01-26T10:26:19Z</time>
      </trkpt>
      <trkpt lat="43.45752" lon="5.76434">
        <ele>429.37</ele>
        <time>2019-01-26T10:26:25Z</time>
      </trkpt>
      <trkpt lat="43.45755" lon="5.76446">
        <ele>429.85</ele>
        <time>2019-01-26T10:26:32Z</time>
      </trkpt>
      <trkpt lat="43.45755" lon="5.76448">
        <ele>429.85</ele>
        <time>2019-01-26T10:26:33Z</time>
      </trkpt>
      <trkpt lat="43.45756" lon="5.76455">
        <ele>429.85</ele>
        <time>2019-01-26T10:26:37Z</time>
      </trkpt>
      <trkpt lat="43.45757" lon="5.76456">
        <ele>429.85</ele>
        <time>2019-01-26T10:26:38Z</time>
      </trkpt>
      <trkpt lat="43.45763" lon="5.76466">
        <ele>430.33</ele>
        <time>2019-01-26T10:26:43Z</time>
      </trkpt>
      <trkpt lat="43.45764" lon="5.76468">
        <ele>430.33</ele>
        <time>2019-01-26T10:26:44Z</time>
      </trkpt>
      <trkpt lat="43.45765" lon="5.76471">
        <ele>430.33</ele>
        <time>2019-01-26T10:26:45Z</time>
      </trkpt>
      <trkpt lat="43.45765" lon="5.76473">
        <ele>430.33</ele>
        <time>2019-01-26T10:26:46Z</time>
      </trkpt>
      <trkpt lat="43.45766" lon="5.76475">
        <ele>430.33</ele>
        <time>2019-01-26T10:26:47Z</time>
      </trkpt>
      <trkpt lat="43.45767" lon="5.76477">
        <ele>430.33</ele>
        <time>2019-01-26T10:26:48Z</time>
      </trkpt>
      <trkpt lat="43.45774" lon="5.76489">
        <ele>430.33</ele>
        <time>2019-01-26T10:26:55Z</time>
      </trkpt>
      <trkpt lat="43.4578" lon="5.76505">
        <ele>430.33</ele>
        <time>2019-01-26T10:27:04Z</time>
      </trkpt>
      <trkpt lat="43.45781" lon="5.76509">
        <ele>430.33</ele>
        <time>2019-01-26T10:27:06Z</time>
      </trkpt>
      <trkpt lat="43.45782" lon="5.7651">
        <ele>430.33</ele>
        <time>2019-01-26T10:27:07Z</time>
      </trkpt>
      <trkpt lat="43.45783" lon="5.76512">
        <ele>430.33</ele>
        <time>2019-01-26T10:27:08Z</time>
      </trkpt>
      <trkpt lat="43.45783" lon="5.76514">
        <ele>430.33</ele>
        <time>2019-01-26T10:27:09Z</time>
      </trkpt>
      <trkpt lat="43.45784" lon="5.76516">
        <ele>430.33</ele>
        <time>2019-01-26T10:27:10Z</time>
      </trkpt>
      <trkpt lat="43.45784" lon="5.76517">
        <ele>430.33</ele>
        <time>2019-01-26T10:27:11Z</time>
      </trkpt>
      <trkpt lat="43.45788" lon="5.76532">
        <ele>430.33</ele>
        <time>2019-01-26T10:27:19Z</time>
      </trkpt>
      <trkpt lat="43.45791" lon="5.76547">
        <ele>430.33</ele>
        <time>2019-01-26T10:27:28Z</time>
      </trkpt>
      <trkpt lat="43.45793" lon="5.76563">
        <ele>430.33</ele>
        <time>2019-01-26T10:27:37Z</time>
      </trkpt>
      <trkpt lat="43.45794" lon="5.76577">
        <ele>430.33</ele>
        <time>2019-01-26T10:27:46Z</time>
      </trkpt>
      <trkpt lat="43.45793" lon="5.7659">
        <ele>430.33</ele>
        <time>2019-01-26T10:27:54Z</time>
      </trkpt>
      <trkpt lat="43.45794" lon="5.76608">
        <ele>429.85</ele>
        <time>2019-01-26T10:28:03Z</time>
      </trkpt>
      <trkpt lat="43.45795" lon="5.7662">
        <ele>429.85</ele>
        <time>2019-01-26T10:28:09Z</time>
      </trkpt>
      <trkpt lat="43.45796" lon="5.76628">
        <ele>428.89</ele>
        <time>2019-01-26T10:28:12Z</time>
      </trkpt>
      <trkpt lat="43.45797" lon="5.76635">
        <ele>428.89</ele>
        <time>2019-01-26T10:28:14Z</time>
      </trkpt>
      <trkpt lat="43.45797" lon="5.76638">
        <ele>428.89</ele>
        <time>2019-01-26T10:28:15Z</time>
      </trkpt>
      <trkpt lat="43.45797" lon="5.76641">
        <ele>428.89</ele>
        <time>2019-01-26T10:28:16Z</time>
      </trkpt>
      <trkpt lat="43.45798" lon="5.76644">
        <ele>428.89</ele>
        <time>2019-01-26T10:28:17Z</time>
      </trkpt>
      <trkpt lat="43.45798" lon="5.76646">
        <ele>428.89</ele>
        <time>2019-01-26T10:28:18Z</time>
      </trkpt>
      <trkpt lat="43.45799" lon="5.76649">
        <ele>428.89</ele>
        <time>2019-01-26T10:28:19Z</time>
      </trkpt>
      <trkpt lat="43.458" lon="5.76663">
        <ele>427.92</ele>
        <time>2019-01-26T10:28:25Z</time>
      </trkpt>
      <trkpt lat="43.458" lon="5.7668">
        <ele>427.44</ele>
        <time>2019-01-26T10:28:34Z</time>
      </trkpt>
      <trkpt lat="43.45801" lon="5.76693">
        <ele>426.96</ele>
        <time>2019-01-26T10:28:42Z</time>
      </trkpt>
      <trkpt lat="43.45801" lon="5.76704">
        <ele>425.52</ele>
        <time>2019-01-26T10:28:49Z</time>
      </trkpt>
      <trkpt lat="43.458" lon="5.76707">
        <ele>426</ele>
        <time>2019-01-26T10:28:51Z</time>
      </trkpt>
      <trkpt lat="43.458" lon="5.76711">
        <ele>426</ele>
        <time>2019-01-26T10:28:53Z</time>
      </trkpt>
      <trkpt lat="43.458" lon="5.76714">
        <ele>425.52</ele>
        <time>2019-01-26T10:28:54Z</time>
      </trkpt>
      <trkpt lat="43.458" lon="5.76716">
        <ele>425.52</ele>
        <time>2019-01-26T10:28:55Z</time>
      </trkpt>
      <trkpt lat="43.458" lon="5.7672">
        <ele>425.52</ele>
        <time>2019-01-26T10:28:57Z</time>
      </trkpt>
      <trkpt lat="43.458" lon="5.76723">
        <ele>425.52</ele>
        <time>2019-01-26T10:28:58Z</time>
      </trkpt>
      <trkpt lat="43.45801" lon="5.76725">
        <ele>424.56</ele>
        <time>2019-01-26T10:28:59Z</time>
      </trkpt>
      <trkpt lat="43.45801" lon="5.76728">
        <ele>424.56</ele>
        <time>2019-01-26T10:29:00Z</time>
      </trkpt>
      <trkpt lat="43.45801" lon="5.76731">
        <ele>424.56</ele>
        <time>2019-01-26T10:29:01Z</time>
      </trkpt>
      <trkpt lat="43.45802" lon="5.76733">
        <ele>424.08</ele>
        <time>2019-01-26T10:29:02Z</time>
      </trkpt>
      <trkpt lat="43.45802" lon="5.76736">
        <ele>424.08</ele>
        <time>2019-01-26T10:29:03Z</time>
      </trkpt>
      <trkpt lat="43.45802" lon="5.76739">
        <ele>424.08</ele>
        <time>2019-01-26T10:29:04Z</time>
      </trkpt>
      <trkpt lat="43.45803" lon="5.76741">
        <ele>424.08</ele>
        <time>2019-01-26T10:29:05Z</time>
      </trkpt>
      <trkpt lat="43.45803" lon="5.76744">
        <ele>424.08</ele>
        <time>2019-01-26T10:29:06Z</time>
      </trkpt>
      <trkpt lat="43.45806" lon="5.7676">
        <ele>423.6</ele>
        <time>2019-01-26T10:29:14Z</time>
      </trkpt>
      <trkpt lat="43.45812" lon="5.76767">
        <ele>423.6</ele>
        <time>2019-01-26T10:29:21Z</time>
      </trkpt>
      <trkpt lat="43.45814" lon="5.76767">
        <ele>423.6</ele>
        <time>2019-01-26T10:29:23Z</time>
      </trkpt>
      <trkpt lat="43.45818" lon="5.76766">
        <ele>423.6</ele>
        <time>2019-01-26T10:29:27Z</time>
      </trkpt>
      <trkpt lat="43.4582" lon="5.76765">
        <ele>423.6</ele>
        <time>2019-01-26T10:29:28Z</time>
      </trkpt>
      <trkpt lat="43.45821" lon="5.76765">
        <ele>423.6</ele>
        <time>2019-01-26T10:29:29Z</time>
      </trkpt>
      <trkpt lat="43.45824" lon="5.76762">
        <ele>425.04</ele>
        <time>2019-01-26T10:29:34Z</time>
      </trkpt>
      <trkpt lat="43.45826" lon="5.76764">
        <ele>425.04</ele>
        <time>2019-01-26T10:29:40Z</time>
      </trkpt>
      <trkpt lat="43.45829" lon="5.76759">
        <ele>425.04</ele>
        <time>2019-01-26T10:29:47Z</time>
      </trkpt>
      <trkpt lat="43.45834" lon="5.76748">
        <ele>425.04</ele>
        <time>2019-01-26T10:29:53Z</time>
      </trkpt>
      <trkpt lat="43.45835" lon="5.76744">
        <ele>425.04</ele>
        <time>2019-01-26T10:29:59Z</time>
      </trkpt>
      <trkpt lat="43.45836" lon="5.76745">
        <ele>425.04</ele>
        <time>2019-01-26T10:30:12Z</time>
      </trkpt>
      <trkpt lat="43.45839" lon="5.76748">
        <ele>425.04</ele>
        <time>2019-01-26T10:30:27Z</time>
      </trkpt>
      <trkpt lat="43.45838" lon="5.76744">
        <ele>425.04</ele>
        <time>2019-01-26T10:30:36Z</time>
      </trkpt>
      <trkpt lat="43.45839" lon="5.76744">
        <ele>425.04</ele>
        <time>2019-01-26T10:30:45Z</time>
      </trkpt>
      <trkpt lat="43.45839" lon="5.76744">
        <ele>425.04</ele>
        <time>2019-01-26T10:31:09Z</time>
      </trkpt>
      <trkpt lat="43.45839" lon="5.76744">
        <ele>425.04</ele>
        <time>2019-01-26T10:31:22Z</time>
      </trkpt>
      <trkpt lat="43.45838" lon="5.76745">
        <ele>424.08</ele>
        <time>2019-01-26T10:31:35Z</time>
      </trkpt>
      <trkpt lat="43.45833" lon="5.76745">
        <ele>424.08</ele>
        <time>2019-01-26T10:31:51Z</time>
      </trkpt>
      <trkpt lat="43.45837" lon="5.76738">
        <ele>424.08</ele>
        <time>2019-01-26T10:32:01Z</time>
      </trkpt>
      <trkpt lat="43.45841" lon="5.76733">
        <ele>424.08</ele>
        <time>2019-01-26T10:32:07Z</time>
      </trkpt>
      <trkpt lat="43.45842" lon="5.76731">
        <ele>424.08</ele>
        <time>2019-01-26T10:32:08Z</time>
      </trkpt>
      <trkpt lat="43.45842" lon="5.7673">
        <ele>424.08</ele>
        <time>2019-01-26T10:32:09Z</time>
      </trkpt>
      <trkpt lat="43.45846" lon="5.76718">
        <ele>424.08</ele>
        <time>2019-01-26T10:32:17Z</time>
      </trkpt>
      <trkpt lat="43.45849" lon="5.76713">
        <ele>424.08</ele>
        <time>2019-01-26T10:32:20Z</time>
      </trkpt>
      <trkpt lat="43.4585" lon="5.76712">
        <ele>424.08</ele>
        <time>2019-01-26T10:32:21Z</time>
      </trkpt>
      <trkpt lat="43.45861" lon="5.76698">
        <ele>424.08</ele>
        <time>2019-01-26T10:32:30Z</time>
      </trkpt>
      <trkpt lat="43.45875" lon="5.76687">
        <ele>423.6</ele>
        <time>2019-01-26T10:32:39Z</time>
      </trkpt>
      <trkpt lat="43.45887" lon="5.76679">
        <ele>423.12</ele>
        <time>2019-01-26T10:32:46Z</time>
      </trkpt>
      <trkpt lat="43.45901" lon="5.76669">
        <ele>423.12</ele>
        <time>2019-01-26T10:32:56Z</time>
      </trkpt>
      <trkpt lat="43.45913" lon="5.76661">
        <ele>422.64</ele>
        <time>2019-01-26T10:33:04Z</time>
      </trkpt>
      <trkpt lat="43.45925" lon="5.76649">
        <ele>422.16</ele>
        <time>2019-01-26T10:33:14Z</time>
      </trkpt>
      <trkpt lat="43.45937" lon="5.7664">
        <ele>421.19</ele>
        <time>2019-01-26T10:33:24Z</time>
      </trkpt>
      <trkpt lat="43.45943" lon="5.76637">
        <ele>420.71</ele>
        <time>2019-01-26T10:33:32Z</time>
      </trkpt>
      <trkpt lat="43.4595" lon="5.76635">
        <ele>419.75</ele>
        <time>2019-01-26T10:33:40Z</time>
      </trkpt>
      <trkpt lat="43.45954" lon="5.76634">
        <ele>419.27</ele>
        <time>2019-01-26T10:33:43Z</time>
      </trkpt>
      <trkpt lat="43.45965" lon="5.76635">
        <ele>419.27</ele>
        <time>2019-01-26T10:33:50Z</time>
      </trkpt>
      <trkpt lat="43.45967" lon="5.76635">
        <ele>419.27</ele>
        <time>2019-01-26T10:33:51Z</time>
      </trkpt>
      <trkpt lat="43.45969" lon="5.76636">
        <ele>419.27</ele>
        <time>2019-01-26T10:33:52Z</time>
      </trkpt>
      <trkpt lat="43.45971" lon="5.76636">
        <ele>419.27</ele>
        <time>2019-01-26T10:33:53Z</time>
      </trkpt>
      <trkpt lat="43.45973" lon="5.76636">
        <ele>419.27</ele>
        <time>2019-01-26T10:33:54Z</time>
      </trkpt>
      <trkpt lat="43.45975" lon="5.76636">
        <ele>419.27</ele>
        <time>2019-01-26T10:33:55Z</time>
      </trkpt>
      <trkpt lat="43.45977" lon="5.76636">
        <ele>419.75</ele>
        <time>2019-01-26T10:33:56Z</time>
      </trkpt>
      <trkpt lat="43.45978" lon="5.76636">
        <ele>419.75</ele>
        <time>2019-01-26T10:33:57Z</time>
      </trkpt>
      <trkpt lat="43.4598" lon="5.76636">
        <ele>419.75</ele>
        <time>2019-01-26T10:33:58Z</time>
      </trkpt>
      <trkpt lat="43.45995" lon="5.76634">
        <ele>419.75</ele>
        <time>2019-01-26T10:34:06Z</time>
      </trkpt>
      <trkpt lat="43.46008" lon="5.76632">
        <ele>419.75</ele>
        <time>2019-01-26T10:34:15Z</time>
      </trkpt>
      <trkpt lat="43.46018" lon="5.76634">
        <ele>419.75</ele>
        <time>2019-01-26T10:34:23Z</time>
      </trkpt>
      <trkpt lat="43.46026" lon="5.76638">
        <ele>419.75</ele>
        <time>2019-01-26T10:34:31Z</time>
      </trkpt>
      <trkpt lat="43.46035" lon="5.76643">
        <ele>419.75</ele>
        <time>2019-01-26T10:34:40Z</time>
      </trkpt>
      <trkpt lat="43.46041" lon="5.76644">
        <ele>419.75</ele>
        <time>2019-01-26T10:34:45Z</time>
      </trkpt>
      <trkpt lat="43.46053" lon="5.76644">
        <ele>419.75</ele>
        <time>2019-01-26T10:34:53Z</time>
      </trkpt>
      <trkpt lat="43.46066" lon="5.76645">
        <ele>419.75</ele>
        <time>2019-01-26T10:35:01Z</time>
      </trkpt>
      <trkpt lat="43.46081" lon="5.76647">
        <ele>421.19</ele>
        <time>2019-01-26T10:35:08Z</time>
      </trkpt>
      <trkpt lat="43.46093" lon="5.7665">
        <ele>421.68</ele>
        <time>2019-01-26T10:35:15Z</time>
      </trkpt>
      <trkpt lat="43.46099" lon="5.76655">
        <ele>422.16</ele>
        <time>2019-01-26T10:35:21Z</time>
      </trkpt>
      <trkpt lat="43.46104" lon="5.76662">
        <ele>423.12</ele>
        <time>2019-01-26T10:35:29Z</time>
      </trkpt>
      <trkpt lat="43.46104" lon="5.76665">
        <ele>423.12</ele>
        <time>2019-01-26T10:35:38Z</time>
      </trkpt>
      <trkpt lat="43.46102" lon="5.7667">
        <ele>423.6</ele>
        <time>2019-01-26T10:35:42Z</time>
      </trkpt>
      <trkpt lat="43.46101" lon="5.76672">
        <ele>423.6</ele>
        <time>2019-01-26T10:35:43Z</time>
      </trkpt>
      <trkpt lat="43.46099" lon="5.76677">
        <ele>424.08</ele>
        <time>2019-01-26T10:35:48Z</time>
      </trkpt>
      <trkpt lat="43.46098" lon="5.76678">
        <ele>424.56</ele>
        <time>2019-01-26T10:35:49Z</time>
      </trkpt>
      <trkpt lat="43.46097" lon="5.76679">
        <ele>424.56</ele>
        <time>2019-01-26T10:35:50Z</time>
      </trkpt>
      <trkpt lat="43.46095" lon="5.7668">
        <ele>424.56</ele>
        <time>2019-01-26T10:35:51Z</time>
      </trkpt>
      <trkpt lat="43.46094" lon="5.76682">
        <ele>424.56</ele>
        <time>2019-01-26T10:35:52Z</time>
      </trkpt>
      <trkpt lat="43.46091" lon="5.76687">
        <ele>425.52</ele>
        <time>2019-01-26T10:35:58Z</time>
      </trkpt>
      <trkpt lat="43.46084" lon="5.76697">
        <ele>426.48</ele>
        <time>2019-01-26T10:36:06Z</time>
      </trkpt>
      <trkpt lat="43.46079" lon="5.76701">
        <ele>427.44</ele>
        <time>2019-01-26T10:36:12Z</time>
      </trkpt>
      <trkpt lat="43.46078" lon="5.76703">
        <ele>427.44</ele>
        <time>2019-01-26T10:36:13Z</time>
      </trkpt>
      <trkpt lat="43.46076" lon="5.76704">
        <ele>427.44</ele>
        <time>2019-01-26T10:36:14Z</time>
      </trkpt>
      <trkpt lat="43.46075" lon="5.76706">
        <ele>427.44</ele>
        <time>2019-01-26T10:36:15Z</time>
      </trkpt>
      <trkpt lat="43.46074" lon="5.76708">
        <ele>427.44</ele>
        <time>2019-01-26T10:36:16Z</time>
      </trkpt>
      <trkpt lat="43.46073" lon="5.76709">
        <ele>427.44</ele>
        <time>2019-01-26T10:36:17Z</time>
      </trkpt>
      <trkpt lat="43.46069" lon="5.76716">
        <ele>428.89</ele>
        <time>2019-01-26T10:36:24Z</time>
      </trkpt>
      <trkpt lat="43.46065" lon="5.76721">
        <ele>428.89</ele>
        <time>2019-01-26T10:36:27Z</time>
      </trkpt>
      <trkpt lat="43.4606" lon="5.7673">
        <ele>430.33</ele>
        <time>2019-01-26T10:36:35Z</time>
      </trkpt>
      <trkpt lat="43.46059" lon="5.76733">
        <ele>430.33</ele>
        <time>2019-01-26T10:36:37Z</time>
      </trkpt>
      <trkpt lat="43.46059" lon="5.76735">
        <ele>430.81</ele>
        <time>2019-01-26T10:36:38Z</time>
      </trkpt>
      <trkpt lat="43.46056" lon="5.76743">
        <ele>432.25</ele>
        <time>2019-01-26T10:36:44Z</time>
      </trkpt>
      <trkpt lat="43.46053" lon="5.76747">
        <ele>432.73</ele>
        <time>2019-01-26T10:36:47Z</time>
      </trkpt>
      <trkpt lat="43.46052" lon="5.76749">
        <ele>432.73</ele>
        <time>2019-01-26T10:36:48Z</time>
      </trkpt>
      <trkpt lat="43.46051" lon="5.76751">
        <ele>433.21</ele>
        <time>2019-01-26T10:36:49Z</time>
      </trkpt>
      <trkpt lat="43.4605" lon="5.76752">
        <ele>433.21</ele>
        <time>2019-01-26T10:36:50Z</time>
      </trkpt>
      <trkpt lat="43.46047" lon="5.76756">
        <ele>434.17</ele>
        <time>2019-01-26T10:36:55Z</time>
      </trkpt>
      <trkpt lat="43.46045" lon="5.76757">
        <ele>434.17</ele>
        <time>2019-01-26T10:36:56Z</time>
      </trkpt>
      <trkpt lat="43.46038" lon="5.76763">
        <ele>435.61</ele>
        <time>2019-01-26T10:37:03Z</time>
      </trkpt>
      <trkpt lat="43.46029" lon="5.76764">
        <ele>437.06</ele>
        <time>2019-01-26T10:37:08Z</time>
      </trkpt>
      <trkpt lat="43.46022" lon="5.76763">
        <ele>438.5</ele>
        <time>2019-01-26T10:37:14Z</time>
      </trkpt>
      <trkpt lat="43.46016" lon="5.7676">
        <ele>439.94</ele>
        <time>2019-01-26T10:37:20Z</time>
      </trkpt>
      <trkpt lat="43.46014" lon="5.7676">
        <ele>439.94</ele>
        <time>2019-01-26T10:37:21Z</time>
      </trkpt>
      <trkpt lat="43.46012" lon="5.76759">
        <ele>440.42</ele>
        <time>2019-01-26T10:37:22Z</time>
      </trkpt>
      <trkpt lat="43.4601" lon="5.76758">
        <ele>440.42</ele>
        <time>2019-01-26T10:37:23Z</time>
      </trkpt>
      <trkpt lat="43.46005" lon="5.76757">
        <ele>442.34</ele>
        <time>2019-01-26T10:37:29Z</time>
      </trkpt>
      <trkpt lat="43.45999" lon="5.76753">
        <ele>443.31</ele>
        <time>2019-01-26T10:37:34Z</time>
      </trkpt>
      <trkpt lat="43.45994" lon="5.76751">
        <ele>444.27</ele>
        <time>2019-01-26T10:37:40Z</time>
      </trkpt>
      <trkpt lat="43.45991" lon="5.76751">
        <ele>445.71</ele>
        <time>2019-01-26T10:37:44Z</time>
      </trkpt>
      <trkpt lat="43.45989" lon="5.76751">
        <ele>445.71</ele>
        <time>2019-01-26T10:37:45Z</time>
      </trkpt>
      <trkpt lat="43.45988" lon="5.7675">
        <ele>446.19</ele>
        <time>2019-01-26T10:37:46Z</time>
      </trkpt>
      <trkpt lat="43.45984" lon="5.76751">
        <ele>447.63</ele>
        <time>2019-01-26T10:37:51Z</time>
      </trkpt>
      <trkpt lat="43.45978" lon="5.76753">
        <ele>448.59</ele>
        <time>2019-01-26T10:37:57Z</time>
      </trkpt>
      <trkpt lat="43.45976" lon="5.76754">
        <ele>449.07</ele>
        <time>2019-01-26T10:37:59Z</time>
      </trkpt>
      <trkpt lat="43.45975" lon="5.76755">
        <ele>449.07</ele>
        <time>2019-01-26T10:38:00Z</time>
      </trkpt>
      <trkpt lat="43.45973" lon="5.76757">
        <ele>449.55</ele>
        <time>2019-01-26T10:38:01Z</time>
      </trkpt>
      <trkpt lat="43.45972" lon="5.76758">
        <ele>449.55</ele>
        <time>2019-01-26T10:38:02Z</time>
      </trkpt>
      <trkpt lat="43.45971" lon="5.76759">
        <ele>449.55</ele>
        <time>2019-01-26T10:38:03Z</time>
      </trkpt>
      <trkpt lat="43.45971" lon="5.76766">
        <ele>451</ele>
        <time>2019-01-26T10:38:09Z</time>
      </trkpt>
      <trkpt lat="43.45971" lon="5.76767">
        <ele>451</ele>
        <time>2019-01-26T10:38:10Z</time>
      </trkpt>
      <trkpt lat="43.45972" lon="5.76769">
        <ele>451</ele>
        <time>2019-01-26T10:38:11Z</time>
      </trkpt>
      <trkpt lat="43.45973" lon="5.76771">
        <ele>451.48</ele>
        <time>2019-01-26T10:38:12Z</time>
      </trkpt>
      <trkpt lat="43.45974" lon="5.76772">
        <ele>451.48</ele>
        <time>2019-01-26T10:38:13Z</time>
      </trkpt>
      <trkpt lat="43.45976" lon="5.76778">
        <ele>452.44</ele>
        <time>2019-01-26T10:38:19Z</time>
      </trkpt>
      <trkpt lat="43.45981" lon="5.76789">
        <ele>453.4</ele>
        <time>2019-01-26T10:38:25Z</time>
      </trkpt>
      <trkpt lat="43.45981" lon="5.7679">
        <ele>453.4</ele>
        <time>2019-01-26T10:38:26Z</time>
      </trkpt>
      <trkpt lat="43.45986" lon="5.76796">
        <ele>454.36</ele>
        <time>2019-01-26T10:38:33Z</time>
      </trkpt>
      <trkpt lat="43.45987" lon="5.76798">
        <ele>454.36</ele>
        <time>2019-01-26T10:38:34Z</time>
      </trkpt>
      <trkpt lat="43.45988" lon="5.768">
        <ele>454.36</ele>
        <time>2019-01-26T10:38:35Z</time>
      </trkpt>
      <trkpt lat="43.45999" lon="5.76812">
        <ele>455.8</ele>
        <time>2019-01-26T10:38:44Z</time>
      </trkpt>
      <trkpt lat="43.46005" lon="5.76816">
        <ele>456.28</ele>
        <time>2019-01-26T10:38:51Z</time>
      </trkpt>
      <trkpt lat="43.46012" lon="5.7682">
        <ele>456.76</ele>
        <time>2019-01-26T10:38:56Z</time>
      </trkpt>
      <trkpt lat="43.46023" lon="5.76825">
        <ele>457.72</ele>
        <time>2019-01-26T10:39:03Z</time>
      </trkpt>
      <trkpt lat="43.46031" lon="5.76829">
        <ele>459.17</ele>
        <time>2019-01-26T10:39:12Z</time>
      </trkpt>
      <trkpt lat="43.46036" lon="5.76832">
        <ele>459.65</ele>
        <time>2019-01-26T10:39:15Z</time>
      </trkpt>
      <trkpt lat="43.46037" lon="5.76834">
        <ele>459.65</ele>
        <time>2019-01-26T10:39:16Z</time>
      </trkpt>
      <trkpt lat="43.46039" lon="5.76835">
        <ele>460.13</ele>
        <time>2019-01-26T10:39:17Z</time>
      </trkpt>
      <trkpt lat="43.46045" lon="5.76842">
        <ele>461.09</ele>
        <time>2019-01-26T10:39:24Z</time>
      </trkpt>
      <trkpt lat="43.46055" lon="5.76855">
        <ele>461.57</ele>
        <time>2019-01-26T10:39:32Z</time>
      </trkpt>
      <trkpt lat="43.46056" lon="5.76856">
        <ele>461.57</ele>
        <time>2019-01-26T10:39:34Z</time>
      </trkpt>
      <trkpt lat="43.46064" lon="5.76862">
        <ele>462.05</ele>
        <time>2019-01-26T10:39:43Z</time>
      </trkpt>
      <trkpt lat="43.46071" lon="5.76868">
        <ele>462.05</ele>
        <time>2019-01-26T10:39:49Z</time>
      </trkpt>
      <trkpt lat="43.46072" lon="5.76869">
        <ele>462.05</ele>
        <time>2019-01-26T10:39:50Z</time>
      </trkpt>
      <trkpt lat="43.46085" lon="5.76885">
        <ele>462.53</ele>
        <time>2019-01-26T10:39:59Z</time>
      </trkpt>
      <trkpt lat="43.46092" lon="5.76893">
        <ele>463.01</ele>
        <time>2019-01-26T10:40:07Z</time>
      </trkpt>
      <trkpt lat="43.46099" lon="5.769">
        <ele>463.49</ele>
        <time>2019-01-26T10:40:15Z</time>
      </trkpt>
      <trkpt lat="43.46106" lon="5.76909">
        <ele>464.93</ele>
        <time>2019-01-26T10:40:21Z</time>
      </trkpt>
      <trkpt lat="43.4611" lon="5.76914">
        <ele>465.9</ele>
        <time>2019-01-26T10:40:27Z</time>
      </trkpt>
      <trkpt lat="43.46111" lon="5.76917">
        <ele>465.9</ele>
        <time>2019-01-26T10:40:28Z</time>
      </trkpt>
      <trkpt lat="43.46117" lon="5.76927">
        <ele>467.34</ele>
        <time>2019-01-26T10:40:35Z</time>
      </trkpt>
      <trkpt lat="43.46119" lon="5.7693">
        <ele>467.82</ele>
        <time>2019-01-26T10:40:38Z</time>
      </trkpt>
      <trkpt lat="43.4612" lon="5.76932">
        <ele>468.3</ele>
        <time>2019-01-26T10:40:39Z</time>
      </trkpt>
      <trkpt lat="43.46121" lon="5.76934">
        <ele>468.3</ele>
        <time>2019-01-26T10:40:40Z</time>
      </trkpt>
      <trkpt lat="43.46122" lon="5.76937">
        <ele>469.26</ele>
        <time>2019-01-26T10:40:41Z</time>
      </trkpt>
      <trkpt lat="43.46123" lon="5.76939">
        <ele>469.26</ele>
        <time>2019-01-26T10:40:42Z</time>
      </trkpt>
      <trkpt lat="43.46124" lon="5.76942">
        <ele>469.26</ele>
        <time>2019-01-26T10:40:43Z</time>
      </trkpt>
      <trkpt lat="43.46125" lon="5.76943">
        <ele>469.74</ele>
        <time>2019-01-26T10:40:44Z</time>
      </trkpt>
      <trkpt lat="43.46127" lon="5.76954">
        <ele>471.66</ele>
        <time>2019-01-26T10:40:51Z</time>
      </trkpt>
      <trkpt lat="43.4613" lon="5.76962">
        <ele>473.11</ele>
        <time>2019-01-26T10:40:57Z</time>
      </trkpt>
      <trkpt lat="43.46131" lon="5.76965">
        <ele>473.11</ele>
        <time>2019-01-26T10:40:59Z</time>
      </trkpt>
      <trkpt lat="43.46132" lon="5.76967">
        <ele>473.11</ele>
        <time>2019-01-26T10:41:00Z</time>
      </trkpt>
      <trkpt lat="43.46132" lon="5.76969">
        <ele>473.59</ele>
        <time>2019-01-26T10:41:01Z</time>
      </trkpt>
      <trkpt lat="43.46133" lon="5.76971">
        <ele>474.07</ele>
        <time>2019-01-26T10:41:02Z</time>
      </trkpt>
      <trkpt lat="43.46134" lon="5.76973">
        <ele>474.07</ele>
        <time>2019-01-26T10:41:03Z</time>
      </trkpt>
      <trkpt lat="43.46135" lon="5.76975">
        <ele>475.03</ele>
        <time>2019-01-26T10:41:04Z</time>
      </trkpt>
      <trkpt lat="43.46138" lon="5.76981">
        <ele>475.99</ele>
        <time>2019-01-26T10:41:10Z</time>
      </trkpt>
      <trkpt lat="43.46139" lon="5.76985">
        <ele>476.95</ele>
        <time>2019-01-26T10:41:14Z</time>
      </trkpt>
      <trkpt lat="43.4614" lon="5.76986">
        <ele>476.95</ele>
        <time>2019-01-26T10:41:15Z</time>
      </trkpt>
      <trkpt lat="43.4614" lon="5.76988">
        <ele>476.95</ele>
        <time>2019-01-26T10:41:16Z</time>
      </trkpt>
      <trkpt lat="43.46144" lon="5.76995">
        <ele>478.39</ele>
        <time>2019-01-26T10:41:22Z</time>
      </trkpt>
      <trkpt lat="43.46145" lon="5.76996">
        <ele>478.39</ele>
        <time>2019-01-26T10:41:23Z</time>
      </trkpt>
      <trkpt lat="43.46146" lon="5.77">
        <ele>478.87</ele>
        <time>2019-01-26T10:41:26Z</time>
      </trkpt>
      <trkpt lat="43.46147" lon="5.77002">
        <ele>478.87</ele>
        <time>2019-01-26T10:41:27Z</time>
      </trkpt>
      <trkpt lat="43.46149" lon="5.77006">
        <ele>479.84</ele>
        <time>2019-01-26T10:41:31Z</time>
      </trkpt>
      <trkpt lat="43.46148" lon="5.7701">
        <ele>480.32</ele>
        <time>2019-01-26T10:41:36Z</time>
      </trkpt>
      <trkpt lat="43.46149" lon="5.77012">
        <ele>481.28</ele>
        <time>2019-01-26T10:41:43Z</time>
      </trkpt>
      <trkpt lat="43.4615" lon="5.77012">
        <ele>481.28</ele>
        <time>2019-01-26T10:41:51Z</time>
      </trkpt>
      <trkpt lat="43.46149" lon="5.77012">
        <ele>481.28</ele>
        <time>2019-01-26T10:41:56Z</time>
      </trkpt>
      <trkpt lat="43.46149" lon="5.77012">
        <ele>481.28</ele>
        <time>2019-01-26T10:42:02Z</time>
      </trkpt>
      <trkpt lat="43.46148" lon="5.77012">
        <ele>479.84</ele>
        <time>2019-01-26T10:42:06Z</time>
      </trkpt>
      <trkpt lat="43.46149" lon="5.77012">
        <ele>479.84</ele>
        <time>2019-01-26T10:42:14Z</time>
      </trkpt>
      <trkpt lat="43.46149" lon="5.77012">
        <ele>479.84</ele>
        <time>2019-01-26T10:42:20Z</time>
      </trkpt>
      <trkpt lat="43.46149" lon="5.77012">
        <ele>479.84</ele>
        <time>2019-01-26T10:42:29Z</time>
      </trkpt>
      <trkpt lat="43.4615" lon="5.77011">
        <ele>481.28</ele>
        <time>2019-01-26T10:42:34Z</time>
      </trkpt>
      <trkpt lat="43.46149" lon="5.77011">
        <ele>481.28</ele>
        <time>2019-01-26T10:42:39Z</time>
      </trkpt>
      <trkpt lat="43.4615" lon="5.77011">
        <ele>481.28</ele>
        <time>2019-01-26T10:42:40Z</time>
      </trkpt>
      <trkpt lat="43.46152" lon="5.77009">
        <ele>481.28</ele>
        <time>2019-01-26T10:42:44Z</time>
      </trkpt>
      <trkpt lat="43.46152" lon="5.7701">
        <ele>483.2</ele>
        <time>2019-01-26T10:42:54Z</time>
      </trkpt>
      <trkpt lat="43.46153" lon="5.7701">
        <ele>483.68</ele>
        <time>2019-01-26T10:43:04Z</time>
      </trkpt>
      <trkpt lat="43.46152" lon="5.7701">
        <ele>483.68</ele>
        <time>2019-01-26T10:43:14Z</time>
      </trkpt>
      <trkpt lat="43.46152" lon="5.7701">
        <ele>483.68</ele>
        <time>2019-01-26T10:43:15Z</time>
      </trkpt>
      <trkpt lat="43.46153" lon="5.7701">
        <ele>483.68</ele>
        <time>2019-01-26T10:43:29Z</time>
      </trkpt>
      <trkpt lat="43.46152" lon="5.77009">
        <ele>483.68</ele>
        <time>2019-01-26T10:43:43Z</time>
      </trkpt>
      <trkpt lat="43.46152" lon="5.77008">
        <ele>483.68</ele>
        <time>2019-01-26T10:43:54Z</time>
      </trkpt>
      <trkpt lat="43.46153" lon="5.77009">
        <ele>483.68</ele>
        <time>2019-01-26T10:44:00Z</time>
      </trkpt>
      <trkpt lat="43.46153" lon="5.77009">
        <ele>483.68</ele>
        <time>2019-01-26T10:44:05Z</time>
      </trkpt>
      <trkpt lat="43.46155" lon="5.77008">
        <ele>483.68</ele>
        <time>2019-01-26T10:44:16Z</time>
      </trkpt>
      <trkpt lat="43.46154" lon="5.77009">
        <ele>483.68</ele>
        <time>2019-01-26T10:44:28Z</time>
      </trkpt>
      <trkpt lat="43.46155" lon="5.7701">
        <ele>483.68</ele>
        <time>2019-01-26T10:44:38Z</time>
      </trkpt>
      <trkpt lat="43.46155" lon="5.77011">
        <ele>481.76</ele>
        <time>2019-01-26T10:44:42Z</time>
      </trkpt>
      <trkpt lat="43.46154" lon="5.77012">
        <ele>483.2</ele>
        <time>2019-01-26T10:44:47Z</time>
      </trkpt>
      <trkpt lat="43.46154" lon="5.77012">
        <ele>482.72</ele>
        <time>2019-01-26T10:44:56Z</time>
      </trkpt>
      <trkpt lat="43.46153" lon="5.77013">
        <ele>481.28</ele>
        <time>2019-01-26T10:45:01Z</time>
      </trkpt>
      <trkpt lat="43.46152" lon="5.77013">
        <ele>480.8</ele>
        <time>2019-01-26T10:45:05Z</time>
      </trkpt>
      <trkpt lat="43.46151" lon="5.77015">
        <ele>479.84</ele>
        <time>2019-01-26T10:45:11Z</time>
      </trkpt>
      <trkpt lat="43.46151" lon="5.77014">
        <ele>479.35</ele>
        <time>2019-01-26T10:45:21Z</time>
      </trkpt>
      <trkpt lat="43.46151" lon="5.77014">
        <ele>479.35</ele>
        <time>2019-01-26T10:45:30Z</time>
      </trkpt>
      <trkpt lat="43.46151" lon="5.77013">
        <ele>479.35</ele>
        <time>2019-01-26T10:45:40Z</time>
      </trkpt>
      <trkpt lat="43.46152" lon="5.77014">
        <ele>479.35</ele>
        <time>2019-01-26T10:45:51Z</time>
      </trkpt>
      <trkpt lat="43.46151" lon="5.77015">
        <ele>479.35</ele>
        <time>2019-01-26T10:45:58Z</time>
      </trkpt>
      <trkpt lat="43.46151" lon="5.77014">
        <ele>480.32</ele>
        <time>2019-01-26T10:46:05Z</time>
      </trkpt>
      <trkpt lat="43.4615" lon="5.77014">
        <ele>480.32</ele>
        <time>2019-01-26T10:46:14Z</time>
      </trkpt>
      <trkpt lat="43.46152" lon="5.77014">
        <ele>480.32</ele>
        <time>2019-01-26T10:46:23Z</time>
      </trkpt>
      <trkpt lat="43.46152" lon="5.77014">
        <ele>480.32</ele>
        <time>2019-01-26T10:46:33Z</time>
      </trkpt>
      <trkpt lat="43.46152" lon="5.77013">
        <ele>480.32</ele>
        <time>2019-01-26T10:46:40Z</time>
      </trkpt>
      <trkpt lat="43.46152" lon="5.77012">
        <ele>480.32</ele>
        <time>2019-01-26T10:46:45Z</time>
      </trkpt>
      <trkpt lat="43.46151" lon="5.77011">
        <ele>480.8</ele>
        <time>2019-01-26T10:46:50Z</time>
      </trkpt>
      <trkpt lat="43.46151" lon="5.77012">
        <ele>480.8</ele>
        <time>2019-01-26T10:46:57Z</time>
      </trkpt>
      <trkpt lat="43.46152" lon="5.77012">
        <ele>479.35</ele>
        <time>2019-01-26T10:47:05Z</time>
      </trkpt>
      <trkpt lat="43.46152" lon="5.77012">
        <ele>479.35</ele>
        <time>2019-01-26T10:47:06Z</time>
      </trkpt>
      <trkpt lat="43.46151" lon="5.77012">
        <ele>479.35</ele>
        <time>2019-01-26T10:47:16Z</time>
      </trkpt>
      <trkpt lat="43.46151" lon="5.77013">
        <ele>479.35</ele>
        <time>2019-01-26T10:47:26Z</time>
      </trkpt>
      <trkpt lat="43.46152" lon="5.77013">
        <ele>479.35</ele>
        <time>2019-01-26T10:47:35Z</time>
      </trkpt>
      <trkpt lat="43.46151" lon="5.77012">
        <ele>479.35</ele>
        <time>2019-01-26T10:47:42Z</time>
      </trkpt>
      <trkpt lat="43.46151" lon="5.77013">
        <ele>480.8</ele>
        <time>2019-01-26T10:47:46Z</time>
      </trkpt>
      <trkpt lat="43.46151" lon="5.77014">
        <ele>480.8</ele>
        <time>2019-01-26T10:47:58Z</time>
      </trkpt>
      <trkpt lat="43.46152" lon="5.77015">
        <ele>480.8</ele>
        <time>2019-01-26T10:48:04Z</time>
      </trkpt>
      <trkpt lat="43.46153" lon="5.77017">
        <ele>480.8</ele>
        <time>2019-01-26T10:48:05Z</time>
      </trkpt>
      <trkpt lat="43.46153" lon="5.77024">
        <ele>481.76</ele>
        <time>2019-01-26T10:48:10Z</time>
      </trkpt>
      <trkpt lat="43.46153" lon="5.77028">
        <ele>482.24</ele>
        <time>2019-01-26T10:48:12Z</time>
      </trkpt>
      <trkpt lat="43.46153" lon="5.77031">
        <ele>482.24</ele>
        <time>2019-01-26T10:48:16Z</time>
      </trkpt>
      <trkpt lat="43.46153" lon="5.77033">
        <ele>482.24</ele>
        <time>2019-01-26T10:48:17Z</time>
      </trkpt>
      <trkpt lat="43.46153" lon="5.77034">
        <ele>482.24</ele>
        <time>2019-01-26T10:48:18Z</time>
      </trkpt>
      <trkpt lat="43.46153" lon="5.77038">
        <ele>483.2</ele>
        <time>2019-01-26T10:48:21Z</time>
      </trkpt>
      <trkpt lat="43.46153" lon="5.7704">
        <ele>483.2</ele>
        <time>2019-01-26T10:48:22Z</time>
      </trkpt>
      <trkpt lat="43.46153" lon="5.77042">
        <ele>483.2</ele>
        <time>2019-01-26T10:48:23Z</time>
      </trkpt>
      <trkpt lat="43.46153" lon="5.77044">
        <ele>483.68</ele>
        <time>2019-01-26T10:48:24Z</time>
      </trkpt>
      <trkpt lat="43.46153" lon="5.77046">
        <ele>483.68</ele>
        <time>2019-01-26T10:48:25Z</time>
      </trkpt>
      <trkpt lat="43.46153" lon="5.77048">
        <ele>484.16</ele>
        <time>2019-01-26T10:48:26Z</time>
      </trkpt>
      <trkpt lat="43.46154" lon="5.77054">
        <ele>485.12</ele>
        <time>2019-01-26T10:48:31Z</time>
      </trkpt>
      <trkpt lat="43.46154" lon="5.77057">
        <ele>485.12</ele>
        <time>2019-01-26T10:48:32Z</time>
      </trkpt>
      <trkpt lat="43.46155" lon="5.7706">
        <ele>485.6</ele>
        <time>2019-01-26T10:48:33Z</time>
      </trkpt>
      <trkpt lat="43.46155" lon="5.77062">
        <ele>485.6</ele>
        <time>2019-01-26T10:48:34Z</time>
      </trkpt>
      <trkpt lat="43.46157" lon="5.77069">
        <ele>487.05</ele>
        <time>2019-01-26T10:48:40Z</time>
      </trkpt>
      <trkpt lat="43.46158" lon="5.77082">
        <ele>488.49</ele>
        <time>2019-01-26T10:48:45Z</time>
      </trkpt>
      <trkpt lat="43.46158" lon="5.77089">
        <ele>490.41</ele>
        <time>2019-01-26T10:48:51Z</time>
      </trkpt>
      <trkpt lat="43.46161" lon="5.77101">
        <ele>491.85</ele>
        <time>2019-01-26T10:48:57Z</time>
      </trkpt>
      <trkpt lat="43.46161" lon="5.77111">
        <ele>493.29</ele>
        <time>2019-01-26T10:49:04Z</time>
      </trkpt>
      <trkpt lat="43.46161" lon="5.77121">
        <ele>494.26</ele>
        <time>2019-01-26T10:49:10Z</time>
      </trkpt>
      <trkpt lat="43.46162" lon="5.77123">
        <ele>494.74</ele>
        <time>2019-01-26T10:49:11Z</time>
      </trkpt>
      <trkpt lat="43.46162" lon="5.77125">
        <ele>494.74</ele>
        <time>2019-01-26T10:49:12Z</time>
      </trkpt>
      <trkpt lat="43.46162" lon="5.77127">
        <ele>495.22</ele>
        <time>2019-01-26T10:49:13Z</time>
      </trkpt>
      <trkpt lat="43.46163" lon="5.77137">
        <ele>496.18</ele>
        <time>2019-01-26T10:49:19Z</time>
      </trkpt>
      <trkpt lat="43.46163" lon="5.7714">
        <ele>496.18</ele>
        <time>2019-01-26T10:49:20Z</time>
      </trkpt>
      <trkpt lat="43.46166" lon="5.77151">
        <ele>497.62</ele>
        <time>2019-01-26T10:49:27Z</time>
      </trkpt>
      <trkpt lat="43.46166" lon="5.77152">
        <ele>497.62</ele>
        <time>2019-01-26T10:49:28Z</time>
      </trkpt>
      <trkpt lat="43.46166" lon="5.77154">
        <ele>497.62</ele>
        <time>2019-01-26T10:49:29Z</time>
      </trkpt>
      <trkpt lat="43.46167" lon="5.77156">
        <ele>497.62</ele>
        <time>2019-01-26T10:49:30Z</time>
      </trkpt>
      <trkpt lat="43.46167" lon="5.77161">
        <ele>499.06</ele>
        <time>2019-01-26T10:49:34Z</time>
      </trkpt>
      <trkpt lat="43.46167" lon="5.77163">
        <ele>499.06</ele>
        <time>2019-01-26T10:49:35Z</time>
      </trkpt>
      <trkpt lat="43.46166" lon="5.77165">
        <ele>499.06</ele>
        <time>2019-01-26T10:49:36Z</time>
      </trkpt>
      <trkpt lat="43.46165" lon="5.77166">
        <ele>499.54</ele>
        <time>2019-01-26T10:49:37Z</time>
      </trkpt>
      <trkpt lat="43.46161" lon="5.7717">
        <ele>500.02</ele>
        <time>2019-01-26T10:49:41Z</time>
      </trkpt>
      <trkpt lat="43.46159" lon="5.7717">
        <ele>500.02</ele>
        <time>2019-01-26T10:49:42Z</time>
      </trkpt>
      <trkpt lat="43.46155" lon="5.77171">
        <ele>500.98</ele>
        <time>2019-01-26T10:49:46Z</time>
      </trkpt>
      <trkpt lat="43.4615" lon="5.77166">
        <ele>501.46</ele>
        <time>2019-01-26T10:49:51Z</time>
      </trkpt>
      <trkpt lat="43.4615" lon="5.77164">
        <ele>501.46</ele>
        <time>2019-01-26T10:49:52Z</time>
      </trkpt>
      <trkpt lat="43.46149" lon="5.77163">
        <ele>501.95</ele>
        <time>2019-01-26T10:49:53Z</time>
      </trkpt>
      <trkpt lat="43.46144" lon="5.77155">
        <ele>502.91</ele>
        <time>2019-01-26T10:50:00Z</time>
      </trkpt>
      <trkpt lat="43.46143" lon="5.77155">
        <ele>502.91</ele>
        <time>2019-01-26T10:50:01Z</time>
      </trkpt>
      <trkpt lat="43.46136" lon="5.77151">
        <ele>504.83</ele>
        <time>2019-01-26T10:50:09Z</time>
      </trkpt>
      <trkpt lat="43.46134" lon="5.77148">
        <ele>504.83</ele>
        <time>2019-01-26T10:50:12Z</time>
      </trkpt>
      <trkpt lat="43.46126" lon="5.77144">
        <ele>506.75</ele>
        <time>2019-01-26T10:50:19Z</time>
      </trkpt>
      <trkpt lat="43.46117" lon="5.7714">
        <ele>507.71</ele>
        <time>2019-01-26T10:50:26Z</time>
      </trkpt>
      <trkpt lat="43.46114" lon="5.77138">
        <ele>508.67</ele>
        <time>2019-01-26T10:50:30Z</time>
      </trkpt>
      <trkpt lat="43.46112" lon="5.77136">
        <ele>508.67</ele>
        <time>2019-01-26T10:50:31Z</time>
      </trkpt>
      <trkpt lat="43.46111" lon="5.77136">
        <ele>508.67</ele>
        <time>2019-01-26T10:50:32Z</time>
      </trkpt>
      <trkpt lat="43.46106" lon="5.77134">
        <ele>509.16</ele>
        <time>2019-01-26T10:50:37Z</time>
      </trkpt>
      <trkpt lat="43.46104" lon="5.77132">
        <ele>510.12</ele>
        <time>2019-01-26T10:50:38Z</time>
      </trkpt>
      <trkpt lat="43.46103" lon="5.77131">
        <ele>510.12</ele>
        <time>2019-01-26T10:50:39Z</time>
      </trkpt>
      <trkpt lat="43.46101" lon="5.77129">
        <ele>510.12</ele>
        <time>2019-01-26T10:50:40Z</time>
      </trkpt>
      <trkpt lat="43.461" lon="5.77129">
        <ele>510.12</ele>
        <time>2019-01-26T10:50:41Z</time>
      </trkpt>
      <trkpt lat="43.46096" lon="5.77127">
        <ele>511.56</ele>
        <time>2019-01-26T10:50:46Z</time>
      </trkpt>
      <trkpt lat="43.46091" lon="5.7713">
        <ele>512.52</ele>
        <time>2019-01-26T10:50:53Z</time>
      </trkpt>
      <trkpt lat="43.46092" lon="5.77131">
        <ele>512.52</ele>
        <time>2019-01-26T10:50:55Z</time>
      </trkpt>
      <trkpt lat="43.46096" lon="5.7714">
        <ele>513</ele>
        <time>2019-01-26T10:51:03Z</time>
      </trkpt>
      <trkpt lat="43.46098" lon="5.77143">
        <ele>513.48</ele>
        <time>2019-01-26T10:51:07Z</time>
      </trkpt>
      <trkpt lat="43.461" lon="5.77153">
        <ele>513.96</ele>
        <time>2019-01-26T10:51:12Z</time>
      </trkpt>
      <trkpt lat="43.46104" lon="5.77164">
        <ele>513.96</ele>
        <time>2019-01-26T10:51:20Z</time>
      </trkpt>
      <trkpt lat="43.46105" lon="5.77179">
        <ele>514.92</ele>
        <time>2019-01-26T10:51:26Z</time>
      </trkpt>
      <trkpt lat="43.46105" lon="5.77187">
        <ele>514.92</ele>
        <time>2019-01-26T10:51:29Z</time>
      </trkpt>
      <trkpt lat="43.46106" lon="5.77201">
        <ele>515.88</ele>
        <time>2019-01-26T10:51:38Z</time>
      </trkpt>
      <trkpt lat="43.46105" lon="5.77206">
        <ele>515.88</ele>
        <time>2019-01-26T10:51:41Z</time>
      </trkpt>
      <trkpt lat="43.46106" lon="5.77212">
        <ele>516.37</ele>
        <time>2019-01-26T10:51:44Z</time>
      </trkpt>
      <trkpt lat="43.46105" lon="5.77228">
        <ele>517.33</ele>
        <time>2019-01-26T10:51:50Z</time>
      </trkpt>
      <trkpt lat="43.46106" lon="5.7723">
        <ele>517.33</ele>
        <time>2019-01-26T10:51:51Z</time>
      </trkpt>
      <trkpt lat="43.46106" lon="5.77231">
        <ele>517.33</ele>
        <time>2019-01-26T10:51:52Z</time>
      </trkpt>
      <trkpt lat="43.46106" lon="5.77234">
        <ele>517.81</ele>
        <time>2019-01-26T10:51:53Z</time>
      </trkpt>
      <trkpt lat="43.46106" lon="5.77236">
        <ele>517.81</ele>
        <time>2019-01-26T10:51:54Z</time>
      </trkpt>
      <trkpt lat="43.46106" lon="5.77237">
        <ele>517.81</ele>
        <time>2019-01-26T10:51:55Z</time>
      </trkpt>
      <trkpt lat="43.46106" lon="5.77239">
        <ele>517.81</ele>
        <time>2019-01-26T10:51:56Z</time>
      </trkpt>
      <trkpt lat="43.46106" lon="5.7724">
        <ele>518.29</ele>
        <time>2019-01-26T10:51:57Z</time>
      </trkpt>
      <trkpt lat="43.46109" lon="5.77251">
        <ele>519.25</ele>
        <time>2019-01-26T10:52:06Z</time>
      </trkpt>
      <trkpt lat="43.4611" lon="5.77253">
        <ele>519.25</ele>
        <time>2019-01-26T10:52:07Z</time>
      </trkpt>
      <trkpt lat="43.46111" lon="5.77255">
        <ele>519.73</ele>
        <time>2019-01-26T10:52:08Z</time>
      </trkpt>
      <trkpt lat="43.4611" lon="5.77258">
        <ele>519.73</ele>
        <time>2019-01-26T10:52:09Z</time>
      </trkpt>
      <trkpt lat="43.46109" lon="5.7726">
        <ele>519.73</ele>
        <time>2019-01-26T10:52:10Z</time>
      </trkpt>
      <trkpt lat="43.46108" lon="5.77263">
        <ele>519.73</ele>
        <time>2019-01-26T10:52:11Z</time>
      </trkpt>
      <trkpt lat="43.46107" lon="5.77266">
        <ele>519.73</ele>
        <time>2019-01-26T10:52:12Z</time>
      </trkpt>
      <trkpt lat="43.46106" lon="5.77269">
        <ele>519.73</ele>
        <time>2019-01-26T10:52:13Z</time>
      </trkpt>
      <trkpt lat="43.46106" lon="5.77272">
        <ele>520.21</ele>
        <time>2019-01-26T10:52:14Z</time>
      </trkpt>
      <trkpt lat="43.46105" lon="5.77275">
        <ele>520.21</ele>
        <time>2019-01-26T10:52:15Z</time>
      </trkpt>
      <trkpt lat="43.46105" lon="5.77278">
        <ele>520.21</ele>
        <time>2019-01-26T10:52:16Z</time>
      </trkpt>
      <trkpt lat="43.46104" lon="5.7728">
        <ele>520.21</ele>
        <time>2019-01-26T10:52:17Z</time>
      </trkpt>
      <trkpt lat="43.46104" lon="5.77283">
        <ele>520.21</ele>
        <time>2019-01-26T10:52:18Z</time>
      </trkpt>
      <trkpt lat="43.46105" lon="5.77293">
        <ele>521.17</ele>
        <time>2019-01-26T10:52:26Z</time>
      </trkpt>
      <trkpt lat="43.46108" lon="5.77304">
        <ele>521.65</ele>
        <time>2019-01-26T10:52:34Z</time>
      </trkpt>
      <trkpt lat="43.46109" lon="5.77306">
        <ele>522.13</ele>
        <time>2019-01-26T10:52:35Z</time>
      </trkpt>
      <trkpt lat="43.4611" lon="5.77307">
        <ele>522.13</ele>
        <time>2019-01-26T10:52:36Z</time>
      </trkpt>
      <trkpt lat="43.46111" lon="5.7731">
        <ele>522.13</ele>
        <time>2019-01-26T10:52:38Z</time>
      </trkpt>
      <trkpt lat="43.46111" lon="5.77312">
        <ele>522.13</ele>
        <time>2019-01-26T10:52:39Z</time>
      </trkpt>
      <trkpt lat="43.46111" lon="5.77314">
        <ele>522.13</ele>
        <time>2019-01-26T10:52:40Z</time>
      </trkpt>
      <trkpt lat="43.46112" lon="5.77316">
        <ele>522.61</ele>
        <time>2019-01-26T10:52:41Z</time>
      </trkpt>
      <trkpt lat="43.46112" lon="5.77318">
        <ele>522.61</ele>
        <time>2019-01-26T10:52:42Z</time>
      </trkpt>
      <trkpt lat="43.46117" lon="5.7733">
        <ele>523.09</ele>
        <time>2019-01-26T10:52:49Z</time>
      </trkpt>
      <trkpt lat="43.46119" lon="5.77334">
        <ele>523.58</ele>
        <time>2019-01-26T10:52:56Z</time>
      </trkpt>
      <trkpt lat="43.4612" lon="5.77334">
        <ele>523.58</ele>
        <time>2019-01-26T10:52:57Z</time>
      </trkpt>
      <trkpt lat="43.46122" lon="5.77334">
        <ele>524.06</ele>
        <time>2019-01-26T10:52:58Z</time>
      </trkpt>
      <trkpt lat="43.46123" lon="5.77335">
        <ele>524.06</ele>
        <time>2019-01-26T10:53:00Z</time>
      </trkpt>
      <trkpt lat="43.46124" lon="5.77336">
        <ele>524.06</ele>
        <time>2019-01-26T10:53:01Z</time>
      </trkpt>
      <trkpt lat="43.46125" lon="5.77338">
        <ele>524.06</ele>
        <time>2019-01-26T10:53:02Z</time>
      </trkpt>
      <trkpt lat="43.46126" lon="5.7734">
        <ele>524.06</ele>
        <time>2019-01-26T10:53:03Z</time>
      </trkpt>
      <trkpt lat="43.46129" lon="5.77351">
        <ele>525.98</ele>
        <time>2019-01-26T10:53:11Z</time>
      </trkpt>
      <trkpt lat="43.46129" lon="5.77353">
        <ele>526.46</ele>
        <time>2019-01-26T10:53:18Z</time>
      </trkpt>
      <trkpt lat="43.46131" lon="5.77355">
        <ele>525.02</ele>
        <time>2019-01-26T10:53:22Z</time>
      </trkpt>
      <trkpt lat="43.46131" lon="5.77356">
        <ele>525.02</ele>
        <time>2019-01-26T10:53:23Z</time>
      </trkpt>
      <trkpt lat="43.46131" lon="5.77358">
        <ele>525.02</ele>
        <time>2019-01-26T10:53:24Z</time>
      </trkpt>
      <trkpt lat="43.46132" lon="5.7736">
        <ele>525.02</ele>
        <time>2019-01-26T10:53:25Z</time>
      </trkpt>
      <trkpt lat="43.46132" lon="5.77361">
        <ele>525.02</ele>
        <time>2019-01-26T10:53:26Z</time>
      </trkpt>
      <trkpt lat="43.46133" lon="5.77363">
        <ele>526.46</ele>
        <time>2019-01-26T10:53:27Z</time>
      </trkpt>
      <trkpt lat="43.46133" lon="5.77365">
        <ele>526.46</ele>
        <time>2019-01-26T10:53:28Z</time>
      </trkpt>
      <trkpt lat="43.46136" lon="5.77372">
        <ele>526.94</ele>
        <time>2019-01-26T10:53:35Z</time>
      </trkpt>
      <trkpt lat="43.46137" lon="5.77379">
        <ele>527.9</ele>
        <time>2019-01-26T10:53:40Z</time>
      </trkpt>
      <trkpt lat="43.46143" lon="5.77391">
        <ele>527.9</ele>
        <time>2019-01-26T10:53:45Z</time>
      </trkpt>
      <trkpt lat="43.4615" lon="5.77404">
        <ele>528.86</ele>
        <time>2019-01-26T10:53:53Z</time>
      </trkpt>
      <trkpt lat="43.46156" lon="5.77414">
        <ele>529.82</ele>
        <time>2019-01-26T10:54:03Z</time>
      </trkpt>
      <trkpt lat="43.46156" lon="5.77415">
        <ele>529.82</ele>
        <time>2019-01-26T10:54:04Z</time>
      </trkpt>
      <trkpt lat="43.46157" lon="5.77416">
        <ele>530.3</ele>
        <time>2019-01-26T10:54:05Z</time>
      </trkpt>
      <trkpt lat="43.46158" lon="5.77417">
        <ele>530.3</ele>
        <time>2019-01-26T10:54:06Z</time>
      </trkpt>
      <trkpt lat="43.46158" lon="5.77419">
        <ele>530.3</ele>
        <time>2019-01-26T10:54:07Z</time>
      </trkpt>
      <trkpt lat="43.46162" lon="5.77432">
        <ele>531.75</ele>
        <time>2019-01-26T10:54:16Z</time>
      </trkpt>
      <trkpt lat="43.46165" lon="5.77442">
        <ele>532.71</ele>
        <time>2019-01-26T10:54:23Z</time>
      </trkpt>
      <trkpt lat="43.46169" lon="5.77453">
        <ele>533.19</ele>
        <time>2019-01-26T10:54:27Z</time>
      </trkpt>
      <trkpt lat="43.46171" lon="5.77457">
        <ele>533.19</ele>
        <time>2019-01-26T10:54:28Z</time>
      </trkpt>
      <trkpt lat="43.46172" lon="5.77461">
        <ele>533.19</ele>
        <time>2019-01-26T10:54:29Z</time>
      </trkpt>
      <trkpt lat="43.46173" lon="5.77464">
        <ele>533.19</ele>
        <time>2019-01-26T10:54:30Z</time>
      </trkpt>
      <trkpt lat="43.46173" lon="5.77467">
        <ele>533.19</ele>
        <time>2019-01-26T10:54:31Z</time>
      </trkpt>
      <trkpt lat="43.46179" lon="5.77484">
        <ele>534.15</ele>
        <time>2019-01-26T10:54:38Z</time>
      </trkpt>
      <trkpt lat="43.46182" lon="5.77495">
        <ele>535.59</ele>
        <time>2019-01-26T10:54:46Z</time>
      </trkpt>
      <trkpt lat="43.46184" lon="5.775">
        <ele>535.11</ele>
        <time>2019-01-26T10:54:49Z</time>
      </trkpt>
      <trkpt lat="43.46186" lon="5.77502">
        <ele>536.07</ele>
        <time>2019-01-26T10:54:50Z</time>
      </trkpt>
      <trkpt lat="43.46188" lon="5.77503">
        <ele>536.07</ele>
        <time>2019-01-26T10:54:51Z</time>
      </trkpt>
      <trkpt lat="43.46189" lon="5.77506">
        <ele>536.07</ele>
        <time>2019-01-26T10:54:52Z</time>
      </trkpt>
      <trkpt lat="43.4619" lon="5.77508">
        <ele>536.07</ele>
        <time>2019-01-26T10:54:53Z</time>
      </trkpt>
      <trkpt lat="43.46197" lon="5.77523">
        <ele>537.03</ele>
        <time>2019-01-26T10:55:00Z</time>
      </trkpt>
      <trkpt lat="43.46197" lon="5.77527">
        <ele>537.03</ele>
        <time>2019-01-26T10:55:03Z</time>
      </trkpt>
      <trkpt lat="43.46195" lon="5.77541">
        <ele>537.99</ele>
        <time>2019-01-26T10:55:12Z</time>
      </trkpt>
      <trkpt lat="43.46194" lon="5.77543">
        <ele>537.99</ele>
        <time>2019-01-26T10:55:13Z</time>
      </trkpt>
      <trkpt lat="43.46188" lon="5.77556">
        <ele>538.48</ele>
        <time>2019-01-26T10:55:19Z</time>
      </trkpt>
      <trkpt lat="43.46181" lon="5.77568">
        <ele>538.96</ele>
        <time>2019-01-26T10:55:25Z</time>
      </trkpt>
      <trkpt lat="43.4618" lon="5.7757">
        <ele>538.96</ele>
        <time>2019-01-26T10:55:26Z</time>
      </trkpt>
      <trkpt lat="43.46174" lon="5.77576">
        <ele>538.96</ele>
        <time>2019-01-26T10:55:29Z</time>
      </trkpt>
      <trkpt lat="43.46173" lon="5.77578">
        <ele>538.96</ele>
        <time>2019-01-26T10:55:30Z</time>
      </trkpt>
      <trkpt lat="43.4617" lon="5.77584">
        <ele>539.44</ele>
        <time>2019-01-26T10:55:33Z</time>
      </trkpt>
      <trkpt lat="43.4617" lon="5.77586">
        <ele>539.44</ele>
        <time>2019-01-26T10:55:34Z</time>
      </trkpt>
      <trkpt lat="43.46169" lon="5.77588">
        <ele>539.44</ele>
        <time>2019-01-26T10:55:35Z</time>
      </trkpt>
      <trkpt lat="43.46169" lon="5.7759">
        <ele>539.44</ele>
        <time>2019-01-26T10:55:36Z</time>
      </trkpt>
      <trkpt lat="43.46169" lon="5.77592">
        <ele>539.44</ele>
        <time>2019-01-26T10:55:37Z</time>
      </trkpt>
      <trkpt lat="43.46168" lon="5.77594">
        <ele>539.44</ele>
        <time>2019-01-26T10:55:38Z</time>
      </trkpt>
      <trkpt lat="43.46167" lon="5.77596">
        <ele>539.44</ele>
        <time>2019-01-26T10:55:39Z</time>
      </trkpt>
      <trkpt lat="43.46165" lon="5.77598">
        <ele>539.44</ele>
        <time>2019-01-26T10:55:40Z</time>
      </trkpt>
      <trkpt lat="43.46165" lon="5.77599">
        <ele>539.44</ele>
        <time>2019-01-26T10:55:41Z</time>
      </trkpt>
      <trkpt lat="43.46164" lon="5.776">
        <ele>539.44</ele>
        <time>2019-01-26T10:55:42Z</time>
      </trkpt>
      <trkpt lat="43.46162" lon="5.77606">
        <ele>539.44</ele>
        <time>2019-01-26T10:55:46Z</time>
      </trkpt>
      <trkpt lat="43.46161" lon="5.77607">
        <ele>539.44</ele>
        <time>2019-01-26T10:55:47Z</time>
      </trkpt>
      <trkpt lat="43.46159" lon="5.77616">
        <ele>539.92</ele>
        <time>2019-01-26T10:55:53Z</time>
      </trkpt>
      <trkpt lat="43.46157" lon="5.77618">
        <ele>539.92</ele>
        <time>2019-01-26T10:55:54Z</time>
      </trkpt>
      <trkpt lat="43.46148" lon="5.77631">
        <ele>540.88</ele>
        <time>2019-01-26T10:56:02Z</time>
      </trkpt>
      <trkpt lat="43.46147" lon="5.7763">
        <ele>540.88</ele>
        <time>2019-01-26T10:56:08Z</time>
      </trkpt>
      <trkpt lat="43.46149" lon="5.77628">
        <ele>540.88</ele>
        <time>2019-01-26T10:56:16Z</time>
      </trkpt>
      <trkpt lat="43.46143" lon="5.77623">
        <ele>540.88</ele>
        <time>2019-01-26T10:56:29Z</time>
      </trkpt>
      <trkpt lat="43.46143" lon="5.77622">
        <ele>540.88</ele>
        <time>2019-01-26T10:56:46Z</time>
      </trkpt>
      <trkpt lat="43.46148" lon="5.77625">
        <ele>540.88</ele>
        <time>2019-01-26T10:57:00Z</time>
      </trkpt>
      <trkpt lat="43.46147" lon="5.77625">
        <ele>540.88</ele>
        <time>2019-01-26T10:57:15Z</time>
      </trkpt>
      <trkpt lat="43.46146" lon="5.7763">
        <ele>540.88</ele>
        <time>2019-01-26T10:57:25Z</time>
      </trkpt>
      <trkpt lat="43.46145" lon="5.77629">
        <ele>540.88</ele>
        <time>2019-01-26T10:57:31Z</time>
      </trkpt>
      <trkpt lat="43.46145" lon="5.77631">
        <ele>540.88</ele>
        <time>2019-01-26T10:57:41Z</time>
      </trkpt>
      <trkpt lat="43.46145" lon="5.77629">
        <ele>541.36</ele>
        <time>2019-01-26T10:57:58Z</time>
      </trkpt>
      <trkpt lat="43.46146" lon="5.77627">
        <ele>541.36</ele>
        <time>2019-01-26T10:58:09Z</time>
      </trkpt>
      <trkpt lat="43.46145" lon="5.77627">
        <ele>541.84</ele>
        <time>2019-01-26T10:58:20Z</time>
      </trkpt>
      <trkpt lat="43.46146" lon="5.77627">
        <ele>541.84</ele>
        <time>2019-01-26T10:58:31Z</time>
      </trkpt>
      <trkpt lat="43.46147" lon="5.77624">
        <ele>541.84</ele>
        <time>2019-01-26T10:58:39Z</time>
      </trkpt>
      <trkpt lat="43.46145" lon="5.77624">
        <ele>541.84</ele>
        <time>2019-01-26T10:58:49Z</time>
      </trkpt>
      <trkpt lat="43.46144" lon="5.77626">
        <ele>541.36</ele>
        <time>2019-01-26T10:58:58Z</time>
      </trkpt>
      <trkpt lat="43.46147" lon="5.77623">
        <ele>541.36</ele>
        <time>2019-01-26T10:59:08Z</time>
      </trkpt>
      <trkpt lat="43.46143" lon="5.77623">
        <ele>541.36</ele>
        <time>2019-01-26T10:59:24Z</time>
      </trkpt>
      <trkpt lat="43.46142" lon="5.77623">
        <ele>541.36</ele>
        <time>2019-01-26T10:59:36Z</time>
      </trkpt>
      <trkpt lat="43.46146" lon="5.77625">
        <ele>541.36</ele>
        <time>2019-01-26T10:59:52Z</time>
      </trkpt>
      <trkpt lat="43.46143" lon="5.77621">
        <ele>541.36</ele>
        <time>2019-01-26T10:59:57Z</time>
      </trkpt>
      <trkpt lat="43.46143" lon="5.77619">
        <ele>541.36</ele>
        <time>2019-01-26T10:59:58Z</time>
      </trkpt>
      <trkpt lat="43.46143" lon="5.7761">
        <ele>542.32</ele>
        <time>2019-01-26T11:00:04Z</time>
      </trkpt>
      <trkpt lat="43.46143" lon="5.77603">
        <ele>542.32</ele>
        <time>2019-01-26T11:00:10Z</time>
      </trkpt>
      <trkpt lat="43.46143" lon="5.77601">
        <ele>542.32</ele>
        <time>2019-01-26T11:00:11Z</time>
      </trkpt>
      <trkpt lat="43.46142" lon="5.77596">
        <ele>542.8</ele>
        <time>2019-01-26T11:00:15Z</time>
      </trkpt>
      <trkpt lat="43.46143" lon="5.77595">
        <ele>542.8</ele>
        <time>2019-01-26T11:00:16Z</time>
      </trkpt>
      <trkpt lat="43.46144" lon="5.77593">
        <ele>542.8</ele>
        <time>2019-01-26T11:00:17Z</time>
      </trkpt>
      <trkpt lat="43.46146" lon="5.77585">
        <ele>543.28</ele>
        <time>2019-01-26T11:00:23Z</time>
      </trkpt>
      <trkpt lat="43.46147" lon="5.77581">
        <ele>543.28</ele>
        <time>2019-01-26T11:00:25Z</time>
      </trkpt>
      <trkpt lat="43.46149" lon="5.77577">
        <ele>543.76</ele>
        <time>2019-01-26T11:00:29Z</time>
      </trkpt>
      <trkpt lat="43.46149" lon="5.77575">
        <ele>543.76</ele>
        <time>2019-01-26T11:00:30Z</time>
      </trkpt>
      <trkpt lat="43.46149" lon="5.77574">
        <ele>543.76</ele>
        <time>2019-01-26T11:00:31Z</time>
      </trkpt>
      <trkpt lat="43.4615" lon="5.77573">
        <ele>544.24</ele>
        <time>2019-01-26T11:00:32Z</time>
      </trkpt>
      <trkpt lat="43.46151" lon="5.77571">
        <ele>544.24</ele>
        <time>2019-01-26T11:00:33Z</time>
      </trkpt>
      <trkpt lat="43.46152" lon="5.77569">
        <ele>544.24</ele>
        <time>2019-01-26T11:00:34Z</time>
      </trkpt>
      <trkpt lat="43.46156" lon="5.77559">
        <ele>544.72</ele>
        <time>2019-01-26T11:00:42Z</time>
      </trkpt>
      <trkpt lat="43.46156" lon="5.77559">
        <ele>545.2</ele>
        <time>2019-01-26T11:00:52Z</time>
      </trkpt>
      <trkpt lat="43.46155" lon="5.77557">
        <ele>545.2</ele>
        <time>2019-01-26T11:00:55Z</time>
      </trkpt>
      <trkpt lat="43.46155" lon="5.77555">
        <ele>545.2</ele>
        <time>2019-01-26T11:00:56Z</time>
      </trkpt>
      <trkpt lat="43.46155" lon="5.77553">
        <ele>545.2</ele>
        <time>2019-01-26T11:00:58Z</time>
      </trkpt>
      <trkpt lat="43.46156" lon="5.77551">
        <ele>545.2</ele>
        <time>2019-01-26T11:01:00Z</time>
      </trkpt>
      <trkpt lat="43.46156" lon="5.77549">
        <ele>545.69</ele>
        <time>2019-01-26T11:01:01Z</time>
      </trkpt>
      <trkpt lat="43.46156" lon="5.77544">
        <ele>545.69</ele>
        <time>2019-01-26T11:01:05Z</time>
      </trkpt>
      <trkpt lat="43.46156" lon="5.77543">
        <ele>545.69</ele>
        <time>2019-01-26T11:01:06Z</time>
      </trkpt>
      <trkpt lat="43.46156" lon="5.77541">
        <ele>545.69</ele>
        <time>2019-01-26T11:01:07Z</time>
      </trkpt>
      <trkpt lat="43.46154" lon="5.77534">
        <ele>546.17</ele>
        <time>2019-01-26T11:01:13Z</time>
      </trkpt>
      <trkpt lat="43.46154" lon="5.77528">
        <ele>547.13</ele>
        <time>2019-01-26T11:01:18Z</time>
      </trkpt>
      <trkpt lat="43.46154" lon="5.77526">
        <ele>547.13</ele>
        <time>2019-01-26T11:01:19Z</time>
      </trkpt>
      <trkpt lat="43.46153" lon="5.77524">
        <ele>547.13</ele>
        <time>2019-01-26T11:01:20Z</time>
      </trkpt>
      <trkpt lat="43.46151" lon="5.77514">
        <ele>548.09</ele>
        <time>2019-01-26T11:01:27Z</time>
      </trkpt>
      <trkpt lat="43.4615" lon="5.77513">
        <ele>548.09</ele>
        <time>2019-01-26T11:01:28Z</time>
      </trkpt>
      <trkpt lat="43.46148" lon="5.77508">
        <ele>548.57</ele>
        <time>2019-01-26T11:01:32Z</time>
      </trkpt>
      <trkpt lat="43.46148" lon="5.77506">
        <ele>548.57</ele>
        <time>2019-01-26T11:01:33Z</time>
      </trkpt>
      <trkpt lat="43.46147" lon="5.77504">
        <ele>548.57</ele>
        <time>2019-01-26T11:01:34Z</time>
      </trkpt>
      <trkpt lat="43.46146" lon="5.77503">
        <ele>549.05</ele>
        <time>2019-01-26T11:01:35Z</time>
      </trkpt>
      <trkpt lat="43.46145" lon="5.77501">
        <ele>549.05</ele>
        <time>2019-01-26T11:01:36Z</time>
      </trkpt>
      <trkpt lat="43.46139" lon="5.77494">
        <ele>550.01</ele>
        <time>2019-01-26T11:01:43Z</time>
      </trkpt>
      <trkpt lat="43.46133" lon="5.77492">
        <ele>550.49</ele>
        <time>2019-01-26T11:01:50Z</time>
      </trkpt>
      <trkpt lat="43.46123" lon="5.77492">
        <ele>551.45</ele>
        <time>2019-01-26T11:01:58Z</time>
      </trkpt>
      <trkpt lat="43.46116" lon="5.77492">
        <ele>551.93</ele>
        <time>2019-01-26T11:02:07Z</time>
      </trkpt>
      <trkpt lat="43.46115" lon="5.77491">
        <ele>551.93</ele>
        <time>2019-01-26T11:02:08Z</time>
      </trkpt>
      <trkpt lat="43.46113" lon="5.7749">
        <ele>552.41</ele>
        <time>2019-01-26T11:02:10Z</time>
      </trkpt>
      <trkpt lat="43.46112" lon="5.7749">
        <ele>552.41</ele>
        <time>2019-01-26T11:02:11Z</time>
      </trkpt>
      <trkpt lat="43.4611" lon="5.77489">
        <ele>552.41</ele>
        <time>2019-01-26T11:02:12Z</time>
      </trkpt>
      <trkpt lat="43.46109" lon="5.7749">
        <ele>552.41</ele>
        <time>2019-01-26T11:02:13Z</time>
      </trkpt>
      <trkpt lat="43.46103" lon="5.7749">
        <ele>553.38</ele>
        <time>2019-01-26T11:02:19Z</time>
      </trkpt>
      <trkpt lat="43.46102" lon="5.7749">
        <ele>553.38</ele>
        <time>2019-01-26T11:02:20Z</time>
      </trkpt>
      <trkpt lat="43.461" lon="5.7749">
        <ele>553.38</ele>
        <time>2019-01-26T11:02:21Z</time>
      </trkpt>
      <trkpt lat="43.46094" lon="5.77487">
        <ele>553.86</ele>
        <time>2019-01-26T11:02:25Z</time>
      </trkpt>
      <trkpt lat="43.46092" lon="5.77485">
        <ele>553.86</ele>
        <time>2019-01-26T11:02:26Z</time>
      </trkpt>
      <trkpt lat="43.46089" lon="5.77484">
        <ele>553.86</ele>
        <time>2019-01-26T11:02:27Z</time>
      </trkpt>
      <trkpt lat="43.46081" lon="5.7748">
        <ele>554.82</ele>
        <time>2019-01-26T11:02:34Z</time>
      </trkpt>
      <trkpt lat="43.46074" lon="5.77469">
        <ele>555.78</ele>
        <time>2019-01-26T11:02:42Z</time>
      </trkpt>
      <trkpt lat="43.46067" lon="5.77455">
        <ele>555.78</ele>
        <time>2019-01-26T11:02:50Z</time>
      </trkpt>
      <trkpt lat="43.46063" lon="5.77451">
        <ele>556.74</ele>
        <time>2019-01-26T11:02:55Z</time>
      </trkpt>
      <trkpt lat="43.46062" lon="5.7745">
        <ele>556.74</ele>
        <time>2019-01-26T11:02:56Z</time>
      </trkpt>
      <trkpt lat="43.46061" lon="5.77448">
        <ele>556.74</ele>
        <time>2019-01-26T11:02:57Z</time>
      </trkpt>
      <trkpt lat="43.4606" lon="5.77447">
        <ele>556.74</ele>
        <time>2019-01-26T11:02:58Z</time>
      </trkpt>
      <trkpt lat="43.46059" lon="5.77445">
        <ele>556.74</ele>
        <time>2019-01-26T11:02:59Z</time>
      </trkpt>
      <trkpt lat="43.46057" lon="5.77444">
        <ele>556.74</ele>
        <time>2019-01-26T11:03:00Z</time>
      </trkpt>
      <trkpt lat="43.46056" lon="5.77442">
        <ele>556.74</ele>
        <time>2019-01-26T11:03:01Z</time>
      </trkpt>
      <trkpt lat="43.46055" lon="5.77441">
        <ele>556.74</ele>
        <time>2019-01-26T11:03:02Z</time>
      </trkpt>
      <trkpt lat="43.46054" lon="5.77439">
        <ele>556.74</ele>
        <time>2019-01-26T11:03:03Z</time>
      </trkpt>
      <trkpt lat="43.46052" lon="5.77438">
        <ele>556.74</ele>
        <time>2019-01-26T11:03:04Z</time>
      </trkpt>
      <trkpt lat="43.46051" lon="5.77437">
        <ele>557.22</ele>
        <time>2019-01-26T11:03:05Z</time>
      </trkpt>
      <trkpt lat="43.46045" lon="5.77433">
        <ele>558.18</ele>
        <time>2019-01-26T11:03:11Z</time>
      </trkpt>
      <trkpt lat="43.46036" lon="5.77426">
        <ele>559.14</ele>
        <time>2019-01-26T11:03:19Z</time>
      </trkpt>
      <trkpt lat="43.46028" lon="5.77414">
        <ele>559.62</ele>
        <time>2019-01-26T11:03:27Z</time>
      </trkpt>
      <trkpt lat="43.46025" lon="5.77408">
        <ele>560.59</ele>
        <time>2019-01-26T11:03:33Z</time>
      </trkpt>
      <trkpt lat="43.46024" lon="5.77406">
        <ele>560.59</ele>
        <time>2019-01-26T11:03:34Z</time>
      </trkpt>
      <trkpt lat="43.46024" lon="5.77405">
        <ele>560.59</ele>
        <time>2019-01-26T11:03:35Z</time>
      </trkpt>
      <trkpt lat="43.46023" lon="5.77403">
        <ele>561.07</ele>
        <time>2019-01-26T11:03:36Z</time>
      </trkpt>
      <trkpt lat="43.46021" lon="5.77401">
        <ele>561.07</ele>
        <time>2019-01-26T11:03:37Z</time>
      </trkpt>
      <trkpt lat="43.4602" lon="5.77399">
        <ele>561.07</ele>
        <time>2019-01-26T11:03:38Z</time>
      </trkpt>
      <trkpt lat="43.46019" lon="5.77397">
        <ele>561.07</ele>
        <time>2019-01-26T11:03:39Z</time>
      </trkpt>
      <trkpt lat="43.46018" lon="5.77395">
        <ele>561.07</ele>
        <time>2019-01-26T11:03:40Z</time>
      </trkpt>
      <trkpt lat="43.46017" lon="5.77394">
        <ele>561.07</ele>
        <time>2019-01-26T11:03:41Z</time>
      </trkpt>
      <trkpt lat="43.46016" lon="5.77392">
        <ele>561.07</ele>
        <time>2019-01-26T11:03:42Z</time>
      </trkpt>
      <trkpt lat="43.46014" lon="5.77387">
        <ele>561.55</ele>
        <time>2019-01-26T11:03:47Z</time>
      </trkpt>
      <trkpt lat="43.46011" lon="5.77381">
        <ele>562.03</ele>
        <time>2019-01-26T11:03:52Z</time>
      </trkpt>
      <trkpt lat="43.46011" lon="5.77379">
        <ele>562.03</ele>
        <time>2019-01-26T11:03:53Z</time>
      </trkpt>
      <trkpt lat="43.4601" lon="5.77376">
        <ele>562.51</ele>
        <time>2019-01-26T11:03:54Z</time>
      </trkpt>
      <trkpt lat="43.46009" lon="5.77374">
        <ele>562.51</ele>
        <time>2019-01-26T11:03:55Z</time>
      </trkpt>
      <trkpt lat="43.46008" lon="5.77372">
        <ele>562.51</ele>
        <time>2019-01-26T11:03:56Z</time>
      </trkpt>
      <trkpt lat="43.46006" lon="5.77369">
        <ele>562.51</ele>
        <time>2019-01-26T11:03:57Z</time>
      </trkpt>
      <trkpt lat="43.46006" lon="5.77368">
        <ele>562.51</ele>
        <time>2019-01-26T11:03:58Z</time>
      </trkpt>
      <trkpt lat="43.46006" lon="5.77366">
        <ele>562.51</ele>
        <time>2019-01-26T11:03:59Z</time>
      </trkpt>
      <trkpt lat="43.46005" lon="5.77365">
        <ele>562.51</ele>
        <time>2019-01-26T11:04:00Z</time>
      </trkpt>
      <trkpt lat="43.46003" lon="5.77354">
        <ele>563.95</ele>
        <time>2019-01-26T11:04:08Z</time>
      </trkpt>
      <trkpt lat="43.46002" lon="5.7735">
        <ele>563.95</ele>
        <time>2019-01-26T11:04:10Z</time>
      </trkpt>
      <trkpt lat="43.46001" lon="5.77348">
        <ele>563.95</ele>
        <time>2019-01-26T11:04:11Z</time>
      </trkpt>
      <trkpt lat="43.46001" lon="5.77345">
        <ele>563.95</ele>
        <time>2019-01-26T11:04:12Z</time>
      </trkpt>
      <trkpt lat="43.45996" lon="5.77334">
        <ele>564.91</ele>
        <time>2019-01-26T11:04:20Z</time>
      </trkpt>
      <trkpt lat="43.45996" lon="5.77331">
        <ele>564.91</ele>
        <time>2019-01-26T11:04:22Z</time>
      </trkpt>
      <trkpt lat="43.45994" lon="5.77329">
        <ele>564.91</ele>
        <time>2019-01-26T11:04:23Z</time>
      </trkpt>
      <trkpt lat="43.45986" lon="5.77315">
        <ele>565.39</ele>
        <time>2019-01-26T11:04:31Z</time>
      </trkpt>
      <trkpt lat="43.45983" lon="5.77309">
        <ele>565.87</ele>
        <time>2019-01-26T11:04:37Z</time>
      </trkpt>
      <trkpt lat="43.45981" lon="5.77307">
        <ele>565.87</ele>
        <time>2019-01-26T11:04:39Z</time>
      </trkpt>
      <trkpt lat="43.4598" lon="5.77304">
        <ele>565.87</ele>
        <time>2019-01-26T11:04:41Z</time>
      </trkpt>
      <trkpt lat="43.45979" lon="5.77302">
        <ele>565.87</ele>
        <time>2019-01-26T11:04:42Z</time>
      </trkpt>
      <trkpt lat="43.45978" lon="5.773">
        <ele>565.87</ele>
        <time>2019-01-26T11:04:43Z</time>
      </trkpt>
      <trkpt lat="43.45976" lon="5.77298">
        <ele>566.35</ele>
        <time>2019-01-26T11:04:44Z</time>
      </trkpt>
      <trkpt lat="43.45975" lon="5.77297">
        <ele>566.35</ele>
        <time>2019-01-26T11:04:45Z</time>
      </trkpt>
      <trkpt lat="43.45974" lon="5.77295">
        <ele>566.35</ele>
        <time>2019-01-26T11:04:46Z</time>
      </trkpt>
      <trkpt lat="43.45974" lon="5.77293">
        <ele>566.83</ele>
        <time>2019-01-26T11:04:47Z</time>
      </trkpt>
      <trkpt lat="43.45974" lon="5.77292">
        <ele>566.83</ele>
        <time>2019-01-26T11:04:48Z</time>
      </trkpt>
      <trkpt lat="43.45971" lon="5.77287">
        <ele>567.32</ele>
        <time>2019-01-26T11:04:53Z</time>
      </trkpt>
      <trkpt lat="43.45969" lon="5.77284">
        <ele>567.32</ele>
        <time>2019-01-26T11:04:56Z</time>
      </trkpt>
      <trkpt lat="43.45969" lon="5.77282">
        <ele>567.32</ele>
        <time>2019-01-26T11:04:57Z</time>
      </trkpt>
      <trkpt lat="43.45969" lon="5.7728">
        <ele>567.32</ele>
        <time>2019-01-26T11:04:58Z</time>
      </trkpt>
      <trkpt lat="43.45968" lon="5.77277">
        <ele>567.8</ele>
        <time>2019-01-26T11:04:59Z</time>
      </trkpt>
      <trkpt lat="43.45967" lon="5.77275">
        <ele>567.8</ele>
        <time>2019-01-26T11:05:00Z</time>
      </trkpt>
      <trkpt lat="43.45965" lon="5.77273">
        <ele>567.8</ele>
        <time>2019-01-26T11:05:01Z</time>
      </trkpt>
      <trkpt lat="43.45963" lon="5.77272">
        <ele>567.8</ele>
        <time>2019-01-26T11:05:02Z</time>
      </trkpt>
      <trkpt lat="43.45962" lon="5.7727">
        <ele>567.8</ele>
        <time>2019-01-26T11:05:03Z</time>
      </trkpt>
      <trkpt lat="43.45961" lon="5.77269">
        <ele>568.28</ele>
        <time>2019-01-26T11:05:04Z</time>
      </trkpt>
      <trkpt lat="43.45959" lon="5.77266">
        <ele>568.28</ele>
        <time>2019-01-26T11:05:08Z</time>
      </trkpt>
      <trkpt lat="43.45957" lon="5.77264">
        <ele>568.76</ele>
        <time>2019-01-26T11:05:10Z</time>
      </trkpt>
      <trkpt lat="43.45956" lon="5.77263">
        <ele>569.24</ele>
        <time>2019-01-26T11:05:11Z</time>
      </trkpt>
      <trkpt lat="43.45955" lon="5.77261">
        <ele>569.24</ele>
        <time>2019-01-26T11:05:12Z</time>
      </trkpt>
      <trkpt lat="43.45954" lon="5.77259">
        <ele>569.24</ele>
        <time>2019-01-26T11:05:13Z</time>
      </trkpt>
      <trkpt lat="43.45953" lon="5.77257">
        <ele>569.24</ele>
        <time>2019-01-26T11:05:14Z</time>
      </trkpt>
      <trkpt lat="43.45953" lon="5.77249">
        <ele>569.72</ele>
        <time>2019-01-26T11:05:19Z</time>
      </trkpt>
      <trkpt lat="43.45949" lon="5.77235">
        <ele>570.2</ele>
        <time>2019-01-26T11:05:27Z</time>
      </trkpt>
      <trkpt lat="43.45945" lon="5.77227">
        <ele>570.2</ele>
        <time>2019-01-26T11:05:31Z</time>
      </trkpt>
      <trkpt lat="43.45945" lon="5.77224">
        <ele>570.2</ele>
        <time>2019-01-26T11:05:32Z</time>
      </trkpt>
      <trkpt lat="43.45944" lon="5.77222">
        <ele>570.68</ele>
        <time>2019-01-26T11:05:33Z</time>
      </trkpt>
      <trkpt lat="43.45944" lon="5.77221">
        <ele>570.68</ele>
        <time>2019-01-26T11:05:34Z</time>
      </trkpt>
      <trkpt lat="43.45943" lon="5.77219">
        <ele>570.68</ele>
        <time>2019-01-26T11:05:35Z</time>
      </trkpt>
      <trkpt lat="43.45943" lon="5.77218">
        <ele>570.68</ele>
        <time>2019-01-26T11:05:36Z</time>
      </trkpt>
      <trkpt lat="43.45943" lon="5.77211">
        <ele>571.64</ele>
        <time>2019-01-26T11:05:42Z</time>
      </trkpt>
      <trkpt lat="43.45943" lon="5.77209">
        <ele>571.64</ele>
        <time>2019-01-26T11:05:43Z</time>
      </trkpt>
      <trkpt lat="43.45943" lon="5.77207">
        <ele>571.64</ele>
        <time>2019-01-26T11:05:44Z</time>
      </trkpt>
      <trkpt lat="43.45942" lon="5.77205">
        <ele>572.12</ele>
        <time>2019-01-26T11:05:45Z</time>
      </trkpt>
      <trkpt lat="43.45941" lon="5.77202">
        <ele>572.12</ele>
        <time>2019-01-26T11:05:46Z</time>
      </trkpt>
      <trkpt lat="43.4594" lon="5.77195">
        <ele>573.08</ele>
        <time>2019-01-26T11:05:52Z</time>
      </trkpt>
      <trkpt lat="43.4594" lon="5.77191">
        <ele>573.08</ele>
        <time>2019-01-26T11:05:54Z</time>
      </trkpt>
      <trkpt lat="43.4594" lon="5.77189">
        <ele>573.56</ele>
        <time>2019-01-26T11:05:55Z</time>
      </trkpt>
      <trkpt lat="43.45939" lon="5.77187">
        <ele>573.56</ele>
        <time>2019-01-26T11:05:56Z</time>
      </trkpt>
      <trkpt lat="43.45939" lon="5.77184">
        <ele>573.56</ele>
        <time>2019-01-26T11:05:57Z</time>
      </trkpt>
      <trkpt lat="43.45938" lon="5.77182">
        <ele>573.56</ele>
        <time>2019-01-26T11:05:58Z</time>
      </trkpt>
      <trkpt lat="43.45937" lon="5.7718">
        <ele>573.56</ele>
        <time>2019-01-26T11:05:59Z</time>
      </trkpt>
      <trkpt lat="43.45936" lon="5.77178">
        <ele>573.56</ele>
        <time>2019-01-26T11:06:00Z</time>
      </trkpt>
      <trkpt lat="43.45935" lon="5.77176">
        <ele>573.56</ele>
        <time>2019-01-26T11:06:01Z</time>
      </trkpt>
      <trkpt lat="43.45932" lon="5.77167">
        <ele>574.53</ele>
        <time>2019-01-26T11:06:08Z</time>
      </trkpt>
      <trkpt lat="43.4593" lon="5.77156">
        <ele>575.01</ele>
        <time>2019-01-26T11:06:14Z</time>
      </trkpt>
      <trkpt lat="43.45925" lon="5.77148">
        <ele>575.49</ele>
        <time>2019-01-26T11:06:20Z</time>
      </trkpt>
      <trkpt lat="43.45924" lon="5.77146">
        <ele>575.97</ele>
        <time>2019-01-26T11:06:22Z</time>
      </trkpt>
      <trkpt lat="43.45923" lon="5.77144">
        <ele>575.97</ele>
        <time>2019-01-26T11:06:23Z</time>
      </trkpt>
      <trkpt lat="43.45921" lon="5.77141">
        <ele>576.93</ele>
        <time>2019-01-26T11:06:24Z</time>
      </trkpt>
      <trkpt lat="43.4592" lon="5.77139">
        <ele>576.93</ele>
        <time>2019-01-26T11:06:25Z</time>
      </trkpt>
      <trkpt lat="43.45919" lon="5.77137">
        <ele>576.93</ele>
        <time>2019-01-26T11:06:26Z</time>
      </trkpt>
      <trkpt lat="43.45918" lon="5.77135">
        <ele>576.93</ele>
        <time>2019-01-26T11:06:27Z</time>
      </trkpt>
      <trkpt lat="43.45913" lon="5.77128">
        <ele>577.41</ele>
        <time>2019-01-26T11:06:33Z</time>
      </trkpt>
      <trkpt lat="43.45912" lon="5.77126">
        <ele>577.41</ele>
        <time>2019-01-26T11:06:34Z</time>
      </trkpt>
      <trkpt lat="43.45911" lon="5.77125">
        <ele>578.37</ele>
        <time>2019-01-26T11:06:35Z</time>
      </trkpt>
      <trkpt lat="43.4591" lon="5.77124">
        <ele>578.37</ele>
        <time>2019-01-26T11:06:36Z</time>
      </trkpt>
      <trkpt lat="43.45906" lon="5.77124">
        <ele>578.37</ele>
        <time>2019-01-26T11:06:41Z</time>
      </trkpt>
      <trkpt lat="43.45905" lon="5.77125">
        <ele>578.37</ele>
        <time>2019-01-26T11:06:42Z</time>
      </trkpt>
      <trkpt lat="43.45904" lon="5.77126">
        <ele>578.37</ele>
        <time>2019-01-26T11:06:43Z</time>
      </trkpt>
      <trkpt lat="43.45903" lon="5.77128">
        <ele>578.85</ele>
        <time>2019-01-26T11:06:44Z</time>
      </trkpt>
      <trkpt lat="43.45898" lon="5.77135">
        <ele>579.33</ele>
        <time>2019-01-26T11:06:51Z</time>
      </trkpt>
      <trkpt lat="43.45892" lon="5.77145">
        <ele>580.77</ele>
        <time>2019-01-26T11:06:59Z</time>
      </trkpt>
      <trkpt lat="43.45886" lon="5.77155">
        <ele>581.73</ele>
        <time>2019-01-26T11:07:06Z</time>
      </trkpt>
      <trkpt lat="43.4588" lon="5.77163">
        <ele>582.7</ele>
        <time>2019-01-26T11:07:14Z</time>
      </trkpt>
      <trkpt lat="43.45872" lon="5.77173">
        <ele>583.18</ele>
        <time>2019-01-26T11:07:20Z</time>
      </trkpt>
      <trkpt lat="43.45869" lon="5.77184">
        <ele>583.66</ele>
        <time>2019-01-26T11:07:28Z</time>
      </trkpt>
      <trkpt lat="43.45869" lon="5.77186">
        <ele>583.66</ele>
        <time>2019-01-26T11:07:29Z</time>
      </trkpt>
      <trkpt lat="43.45868" lon="5.77188">
        <ele>584.14</ele>
        <time>2019-01-26T11:07:30Z</time>
      </trkpt>
      <trkpt lat="43.45865" lon="5.77202">
        <ele>584.62</ele>
        <time>2019-01-26T11:07:37Z</time>
      </trkpt>
      <trkpt lat="43.45865" lon="5.77211">
        <ele>585.1</ele>
        <time>2019-01-26T11:07:44Z</time>
      </trkpt>
      <trkpt lat="43.45865" lon="5.77214">
        <ele>585.1</ele>
        <time>2019-01-26T11:07:46Z</time>
      </trkpt>
      <trkpt lat="43.45864" lon="5.77217">
        <ele>585.58</ele>
        <time>2019-01-26T11:07:47Z</time>
      </trkpt>
      <trkpt lat="43.45864" lon="5.77219">
        <ele>585.58</ele>
        <time>2019-01-26T11:07:48Z</time>
      </trkpt>
      <trkpt lat="43.45865" lon="5.77222">
        <ele>585.58</ele>
        <time>2019-01-26T11:07:49Z</time>
      </trkpt>
      <trkpt lat="43.45865" lon="5.77224">
        <ele>585.58</ele>
        <time>2019-01-26T11:07:50Z</time>
      </trkpt>
      <trkpt lat="43.45866" lon="5.77227">
        <ele>585.58</ele>
        <time>2019-01-26T11:07:51Z</time>
      </trkpt>
      <trkpt lat="43.45866" lon="5.77229">
        <ele>586.06</ele>
        <time>2019-01-26T11:07:52Z</time>
      </trkpt>
      <trkpt lat="43.45867" lon="5.77237">
        <ele>586.54</ele>
        <time>2019-01-26T11:07:58Z</time>
      </trkpt>
      <trkpt lat="43.45869" lon="5.77251">
        <ele>587.5</ele>
        <time>2019-01-26T11:08:05Z</time>
      </trkpt>
      <trkpt lat="43.45869" lon="5.77255">
        <ele>587.5</ele>
        <time>2019-01-26T11:08:08Z</time>
      </trkpt>
      <trkpt lat="43.45869" lon="5.77257">
        <ele>587.5</ele>
        <time>2019-01-26T11:08:09Z</time>
      </trkpt>
      <trkpt lat="43.45869" lon="5.77259">
        <ele>587.98</ele>
        <time>2019-01-26T11:08:10Z</time>
      </trkpt>
      <trkpt lat="43.45871" lon="5.77275">
        <ele>588.46</ele>
        <time>2019-01-26T11:08:18Z</time>
      </trkpt>
      <trkpt lat="43.45872" lon="5.77288">
        <ele>589.43</ele>
        <time>2019-01-26T11:08:27Z</time>
      </trkpt>
      <trkpt lat="43.45873" lon="5.77304">
        <ele>590.39</ele>
        <time>2019-01-26T11:08:34Z</time>
      </trkpt>
      <trkpt lat="43.45872" lon="5.77317">
        <ele>590.87</ele>
        <time>2019-01-26T11:08:42Z</time>
      </trkpt>
      <trkpt lat="43.45873" lon="5.77328">
        <ele>591.83</ele>
        <time>2019-01-26T11:08:47Z</time>
      </trkpt>
      <trkpt lat="43.45873" lon="5.77338">
        <ele>591.83</ele>
        <time>2019-01-26T11:08:54Z</time>
      </trkpt>
      <trkpt lat="43.45873" lon="5.7734">
        <ele>592.31</ele>
        <time>2019-01-26T11:08:55Z</time>
      </trkpt>
      <trkpt lat="43.45872" lon="5.77341">
        <ele>592.31</ele>
        <time>2019-01-26T11:08:56Z</time>
      </trkpt>
      <trkpt lat="43.45872" lon="5.77344">
        <ele>592.31</ele>
        <time>2019-01-26T11:08:57Z</time>
      </trkpt>
      <trkpt lat="43.45872" lon="5.77346">
        <ele>592.31</ele>
        <time>2019-01-26T11:08:58Z</time>
      </trkpt>
      <trkpt lat="43.45872" lon="5.77348">
        <ele>592.31</ele>
        <time>2019-01-26T11:08:59Z</time>
      </trkpt>
      <trkpt lat="43.45872" lon="5.77351">
        <ele>592.31</ele>
        <time>2019-01-26T11:09:00Z</time>
      </trkpt>
      <trkpt lat="43.45871" lon="5.77353">
        <ele>592.31</ele>
        <time>2019-01-26T11:09:01Z</time>
      </trkpt>
      <trkpt lat="43.45871" lon="5.77363">
        <ele>593.27</ele>
        <time>2019-01-26T11:09:07Z</time>
      </trkpt>
      <trkpt lat="43.45871" lon="5.77372">
        <ele>594.23</ele>
        <time>2019-01-26T11:09:13Z</time>
      </trkpt>
      <trkpt lat="43.45871" lon="5.77374">
        <ele>594.71</ele>
        <time>2019-01-26T11:09:14Z</time>
      </trkpt>
      <trkpt lat="43.45871" lon="5.77377">
        <ele>594.71</ele>
        <time>2019-01-26T11:09:15Z</time>
      </trkpt>
      <trkpt lat="43.45869" lon="5.77394">
        <ele>595.19</ele>
        <time>2019-01-26T11:09:25Z</time>
      </trkpt>
      <trkpt lat="43.45865" lon="5.7741">
        <ele>596.15</ele>
        <time>2019-01-26T11:09:33Z</time>
      </trkpt>
      <trkpt lat="43.4586" lon="5.77421">
        <ele>597.12</ele>
        <time>2019-01-26T11:09:40Z</time>
      </trkpt>
      <trkpt lat="43.45855" lon="5.77432">
        <ele>597.6</ele>
        <time>2019-01-26T11:09:47Z</time>
      </trkpt>
      <trkpt lat="43.45848" lon="5.77448">
        <ele>598.56</ele>
        <time>2019-01-26T11:09:54Z</time>
      </trkpt>
      <trkpt lat="43.45845" lon="5.77453">
        <ele>599.04</ele>
        <time>2019-01-26T11:09:59Z</time>
      </trkpt>
      <trkpt lat="43.45844" lon="5.77457">
        <ele>599.04</ele>
        <time>2019-01-26T11:10:02Z</time>
      </trkpt>
      <trkpt lat="43.45843" lon="5.77459">
        <ele>599.52</ele>
        <time>2019-01-26T11:10:03Z</time>
      </trkpt>
      <trkpt lat="43.45842" lon="5.77461">
        <ele>599.52</ele>
        <time>2019-01-26T11:10:04Z</time>
      </trkpt>
      <trkpt lat="43.45841" lon="5.77462">
        <ele>599.52</ele>
        <time>2019-01-26T11:10:05Z</time>
      </trkpt>
      <trkpt lat="43.4584" lon="5.77464">
        <ele>600</ele>
        <time>2019-01-26T11:10:06Z</time>
      </trkpt>
      <trkpt lat="43.45836" lon="5.77471">
        <ele>600.48</ele>
        <time>2019-01-26T11:10:13Z</time>
      </trkpt>
      <trkpt lat="43.45829" lon="5.77485">
        <ele>601.44</ele>
        <time>2019-01-26T11:10:21Z</time>
      </trkpt>
      <trkpt lat="43.45824" lon="5.77493">
        <ele>602.4</ele>
        <time>2019-01-26T11:10:28Z</time>
      </trkpt>
      <trkpt lat="43.45823" lon="5.77494">
        <ele>602.4</ele>
        <time>2019-01-26T11:10:29Z</time>
      </trkpt>
      <trkpt lat="43.45822" lon="5.77495">
        <ele>602.4</ele>
        <time>2019-01-26T11:10:30Z</time>
      </trkpt>
      <trkpt lat="43.4582" lon="5.77497">
        <ele>602.4</ele>
        <time>2019-01-26T11:10:31Z</time>
      </trkpt>
      <trkpt lat="43.45819" lon="5.77499">
        <ele>602.4</ele>
        <time>2019-01-26T11:10:32Z</time>
      </trkpt>
      <trkpt lat="43.45814" lon="5.77507">
        <ele>603.36</ele>
        <time>2019-01-26T11:10:39Z</time>
      </trkpt>
      <trkpt lat="43.45807" lon="5.77516">
        <ele>603.85</ele>
        <time>2019-01-26T11:10:45Z</time>
      </trkpt>
      <trkpt lat="43.45803" lon="5.77523">
        <ele>604.33</ele>
        <time>2019-01-26T11:10:51Z</time>
      </trkpt>
      <trkpt lat="43.45802" lon="5.77525">
        <ele>604.81</ele>
        <time>2019-01-26T11:10:52Z</time>
      </trkpt>
      <trkpt lat="43.458" lon="5.77527">
        <ele>604.81</ele>
        <time>2019-01-26T11:10:53Z</time>
      </trkpt>
      <trkpt lat="43.45799" lon="5.77529">
        <ele>604.81</ele>
        <time>2019-01-26T11:10:54Z</time>
      </trkpt>
      <trkpt lat="43.45798" lon="5.77531">
        <ele>604.81</ele>
        <time>2019-01-26T11:10:55Z</time>
      </trkpt>
      <trkpt lat="43.45798" lon="5.77532">
        <ele>605.29</ele>
        <time>2019-01-26T11:10:56Z</time>
      </trkpt>
      <trkpt lat="43.45796" lon="5.77541">
        <ele>605.77</ele>
        <time>2019-01-26T11:11:04Z</time>
      </trkpt>
      <trkpt lat="43.45796" lon="5.77543">
        <ele>605.77</ele>
        <time>2019-01-26T11:11:05Z</time>
      </trkpt>
      <trkpt lat="43.4579" lon="5.77556">
        <ele>606.73</ele>
        <time>2019-01-26T11:11:11Z</time>
      </trkpt>
      <trkpt lat="43.45788" lon="5.77565">
        <ele>607.21</ele>
        <time>2019-01-26T11:11:18Z</time>
      </trkpt>
      <trkpt lat="43.45787" lon="5.77566">
        <ele>607.69</ele>
        <time>2019-01-26T11:11:19Z</time>
      </trkpt>
      <trkpt lat="43.45787" lon="5.77568">
        <ele>607.69</ele>
        <time>2019-01-26T11:11:20Z</time>
      </trkpt>
      <trkpt lat="43.45782" lon="5.7758">
        <ele>607.69</ele>
        <time>2019-01-26T11:11:25Z</time>
      </trkpt>
      <trkpt lat="43.4578" lon="5.7759">
        <ele>608.65</ele>
        <time>2019-01-26T11:11:33Z</time>
      </trkpt>
      <trkpt lat="43.45779" lon="5.77591">
        <ele>608.65</ele>
        <time>2019-01-26T11:11:34Z</time>
      </trkpt>
      <trkpt lat="43.45778" lon="5.77593">
        <ele>609.13</ele>
        <time>2019-01-26T11:11:35Z</time>
      </trkpt>
      <trkpt lat="43.45777" lon="5.77595">
        <ele>609.13</ele>
        <time>2019-01-26T11:11:36Z</time>
      </trkpt>
      <trkpt lat="43.45776" lon="5.77598">
        <ele>609.13</ele>
        <time>2019-01-26T11:11:37Z</time>
      </trkpt>
      <trkpt lat="43.45776" lon="5.77601">
        <ele>609.13</ele>
        <time>2019-01-26T11:11:38Z</time>
      </trkpt>
      <trkpt lat="43.45775" lon="5.77603">
        <ele>609.61</ele>
        <time>2019-01-26T11:11:39Z</time>
      </trkpt>
      <trkpt lat="43.45774" lon="5.77605">
        <ele>609.61</ele>
        <time>2019-01-26T11:11:40Z</time>
      </trkpt>
      <trkpt lat="43.45774" lon="5.77607">
        <ele>609.61</ele>
        <time>2019-01-26T11:11:41Z</time>
      </trkpt>
      <trkpt lat="43.45774" lon="5.77609">
        <ele>610.09</ele>
        <time>2019-01-26T11:11:42Z</time>
      </trkpt>
      <trkpt lat="43.45772" lon="5.7762">
        <ele>611.06</ele>
        <time>2019-01-26T11:11:50Z</time>
      </trkpt>
      <trkpt lat="43.45766" lon="5.77635">
        <ele>611.54</ele>
        <time>2019-01-26T11:11:57Z</time>
      </trkpt>
      <trkpt lat="43.45763" lon="5.77647">
        <ele>612.02</ele>
        <time>2019-01-26T11:12:05Z</time>
      </trkpt>
      <trkpt lat="43.45759" lon="5.77651">
        <ele>612.5</ele>
        <time>2019-01-26T11:12:10Z</time>
      </trkpt>
      <trkpt lat="43.45755" lon="5.77652">
        <ele>612.5</ele>
        <time>2019-01-26T11:12:13Z</time>
      </trkpt>
      <trkpt lat="43.45753" lon="5.77652">
        <ele>612.5</ele>
        <time>2019-01-26T11:12:14Z</time>
      </trkpt>
      <trkpt lat="43.45752" lon="5.77651">
        <ele>612.5</ele>
        <time>2019-01-26T11:12:15Z</time>
      </trkpt>
      <trkpt lat="43.4575" lon="5.7765">
        <ele>612.5</ele>
        <time>2019-01-26T11:12:16Z</time>
      </trkpt>
      <trkpt lat="43.45748" lon="5.77649">
        <ele>612.5</ele>
        <time>2019-01-26T11:12:17Z</time>
      </trkpt>
      <trkpt lat="43.45747" lon="5.77648">
        <ele>612.5</ele>
        <time>2019-01-26T11:12:18Z</time>
      </trkpt>
      <trkpt lat="43.45746" lon="5.77646">
        <ele>612.5</ele>
        <time>2019-01-26T11:12:19Z</time>
      </trkpt>
      <trkpt lat="43.45745" lon="5.77646">
        <ele>613.46</ele>
        <time>2019-01-26T11:12:20Z</time>
      </trkpt>
      <trkpt lat="43.45741" lon="5.77643">
        <ele>613.94</ele>
        <time>2019-01-26T11:12:25Z</time>
      </trkpt>
      <trkpt lat="43.4574" lon="5.77642">
        <ele>613.94</ele>
        <time>2019-01-26T11:12:26Z</time>
      </trkpt>
      <trkpt lat="43.45738" lon="5.77636">
        <ele>613.94</ele>
        <time>2019-01-26T11:12:29Z</time>
      </trkpt>
      <trkpt lat="43.45737" lon="5.77634">
        <ele>613.94</ele>
        <time>2019-01-26T11:12:30Z</time>
      </trkpt>
      <trkpt lat="43.45736" lon="5.77633">
        <ele>613.94</ele>
        <time>2019-01-26T11:12:31Z</time>
      </trkpt>
      <trkpt lat="43.45734" lon="5.77632">
        <ele>613.94</ele>
        <time>2019-01-26T11:12:32Z</time>
      </trkpt>
      <trkpt lat="43.45731" lon="5.77628">
        <ele>614.42</ele>
        <time>2019-01-26T11:12:37Z</time>
      </trkpt>
      <trkpt lat="43.4573" lon="5.77624">
        <ele>614.42</ele>
        <time>2019-01-26T11:12:39Z</time>
      </trkpt>
      <trkpt lat="43.45729" lon="5.77622">
        <ele>614.42</ele>
        <time>2019-01-26T11:12:40Z</time>
      </trkpt>
      <trkpt lat="43.45724" lon="5.77613">
        <ele>615.38</ele>
        <time>2019-01-26T11:12:46Z</time>
      </trkpt>
      <trkpt lat="43.45723" lon="5.77611">
        <ele>615.86</ele>
        <time>2019-01-26T11:12:48Z</time>
      </trkpt>
      <trkpt lat="43.45721" lon="5.77607">
        <ele>615.86</ele>
        <time>2019-01-26T11:12:51Z</time>
      </trkpt>
      <trkpt lat="43.45721" lon="5.77605">
        <ele>616.34</ele>
        <time>2019-01-26T11:12:52Z</time>
      </trkpt>
      <trkpt lat="43.4572" lon="5.77603">
        <ele>616.34</ele>
        <time>2019-01-26T11:12:53Z</time>
      </trkpt>
      <trkpt lat="43.45718" lon="5.77601">
        <ele>616.34</ele>
        <time>2019-01-26T11:12:54Z</time>
      </trkpt>
      <trkpt lat="43.45716" lon="5.77599">
        <ele>616.34</ele>
        <time>2019-01-26T11:12:55Z</time>
      </trkpt>
      <trkpt lat="43.45711" lon="5.77589">
        <ele>616.82</ele>
        <time>2019-01-26T11:13:01Z</time>
      </trkpt>
      <trkpt lat="43.4571" lon="5.77588">
        <ele>616.82</ele>
        <time>2019-01-26T11:13:03Z</time>
      </trkpt>
      <trkpt lat="43.45704" lon="5.77576">
        <ele>617.78</ele>
        <time>2019-01-26T11:13:10Z</time>
      </trkpt>
      <trkpt lat="43.45703" lon="5.77574">
        <ele>618.26</ele>
        <time>2019-01-26T11:13:12Z</time>
      </trkpt>
      <trkpt lat="43.457" lon="5.77567">
        <ele>618.75</ele>
        <time>2019-01-26T11:13:18Z</time>
      </trkpt>
      <trkpt lat="43.45698" lon="5.77565">
        <ele>619.23</ele>
        <time>2019-01-26T11:13:19Z</time>
      </trkpt>
      <trkpt lat="43.45696" lon="5.77563">
        <ele>619.23</ele>
        <time>2019-01-26T11:13:20Z</time>
      </trkpt>
      <trkpt lat="43.45695" lon="5.77562">
        <ele>619.23</ele>
        <time>2019-01-26T11:13:21Z</time>
      </trkpt>
      <trkpt lat="43.45695" lon="5.77561">
        <ele>619.71</ele>
        <time>2019-01-26T11:13:22Z</time>
      </trkpt>
      <trkpt lat="43.45694" lon="5.7756">
        <ele>619.71</ele>
        <time>2019-01-26T11:13:23Z</time>
      </trkpt>
      <trkpt lat="43.45689" lon="5.77554">
        <ele>620.19</ele>
        <time>2019-01-26T11:13:30Z</time>
      </trkpt>
      <trkpt lat="43.4568" lon="5.77548">
        <ele>620.67</ele>
        <time>2019-01-26T11:13:36Z</time>
      </trkpt>
      <trkpt lat="43.45672" lon="5.77543">
        <ele>621.63</ele>
        <time>2019-01-26T11:13:43Z</time>
      </trkpt>
      <trkpt lat="43.45666" lon="5.77539">
        <ele>622.59</ele>
        <time>2019-01-26T11:13:48Z</time>
      </trkpt>
      <trkpt lat="43.45665" lon="5.77538">
        <ele>622.59</ele>
        <time>2019-01-26T11:13:51Z</time>
      </trkpt>
      <trkpt lat="43.45663" lon="5.77537">
        <ele>623.07</ele>
        <time>2019-01-26T11:13:52Z</time>
      </trkpt>
      <trkpt lat="43.45662" lon="5.77536">
        <ele>623.07</ele>
        <time>2019-01-26T11:13:53Z</time>
      </trkpt>
      <trkpt lat="43.4566" lon="5.77535">
        <ele>623.55</ele>
        <time>2019-01-26T11:13:54Z</time>
      </trkpt>
      <trkpt lat="43.45658" lon="5.77534">
        <ele>623.07</ele>
        <time>2019-01-26T11:13:55Z</time>
      </trkpt>
      <trkpt lat="43.4565" lon="5.77536">
        <ele>624.03</ele>
        <time>2019-01-26T11:14:02Z</time>
      </trkpt>
      <trkpt lat="43.45646" lon="5.77537">
        <ele>624.03</ele>
        <time>2019-01-26T11:14:06Z</time>
      </trkpt>
      <trkpt lat="43.45645" lon="5.77537">
        <ele>624.03</ele>
        <time>2019-01-26T11:14:07Z</time>
      </trkpt>
      <trkpt lat="43.45643" lon="5.77537">
        <ele>624.03</ele>
        <time>2019-01-26T11:14:08Z</time>
      </trkpt>
      <trkpt lat="43.45632" lon="5.77542">
        <ele>624.51</ele>
        <time>2019-01-26T11:14:14Z</time>
      </trkpt>
      <trkpt lat="43.45625" lon="5.77544">
        <ele>624.99</ele>
        <time>2019-01-26T11:14:23Z</time>
      </trkpt>
      <trkpt lat="43.45612" lon="5.77548">
        <ele>625.47</ele>
        <time>2019-01-26T11:14:30Z</time>
      </trkpt>
      <trkpt lat="43.45604" lon="5.7755">
        <ele>626.44</ele>
        <time>2019-01-26T11:14:38Z</time>
      </trkpt>
      <trkpt lat="43.45595" lon="5.77552">
        <ele>627.88</ele>
        <time>2019-01-26T11:14:45Z</time>
      </trkpt>
      <trkpt lat="43.45592" lon="5.77553">
        <ele>627.88</ele>
        <time>2019-01-26T11:14:48Z</time>
      </trkpt>
      <trkpt lat="43.45589" lon="5.77554">
        <ele>628.36</ele>
        <time>2019-01-26T11:14:50Z</time>
      </trkpt>
      <trkpt lat="43.45588" lon="5.77555">
        <ele>628.36</ele>
        <time>2019-01-26T11:14:51Z</time>
      </trkpt>
      <trkpt lat="43.45586" lon="5.77556">
        <ele>628.36</ele>
        <time>2019-01-26T11:14:52Z</time>
      </trkpt>
      <trkpt lat="43.45575" lon="5.77562">
        <ele>629.8</ele>
        <time>2019-01-26T11:14:59Z</time>
      </trkpt>
      <trkpt lat="43.45571" lon="5.77564">
        <ele>630.76</ele>
        <time>2019-01-26T11:15:04Z</time>
      </trkpt>
      <trkpt lat="43.45569" lon="5.77564">
        <ele>630.76</ele>
        <time>2019-01-26T11:15:05Z</time>
      </trkpt>
      <trkpt lat="43.4556" lon="5.77572">
        <ele>631.72</ele>
        <time>2019-01-26T11:15:13Z</time>
      </trkpt>
      <trkpt lat="43.45556" lon="5.77572">
        <ele>632.68</ele>
        <time>2019-01-26T11:15:17Z</time>
      </trkpt>
      <trkpt lat="43.45555" lon="5.77573">
        <ele>632.68</ele>
        <time>2019-01-26T11:15:18Z</time>
      </trkpt>
      <trkpt lat="43.45553" lon="5.77573">
        <ele>632.68</ele>
        <time>2019-01-26T11:15:19Z</time>
      </trkpt>
      <trkpt lat="43.45551" lon="5.77574">
        <ele>632.68</ele>
        <time>2019-01-26T11:15:20Z</time>
      </trkpt>
      <trkpt lat="43.4555" lon="5.77574">
        <ele>632.68</ele>
        <time>2019-01-26T11:15:21Z</time>
      </trkpt>
      <trkpt lat="43.45547" lon="5.77575">
        <ele>633.17</ele>
        <time>2019-01-26T11:15:28Z</time>
      </trkpt>
      <trkpt lat="43.45544" lon="5.77577">
        <ele>633.17</ele>
        <time>2019-01-26T11:15:46Z</time>
      </trkpt>
      <trkpt lat="43.45545" lon="5.77575">
        <ele>633.17</ele>
        <time>2019-01-26T11:16:01Z</time>
      </trkpt>
      <trkpt lat="43.45546" lon="5.77577">
        <ele>633.17</ele>
        <time>2019-01-26T11:16:17Z</time>
      </trkpt>
      <trkpt lat="43.45549" lon="5.77579">
        <ele>633.17</ele>
        <time>2019-01-26T11:16:33Z</time>
      </trkpt>
      <trkpt lat="43.45546" lon="5.77577">
        <ele>633.65</ele>
        <time>2019-01-26T11:16:45Z</time>
      </trkpt>
      <trkpt lat="43.45547" lon="5.77577">
        <ele>633.65</ele>
        <time>2019-01-26T11:17:00Z</time>
      </trkpt>
      <trkpt lat="43.45545" lon="5.77581">
        <ele>633.65</ele>
        <time>2019-01-26T11:17:10Z</time>
      </trkpt>
      <trkpt lat="43.45544" lon="5.77581">
        <ele>633.65</ele>
        <time>2019-01-26T11:17:18Z</time>
      </trkpt>
      <trkpt lat="43.45543" lon="5.77583">
        <ele>633.17</ele>
        <time>2019-01-26T11:17:28Z</time>
      </trkpt>
      <trkpt lat="43.45542" lon="5.77584">
        <ele>633.17</ele>
        <time>2019-01-26T11:17:29Z</time>
      </trkpt>
      <trkpt lat="43.45538" lon="5.77588">
        <ele>633.17</ele>
        <time>2019-01-26T11:17:34Z</time>
      </trkpt>
      <trkpt lat="43.45537" lon="5.77589">
        <ele>633.17</ele>
        <time>2019-01-26T11:17:35Z</time>
      </trkpt>
      <trkpt lat="43.45537" lon="5.7759">
        <ele>633.17</ele>
        <time>2019-01-26T11:17:41Z</time>
      </trkpt>
      <trkpt lat="43.45535" lon="5.77589">
        <ele>634.13</ele>
        <time>2019-01-26T11:17:48Z</time>
      </trkpt>
      <trkpt lat="43.45535" lon="5.7759">
        <ele>633.65</ele>
        <time>2019-01-26T11:17:58Z</time>
      </trkpt>
      <trkpt lat="43.45535" lon="5.77589">
        <ele>633.65</ele>
        <time>2019-01-26T11:18:12Z</time>
      </trkpt>
      <trkpt lat="43.45535" lon="5.77593">
        <ele>633.65</ele>
        <time>2019-01-26T11:18:24Z</time>
      </trkpt>
      <trkpt lat="43.45534" lon="5.77595">
        <ele>633.65</ele>
        <time>2019-01-26T11:18:26Z</time>
      </trkpt>
      <trkpt lat="43.45531" lon="5.77603">
        <ele>634.61</ele>
        <time>2019-01-26T11:18:32Z</time>
      </trkpt>
      <trkpt lat="43.4553" lon="5.77605">
        <ele>634.61</ele>
        <time>2019-01-26T11:18:34Z</time>
      </trkpt>
      <trkpt lat="43.4553" lon="5.77607">
        <ele>634.61</ele>
        <time>2019-01-26T11:18:35Z</time>
      </trkpt>
      <trkpt lat="43.45529" lon="5.77609">
        <ele>634.61</ele>
        <time>2019-01-26T11:18:36Z</time>
      </trkpt>
      <trkpt lat="43.45527" lon="5.77617">
        <ele>634.61</ele>
        <time>2019-01-26T11:18:42Z</time>
      </trkpt>
      <trkpt lat="43.45525" lon="5.77622">
        <ele>635.09</ele>
        <time>2019-01-26T11:18:44Z</time>
      </trkpt>
      <trkpt lat="43.45523" lon="5.77634">
        <ele>635.57</ele>
        <time>2019-01-26T11:18:52Z</time>
      </trkpt>
      <trkpt lat="43.45522" lon="5.77642">
        <ele>636.05</ele>
        <time>2019-01-26T11:18:58Z</time>
      </trkpt>
      <trkpt lat="43.45519" lon="5.77654">
        <ele>636.53</ele>
        <time>2019-01-26T11:19:05Z</time>
      </trkpt>
      <trkpt lat="43.45517" lon="5.7767">
        <ele>637.49</ele>
        <time>2019-01-26T11:19:13Z</time>
      </trkpt>
      <trkpt lat="43.45517" lon="5.77675">
        <ele>637.49</ele>
        <time>2019-01-26T11:19:17Z</time>
      </trkpt>
      <trkpt lat="43.45517" lon="5.77677">
        <ele>637.97</ele>
        <time>2019-01-26T11:19:18Z</time>
      </trkpt>
      <trkpt lat="43.45516" lon="5.77679">
        <ele>637.97</ele>
        <time>2019-01-26T11:19:19Z</time>
      </trkpt>
      <trkpt lat="43.45516" lon="5.77681">
        <ele>637.97</ele>
        <time>2019-01-26T11:19:20Z</time>
      </trkpt>
      <trkpt lat="43.45516" lon="5.77683">
        <ele>637.97</ele>
        <time>2019-01-26T11:19:21Z</time>
      </trkpt>
      <trkpt lat="43.45515" lon="5.77686">
        <ele>637.97</ele>
        <time>2019-01-26T11:19:22Z</time>
      </trkpt>
      <trkpt lat="43.45515" lon="5.77688">
        <ele>638.45</ele>
        <time>2019-01-26T11:19:23Z</time>
      </trkpt>
      <trkpt lat="43.45515" lon="5.77694">
        <ele>639.41</ele>
        <time>2019-01-26T11:19:28Z</time>
      </trkpt>
      <trkpt lat="43.45514" lon="5.77696">
        <ele>639.41</ele>
        <time>2019-01-26T11:19:29Z</time>
      </trkpt>
      <trkpt lat="43.45514" lon="5.77698">
        <ele>639.41</ele>
        <time>2019-01-26T11:19:30Z</time>
      </trkpt>
      <trkpt lat="43.4551" lon="5.77714">
        <ele>639.89</ele>
        <time>2019-01-26T11:19:38Z</time>
      </trkpt>
      <trkpt lat="43.45504" lon="5.77728">
        <ele>640.86</ele>
        <time>2019-01-26T11:19:46Z</time>
      </trkpt>
      <trkpt lat="43.455" lon="5.77734">
        <ele>641.34</ele>
        <time>2019-01-26T11:19:52Z</time>
      </trkpt>
      <trkpt lat="43.45498" lon="5.77737">
        <ele>641.82</ele>
        <time>2019-01-26T11:19:55Z</time>
      </trkpt>
      <trkpt lat="43.45497" lon="5.77738">
        <ele>641.82</ele>
        <time>2019-01-26T11:19:56Z</time>
      </trkpt>
      <trkpt lat="43.45496" lon="5.77739">
        <ele>641.82</ele>
        <time>2019-01-26T11:19:57Z</time>
      </trkpt>
      <trkpt lat="43.45495" lon="5.77741">
        <ele>641.82</ele>
        <time>2019-01-26T11:19:58Z</time>
      </trkpt>
      <trkpt lat="43.45493" lon="5.77742">
        <ele>641.82</ele>
        <time>2019-01-26T11:19:59Z</time>
      </trkpt>
      <trkpt lat="43.45486" lon="5.77744">
        <ele>642.3</ele>
        <time>2019-01-26T11:20:05Z</time>
      </trkpt>
      <trkpt lat="43.45485" lon="5.77743">
        <ele>642.3</ele>
        <time>2019-01-26T11:20:06Z</time>
      </trkpt>
      <trkpt lat="43.45485" lon="5.77739">
        <ele>642.3</ele>
        <time>2019-01-26T11:20:08Z</time>
      </trkpt>
      <trkpt lat="43.45485" lon="5.77738">
        <ele>642.3</ele>
        <time>2019-01-26T11:20:09Z</time>
      </trkpt>
      <trkpt lat="43.45487" lon="5.7773">
        <ele>640.86</ele>
        <time>2019-01-26T11:20:14Z</time>
      </trkpt>
      <trkpt lat="43.45486" lon="5.77727">
        <ele>640.38</ele>
        <time>2019-01-26T11:20:21Z</time>
      </trkpt>
      <trkpt lat="43.45485" lon="5.77725">
        <ele>640.38</ele>
        <time>2019-01-26T11:20:31Z</time>
      </trkpt>
      <trkpt lat="43.45486" lon="5.77719">
        <ele>639.41</ele>
        <time>2019-01-26T11:20:36Z</time>
      </trkpt>
      <trkpt lat="43.45487" lon="5.77711">
        <ele>638.93</ele>
        <time>2019-01-26T11:20:42Z</time>
      </trkpt>
      <trkpt lat="43.45487" lon="5.77707">
        <ele>637.97</ele>
        <time>2019-01-26T11:20:44Z</time>
      </trkpt>
      <trkpt lat="43.45489" lon="5.77691">
        <ele>637.01</ele>
        <time>2019-01-26T11:20:51Z</time>
      </trkpt>
      <trkpt lat="43.45487" lon="5.77688">
        <ele>637.49</ele>
        <time>2019-01-26T11:20:56Z</time>
      </trkpt>
      <trkpt lat="43.45489" lon="5.77682">
        <ele>636.53</ele>
        <time>2019-01-26T11:21:03Z</time>
      </trkpt>
      <trkpt lat="43.45489" lon="5.77677">
        <ele>636.05</ele>
        <time>2019-01-26T11:21:07Z</time>
      </trkpt>
      <trkpt lat="43.45491" lon="5.77662">
        <ele>634.61</ele>
        <time>2019-01-26T11:21:15Z</time>
      </trkpt>
      <trkpt lat="43.45494" lon="5.77646">
        <ele>633.65</ele>
        <time>2019-01-26T11:21:23Z</time>
      </trkpt>
      <trkpt lat="43.45495" lon="5.77637">
        <ele>632.2</ele>
        <time>2019-01-26T11:21:31Z</time>
      </trkpt>
      <trkpt lat="43.45497" lon="5.77622">
        <ele>630.76</ele>
        <time>2019-01-26T11:21:39Z</time>
      </trkpt>
      <trkpt lat="43.45499" lon="5.77616">
        <ele>630.28</ele>
        <time>2019-01-26T11:21:42Z</time>
      </trkpt>
      <trkpt lat="43.45499" lon="5.77615">
        <ele>630.28</ele>
        <time>2019-01-26T11:21:43Z</time>
      </trkpt>
      <trkpt lat="43.455" lon="5.7761">
        <ele>629.32</ele>
        <time>2019-01-26T11:21:46Z</time>
      </trkpt>
      <trkpt lat="43.455" lon="5.77605">
        <ele>629.32</ele>
        <time>2019-01-26T11:21:51Z</time>
      </trkpt>
      <trkpt lat="43.45501" lon="5.77606">
        <ele>629.32</ele>
        <time>2019-01-26T11:22:03Z</time>
      </trkpt>
      <trkpt lat="43.45502" lon="5.77602">
        <ele>628.84</ele>
        <time>2019-01-26T11:22:08Z</time>
      </trkpt>
      <trkpt lat="43.45502" lon="5.77591">
        <ele>627.4</ele>
        <time>2019-01-26T11:22:17Z</time>
      </trkpt>
      <trkpt lat="43.45503" lon="5.77588">
        <ele>626.92</ele>
        <time>2019-01-26T11:22:19Z</time>
      </trkpt>
      <trkpt lat="43.45503" lon="5.77586">
        <ele>626.92</ele>
        <time>2019-01-26T11:22:20Z</time>
      </trkpt>
      <trkpt lat="43.45502" lon="5.77574">
        <ele>625.47</ele>
        <time>2019-01-26T11:22:26Z</time>
      </trkpt>
      <trkpt lat="43.45496" lon="5.77562">
        <ele>624.51</ele>
        <time>2019-01-26T11:22:35Z</time>
      </trkpt>
      <trkpt lat="43.45495" lon="5.77551">
        <ele>624.51</ele>
        <time>2019-01-26T11:22:41Z</time>
      </trkpt>
      <trkpt lat="43.45497" lon="5.77547">
        <ele>624.51</ele>
        <time>2019-01-26T11:22:44Z</time>
      </trkpt>
      <trkpt lat="43.45503" lon="5.77534">
        <ele>624.99</ele>
        <time>2019-01-26T11:22:51Z</time>
      </trkpt>
      <trkpt lat="43.45507" lon="5.77519">
        <ele>625.96</ele>
        <time>2019-01-26T11:22:58Z</time>
      </trkpt>
      <trkpt lat="43.4551" lon="5.77509">
        <ele>627.88</ele>
        <time>2019-01-26T11:23:06Z</time>
      </trkpt>
      <trkpt lat="43.4551" lon="5.77507">
        <ele>627.88</ele>
        <time>2019-01-26T11:23:07Z</time>
      </trkpt>
      <trkpt lat="43.45509" lon="5.77499">
        <ele>628.36</ele>
        <time>2019-01-26T11:23:10Z</time>
      </trkpt>
      <trkpt lat="43.45508" lon="5.77497">
        <ele>628.36</ele>
        <time>2019-01-26T11:23:11Z</time>
      </trkpt>
      <trkpt lat="43.45501" lon="5.77479">
        <ele>628.36</ele>
        <time>2019-01-26T11:23:19Z</time>
      </trkpt>
      <trkpt lat="43.45497" lon="5.77464">
        <ele>628.36</ele>
        <time>2019-01-26T11:23:26Z</time>
      </trkpt>
      <trkpt lat="43.45496" lon="5.77458">
        <ele>628.36</ele>
        <time>2019-01-26T11:23:29Z</time>
      </trkpt>
      <trkpt lat="43.45497" lon="5.77456">
        <ele>628.36</ele>
        <time>2019-01-26T11:23:30Z</time>
      </trkpt>
      <trkpt lat="43.45498" lon="5.77454">
        <ele>628.36</ele>
        <time>2019-01-26T11:23:31Z</time>
      </trkpt>
      <trkpt lat="43.45498" lon="5.77452">
        <ele>628.84</ele>
        <time>2019-01-26T11:23:32Z</time>
      </trkpt>
      <trkpt lat="43.45499" lon="5.7745">
        <ele>628.84</ele>
        <time>2019-01-26T11:23:33Z</time>
      </trkpt>
      <trkpt lat="43.45499" lon="5.77449">
        <ele>628.84</ele>
        <time>2019-01-26T11:23:34Z</time>
      </trkpt>
      <trkpt lat="43.45499" lon="5.77447">
        <ele>628.84</ele>
        <time>2019-01-26T11:23:35Z</time>
      </trkpt>
      <trkpt lat="43.45499" lon="5.77445">
        <ele>628.84</ele>
        <time>2019-01-26T11:23:36Z</time>
      </trkpt>
      <trkpt lat="43.455" lon="5.77443">
        <ele>629.32</ele>
        <time>2019-01-26T11:23:37Z</time>
      </trkpt>
      <trkpt lat="43.455" lon="5.77442">
        <ele>629.32</ele>
        <time>2019-01-26T11:23:38Z</time>
      </trkpt>
      <trkpt lat="43.45502" lon="5.77432">
        <ele>630.76</ele>
        <time>2019-01-26T11:23:46Z</time>
      </trkpt>
      <trkpt lat="43.45504" lon="5.77424">
        <ele>631.72</ele>
        <time>2019-01-26T11:23:50Z</time>
      </trkpt>
      <trkpt lat="43.45504" lon="5.77421">
        <ele>631.72</ele>
        <time>2019-01-26T11:23:51Z</time>
      </trkpt>
      <trkpt lat="43.45505" lon="5.77419">
        <ele>631.72</ele>
        <time>2019-01-26T11:23:52Z</time>
      </trkpt>
      <trkpt lat="43.45505" lon="5.77416">
        <ele>631.72</ele>
        <time>2019-01-26T11:23:53Z</time>
      </trkpt>
      <trkpt lat="43.45506" lon="5.77414">
        <ele>632.68</ele>
        <time>2019-01-26T11:23:54Z</time>
      </trkpt>
      <trkpt lat="43.45507" lon="5.77412">
        <ele>632.68</ele>
        <time>2019-01-26T11:23:55Z</time>
      </trkpt>
      <trkpt lat="43.45509" lon="5.77405">
        <ele>634.13</ele>
        <time>2019-01-26T11:24:01Z</time>
      </trkpt>
      <trkpt lat="43.4551" lon="5.77401">
        <ele>634.13</ele>
        <time>2019-01-26T11:24:03Z</time>
      </trkpt>
      <trkpt lat="43.45515" lon="5.77387">
        <ele>635.57</ele>
        <time>2019-01-26T11:24:10Z</time>
      </trkpt>
      <trkpt lat="43.45515" lon="5.77378">
        <ele>636.53</ele>
        <time>2019-01-26T11:24:18Z</time>
      </trkpt>
      <trkpt lat="43.45515" lon="5.77374">
        <ele>637.01</ele>
        <time>2019-01-26T11:24:21Z</time>
      </trkpt>
      <trkpt lat="43.45515" lon="5.77372">
        <ele>637.01</ele>
        <time>2019-01-26T11:24:22Z</time>
      </trkpt>
      <trkpt lat="43.45515" lon="5.7737">
        <ele>637.01</ele>
        <time>2019-01-26T11:24:23Z</time>
      </trkpt>
      <trkpt lat="43.45515" lon="5.77367">
        <ele>637.01</ele>
        <time>2019-01-26T11:24:24Z</time>
      </trkpt>
      <trkpt lat="43.45515" lon="5.77365">
        <ele>637.01</ele>
        <time>2019-01-26T11:24:25Z</time>
      </trkpt>
      <trkpt lat="43.45514" lon="5.77363">
        <ele>637.01</ele>
        <time>2019-01-26T11:24:26Z</time>
      </trkpt>
      <trkpt lat="43.45514" lon="5.77361">
        <ele>637.01</ele>
        <time>2019-01-26T11:24:27Z</time>
      </trkpt>
      <trkpt lat="43.45513" lon="5.7736">
        <ele>637.01</ele>
        <time>2019-01-26T11:24:28Z</time>
      </trkpt>
      <trkpt lat="43.45513" lon="5.77358">
        <ele>635.57</ele>
        <time>2019-01-26T11:24:29Z</time>
      </trkpt>
      <trkpt lat="43.45512" lon="5.77356">
        <ele>635.57</ele>
        <time>2019-01-26T11:24:30Z</time>
      </trkpt>
      <trkpt lat="43.45509" lon="5.77345">
        <ele>633.17</ele>
        <time>2019-01-26T11:24:37Z</time>
      </trkpt>
      <trkpt lat="43.45507" lon="5.77335">
        <ele>631.72</ele>
        <time>2019-01-26T11:24:44Z</time>
      </trkpt>
      <trkpt lat="43.45507" lon="5.77327">
        <ele>629.8</ele>
        <time>2019-01-26T11:24:50Z</time>
      </trkpt>
      <trkpt lat="43.45506" lon="5.77325">
        <ele>629.8</ele>
        <time>2019-01-26T11:24:51Z</time>
      </trkpt>
      <trkpt lat="43.45504" lon="5.77311">
        <ele>627.88</ele>
        <time>2019-01-26T11:24:58Z</time>
      </trkpt>
      <trkpt lat="43.45501" lon="5.77295">
        <ele>626.44</ele>
        <time>2019-01-26T11:25:05Z</time>
      </trkpt>
      <trkpt lat="43.45501" lon="5.77284">
        <ele>624.51</ele>
        <time>2019-01-26T11:25:11Z</time>
      </trkpt>
      <trkpt lat="43.45498" lon="5.77272">
        <ele>623.07</ele>
        <time>2019-01-26T11:25:17Z</time>
      </trkpt>
      <trkpt lat="43.45496" lon="5.77264">
        <ele>622.59</ele>
        <time>2019-01-26T11:25:23Z</time>
      </trkpt>
      <trkpt lat="43.45495" lon="5.77259">
        <ele>621.63</ele>
        <time>2019-01-26T11:25:26Z</time>
      </trkpt>
      <trkpt lat="43.45495" lon="5.77256">
        <ele>621.63</ele>
        <time>2019-01-26T11:25:27Z</time>
      </trkpt>
      <trkpt lat="43.45495" lon="5.77242">
        <ele>620.67</ele>
        <time>2019-01-26T11:25:33Z</time>
      </trkpt>
      <trkpt lat="43.45495" lon="5.7724">
        <ele>620.19</ele>
        <time>2019-01-26T11:25:34Z</time>
      </trkpt>
      <trkpt lat="43.45495" lon="5.77237">
        <ele>620.19</ele>
        <time>2019-01-26T11:25:35Z</time>
      </trkpt>
      <trkpt lat="43.45496" lon="5.77235">
        <ele>619.71</ele>
        <time>2019-01-26T11:25:36Z</time>
      </trkpt>
      <trkpt lat="43.45497" lon="5.77233">
        <ele>619.71</ele>
        <time>2019-01-26T11:25:37Z</time>
      </trkpt>
      <trkpt lat="43.45497" lon="5.77231">
        <ele>619.71</ele>
        <time>2019-01-26T11:25:38Z</time>
      </trkpt>
      <trkpt lat="43.45498" lon="5.77228">
        <ele>619.23</ele>
        <time>2019-01-26T11:25:39Z</time>
      </trkpt>
      <trkpt lat="43.45499" lon="5.77226">
        <ele>619.23</ele>
        <time>2019-01-26T11:25:40Z</time>
      </trkpt>
      <trkpt lat="43.45499" lon="5.77222">
        <ele>618.26</ele>
        <time>2019-01-26T11:25:42Z</time>
      </trkpt>
      <trkpt lat="43.455" lon="5.7722">
        <ele>618.26</ele>
        <time>2019-01-26T11:25:43Z</time>
      </trkpt>
      <trkpt lat="43.45504" lon="5.77203">
        <ele>617.3</ele>
        <time>2019-01-26T11:25:51Z</time>
      </trkpt>
      <trkpt lat="43.45501" lon="5.7719">
        <ele>616.34</ele>
        <time>2019-01-26T11:25:58Z</time>
      </trkpt>
      <trkpt lat="43.45496" lon="5.77186">
        <ele>615.86</ele>
        <time>2019-01-26T11:26:03Z</time>
      </trkpt>
      <trkpt lat="43.45489" lon="5.77184">
        <ele>614.42</ele>
        <time>2019-01-26T11:26:10Z</time>
      </trkpt>
      <trkpt lat="43.45487" lon="5.77184">
        <ele>613.94</ele>
        <time>2019-01-26T11:26:12Z</time>
      </trkpt>
      <trkpt lat="43.45486" lon="5.77183">
        <ele>613.94</ele>
        <time>2019-01-26T11:26:13Z</time>
      </trkpt>
      <trkpt lat="43.45477" lon="5.77181">
        <ele>611.54</ele>
        <time>2019-01-26T11:26:20Z</time>
      </trkpt>
      <trkpt lat="43.4547" lon="5.77178">
        <ele>610.57</ele>
        <time>2019-01-26T11:26:27Z</time>
      </trkpt>
      <trkpt lat="43.45463" lon="5.77168">
        <ele>608.65</ele>
        <time>2019-01-26T11:26:35Z</time>
      </trkpt>
      <trkpt lat="43.45457" lon="5.77155">
        <ele>606.25</ele>
        <time>2019-01-26T11:26:42Z</time>
      </trkpt>
      <trkpt lat="43.45456" lon="5.77143">
        <ele>603.85</ele>
        <time>2019-01-26T11:26:49Z</time>
      </trkpt>
      <trkpt lat="43.45457" lon="5.77142">
        <ele>603.85</ele>
        <time>2019-01-26T11:26:50Z</time>
      </trkpt>
      <trkpt lat="43.45462" lon="5.77132">
        <ele>601.44</ele>
        <time>2019-01-26T11:26:58Z</time>
      </trkpt>
      <trkpt lat="43.4546" lon="5.77121">
        <ele>599.04</ele>
        <time>2019-01-26T11:27:06Z</time>
      </trkpt>
      <trkpt lat="43.45457" lon="5.77113">
        <ele>596.64</ele>
        <time>2019-01-26T11:27:13Z</time>
      </trkpt>
      <trkpt lat="43.45454" lon="5.7711">
        <ele>595.67</ele>
        <time>2019-01-26T11:27:16Z</time>
      </trkpt>
      <trkpt lat="43.45453" lon="5.77109">
        <ele>595.67</ele>
        <time>2019-01-26T11:27:17Z</time>
      </trkpt>
      <trkpt lat="43.45453" lon="5.77108">
        <ele>595.67</ele>
        <time>2019-01-26T11:27:18Z</time>
      </trkpt>
      <trkpt lat="43.45452" lon="5.77107">
        <ele>595.19</ele>
        <time>2019-01-26T11:27:19Z</time>
      </trkpt>
      <trkpt lat="43.45451" lon="5.77106">
        <ele>595.19</ele>
        <time>2019-01-26T11:27:20Z</time>
      </trkpt>
      <trkpt lat="43.45449" lon="5.77105">
        <ele>594.71</ele>
        <time>2019-01-26T11:27:21Z</time>
      </trkpt>
      <trkpt lat="43.45448" lon="5.77103">
        <ele>594.71</ele>
        <time>2019-01-26T11:27:22Z</time>
      </trkpt>
      <trkpt lat="43.45447" lon="5.77101">
        <ele>593.75</ele>
        <time>2019-01-26T11:27:23Z</time>
      </trkpt>
      <trkpt lat="43.45445" lon="5.77099">
        <ele>593.75</ele>
        <time>2019-01-26T11:27:24Z</time>
      </trkpt>
      <trkpt lat="43.4544" lon="5.77094">
        <ele>593.27</ele>
        <time>2019-01-26T11:27:28Z</time>
      </trkpt>
      <trkpt lat="43.45429" lon="5.77077">
        <ele>592.31</ele>
        <time>2019-01-26T11:27:38Z</time>
      </trkpt>
      <trkpt lat="43.45426" lon="5.7707">
        <ele>591.83</ele>
        <time>2019-01-26T11:27:42Z</time>
      </trkpt>
      <trkpt lat="43.45426" lon="5.77067">
        <ele>591.83</ele>
        <time>2019-01-26T11:27:43Z</time>
      </trkpt>
      <trkpt lat="43.45426" lon="5.77065">
        <ele>591.83</ele>
        <time>2019-01-26T11:27:44Z</time>
      </trkpt>
      <trkpt lat="43.45427" lon="5.77063">
        <ele>591.83</ele>
        <time>2019-01-26T11:27:45Z</time>
      </trkpt>
      <trkpt lat="43.45427" lon="5.77061">
        <ele>591.83</ele>
        <time>2019-01-26T11:27:46Z</time>
      </trkpt>
      <trkpt lat="43.45428" lon="5.77059">
        <ele>591.83</ele>
        <time>2019-01-26T11:27:47Z</time>
      </trkpt>
      <trkpt lat="43.45431" lon="5.77048">
        <ele>592.31</ele>
        <time>2019-01-26T11:27:54Z</time>
      </trkpt>
      <trkpt lat="43.45435" lon="5.77034">
        <ele>592.31</ele>
        <time>2019-01-26T11:28:02Z</time>
      </trkpt>
      <trkpt lat="43.45436" lon="5.77019">
        <ele>592.31</ele>
        <time>2019-01-26T11:28:11Z</time>
      </trkpt>
      <trkpt lat="43.45435" lon="5.77018">
        <ele>592.31</ele>
        <time>2019-01-26T11:28:12Z</time>
      </trkpt>
      <trkpt lat="43.45431" lon="5.7701">
        <ele>590.87</ele>
        <time>2019-01-26T11:28:19Z</time>
      </trkpt>
      <trkpt lat="43.45423" lon="5.77002">
        <ele>589.91</ele>
        <time>2019-01-26T11:28:26Z</time>
      </trkpt>
      <trkpt lat="43.45414" lon="5.76992">
        <ele>589.91</ele>
        <time>2019-01-26T11:28:33Z</time>
      </trkpt>
      <trkpt lat="43.45412" lon="5.76982">
        <ele>589.91</ele>
        <time>2019-01-26T11:28:38Z</time>
      </trkpt>
      <trkpt lat="43.45412" lon="5.7698">
        <ele>589.91</ele>
        <time>2019-01-26T11:28:39Z</time>
      </trkpt>
      <trkpt lat="43.45412" lon="5.76978">
        <ele>589.91</ele>
        <time>2019-01-26T11:28:40Z</time>
      </trkpt>
      <trkpt lat="43.45414" lon="5.76965">
        <ele>589.91</ele>
        <time>2019-01-26T11:28:48Z</time>
      </trkpt>
      <trkpt lat="43.45415" lon="5.76963">
        <ele>591.35</ele>
        <time>2019-01-26T11:28:49Z</time>
      </trkpt>
      <trkpt lat="43.45416" lon="5.76962">
        <ele>591.35</ele>
        <time>2019-01-26T11:28:50Z</time>
      </trkpt>
      <trkpt lat="43.45417" lon="5.7696">
        <ele>591.35</ele>
        <time>2019-01-26T11:28:51Z</time>
      </trkpt>
      <trkpt lat="43.45418" lon="5.76958">
        <ele>591.83</ele>
        <time>2019-01-26T11:28:52Z</time>
      </trkpt>
      <trkpt lat="43.45419" lon="5.76955">
        <ele>591.83</ele>
        <time>2019-01-26T11:28:53Z</time>
      </trkpt>
      <trkpt lat="43.4542" lon="5.76953">
        <ele>592.31</ele>
        <time>2019-01-26T11:28:54Z</time>
      </trkpt>
      <trkpt lat="43.45421" lon="5.7695">
        <ele>592.31</ele>
        <time>2019-01-26T11:28:55Z</time>
      </trkpt>
      <trkpt lat="43.45422" lon="5.76948">
        <ele>592.31</ele>
        <time>2019-01-26T11:28:56Z</time>
      </trkpt>
      <trkpt lat="43.45425" lon="5.7694">
        <ele>593.75</ele>
        <time>2019-01-26T11:29:03Z</time>
      </trkpt>
      <trkpt lat="43.45426" lon="5.76939">
        <ele>594.23</ele>
        <time>2019-01-26T11:29:04Z</time>
      </trkpt>
      <trkpt lat="43.45427" lon="5.76937">
        <ele>594.23</ele>
        <time>2019-01-26T11:29:05Z</time>
      </trkpt>
      <trkpt lat="43.45428" lon="5.76935">
        <ele>594.71</ele>
        <time>2019-01-26T11:29:06Z</time>
      </trkpt>
      <trkpt lat="43.45429" lon="5.76933">
        <ele>595.19</ele>
        <time>2019-01-26T11:29:07Z</time>
      </trkpt>
      <trkpt lat="43.45431" lon="5.76931">
        <ele>595.19</ele>
        <time>2019-01-26T11:29:08Z</time>
      </trkpt>
      <trkpt lat="43.45432" lon="5.76929">
        <ele>595.19</ele>
        <time>2019-01-26T11:29:09Z</time>
      </trkpt>
      <trkpt lat="43.45435" lon="5.76923">
        <ele>596.64</ele>
        <time>2019-01-26T11:29:15Z</time>
      </trkpt>
      <trkpt lat="43.45439" lon="5.7691">
        <ele>598.08</ele>
        <time>2019-01-26T11:29:21Z</time>
      </trkpt>
      <trkpt lat="43.45441" lon="5.76903">
        <ele>600.48</ele>
        <time>2019-01-26T11:29:28Z</time>
      </trkpt>
      <trkpt lat="43.45442" lon="5.76892">
        <ele>601.92</ele>
        <time>2019-01-26T11:29:33Z</time>
      </trkpt>
      <trkpt lat="43.45442" lon="5.76885">
        <ele>604.33</ele>
        <time>2019-01-26T11:29:40Z</time>
      </trkpt>
      <trkpt lat="43.45442" lon="5.7688">
        <ele>605.29</ele>
        <time>2019-01-26T11:29:44Z</time>
      </trkpt>
      <trkpt lat="43.45441" lon="5.76877">
        <ele>605.77</ele>
        <time>2019-01-26T11:29:50Z</time>
      </trkpt>
      <trkpt lat="43.45444" lon="5.7688">
        <ele>605.77</ele>
        <time>2019-01-26T11:30:05Z</time>
      </trkpt>
      <trkpt lat="43.45445" lon="5.76879">
        <ele>605.77</ele>
        <time>2019-01-26T11:30:09Z</time>
      </trkpt>
      <trkpt lat="43.45451" lon="5.76877">
        <ele>605.77</ele>
        <time>2019-01-26T11:30:16Z</time>
      </trkpt>
      <trkpt lat="43.45453" lon="5.76878">
        <ele>606.25</ele>
        <time>2019-01-26T11:30:22Z</time>
      </trkpt>
      <trkpt lat="43.45456" lon="5.76876">
        <ele>606.25</ele>
        <time>2019-01-26T11:30:35Z</time>
      </trkpt>
      <trkpt lat="43.45458" lon="5.76876">
        <ele>606.25</ele>
        <time>2019-01-26T11:30:53Z</time>
      </trkpt>
      <trkpt lat="43.45453" lon="5.76877">
        <ele>606.25</ele>
        <time>2019-01-26T11:31:01Z</time>
      </trkpt>
      <trkpt lat="43.45451" lon="5.76879">
        <ele>606.25</ele>
        <time>2019-01-26T11:31:04Z</time>
      </trkpt>
      <trkpt lat="43.45446" lon="5.7688">
        <ele>604.81</ele>
        <time>2019-01-26T11:31:09Z</time>
      </trkpt>
      <trkpt lat="43.45446" lon="5.7688">
        <ele>604.33</ele>
        <time>2019-01-26T11:31:10Z</time>
      </trkpt>
      <trkpt lat="43.45444" lon="5.76883">
        <ele>603.85</ele>
        <time>2019-01-26T11:31:16Z</time>
      </trkpt>
      <trkpt lat="43.45443" lon="5.76883">
        <ele>603.85</ele>
        <time>2019-01-26T11:31:29Z</time>
      </trkpt>
      <trkpt lat="43.45444" lon="5.76885">
        <ele>603.85</ele>
        <time>2019-01-26T11:31:46Z</time>
      </trkpt>
      <trkpt lat="43.45444" lon="5.76881">
        <ele>603.85</ele>
        <time>2019-01-26T11:32:06Z</time>
      </trkpt>
      <trkpt lat="43.45441" lon="5.76873">
        <ele>603.85</ele>
        <time>2019-01-26T11:32:14Z</time>
      </trkpt>
      <trkpt lat="43.45439" lon="5.76866">
        <ele>603.36</ele>
        <time>2019-01-26T11:32:21Z</time>
      </trkpt>
      <trkpt lat="43.45433" lon="5.76857">
        <ele>601.44</ele>
        <time>2019-01-26T11:32:30Z</time>
      </trkpt>
      <trkpt lat="43.4543" lon="5.76852">
        <ele>600.48</ele>
        <time>2019-01-26T11:32:35Z</time>
      </trkpt>
      <trkpt lat="43.45421" lon="5.76844">
        <ele>599.04</ele>
        <time>2019-01-26T11:32:43Z</time>
      </trkpt>
      <trkpt lat="43.45417" lon="5.76841">
        <ele>597.6</ele>
        <time>2019-01-26T11:32:48Z</time>
      </trkpt>
      <trkpt lat="43.45408" lon="5.76834">
        <ele>596.15</ele>
        <time>2019-01-26T11:32:56Z</time>
      </trkpt>
      <trkpt lat="43.45405" lon="5.76824">
        <ele>594.71</ele>
        <time>2019-01-26T11:33:01Z</time>
      </trkpt>
      <trkpt lat="43.45404" lon="5.76815">
        <ele>593.27</ele>
        <time>2019-01-26T11:33:07Z</time>
      </trkpt>
      <trkpt lat="43.45403" lon="5.76809">
        <ele>592.79</ele>
        <time>2019-01-26T11:33:10Z</time>
      </trkpt>
      <trkpt lat="43.45403" lon="5.76803">
        <ele>592.31</ele>
        <time>2019-01-26T11:33:13Z</time>
      </trkpt>
      <trkpt lat="43.45405" lon="5.76792">
        <ele>589.91</ele>
        <time>2019-01-26T11:33:19Z</time>
      </trkpt>
      <trkpt lat="43.45405" lon="5.7679">
        <ele>589.91</ele>
        <time>2019-01-26T11:33:20Z</time>
      </trkpt>
      <trkpt lat="43.45406" lon="5.76787">
        <ele>589.43</ele>
        <time>2019-01-26T11:33:21Z</time>
      </trkpt>
      <trkpt lat="43.45409" lon="5.76773">
        <ele>587.5</ele>
        <time>2019-01-26T11:33:28Z</time>
      </trkpt>
      <trkpt lat="43.4541" lon="5.76771">
        <ele>587.02</ele>
        <time>2019-01-26T11:33:29Z</time>
      </trkpt>
      <trkpt lat="43.45411" lon="5.7676">
        <ele>584.62</ele>
        <time>2019-01-26T11:33:35Z</time>
      </trkpt>
      <trkpt lat="43.45411" lon="5.76752">
        <ele>583.66</ele>
        <time>2019-01-26T11:33:40Z</time>
      </trkpt>
      <trkpt lat="43.45411" lon="5.76751">
        <ele>583.66</ele>
        <time>2019-01-26T11:33:41Z</time>
      </trkpt>
      <trkpt lat="43.45409" lon="5.76749">
        <ele>583.18</ele>
        <time>2019-01-26T11:33:43Z</time>
      </trkpt>
      <trkpt lat="43.45408" lon="5.76749">
        <ele>582.7</ele>
        <time>2019-01-26T11:33:44Z</time>
      </trkpt>
      <trkpt lat="43.45401" lon="5.76744">
        <ele>581.73</ele>
        <time>2019-01-26T11:33:50Z</time>
      </trkpt>
      <trkpt lat="43.45392" lon="5.76741">
        <ele>580.77</ele>
        <time>2019-01-26T11:33:57Z</time>
      </trkpt>
      <trkpt lat="43.45387" lon="5.76731">
        <ele>580.29</ele>
        <time>2019-01-26T11:34:06Z</time>
      </trkpt>
      <trkpt lat="43.45386" lon="5.76724">
        <ele>580.29</ele>
        <time>2019-01-26T11:34:09Z</time>
      </trkpt>
      <trkpt lat="43.45385" lon="5.76722">
        <ele>580.29</ele>
        <time>2019-01-26T11:34:10Z</time>
      </trkpt>
      <trkpt lat="43.45382" lon="5.76709">
        <ele>580.29</ele>
        <time>2019-01-26T11:34:17Z</time>
      </trkpt>
      <trkpt lat="43.45383" lon="5.76697">
        <ele>581.73</ele>
        <time>2019-01-26T11:34:24Z</time>
      </trkpt>
      <trkpt lat="43.45385" lon="5.76681">
        <ele>582.7</ele>
        <time>2019-01-26T11:34:32Z</time>
      </trkpt>
      <trkpt lat="43.45386" lon="5.76673">
        <ele>583.18</ele>
        <time>2019-01-26T11:34:36Z</time>
      </trkpt>
      <trkpt lat="43.45387" lon="5.76671">
        <ele>583.66</ele>
        <time>2019-01-26T11:34:37Z</time>
      </trkpt>
      <trkpt lat="43.4539" lon="5.76655">
        <ele>584.14</ele>
        <time>2019-01-26T11:34:45Z</time>
      </trkpt>
      <trkpt lat="43.45392" lon="5.76648">
        <ele>584.62</ele>
        <time>2019-01-26T11:34:49Z</time>
      </trkpt>
      <trkpt lat="43.45395" lon="5.76635">
        <ele>584.62</ele>
        <time>2019-01-26T11:34:57Z</time>
      </trkpt>
      <trkpt lat="43.45396" lon="5.76621">
        <ele>585.1</ele>
        <time>2019-01-26T11:35:05Z</time>
      </trkpt>
      <trkpt lat="43.45395" lon="5.76603">
        <ele>585.58</ele>
        <time>2019-01-26T11:35:15Z</time>
      </trkpt>
      <trkpt lat="43.45394" lon="5.76585">
        <ele>586.06</ele>
        <time>2019-01-26T11:35:24Z</time>
      </trkpt>
      <trkpt lat="43.45392" lon="5.76574">
        <ele>586.06</ele>
        <time>2019-01-26T11:35:29Z</time>
      </trkpt>
      <trkpt lat="43.45392" lon="5.76571">
        <ele>586.06</ele>
        <time>2019-01-26T11:35:30Z</time>
      </trkpt>
      <trkpt lat="43.45392" lon="5.76568">
        <ele>586.06</ele>
        <time>2019-01-26T11:35:31Z</time>
      </trkpt>
      <trkpt lat="43.45391" lon="5.76566">
        <ele>586.06</ele>
        <time>2019-01-26T11:35:32Z</time>
      </trkpt>
      <trkpt lat="43.4539" lon="5.76564">
        <ele>586.06</ele>
        <time>2019-01-26T11:35:33Z</time>
      </trkpt>
      <trkpt lat="43.45383" lon="5.76544">
        <ele>586.06</ele>
        <time>2019-01-26T11:35:41Z</time>
      </trkpt>
      <trkpt lat="43.45379" lon="5.76533">
        <ele>586.54</ele>
        <time>2019-01-26T11:35:46Z</time>
      </trkpt>
      <trkpt lat="43.45378" lon="5.7653">
        <ele>586.54</ele>
        <time>2019-01-26T11:35:47Z</time>
      </trkpt>
      <trkpt lat="43.45378" lon="5.76528">
        <ele>586.54</ele>
        <time>2019-01-26T11:35:48Z</time>
      </trkpt>
      <trkpt lat="43.45377" lon="5.76527">
        <ele>586.54</ele>
        <time>2019-01-26T11:35:49Z</time>
      </trkpt>
      <trkpt lat="43.45376" lon="5.76525">
        <ele>586.54</ele>
        <time>2019-01-26T11:35:50Z</time>
      </trkpt>
      <trkpt lat="43.45376" lon="5.76523">
        <ele>586.54</ele>
        <time>2019-01-26T11:35:51Z</time>
      </trkpt>
      <trkpt lat="43.45376" lon="5.76521">
        <ele>586.54</ele>
        <time>2019-01-26T11:35:52Z</time>
      </trkpt>
      <trkpt lat="43.45375" lon="5.7652">
        <ele>586.54</ele>
        <time>2019-01-26T11:35:53Z</time>
      </trkpt>
      <trkpt lat="43.45375" lon="5.76518">
        <ele>586.54</ele>
        <time>2019-01-26T11:35:54Z</time>
      </trkpt>
      <trkpt lat="43.45377" lon="5.7651">
        <ele>587.5</ele>
        <time>2019-01-26T11:36:01Z</time>
      </trkpt>
      <trkpt lat="43.45378" lon="5.76506">
        <ele>587.98</ele>
        <time>2019-01-26T11:36:03Z</time>
      </trkpt>
      <trkpt lat="43.45378" lon="5.76504">
        <ele>588.46</ele>
        <time>2019-01-26T11:36:04Z</time>
      </trkpt>
      <trkpt lat="43.45378" lon="5.76501">
        <ele>588.46</ele>
        <time>2019-01-26T11:36:05Z</time>
      </trkpt>
      <trkpt lat="43.45378" lon="5.76496">
        <ele>588.46</ele>
        <time>2019-01-26T11:36:07Z</time>
      </trkpt>
      <trkpt lat="43.45378" lon="5.76494">
        <ele>588.46</ele>
        <time>2019-01-26T11:36:08Z</time>
      </trkpt>
      <trkpt lat="43.4538" lon="5.76483">
        <ele>589.91</ele>
        <time>2019-01-26T11:36:16Z</time>
      </trkpt>
      <trkpt lat="43.45381" lon="5.76478">
        <ele>589.91</ele>
        <time>2019-01-26T11:36:19Z</time>
      </trkpt>
      <trkpt lat="43.45382" lon="5.76476">
        <ele>589.91</ele>
        <time>2019-01-26T11:36:20Z</time>
      </trkpt>
      <trkpt lat="43.45383" lon="5.76475">
        <ele>589.91</ele>
        <time>2019-01-26T11:36:21Z</time>
      </trkpt>
      <trkpt lat="43.45383" lon="5.76473">
        <ele>589.91</ele>
        <time>2019-01-26T11:36:22Z</time>
      </trkpt>
      <trkpt lat="43.45384" lon="5.76471">
        <ele>590.39</ele>
        <time>2019-01-26T11:36:23Z</time>
      </trkpt>
      <trkpt lat="43.45384" lon="5.76468">
        <ele>590.87</ele>
        <time>2019-01-26T11:36:24Z</time>
      </trkpt>
      <trkpt lat="43.45385" lon="5.76466">
        <ele>590.87</ele>
        <time>2019-01-26T11:36:25Z</time>
      </trkpt>
      <trkpt lat="43.45385" lon="5.76463">
        <ele>590.87</ele>
        <time>2019-01-26T11:36:26Z</time>
      </trkpt>
      <trkpt lat="43.45385" lon="5.7646">
        <ele>590.87</ele>
        <time>2019-01-26T11:36:27Z</time>
      </trkpt>
      <trkpt lat="43.45386" lon="5.76458">
        <ele>590.87</ele>
        <time>2019-01-26T11:36:28Z</time>
      </trkpt>
      <trkpt lat="43.45386" lon="5.76455">
        <ele>590.87</ele>
        <time>2019-01-26T11:36:29Z</time>
      </trkpt>
      <trkpt lat="43.45386" lon="5.76453">
        <ele>590.87</ele>
        <time>2019-01-26T11:36:30Z</time>
      </trkpt>
      <trkpt lat="43.45387" lon="5.76451">
        <ele>591.35</ele>
        <time>2019-01-26T11:36:31Z</time>
      </trkpt>
      <trkpt lat="43.45387" lon="5.76449">
        <ele>591.35</ele>
        <time>2019-01-26T11:36:32Z</time>
      </trkpt>
      <trkpt lat="43.45387" lon="5.76447">
        <ele>591.35</ele>
        <time>2019-01-26T11:36:33Z</time>
      </trkpt>
      <trkpt lat="43.45386" lon="5.76441">
        <ele>593.27</ele>
        <time>2019-01-26T11:36:39Z</time>
      </trkpt>
      <trkpt lat="43.45386" lon="5.7644">
        <ele>593.27</ele>
        <time>2019-01-26T11:36:40Z</time>
      </trkpt>
      <trkpt lat="43.45385" lon="5.76438">
        <ele>593.75</ele>
        <time>2019-01-26T11:36:41Z</time>
      </trkpt>
      <trkpt lat="43.45384" lon="5.76436">
        <ele>593.75</ele>
        <time>2019-01-26T11:36:42Z</time>
      </trkpt>
      <trkpt lat="43.45383" lon="5.76434">
        <ele>593.75</ele>
        <time>2019-01-26T11:36:43Z</time>
      </trkpt>
      <trkpt lat="43.45383" lon="5.76432">
        <ele>593.75</ele>
        <time>2019-01-26T11:36:44Z</time>
      </trkpt>
      <trkpt lat="43.45382" lon="5.76431">
        <ele>593.75</ele>
        <time>2019-01-26T11:36:45Z</time>
      </trkpt>
      <trkpt lat="43.45383" lon="5.76425">
        <ele>594.71</ele>
        <time>2019-01-26T11:36:51Z</time>
      </trkpt>
      <trkpt lat="43.45386" lon="5.76426">
        <ele>594.71</ele>
        <time>2019-01-26T11:36:57Z</time>
      </trkpt>
      <trkpt lat="43.4539" lon="5.76426">
        <ele>594.71</ele>
        <time>2019-01-26T11:37:04Z</time>
      </trkpt>
      <trkpt lat="43.45394" lon="5.76422">
        <ele>595.19</ele>
        <time>2019-01-26T11:37:12Z</time>
      </trkpt>
      <trkpt lat="43.45394" lon="5.76421">
        <ele>595.67</ele>
        <time>2019-01-26T11:37:13Z</time>
      </trkpt>
      <trkpt lat="43.45396" lon="5.76418">
        <ele>596.15</ele>
        <time>2019-01-26T11:37:17Z</time>
      </trkpt>
      <trkpt lat="43.45397" lon="5.76414">
        <ele>598.08</ele>
        <time>2019-01-26T11:37:23Z</time>
      </trkpt>
      <trkpt lat="43.45399" lon="5.76412">
        <ele>600.48</ele>
        <time>2019-01-26T11:37:29Z</time>
      </trkpt>
      <trkpt lat="43.45401" lon="5.76411">
        <ele>601.92</ele>
        <time>2019-01-26T11:37:35Z</time>
      </trkpt>
      <trkpt lat="43.45404" lon="5.76409">
        <ele>602.4</ele>
        <time>2019-01-26T11:37:43Z</time>
      </trkpt>
      <trkpt lat="43.45406" lon="5.76408">
        <ele>604.33</ele>
        <time>2019-01-26T11:37:51Z</time>
      </trkpt>
      <trkpt lat="43.45407" lon="5.76408">
        <ele>604.33</ele>
        <time>2019-01-26T11:37:56Z</time>
      </trkpt>
      <trkpt lat="43.45411" lon="5.76407">
        <ele>604.81</ele>
        <time>2019-01-26T11:38:03Z</time>
      </trkpt>
      <trkpt lat="43.45412" lon="5.76401">
        <ele>604.81</ele>
        <time>2019-01-26T11:38:09Z</time>
      </trkpt>
      <trkpt lat="43.45415" lon="5.76394">
        <ele>605.29</ele>
        <time>2019-01-26T11:38:16Z</time>
      </trkpt>
      <trkpt lat="43.45416" lon="5.76392">
        <ele>605.77</ele>
        <time>2019-01-26T11:38:19Z</time>
      </trkpt>
      <trkpt lat="43.4542" lon="5.76386">
        <ele>605.77</ele>
        <time>2019-01-26T11:38:26Z</time>
      </trkpt>
      <trkpt lat="43.45425" lon="5.76381">
        <ele>605.77</ele>
        <time>2019-01-26T11:38:34Z</time>
      </trkpt>
      <trkpt lat="43.45427" lon="5.7638">
        <ele>605.77</ele>
        <time>2019-01-26T11:38:41Z</time>
      </trkpt>
      <trkpt lat="43.45428" lon="5.76374">
        <ele>606.25</ele>
        <time>2019-01-26T11:38:47Z</time>
      </trkpt>
      <trkpt lat="43.45431" lon="5.76372">
        <ele>608.65</ele>
        <time>2019-01-26T11:38:55Z</time>
      </trkpt>
      <trkpt lat="43.45434" lon="5.76371">
        <ele>609.13</ele>
        <time>2019-01-26T11:39:02Z</time>
      </trkpt>
      <trkpt lat="43.45436" lon="5.76368">
        <ele>609.13</ele>
        <time>2019-01-26T11:39:07Z</time>
      </trkpt>
      <trkpt lat="43.45437" lon="5.76367">
        <ele>609.13</ele>
        <time>2019-01-26T11:39:18Z</time>
      </trkpt>
      <trkpt lat="43.45438" lon="5.76366">
        <ele>609.13</ele>
        <time>2019-01-26T11:39:23Z</time>
      </trkpt>
      <trkpt lat="43.4544" lon="5.76366">
        <ele>609.13</ele>
        <time>2019-01-26T11:39:25Z</time>
      </trkpt>
      <trkpt lat="43.45443" lon="5.76367">
        <ele>609.13</ele>
        <time>2019-01-26T11:39:28Z</time>
      </trkpt>
      <trkpt lat="43.45446" lon="5.76365">
        <ele>609.13</ele>
        <time>2019-01-26T11:39:37Z</time>
      </trkpt>
      <trkpt lat="43.45446" lon="5.76367">
        <ele>609.13</ele>
        <time>2019-01-26T11:39:55Z</time>
      </trkpt>
      <trkpt lat="43.45446" lon="5.76367">
        <ele>609.13</ele>
        <time>2019-01-26T11:40:02Z</time>
      </trkpt>
      <trkpt lat="43.45445" lon="5.76367">
        <ele>609.13</ele>
        <time>2019-01-26T11:40:19Z</time>
      </trkpt>
      <trkpt lat="43.45445" lon="5.76366">
        <ele>609.13</ele>
        <time>2019-01-26T11:40:38Z</time>
      </trkpt>
      <trkpt lat="43.45445" lon="5.76365">
        <ele>608.65</ele>
        <time>2019-01-26T11:40:48Z</time>
      </trkpt>
      <trkpt lat="43.45444" lon="5.76366">
        <ele>609.61</ele>
        <time>2019-01-26T11:40:58Z</time>
      </trkpt>
      <trkpt lat="43.45446" lon="5.76366">
        <ele>609.61</ele>
        <time>2019-01-26T11:41:13Z</time>
      </trkpt>
      <trkpt lat="43.45447" lon="5.76366">
        <ele>609.13</ele>
        <time>2019-01-26T11:41:24Z</time>
      </trkpt>
      <trkpt lat="43.45447" lon="5.76368">
        <ele>609.13</ele>
        <time>2019-01-26T11:41:38Z</time>
      </trkpt>
      <trkpt lat="43.45445" lon="5.76366">
        <ele>608.17</ele>
        <time>2019-01-26T11:41:53Z</time>
      </trkpt>
      <trkpt lat="43.45446" lon="5.76368">
        <ele>607.69</ele>
        <time>2019-01-26T11:42:10Z</time>
      </trkpt>
      <trkpt lat="43.45446" lon="5.76367">
        <ele>607.69</ele>
        <time>2019-01-26T11:42:29Z</time>
      </trkpt>
      <trkpt lat="43.45446" lon="5.76367">
        <ele>607.69</ele>
        <time>2019-01-26T11:42:43Z</time>
      </trkpt>
      <trkpt lat="43.45445" lon="5.76366">
        <ele>607.69</ele>
        <time>2019-01-26T11:42:59Z</time>
      </trkpt>
      <trkpt lat="43.45445" lon="5.76367">
        <ele>607.69</ele>
        <time>2019-01-26T11:43:14Z</time>
      </trkpt>
      <trkpt lat="43.45446" lon="5.76366">
        <ele>607.21</ele>
        <time>2019-01-26T11:43:22Z</time>
      </trkpt>
      <trkpt lat="43.45448" lon="5.76367">
        <ele>607.21</ele>
        <time>2019-01-26T11:43:41Z</time>
      </trkpt>
      <trkpt lat="43.45448" lon="5.76367">
        <ele>607.21</ele>
        <time>2019-01-26T11:43:55Z</time>
      </trkpt>
      <trkpt lat="43.45447" lon="5.76366">
        <ele>607.21</ele>
        <time>2019-01-26T11:44:06Z</time>
      </trkpt>
      <trkpt lat="43.45448" lon="5.76366">
        <ele>607.21</ele>
        <time>2019-01-26T11:44:19Z</time>
      </trkpt>
      <trkpt lat="43.45448" lon="5.76366">
        <ele>607.21</ele>
        <time>2019-01-26T11:44:30Z</time>
      </trkpt>
      <trkpt lat="43.45447" lon="5.76365">
        <ele>607.21</ele>
        <time>2019-01-26T11:44:45Z</time>
      </trkpt>
      <trkpt lat="43.45448" lon="5.76366">
        <ele>607.21</ele>
        <time>2019-01-26T11:44:57Z</time>
      </trkpt>
      <trkpt lat="43.45446" lon="5.76365">
        <ele>607.21</ele>
        <time>2019-01-26T11:45:10Z</time>
      </trkpt>
      <trkpt lat="43.45445" lon="5.76364">
        <ele>607.21</ele>
        <time>2019-01-26T11:45:23Z</time>
      </trkpt>
      <trkpt lat="43.45444" lon="5.76364">
        <ele>607.21</ele>
        <time>2019-01-26T11:45:35Z</time>
      </trkpt>
      <trkpt lat="43.45444" lon="5.76366">
        <ele>608.17</ele>
        <time>2019-01-26T11:45:53Z</time>
      </trkpt>
      <trkpt lat="43.45445" lon="5.76367">
        <ele>608.17</ele>
        <time>2019-01-26T11:46:00Z</time>
      </trkpt>
      <trkpt lat="43.45444" lon="5.76367">
        <ele>608.17</ele>
        <time>2019-01-26T11:46:15Z</time>
      </trkpt>
      <trkpt lat="43.45445" lon="5.76366">
        <ele>608.17</ele>
        <time>2019-01-26T11:46:39Z</time>
      </trkpt>
      <trkpt lat="43.45444" lon="5.76367">
        <ele>608.17</ele>
        <time>2019-01-26T11:46:58Z</time>
      </trkpt>
      <trkpt lat="43.45445" lon="5.76367">
        <ele>608.17</ele>
        <time>2019-01-26T11:47:15Z</time>
      </trkpt>
      <trkpt lat="43.45446" lon="5.76366">
        <ele>608.17</ele>
        <time>2019-01-26T11:47:23Z</time>
      </trkpt>
      <trkpt lat="43.45446" lon="5.76366">
        <ele>608.17</ele>
        <time>2019-01-26T11:47:33Z</time>
      </trkpt>
      <trkpt lat="43.45444" lon="5.76366">
        <ele>608.17</ele>
        <time>2019-01-26T11:47:46Z</time>
      </trkpt>
      <trkpt lat="43.45444" lon="5.76367">
        <ele>608.17</ele>
        <time>2019-01-26T11:48:03Z</time>
      </trkpt>
      <trkpt lat="43.45442" lon="5.76368">
        <ele>608.17</ele>
        <time>2019-01-26T11:48:21Z</time>
      </trkpt>
      <trkpt lat="43.45445" lon="5.76367">
        <ele>608.17</ele>
        <time>2019-01-26T11:48:32Z</time>
      </trkpt>
      <trkpt lat="43.45445" lon="5.76367">
        <ele>608.17</ele>
        <time>2019-01-26T11:48:42Z</time>
      </trkpt>
      <trkpt lat="43.45446" lon="5.76368">
        <ele>608.17</ele>
        <time>2019-01-26T11:48:48Z</time>
      </trkpt>
      <trkpt lat="43.45443" lon="5.76371">
        <ele>608.17</ele>
        <time>2019-01-26T11:48:59Z</time>
      </trkpt>
      <trkpt lat="43.45439" lon="5.76369">
        <ele>608.65</ele>
        <time>2019-01-26T11:49:05Z</time>
      </trkpt>
      <trkpt lat="43.45437" lon="5.76372">
        <ele>608.65</ele>
        <time>2019-01-26T11:49:12Z</time>
      </trkpt>
      <trkpt lat="43.45434" lon="5.76373">
        <ele>608.65</ele>
        <time>2019-01-26T11:49:17Z</time>
      </trkpt>
      <trkpt lat="43.45434" lon="5.76373">
        <ele>607.69</ele>
        <time>2019-01-26T11:49:24Z</time>
      </trkpt>
      <trkpt lat="43.45434" lon="5.76373">
        <ele>607.69</ele>
        <time>2019-01-26T11:49:25Z</time>
      </trkpt>
      <trkpt lat="43.45432" lon="5.76375">
        <ele>607.21</ele>
        <time>2019-01-26T11:49:31Z</time>
      </trkpt>
      <trkpt lat="43.45431" lon="5.76378">
        <ele>605.29</ele>
        <time>2019-01-26T11:49:36Z</time>
      </trkpt>
      <trkpt lat="43.45426" lon="5.76381">
        <ele>604.33</ele>
        <time>2019-01-26T11:49:42Z</time>
      </trkpt>
      <trkpt lat="43.45421" lon="5.76388">
        <ele>604.33</ele>
        <time>2019-01-26T11:49:49Z</time>
      </trkpt>
      <trkpt lat="43.45418" lon="5.76395">
        <ele>603.85</ele>
        <time>2019-01-26T11:49:56Z</time>
      </trkpt>
      <trkpt lat="43.45419" lon="5.76399">
        <ele>603.85</ele>
        <time>2019-01-26T11:50:01Z</time>
      </trkpt>
      <trkpt lat="43.45418" lon="5.76401">
        <ele>603.36</ele>
        <time>2019-01-26T11:50:03Z</time>
      </trkpt>
      <trkpt lat="43.45415" lon="5.76409">
        <ele>601.92</ele>
        <time>2019-01-26T11:50:11Z</time>
      </trkpt>
      <trkpt lat="43.4541" lon="5.76411">
        <ele>602.4</ele>
        <time>2019-01-26T11:50:18Z</time>
      </trkpt>
      <trkpt lat="43.4541" lon="5.76412">
        <ele>601.44</ele>
        <time>2019-01-26T11:50:20Z</time>
      </trkpt>
      <trkpt lat="43.45404" lon="5.76414">
        <ele>600</ele>
        <time>2019-01-26T11:50:28Z</time>
      </trkpt>
      <trkpt lat="43.45403" lon="5.76416">
        <ele>598.08</ele>
        <time>2019-01-26T11:50:37Z</time>
      </trkpt>
      <trkpt lat="43.45401" lon="5.76417">
        <ele>596.15</ele>
        <time>2019-01-26T11:50:43Z</time>
      </trkpt>
      <trkpt lat="43.45399" lon="5.7642">
        <ele>595.19</ele>
        <time>2019-01-26T11:50:49Z</time>
      </trkpt>
      <trkpt lat="43.45396" lon="5.76423">
        <ele>593.75</ele>
        <time>2019-01-26T11:50:55Z</time>
      </trkpt>
      <trkpt lat="43.4539" lon="5.76425">
        <ele>592.31</ele>
        <time>2019-01-26T11:51:01Z</time>
      </trkpt>
      <trkpt lat="43.45379" lon="5.76425">
        <ele>592.31</ele>
        <time>2019-01-26T11:51:11Z</time>
      </trkpt>
      <trkpt lat="43.45378" lon="5.76424">
        <ele>592.31</ele>
        <time>2019-01-26T11:51:12Z</time>
      </trkpt>
      <trkpt lat="43.45368" lon="5.76417">
        <ele>592.31</ele>
        <time>2019-01-26T11:51:19Z</time>
      </trkpt>
      <trkpt lat="43.45359" lon="5.7641">
        <ele>592.31</ele>
        <time>2019-01-26T11:51:26Z</time>
      </trkpt>
      <trkpt lat="43.45357" lon="5.76408">
        <ele>592.31</ele>
        <time>2019-01-26T11:51:28Z</time>
      </trkpt>
      <trkpt lat="43.4535" lon="5.76398">
        <ele>593.75</ele>
        <time>2019-01-26T11:51:38Z</time>
      </trkpt>
      <trkpt lat="43.45342" lon="5.76385">
        <ele>595.19</ele>
        <time>2019-01-26T11:51:46Z</time>
      </trkpt>
      <trkpt lat="43.4534" lon="5.7638">
        <ele>595.67</ele>
        <time>2019-01-26T11:51:50Z</time>
      </trkpt>
      <trkpt lat="43.45333" lon="5.76367">
        <ele>596.15</ele>
        <time>2019-01-26T11:51:57Z</time>
      </trkpt>
      <trkpt lat="43.45329" lon="5.76361">
        <ele>597.12</ele>
        <time>2019-01-26T11:52:04Z</time>
      </trkpt>
      <trkpt lat="43.45321" lon="5.76343">
        <ele>598.08</ele>
        <time>2019-01-26T11:52:13Z</time>
      </trkpt>
      <trkpt lat="43.45316" lon="5.76332">
        <ele>598.08</ele>
        <time>2019-01-26T11:52:22Z</time>
      </trkpt>
      <trkpt lat="43.45315" lon="5.76326">
        <ele>598.08</ele>
        <time>2019-01-26T11:52:30Z</time>
      </trkpt>
      <trkpt lat="43.45316" lon="5.76324">
        <ele>598.08</ele>
        <time>2019-01-26T11:52:44Z</time>
      </trkpt>
      <trkpt lat="43.45311" lon="5.76317">
        <ele>598.08</ele>
        <time>2019-01-26T11:52:53Z</time>
      </trkpt>
      <trkpt lat="43.45305" lon="5.76312">
        <ele>598.08</ele>
        <time>2019-01-26T11:53:00Z</time>
      </trkpt>
      <trkpt lat="43.45303" lon="5.76311">
        <ele>598.56</ele>
        <time>2019-01-26T11:53:02Z</time>
      </trkpt>
      <trkpt lat="43.45295" lon="5.76304">
        <ele>600</ele>
        <time>2019-01-26T11:53:09Z</time>
      </trkpt>
      <trkpt lat="43.4529" lon="5.76298">
        <ele>600.48</ele>
        <time>2019-01-26T11:53:14Z</time>
      </trkpt>
      <trkpt lat="43.45286" lon="5.76284">
        <ele>601.92</ele>
        <time>2019-01-26T11:53:22Z</time>
      </trkpt>
      <trkpt lat="43.45284" lon="5.7627">
        <ele>603.36</ele>
        <time>2019-01-26T11:53:29Z</time>
      </trkpt>
      <trkpt lat="43.45283" lon="5.7626">
        <ele>604.33</ele>
        <time>2019-01-26T11:53:35Z</time>
      </trkpt>
      <trkpt lat="43.45283" lon="5.76253">
        <ele>605.77</ele>
        <time>2019-01-26T11:53:41Z</time>
      </trkpt>
      <trkpt lat="43.45283" lon="5.7625">
        <ele>605.77</ele>
        <time>2019-01-26T11:53:42Z</time>
      </trkpt>
      <trkpt lat="43.45279" lon="5.76238">
        <ele>607.21</ele>
        <time>2019-01-26T11:53:50Z</time>
      </trkpt>
      <trkpt lat="43.45279" lon="5.76236">
        <ele>607.69</ele>
        <time>2019-01-26T11:53:51Z</time>
      </trkpt>
      <trkpt lat="43.45274" lon="5.76226">
        <ele>609.61</ele>
        <time>2019-01-26T11:53:59Z</time>
      </trkpt>
      <trkpt lat="43.45271" lon="5.76222">
        <ele>611.06</ele>
        <time>2019-01-26T11:54:04Z</time>
      </trkpt>
      <trkpt lat="43.45264" lon="5.76217">
        <ele>611.54</ele>
        <time>2019-01-26T11:54:11Z</time>
      </trkpt>
      <trkpt lat="43.45257" lon="5.76212">
        <ele>610.09</ele>
        <time>2019-01-26T11:54:19Z</time>
      </trkpt>
      <trkpt lat="43.45246" lon="5.76202">
        <ele>608.65</ele>
        <time>2019-01-26T11:54:28Z</time>
      </trkpt>
      <trkpt lat="43.45234" lon="5.76194">
        <ele>607.21</ele>
        <time>2019-01-26T11:54:35Z</time>
      </trkpt>
      <trkpt lat="43.45223" lon="5.76185">
        <ele>606.25</ele>
        <time>2019-01-26T11:54:43Z</time>
      </trkpt>
      <trkpt lat="43.45218" lon="5.76178">
        <ele>605.77</ele>
        <time>2019-01-26T11:54:48Z</time>
      </trkpt>
      <trkpt lat="43.45212" lon="5.76163">
        <ele>605.29</ele>
        <time>2019-01-26T11:54:55Z</time>
      </trkpt>
      <trkpt lat="43.45206" lon="5.76151">
        <ele>604.33</ele>
        <time>2019-01-26T11:55:02Z</time>
      </trkpt>
      <trkpt lat="43.45205" lon="5.76148">
        <ele>604.33</ele>
        <time>2019-01-26T11:55:05Z</time>
      </trkpt>
      <trkpt lat="43.45204" lon="5.76147">
        <ele>604.33</ele>
        <time>2019-01-26T11:55:06Z</time>
      </trkpt>
      <trkpt lat="43.45203" lon="5.76146">
        <ele>603.85</ele>
        <time>2019-01-26T11:55:07Z</time>
      </trkpt>
      <trkpt lat="43.45202" lon="5.76145">
        <ele>603.85</ele>
        <time>2019-01-26T11:55:08Z</time>
      </trkpt>
      <trkpt lat="43.45201" lon="5.76144">
        <ele>603.85</ele>
        <time>2019-01-26T11:55:09Z</time>
      </trkpt>
      <trkpt lat="43.452" lon="5.76143">
        <ele>603.36</ele>
        <time>2019-01-26T11:55:10Z</time>
      </trkpt>
      <trkpt lat="43.452" lon="5.76141">
        <ele>603.36</ele>
        <time>2019-01-26T11:55:11Z</time>
      </trkpt>
      <trkpt lat="43.45199" lon="5.76139">
        <ele>602.4</ele>
        <time>2019-01-26T11:55:12Z</time>
      </trkpt>
      <trkpt lat="43.45198" lon="5.76137">
        <ele>602.4</ele>
        <time>2019-01-26T11:55:13Z</time>
      </trkpt>
      <trkpt lat="43.45194" lon="5.76123">
        <ele>602.4</ele>
        <time>2019-01-26T11:55:20Z</time>
      </trkpt>
      <trkpt lat="43.45187" lon="5.76112">
        <ele>601.92</ele>
        <time>2019-01-26T11:55:27Z</time>
      </trkpt>
      <trkpt lat="43.4518" lon="5.76106">
        <ele>601.44</ele>
        <time>2019-01-26T11:55:33Z</time>
      </trkpt>
      <trkpt lat="43.45179" lon="5.76105">
        <ele>601.44</ele>
        <time>2019-01-26T11:55:34Z</time>
      </trkpt>
      <trkpt lat="43.45178" lon="5.76103">
        <ele>601.44</ele>
        <time>2019-01-26T11:55:35Z</time>
      </trkpt>
      <trkpt lat="43.45177" lon="5.76102">
        <ele>601.44</ele>
        <time>2019-01-26T11:55:36Z</time>
      </trkpt>
      <trkpt lat="43.45176" lon="5.76099">
        <ele>601.44</ele>
        <time>2019-01-26T11:55:38Z</time>
      </trkpt>
      <trkpt lat="43.45175" lon="5.76097">
        <ele>601.44</ele>
        <time>2019-01-26T11:55:39Z</time>
      </trkpt>
      <trkpt lat="43.45174" lon="5.76096">
        <ele>601.44</ele>
        <time>2019-01-26T11:55:40Z</time>
      </trkpt>
      <trkpt lat="43.45172" lon="5.76087">
        <ele>602.88</ele>
        <time>2019-01-26T11:55:45Z</time>
      </trkpt>
      <trkpt lat="43.45172" lon="5.76086">
        <ele>602.88</ele>
        <time>2019-01-26T11:55:46Z</time>
      </trkpt>
      <trkpt lat="43.45173" lon="5.76081">
        <ele>604.33</ele>
        <time>2019-01-26T11:55:50Z</time>
      </trkpt>
      <trkpt lat="43.45173" lon="5.76079">
        <ele>604.33</ele>
        <time>2019-01-26T11:55:51Z</time>
      </trkpt>
      <trkpt lat="43.45173" lon="5.76072">
        <ele>605.29</ele>
        <time>2019-01-26T11:55:56Z</time>
      </trkpt>
      <trkpt lat="43.45173" lon="5.7607">
        <ele>606.25</ele>
        <time>2019-01-26T11:55:57Z</time>
      </trkpt>
      <trkpt lat="43.45173" lon="5.76067">
        <ele>606.25</ele>
        <time>2019-01-26T11:55:58Z</time>
      </trkpt>
      <trkpt lat="43.45172" lon="5.76056">
        <ele>608.17</ele>
        <time>2019-01-26T11:56:05Z</time>
      </trkpt>
      <trkpt lat="43.45172" lon="5.76054">
        <ele>608.17</ele>
        <time>2019-01-26T11:56:06Z</time>
      </trkpt>
      <trkpt lat="43.45171" lon="5.76051">
        <ele>608.65</ele>
        <time>2019-01-26T11:56:07Z</time>
      </trkpt>
      <trkpt lat="43.45171" lon="5.76049">
        <ele>608.65</ele>
        <time>2019-01-26T11:56:08Z</time>
      </trkpt>
      <trkpt lat="43.45171" lon="5.76047">
        <ele>608.65</ele>
        <time>2019-01-26T11:56:09Z</time>
      </trkpt>
      <trkpt lat="43.45171" lon="5.76038">
        <ele>609.61</ele>
        <time>2019-01-26T11:56:15Z</time>
      </trkpt>
      <trkpt lat="43.4517" lon="5.76026">
        <ele>610.57</ele>
        <time>2019-01-26T11:56:20Z</time>
      </trkpt>
      <trkpt lat="43.4517" lon="5.76024">
        <ele>611.06</ele>
        <time>2019-01-26T11:56:21Z</time>
      </trkpt>
      <trkpt lat="43.4517" lon="5.76014">
        <ele>612.02</ele>
        <time>2019-01-26T11:56:28Z</time>
      </trkpt>
      <trkpt lat="43.45168" lon="5.76005">
        <ele>612.5</ele>
        <time>2019-01-26T11:56:31Z</time>
      </trkpt>
      <trkpt lat="43.45168" lon="5.76003">
        <ele>612.5</ele>
        <time>2019-01-26T11:56:32Z</time>
      </trkpt>
      <trkpt lat="43.45166" lon="5.75995">
        <ele>613.94</ele>
        <time>2019-01-26T11:56:38Z</time>
      </trkpt>
      <trkpt lat="43.45165" lon="5.75992">
        <ele>613.94</ele>
        <time>2019-01-26T11:56:40Z</time>
      </trkpt>
      <trkpt lat="43.45164" lon="5.7599">
        <ele>614.42</ele>
        <time>2019-01-26T11:56:41Z</time>
      </trkpt>
      <trkpt lat="43.45159" lon="5.7598">
        <ele>614.9</ele>
        <time>2019-01-26T11:56:49Z</time>
      </trkpt>
      <trkpt lat="43.45157" lon="5.75979">
        <ele>614.9</ele>
        <time>2019-01-26T11:56:51Z</time>
      </trkpt>
      <trkpt lat="43.45146" lon="5.75975">
        <ele>614.9</ele>
        <time>2019-01-26T11:56:59Z</time>
      </trkpt>
      <trkpt lat="43.45145" lon="5.75974">
        <ele>614.9</ele>
        <time>2019-01-26T11:57:00Z</time>
      </trkpt>
      <trkpt lat="43.45144" lon="5.75972">
        <ele>614.9</ele>
        <time>2019-01-26T11:57:01Z</time>
      </trkpt>
      <trkpt lat="43.45143" lon="5.75971">
        <ele>614.9</ele>
        <time>2019-01-26T11:57:02Z</time>
      </trkpt>
      <trkpt lat="43.45141" lon="5.75971">
        <ele>614.9</ele>
        <time>2019-01-26T11:57:03Z</time>
      </trkpt>
      <trkpt lat="43.4514" lon="5.7597">
        <ele>614.9</ele>
        <time>2019-01-26T11:57:04Z</time>
      </trkpt>
      <trkpt lat="43.45139" lon="5.7597">
        <ele>614.9</ele>
        <time>2019-01-26T11:57:05Z</time>
      </trkpt>
      <trkpt lat="43.45138" lon="5.75969">
        <ele>613.46</ele>
        <time>2019-01-26T11:57:06Z</time>
      </trkpt>
      <trkpt lat="43.45137" lon="5.75968">
        <ele>613.46</ele>
        <time>2019-01-26T11:57:07Z</time>
      </trkpt>
      <trkpt lat="43.45131" lon="5.75965">
        <ele>613.46</ele>
        <time>2019-01-26T11:57:12Z</time>
      </trkpt>
      <trkpt lat="43.4513" lon="5.75965">
        <ele>613.46</ele>
        <time>2019-01-26T11:57:13Z</time>
      </trkpt>
      <trkpt lat="43.45129" lon="5.75964">
        <ele>613.46</ele>
        <time>2019-01-26T11:57:14Z</time>
      </trkpt>
      <trkpt lat="43.4512" lon="5.75952">
        <ele>612.98</ele>
        <time>2019-01-26T11:57:22Z</time>
      </trkpt>
      <trkpt lat="43.45116" lon="5.75944">
        <ele>612.98</ele>
        <time>2019-01-26T11:57:30Z</time>
      </trkpt>
      <trkpt lat="43.45113" lon="5.75938">
        <ele>612.98</ele>
        <time>2019-01-26T11:57:34Z</time>
      </trkpt>
      <trkpt lat="43.45112" lon="5.75936">
        <ele>612.98</ele>
        <time>2019-01-26T11:57:35Z</time>
      </trkpt>
      <trkpt lat="43.45111" lon="5.75934">
        <ele>612.98</ele>
        <time>2019-01-26T11:57:36Z</time>
      </trkpt>
      <trkpt lat="43.45109" lon="5.75933">
        <ele>612.02</ele>
        <time>2019-01-26T11:57:37Z</time>
      </trkpt>
      <trkpt lat="43.45108" lon="5.75932">
        <ele>612.02</ele>
        <time>2019-01-26T11:57:38Z</time>
      </trkpt>
      <trkpt lat="43.45107" lon="5.75932">
        <ele>612.02</ele>
        <time>2019-01-26T11:57:39Z</time>
      </trkpt>
      <trkpt lat="43.45105" lon="5.75931">
        <ele>612.02</ele>
        <time>2019-01-26T11:57:40Z</time>
      </trkpt>
      <trkpt lat="43.45098" lon="5.75929">
        <ele>612.02</ele>
        <time>2019-01-26T11:57:47Z</time>
      </trkpt>
      <trkpt lat="43.45096" lon="5.75927">
        <ele>611.54</ele>
        <time>2019-01-26T11:57:55Z</time>
      </trkpt>
      <trkpt lat="43.45096" lon="5.75928">
        <ele>611.54</ele>
        <time>2019-01-26T11:58:09Z</time>
      </trkpt>
      <trkpt lat="43.45095" lon="5.75925">
        <ele>611.06</ele>
        <time>2019-01-26T11:58:24Z</time>
      </trkpt>
      <trkpt lat="43.45096" lon="5.75925">
        <ele>611.06</ele>
        <time>2019-01-26T11:58:33Z</time>
      </trkpt>
      <trkpt lat="43.45096" lon="5.75925">
        <ele>611.06</ele>
        <time>2019-01-26T11:58:43Z</time>
      </trkpt>
      <trkpt lat="43.45086" lon="5.75921">
        <ele>610.09</ele>
        <time>2019-01-26T11:58:52Z</time>
      </trkpt>
      <trkpt lat="43.45079" lon="5.75918">
        <ele>609.61</ele>
        <time>2019-01-26T11:58:57Z</time>
      </trkpt>
      <trkpt lat="43.45075" lon="5.75918">
        <ele>609.61</ele>
        <time>2019-01-26T11:59:03Z</time>
      </trkpt>
      <trkpt lat="43.45073" lon="5.75917">
        <ele>609.61</ele>
        <time>2019-01-26T11:59:13Z</time>
      </trkpt>
      <trkpt lat="43.45072" lon="5.75916">
        <ele>609.61</ele>
        <time>2019-01-26T11:59:24Z</time>
      </trkpt>
      <trkpt lat="43.45069" lon="5.75916">
        <ele>609.61</ele>
        <time>2019-01-26T11:59:31Z</time>
      </trkpt>
      <trkpt lat="43.45068" lon="5.75916">
        <ele>609.13</ele>
        <time>2019-01-26T11:59:32Z</time>
      </trkpt>
      <trkpt lat="43.45067" lon="5.75915">
        <ele>609.13</ele>
        <time>2019-01-26T11:59:33Z</time>
      </trkpt>
      <trkpt lat="43.45054" lon="5.75911">
        <ele>609.13</ele>
        <time>2019-01-26T11:59:41Z</time>
      </trkpt>
      <trkpt lat="43.45048" lon="5.75907">
        <ele>609.13</ele>
        <time>2019-01-26T11:59:49Z</time>
      </trkpt>
      <trkpt lat="43.45047" lon="5.75907">
        <ele>609.13</ele>
        <time>2019-01-26T11:59:50Z</time>
      </trkpt>
      <trkpt lat="43.45046" lon="5.75906">
        <ele>609.13</ele>
        <time>2019-01-26T11:59:51Z</time>
      </trkpt>
      <trkpt lat="43.45036" lon="5.75893">
        <ele>610.09</ele>
        <time>2019-01-26T12:00:00Z</time>
      </trkpt>
      <trkpt lat="43.45033" lon="5.75887">
        <ele>611.06</ele>
        <time>2019-01-26T12:00:06Z</time>
      </trkpt>
      <trkpt lat="43.45032" lon="5.75884">
        <ele>611.06</ele>
        <time>2019-01-26T12:00:07Z</time>
      </trkpt>
      <trkpt lat="43.45032" lon="5.75882">
        <ele>611.06</ele>
        <time>2019-01-26T12:00:08Z</time>
      </trkpt>
      <trkpt lat="43.45032" lon="5.7588">
        <ele>611.06</ele>
        <time>2019-01-26T12:00:09Z</time>
      </trkpt>
      <trkpt lat="43.45032" lon="5.75877">
        <ele>611.06</ele>
        <time>2019-01-26T12:00:10Z</time>
      </trkpt>
      <trkpt lat="43.45031" lon="5.75854">
        <ele>611.54</ele>
        <time>2019-01-26T12:00:19Z</time>
      </trkpt>
      <trkpt lat="43.45032" lon="5.75844">
        <ele>612.98</ele>
        <time>2019-01-26T12:00:27Z</time>
      </trkpt>
      <trkpt lat="43.45032" lon="5.75832">
        <ele>613.46</ele>
        <time>2019-01-26T12:00:34Z</time>
      </trkpt>
      <trkpt lat="43.45028" lon="5.7582">
        <ele>614.42</ele>
        <time>2019-01-26T12:00:42Z</time>
      </trkpt>
      <trkpt lat="43.45022" lon="5.75805">
        <ele>614.9</ele>
        <time>2019-01-26T12:00:50Z</time>
      </trkpt>
      <trkpt lat="43.45016" lon="5.75796">
        <ele>615.38</ele>
        <time>2019-01-26T12:01:00Z</time>
      </trkpt>
      <trkpt lat="43.45015" lon="5.75794">
        <ele>615.38</ele>
        <time>2019-01-26T12:01:01Z</time>
      </trkpt>
      <trkpt lat="43.45004" lon="5.7578">
        <ele>615.38</ele>
        <time>2019-01-26T12:01:09Z</time>
      </trkpt>
      <trkpt lat="43.44995" lon="5.75772">
        <ele>612.98</ele>
        <time>2019-01-26T12:01:16Z</time>
      </trkpt>
      <trkpt lat="43.44986" lon="5.75763">
        <ele>612.02</ele>
        <time>2019-01-26T12:01:23Z</time>
      </trkpt>
      <trkpt lat="43.44975" lon="5.75749">
        <ele>612.02</ele>
        <time>2019-01-26T12:01:32Z</time>
      </trkpt>
      <trkpt lat="43.44969" lon="5.75733">
        <ele>612.02</ele>
        <time>2019-01-26T12:01:40Z</time>
      </trkpt>
      <trkpt lat="43.44967" lon="5.75719">
        <ele>613.46</ele>
        <time>2019-01-26T12:01:48Z</time>
      </trkpt>
      <trkpt lat="43.44967" lon="5.75718">
        <ele>613.46</ele>
        <time>2019-01-26T12:01:49Z</time>
      </trkpt>
      <trkpt lat="43.44966" lon="5.75704">
        <ele>614.42</ele>
        <time>2019-01-26T12:01:59Z</time>
      </trkpt>
      <trkpt lat="43.44963" lon="5.75691">
        <ele>614.9</ele>
        <time>2019-01-26T12:02:05Z</time>
      </trkpt>
      <trkpt lat="43.44954" lon="5.75676">
        <ele>615.38</ele>
        <time>2019-01-26T12:02:13Z</time>
      </trkpt>
      <trkpt lat="43.44945" lon="5.75664">
        <ele>615.38</ele>
        <time>2019-01-26T12:02:22Z</time>
      </trkpt>
      <trkpt lat="43.4494" lon="5.75657">
        <ele>616.34</ele>
        <time>2019-01-26T12:02:30Z</time>
      </trkpt>
      <trkpt lat="43.44933" lon="5.75645">
        <ele>616.82</ele>
        <time>2019-01-26T12:02:39Z</time>
      </trkpt>
      <trkpt lat="43.44924" lon="5.75632">
        <ele>617.78</ele>
        <time>2019-01-26T12:02:46Z</time>
      </trkpt>
      <trkpt lat="43.44918" lon="5.75621">
        <ele>618.75</ele>
        <time>2019-01-26T12:02:55Z</time>
      </trkpt>
      <trkpt lat="43.44916" lon="5.75619">
        <ele>618.75</ele>
        <time>2019-01-26T12:02:57Z</time>
      </trkpt>
      <trkpt lat="43.44915" lon="5.75618">
        <ele>618.75</ele>
        <time>2019-01-26T12:02:58Z</time>
      </trkpt>
      <trkpt lat="43.44913" lon="5.75615">
        <ele>618.75</ele>
        <time>2019-01-26T12:03:00Z</time>
      </trkpt>
      <trkpt lat="43.44902" lon="5.75606">
        <ele>619.23</ele>
        <time>2019-01-26T12:03:07Z</time>
      </trkpt>
      <trkpt lat="43.44893" lon="5.75599">
        <ele>619.71</ele>
        <time>2019-01-26T12:03:17Z</time>
      </trkpt>
      <trkpt lat="43.44883" lon="5.75593">
        <ele>620.19</ele>
        <time>2019-01-26T12:03:25Z</time>
      </trkpt>
      <trkpt lat="43.44881" lon="5.75591">
        <ele>620.19</ele>
        <time>2019-01-26T12:03:26Z</time>
      </trkpt>
      <trkpt lat="43.4488" lon="5.75589">
        <ele>620.19</ele>
        <time>2019-01-26T12:03:27Z</time>
      </trkpt>
      <trkpt lat="43.44878" lon="5.75587">
        <ele>620.67</ele>
        <time>2019-01-26T12:03:28Z</time>
      </trkpt>
      <trkpt lat="43.44877" lon="5.75586">
        <ele>620.67</ele>
        <time>2019-01-26T12:03:29Z</time>
      </trkpt>
      <trkpt lat="43.4487" lon="5.75583">
        <ele>621.63</ele>
        <time>2019-01-26T12:03:35Z</time>
      </trkpt>
      <trkpt lat="43.44861" lon="5.75582">
        <ele>623.07</ele>
        <time>2019-01-26T12:03:42Z</time>
      </trkpt>
      <trkpt lat="43.44849" lon="5.7558">
        <ele>624.99</ele>
        <time>2019-01-26T12:03:50Z</time>
      </trkpt>
      <trkpt lat="43.44848" lon="5.7558">
        <ele>624.99</ele>
        <time>2019-01-26T12:03:52Z</time>
      </trkpt>
      <trkpt lat="43.44847" lon="5.7558">
        <ele>625.47</ele>
        <time>2019-01-26T12:03:53Z</time>
      </trkpt>
      <trkpt lat="43.44845" lon="5.7558">
        <ele>625.47</ele>
        <time>2019-01-26T12:03:54Z</time>
      </trkpt>
      <trkpt lat="43.44838" lon="5.75577">
        <ele>627.4</ele>
        <time>2019-01-26T12:04:01Z</time>
      </trkpt>
      <trkpt lat="43.44832" lon="5.75575">
        <ele>628.36</ele>
        <time>2019-01-26T12:04:07Z</time>
      </trkpt>
      <trkpt lat="43.44829" lon="5.75574">
        <ele>629.32</ele>
        <time>2019-01-26T12:04:12Z</time>
      </trkpt>
      <trkpt lat="43.44826" lon="5.75574">
        <ele>629.32</ele>
        <time>2019-01-26T12:04:17Z</time>
      </trkpt>
      <trkpt lat="43.44824" lon="5.75571">
        <ele>629.8</ele>
        <time>2019-01-26T12:04:24Z</time>
      </trkpt>
      <trkpt lat="43.44822" lon="5.75572">
        <ele>629.8</ele>
        <time>2019-01-26T12:04:27Z</time>
      </trkpt>
      <trkpt lat="43.44821" lon="5.75574">
        <ele>629.8</ele>
        <time>2019-01-26T12:04:28Z</time>
      </trkpt>
      <trkpt lat="43.44819" lon="5.75576">
        <ele>629.8</ele>
        <time>2019-01-26T12:04:29Z</time>
      </trkpt>
      <trkpt lat="43.44818" lon="5.75577">
        <ele>629.8</ele>
        <time>2019-01-26T12:04:30Z</time>
      </trkpt>
      <trkpt lat="43.44816" lon="5.75577">
        <ele>630.28</ele>
        <time>2019-01-26T12:04:31Z</time>
      </trkpt>
      <trkpt lat="43.44814" lon="5.75578">
        <ele>630.76</ele>
        <time>2019-01-26T12:04:37Z</time>
      </trkpt>
      <trkpt lat="43.44809" lon="5.75583">
        <ele>630.76</ele>
        <time>2019-01-26T12:04:43Z</time>
      </trkpt>
      <trkpt lat="43.44801" lon="5.75585">
        <ele>630.76</ele>
        <time>2019-01-26T12:04:51Z</time>
      </trkpt>
      <trkpt lat="43.4479" lon="5.75585">
        <ele>630.76</ele>
        <time>2019-01-26T12:05:00Z</time>
      </trkpt>
      <trkpt lat="43.44781" lon="5.75585">
        <ele>630.76</ele>
        <time>2019-01-26T12:05:08Z</time>
      </trkpt>
      <trkpt lat="43.44774" lon="5.75586">
        <ele>629.32</ele>
        <time>2019-01-26T12:05:13Z</time>
      </trkpt>
      <trkpt lat="43.44762" lon="5.75586">
        <ele>629.32</ele>
        <time>2019-01-26T12:05:21Z</time>
      </trkpt>
      <trkpt lat="43.4475" lon="5.75586">
        <ele>628.84</ele>
        <time>2019-01-26T12:05:31Z</time>
      </trkpt>
      <trkpt lat="43.44747" lon="5.75587">
        <ele>628.36</ele>
        <time>2019-01-26T12:05:33Z</time>
      </trkpt>
      <trkpt lat="43.44737" lon="5.75589">
        <ele>628.36</ele>
        <time>2019-01-26T12:05:40Z</time>
      </trkpt>
      <trkpt lat="43.44733" lon="5.7559">
        <ele>629.8</ele>
        <time>2019-01-26T12:05:42Z</time>
      </trkpt>
      <trkpt lat="43.44731" lon="5.75591">
        <ele>629.8</ele>
        <time>2019-01-26T12:05:43Z</time>
      </trkpt>
      <trkpt lat="43.44729" lon="5.75591">
        <ele>629.8</ele>
        <time>2019-01-26T12:05:44Z</time>
      </trkpt>
      <trkpt lat="43.44717" lon="5.75592">
        <ele>630.28</ele>
        <time>2019-01-26T12:05:49Z</time>
      </trkpt>
      <trkpt lat="43.44706" lon="5.75596">
        <ele>631.72</ele>
        <time>2019-01-26T12:05:56Z</time>
      </trkpt>
      <trkpt lat="43.44698" lon="5.75601">
        <ele>632.68</ele>
        <time>2019-01-26T12:06:04Z</time>
      </trkpt>
      <trkpt lat="43.44687" lon="5.75606">
        <ele>632.68</ele>
        <time>2019-01-26T12:06:10Z</time>
      </trkpt>
      <trkpt lat="43.44678" lon="5.75611">
        <ele>633.17</ele>
        <time>2019-01-26T12:06:17Z</time>
      </trkpt>
      <trkpt lat="43.44667" lon="5.75617">
        <ele>631.72</ele>
        <time>2019-01-26T12:06:28Z</time>
      </trkpt>
      <trkpt lat="43.44658" lon="5.75624">
        <ele>630.76</ele>
        <time>2019-01-26T12:06:35Z</time>
      </trkpt>
      <trkpt lat="43.44654" lon="5.75629">
        <ele>630.28</ele>
        <time>2019-01-26T12:06:42Z</time>
      </trkpt>
      <trkpt lat="43.44651" lon="5.7563">
        <ele>630.28</ele>
        <time>2019-01-26T12:06:49Z</time>
      </trkpt>
      <trkpt lat="43.44649" lon="5.7563">
        <ele>630.28</ele>
        <time>2019-01-26T12:06:52Z</time>
      </trkpt>
      <trkpt lat="43.44647" lon="5.7563">
        <ele>630.28</ele>
        <time>2019-01-26T12:06:53Z</time>
      </trkpt>
      <trkpt lat="43.44646" lon="5.75631">
        <ele>630.28</ele>
        <time>2019-01-26T12:06:54Z</time>
      </trkpt>
      <trkpt lat="43.44642" lon="5.7563">
        <ele>630.28</ele>
        <time>2019-01-26T12:07:00Z</time>
      </trkpt>
      <trkpt lat="43.4464" lon="5.75631">
        <ele>631.24</ele>
        <time>2019-01-26T12:07:02Z</time>
      </trkpt>
      <trkpt lat="43.44632" lon="5.75632">
        <ele>631.24</ele>
        <time>2019-01-26T12:07:07Z</time>
      </trkpt>
      <trkpt lat="43.4462" lon="5.7564">
        <ele>631.24</ele>
        <time>2019-01-26T12:07:17Z</time>
      </trkpt>
      <trkpt lat="43.44616" lon="5.7565">
        <ele>631.72</ele>
        <time>2019-01-26T12:07:26Z</time>
      </trkpt>
      <trkpt lat="43.44615" lon="5.75652">
        <ele>631.72</ele>
        <time>2019-01-26T12:07:27Z</time>
      </trkpt>
      <trkpt lat="43.44611" lon="5.75663">
        <ele>631.72</ele>
        <time>2019-01-26T12:07:34Z</time>
      </trkpt>
      <trkpt lat="43.44611" lon="5.75665">
        <ele>631.72</ele>
        <time>2019-01-26T12:07:39Z</time>
      </trkpt>
      <trkpt lat="43.44609" lon="5.75671">
        <ele>631.72</ele>
        <time>2019-01-26T12:07:47Z</time>
      </trkpt>
      <trkpt lat="43.44605" lon="5.75677">
        <ele>631.72</ele>
        <time>2019-01-26T12:07:53Z</time>
      </trkpt>
      <trkpt lat="43.44603" lon="5.75677">
        <ele>631.72</ele>
        <time>2019-01-26T12:07:54Z</time>
      </trkpt>
      <trkpt lat="43.44596" lon="5.75677">
        <ele>631.72</ele>
        <time>2019-01-26T12:08:01Z</time>
      </trkpt>
      <trkpt lat="43.44595" lon="5.75677">
        <ele>631.72</ele>
        <time>2019-01-26T12:08:02Z</time>
      </trkpt>
      <trkpt lat="43.44593" lon="5.75676">
        <ele>631.72</ele>
        <time>2019-01-26T12:08:03Z</time>
      </trkpt>
      <trkpt lat="43.44591" lon="5.75676">
        <ele>631.72</ele>
        <time>2019-01-26T12:08:04Z</time>
      </trkpt>
      <trkpt lat="43.4459" lon="5.75675">
        <ele>631.72</ele>
        <time>2019-01-26T12:08:05Z</time>
      </trkpt>
      <trkpt lat="43.4458" lon="5.75673">
        <ele>632.2</ele>
        <time>2019-01-26T12:08:14Z</time>
      </trkpt>
      <trkpt lat="43.44568" lon="5.75667">
        <ele>632.68</ele>
        <time>2019-01-26T12:08:21Z</time>
      </trkpt>
      <trkpt lat="43.44565" lon="5.75667">
        <ele>633.17</ele>
        <time>2019-01-26T12:08:23Z</time>
      </trkpt>
      <trkpt lat="43.44564" lon="5.75667">
        <ele>633.17</ele>
        <time>2019-01-26T12:08:24Z</time>
      </trkpt>
      <trkpt lat="43.44557" lon="5.75669">
        <ele>634.61</ele>
        <time>2019-01-26T12:08:31Z</time>
      </trkpt>
      <trkpt lat="43.44549" lon="5.75672">
        <ele>636.53</ele>
        <time>2019-01-26T12:08:38Z</time>
      </trkpt>
      <trkpt lat="43.44542" lon="5.75675">
        <ele>637.01</ele>
        <time>2019-01-26T12:08:43Z</time>
      </trkpt>
      <trkpt lat="43.44539" lon="5.75676">
        <ele>637.49</ele>
        <time>2019-01-26T12:08:47Z</time>
      </trkpt>
      <trkpt lat="43.44538" lon="5.75676">
        <ele>637.97</ele>
        <time>2019-01-26T12:08:48Z</time>
      </trkpt>
      <trkpt lat="43.44536" lon="5.75676">
        <ele>637.97</ele>
        <time>2019-01-26T12:08:49Z</time>
      </trkpt>
      <trkpt lat="43.44528" lon="5.75678">
        <ele>638.93</ele>
        <time>2019-01-26T12:08:55Z</time>
      </trkpt>
      <trkpt lat="43.4452" lon="5.75678">
        <ele>639.89</ele>
        <time>2019-01-26T12:09:01Z</time>
      </trkpt>
      <trkpt lat="43.44514" lon="5.75679">
        <ele>640.86</ele>
        <time>2019-01-26T12:09:06Z</time>
      </trkpt>
      <trkpt lat="43.44512" lon="5.75679">
        <ele>640.86</ele>
        <time>2019-01-26T12:09:07Z</time>
      </trkpt>
      <trkpt lat="43.44511" lon="5.75679">
        <ele>641.34</ele>
        <time>2019-01-26T12:09:08Z</time>
      </trkpt>
      <trkpt lat="43.44509" lon="5.75679">
        <ele>641.34</ele>
        <time>2019-01-26T12:09:09Z</time>
      </trkpt>
      <trkpt lat="43.44508" lon="5.7568">
        <ele>641.82</ele>
        <time>2019-01-26T12:09:10Z</time>
      </trkpt>
      <trkpt lat="43.445" lon="5.7568">
        <ele>642.78</ele>
        <time>2019-01-26T12:09:16Z</time>
      </trkpt>
      <trkpt lat="43.44494" lon="5.75679">
        <ele>643.74</ele>
        <time>2019-01-26T12:09:22Z</time>
      </trkpt>
      <trkpt lat="43.44489" lon="5.75677">
        <ele>644.7</ele>
        <time>2019-01-26T12:09:27Z</time>
      </trkpt>
      <trkpt lat="43.44482" lon="5.75677">
        <ele>646.14</ele>
        <time>2019-01-26T12:09:33Z</time>
      </trkpt>
      <trkpt lat="43.44478" lon="5.75679">
        <ele>646.62</ele>
        <time>2019-01-26T12:09:37Z</time>
      </trkpt>
      <trkpt lat="43.44476" lon="5.7568">
        <ele>646.62</ele>
        <time>2019-01-26T12:09:38Z</time>
      </trkpt>
      <trkpt lat="43.44475" lon="5.7568">
        <ele>646.62</ele>
        <time>2019-01-26T12:09:39Z</time>
      </trkpt>
      <trkpt lat="43.44474" lon="5.7568">
        <ele>647.1</ele>
        <time>2019-01-26T12:09:40Z</time>
      </trkpt>
      <trkpt lat="43.44468" lon="5.75681">
        <ele>647.1</ele>
        <time>2019-01-26T12:09:47Z</time>
      </trkpt>
      <trkpt lat="43.44466" lon="5.75682">
        <ele>647.1</ele>
        <time>2019-01-26T12:09:48Z</time>
      </trkpt>
      <trkpt lat="43.44455" lon="5.75684">
        <ele>648.07</ele>
        <time>2019-01-26T12:09:55Z</time>
      </trkpt>
      <trkpt lat="43.44451" lon="5.75682">
        <ele>649.03</ele>
        <time>2019-01-26T12:10:00Z</time>
      </trkpt>
      <trkpt lat="43.44449" lon="5.75681">
        <ele>649.51</ele>
        <time>2019-01-26T12:10:01Z</time>
      </trkpt>
      <trkpt lat="43.44438" lon="5.75677">
        <ele>650.95</ele>
        <time>2019-01-26T12:10:09Z</time>
      </trkpt>
      <trkpt lat="43.44437" lon="5.75676">
        <ele>650.95</ele>
        <time>2019-01-26T12:10:10Z</time>
      </trkpt>
      <trkpt lat="43.44436" lon="5.75675">
        <ele>651.43</ele>
        <time>2019-01-26T12:10:11Z</time>
      </trkpt>
      <trkpt lat="43.44433" lon="5.75673">
        <ele>652.87</ele>
        <time>2019-01-26T12:10:15Z</time>
      </trkpt>
      <trkpt lat="43.44428" lon="5.7567">
        <ele>653.83</ele>
        <time>2019-01-26T12:10:20Z</time>
      </trkpt>
      <trkpt lat="43.44421" lon="5.75665">
        <ele>655.28</ele>
        <time>2019-01-26T12:10:26Z</time>
      </trkpt>
      <trkpt lat="43.44417" lon="5.75659">
        <ele>655.76</ele>
        <time>2019-01-26T12:10:32Z</time>
      </trkpt>
      <trkpt lat="43.44411" lon="5.75658">
        <ele>656.72</ele>
        <time>2019-01-26T12:10:38Z</time>
      </trkpt>
      <trkpt lat="43.44409" lon="5.75656">
        <ele>656.72</ele>
        <time>2019-01-26T12:10:40Z</time>
      </trkpt>
      <trkpt lat="43.44408" lon="5.75655">
        <ele>657.2</ele>
        <time>2019-01-26T12:10:41Z</time>
      </trkpt>
      <trkpt lat="43.44406" lon="5.75655">
        <ele>657.2</ele>
        <time>2019-01-26T12:10:42Z</time>
      </trkpt>
      <trkpt lat="43.44405" lon="5.75655">
        <ele>657.68</ele>
        <time>2019-01-26T12:10:43Z</time>
      </trkpt>
      <trkpt lat="43.44398" lon="5.75653">
        <ele>658.64</ele>
        <time>2019-01-26T12:10:49Z</time>
      </trkpt>
      <trkpt lat="43.44394" lon="5.75652">
        <ele>660.08</ele>
        <time>2019-01-26T12:10:55Z</time>
      </trkpt>
      <trkpt lat="43.44388" lon="5.75652">
        <ele>661.52</ele>
        <time>2019-01-26T12:11:01Z</time>
      </trkpt>
      <trkpt lat="43.44387" lon="5.75652">
        <ele>661.52</ele>
        <time>2019-01-26T12:11:02Z</time>
      </trkpt>
      <trkpt lat="43.44385" lon="5.75652">
        <ele>661.52</ele>
        <time>2019-01-26T12:11:03Z</time>
      </trkpt>
      <trkpt lat="43.44384" lon="5.75652">
        <ele>662.49</ele>
        <time>2019-01-26T12:11:04Z</time>
      </trkpt>
      <trkpt lat="43.4438" lon="5.75653">
        <ele>662.97</ele>
        <time>2019-01-26T12:11:09Z</time>
      </trkpt>
      <trkpt lat="43.44379" lon="5.75655">
        <ele>662.97</ele>
        <time>2019-01-26T12:11:10Z</time>
      </trkpt>
      <trkpt lat="43.44373" lon="5.7566">
        <ele>664.41</ele>
        <time>2019-01-26T12:11:17Z</time>
      </trkpt>
      <trkpt lat="43.44368" lon="5.75666">
        <ele>664.89</ele>
        <time>2019-01-26T12:11:23Z</time>
      </trkpt>
      <trkpt lat="43.44363" lon="5.75671">
        <ele>666.81</ele>
        <time>2019-01-26T12:11:28Z</time>
      </trkpt>
      <trkpt lat="43.44359" lon="5.75677">
        <ele>667.29</ele>
        <time>2019-01-26T12:11:34Z</time>
      </trkpt>
      <trkpt lat="43.44355" lon="5.75683">
        <ele>668.73</ele>
        <time>2019-01-26T12:11:40Z</time>
      </trkpt>
      <trkpt lat="43.44348" lon="5.75688">
        <ele>669.7</ele>
        <time>2019-01-26T12:11:46Z</time>
      </trkpt>
      <trkpt lat="43.44339" lon="5.7569">
        <ele>670.18</ele>
        <time>2019-01-26T12:11:52Z</time>
      </trkpt>
      <trkpt lat="43.44336" lon="5.75688">
        <ele>671.62</ele>
        <time>2019-01-26T12:11:58Z</time>
      </trkpt>
      <trkpt lat="43.44334" lon="5.75688">
        <ele>671.62</ele>
        <time>2019-01-26T12:12:09Z</time>
      </trkpt>
      <trkpt lat="43.4433" lon="5.75686">
        <ele>672.1</ele>
        <time>2019-01-26T12:12:18Z</time>
      </trkpt>
      <trkpt lat="43.44324" lon="5.75685">
        <ele>673.06</ele>
        <time>2019-01-26T12:12:25Z</time>
      </trkpt>
      <trkpt lat="43.44316" lon="5.75681">
        <ele>674.02</ele>
        <time>2019-01-26T12:12:30Z</time>
      </trkpt>
      <trkpt lat="43.44314" lon="5.7568">
        <ele>674.5</ele>
        <time>2019-01-26T12:12:31Z</time>
      </trkpt>
      <trkpt lat="43.44312" lon="5.7568">
        <ele>674.5</ele>
        <time>2019-01-26T12:12:32Z</time>
      </trkpt>
      <trkpt lat="43.44306" lon="5.75681">
        <ele>675.46</ele>
        <time>2019-01-26T12:12:39Z</time>
      </trkpt>
      <trkpt lat="43.44297" lon="5.75684">
        <ele>676.42</ele>
        <time>2019-01-26T12:12:46Z</time>
      </trkpt>
      <trkpt lat="43.44291" lon="5.75686">
        <ele>677.39</ele>
        <time>2019-01-26T12:12:51Z</time>
      </trkpt>
      <trkpt lat="43.44286" lon="5.7569">
        <ele>678.83</ele>
        <time>2019-01-26T12:12:57Z</time>
      </trkpt>
      <trkpt lat="43.44283" lon="5.75694">
        <ele>680.27</ele>
        <time>2019-01-26T12:13:02Z</time>
      </trkpt>
      <trkpt lat="43.44282" lon="5.75696">
        <ele>680.27</ele>
        <time>2019-01-26T12:13:03Z</time>
      </trkpt>
      <trkpt lat="43.44281" lon="5.75698">
        <ele>680.75</ele>
        <time>2019-01-26T12:13:04Z</time>
      </trkpt>
      <trkpt lat="43.44277" lon="5.75701">
        <ele>681.71</ele>
        <time>2019-01-26T12:13:10Z</time>
      </trkpt>
      <trkpt lat="43.44275" lon="5.75702">
        <ele>682.19</ele>
        <time>2019-01-26T12:13:11Z</time>
      </trkpt>
      <trkpt lat="43.44268" lon="5.75705">
        <ele>683.63</ele>
        <time>2019-01-26T12:13:18Z</time>
      </trkpt>
      <trkpt lat="43.44266" lon="5.75705">
        <ele>683.63</ele>
        <time>2019-01-26T12:13:19Z</time>
      </trkpt>
      <trkpt lat="43.44264" lon="5.75705">
        <ele>684.12</ele>
        <time>2019-01-26T12:13:20Z</time>
      </trkpt>
      <trkpt lat="43.44258" lon="5.75703">
        <ele>684.6</ele>
        <time>2019-01-26T12:13:26Z</time>
      </trkpt>
      <trkpt lat="43.44255" lon="5.75699">
        <ele>685.08</ele>
        <time>2019-01-26T12:13:29Z</time>
      </trkpt>
      <trkpt lat="43.44254" lon="5.75698">
        <ele>685.08</ele>
        <time>2019-01-26T12:13:30Z</time>
      </trkpt>
      <trkpt lat="43.44253" lon="5.75695">
        <ele>685.08</ele>
        <time>2019-01-26T12:13:31Z</time>
      </trkpt>
      <trkpt lat="43.44252" lon="5.75694">
        <ele>685.56</ele>
        <time>2019-01-26T12:13:32Z</time>
      </trkpt>
      <trkpt lat="43.4425" lon="5.75692">
        <ele>685.56</ele>
        <time>2019-01-26T12:13:33Z</time>
      </trkpt>
      <trkpt lat="43.4425" lon="5.7569">
        <ele>686.04</ele>
        <time>2019-01-26T12:13:34Z</time>
      </trkpt>
      <trkpt lat="43.44247" lon="5.75684">
        <ele>687</ele>
        <time>2019-01-26T12:13:40Z</time>
      </trkpt>
      <trkpt lat="43.44243" lon="5.75677">
        <ele>687.48</ele>
        <time>2019-01-26T12:13:44Z</time>
      </trkpt>
      <trkpt lat="43.44238" lon="5.7567">
        <ele>689.4</ele>
        <time>2019-01-26T12:13:51Z</time>
      </trkpt>
      <trkpt lat="43.44237" lon="5.75669">
        <ele>689.88</ele>
        <time>2019-01-26T12:13:52Z</time>
      </trkpt>
      <trkpt lat="43.44233" lon="5.75662">
        <ele>690.84</ele>
        <time>2019-01-26T12:13:58Z</time>
      </trkpt>
      <trkpt lat="43.44226" lon="5.75655">
        <ele>691.81</ele>
        <time>2019-01-26T12:14:04Z</time>
      </trkpt>
      <trkpt lat="43.44222" lon="5.75652">
        <ele>693.25</ele>
        <time>2019-01-26T12:14:09Z</time>
      </trkpt>
      <trkpt lat="43.44217" lon="5.7565">
        <ele>693.73</ele>
        <time>2019-01-26T12:14:15Z</time>
      </trkpt>
      <trkpt lat="43.44215" lon="5.75649">
        <ele>694.69</ele>
        <time>2019-01-26T12:14:21Z</time>
      </trkpt>
      <trkpt lat="43.44215" lon="5.75647">
        <ele>695.17</ele>
        <time>2019-01-26T12:14:32Z</time>
      </trkpt>
      <trkpt lat="43.44213" lon="5.75646">
        <ele>695.17</ele>
        <time>2019-01-26T12:14:46Z</time>
      </trkpt>
      <trkpt lat="43.44212" lon="5.75645">
        <ele>695.17</ele>
        <time>2019-01-26T12:14:57Z</time>
      </trkpt>
      <trkpt lat="43.44213" lon="5.75645">
        <ele>694.69</ele>
        <time>2019-01-26T12:15:07Z</time>
      </trkpt>
      <trkpt lat="43.44212" lon="5.75647">
        <ele>694.69</ele>
        <time>2019-01-26T12:15:17Z</time>
      </trkpt>
      <trkpt lat="43.44212" lon="5.75647">
        <ele>694.69</ele>
        <time>2019-01-26T12:15:28Z</time>
      </trkpt>
      <trkpt lat="43.44214" lon="5.75644">
        <ele>694.69</ele>
        <time>2019-01-26T12:15:45Z</time>
      </trkpt>
      <trkpt lat="43.44213" lon="5.75644">
        <ele>694.69</ele>
        <time>2019-01-26T12:16:00Z</time>
      </trkpt>
      <trkpt lat="43.44213" lon="5.75646">
        <ele>694.69</ele>
        <time>2019-01-26T12:16:13Z</time>
      </trkpt>
      <trkpt lat="43.44212" lon="5.75648">
        <ele>694.69</ele>
        <time>2019-01-26T12:16:15Z</time>
      </trkpt>
      <trkpt lat="43.44211" lon="5.75649">
        <ele>694.69</ele>
        <time>2019-01-26T12:16:16Z</time>
      </trkpt>
      <trkpt lat="43.44205" lon="5.75655">
        <ele>695.17</ele>
        <time>2019-01-26T12:16:24Z</time>
      </trkpt>
      <trkpt lat="43.44196" lon="5.75664">
        <ele>695.65</ele>
        <time>2019-01-26T12:16:32Z</time>
      </trkpt>
      <trkpt lat="43.4419" lon="5.75669">
        <ele>696.13</ele>
        <time>2019-01-26T12:16:39Z</time>
      </trkpt>
      <trkpt lat="43.44189" lon="5.7567">
        <ele>696.13</ele>
        <time>2019-01-26T12:16:40Z</time>
      </trkpt>
      <trkpt lat="43.44187" lon="5.75672">
        <ele>696.13</ele>
        <time>2019-01-26T12:16:41Z</time>
      </trkpt>
      <trkpt lat="43.44186" lon="5.75673">
        <ele>696.13</ele>
        <time>2019-01-26T12:16:42Z</time>
      </trkpt>
      <trkpt lat="43.44184" lon="5.75672">
        <ele>696.13</ele>
        <time>2019-01-26T12:16:47Z</time>
      </trkpt>
      <trkpt lat="43.44184" lon="5.7567">
        <ele>696.13</ele>
        <time>2019-01-26T12:16:57Z</time>
      </trkpt>
      <trkpt lat="43.44183" lon="5.75673">
        <ele>696.13</ele>
        <time>2019-01-26T12:17:07Z</time>
      </trkpt>
      <trkpt lat="43.44184" lon="5.75673">
        <ele>696.13</ele>
        <time>2019-01-26T12:17:18Z</time>
      </trkpt>
      <trkpt lat="43.4418" lon="5.75677">
        <ele>696.13</ele>
        <time>2019-01-26T12:17:29Z</time>
      </trkpt>
      <trkpt lat="43.44172" lon="5.75684">
        <ele>696.13</ele>
        <time>2019-01-26T12:17:38Z</time>
      </trkpt>
      <trkpt lat="43.4417" lon="5.75685">
        <ele>696.13</ele>
        <time>2019-01-26T12:17:40Z</time>
      </trkpt>
      <trkpt lat="43.44168" lon="5.75685">
        <ele>696.13</ele>
        <time>2019-01-26T12:17:41Z</time>
      </trkpt>
      <trkpt lat="43.44151" lon="5.7568">
        <ele>697.09</ele>
        <time>2019-01-26T12:17:49Z</time>
      </trkpt>
      <trkpt lat="43.44141" lon="5.75676">
        <ele>698.05</ele>
        <time>2019-01-26T12:17:56Z</time>
      </trkpt>
      <trkpt lat="43.44134" lon="5.75673">
        <ele>699.5</ele>
        <time>2019-01-26T12:18:04Z</time>
      </trkpt>
      <trkpt lat="43.44133" lon="5.75672">
        <ele>699.5</ele>
        <time>2019-01-26T12:18:05Z</time>
      </trkpt>
      <trkpt lat="43.44132" lon="5.75672">
        <ele>699.5</ele>
        <time>2019-01-26T12:18:06Z</time>
      </trkpt>
      <trkpt lat="43.4413" lon="5.75671">
        <ele>699.5</ele>
        <time>2019-01-26T12:18:07Z</time>
      </trkpt>
      <trkpt lat="43.44128" lon="5.7567">
        <ele>699.5</ele>
        <time>2019-01-26T12:18:08Z</time>
      </trkpt>
      <trkpt lat="43.44127" lon="5.75669">
        <ele>699.98</ele>
        <time>2019-01-26T12:18:09Z</time>
      </trkpt>
      <trkpt lat="43.44125" lon="5.75668">
        <ele>699.98</ele>
        <time>2019-01-26T12:18:10Z</time>
      </trkpt>
      <trkpt lat="43.44114" lon="5.75663">
        <ele>700.94</ele>
        <time>2019-01-26T12:18:18Z</time>
      </trkpt>
      <trkpt lat="43.44106" lon="5.75659">
        <ele>702.86</ele>
        <time>2019-01-26T12:18:27Z</time>
      </trkpt>
      <trkpt lat="43.44097" lon="5.75658">
        <ele>703.82</ele>
        <time>2019-01-26T12:18:33Z</time>
      </trkpt>
      <trkpt lat="43.44095" lon="5.75659">
        <ele>704.3</ele>
        <time>2019-01-26T12:18:36Z</time>
      </trkpt>
      <trkpt lat="43.44094" lon="5.75661">
        <ele>704.78</ele>
        <time>2019-01-26T12:18:37Z</time>
      </trkpt>
      <trkpt lat="43.44093" lon="5.75663">
        <ele>704.78</ele>
        <time>2019-01-26T12:18:38Z</time>
      </trkpt>
      <trkpt lat="43.44091" lon="5.75664">
        <ele>705.75</ele>
        <time>2019-01-26T12:18:40Z</time>
      </trkpt>
      <trkpt lat="43.44088" lon="5.75664">
        <ele>706.23</ele>
        <time>2019-01-26T12:18:43Z</time>
      </trkpt>
      <trkpt lat="43.44087" lon="5.75665">
        <ele>706.23</ele>
        <time>2019-01-26T12:18:44Z</time>
      </trkpt>
      <trkpt lat="43.44085" lon="5.75665">
        <ele>706.71</ele>
        <time>2019-01-26T12:18:45Z</time>
      </trkpt>
      <trkpt lat="43.4408" lon="5.75669">
        <ele>708.15</ele>
        <time>2019-01-26T12:18:50Z</time>
      </trkpt>
      <trkpt lat="43.44074" lon="5.75674">
        <ele>709.59</ele>
        <time>2019-01-26T12:18:56Z</time>
      </trkpt>
      <trkpt lat="43.44073" lon="5.75675">
        <ele>709.59</ele>
        <time>2019-01-26T12:18:57Z</time>
      </trkpt>
      <trkpt lat="43.44072" lon="5.75676">
        <ele>709.59</ele>
        <time>2019-01-26T12:18:58Z</time>
      </trkpt>
      <trkpt lat="43.44071" lon="5.75677">
        <ele>710.55</ele>
        <time>2019-01-26T12:18:59Z</time>
      </trkpt>
      <trkpt lat="43.44067" lon="5.75679">
        <ele>711.03</ele>
        <time>2019-01-26T12:19:05Z</time>
      </trkpt>
      <trkpt lat="43.44066" lon="5.7568">
        <ele>711.03</ele>
        <time>2019-01-26T12:19:06Z</time>
      </trkpt>
      <trkpt lat="43.44062" lon="5.75683">
        <ele>711.03</ele>
        <time>2019-01-26T12:19:10Z</time>
      </trkpt>
      <trkpt lat="43.44061" lon="5.75684">
        <ele>711.99</ele>
        <time>2019-01-26T12:19:11Z</time>
      </trkpt>
      <trkpt lat="43.44057" lon="5.75688">
        <ele>712.47</ele>
        <time>2019-01-26T12:19:16Z</time>
      </trkpt>
      <trkpt lat="43.44052" lon="5.7569">
        <ele>713.44</ele>
        <time>2019-01-26T12:19:21Z</time>
      </trkpt>
      <trkpt lat="43.44051" lon="5.75691">
        <ele>713.92</ele>
        <time>2019-01-26T12:19:22Z</time>
      </trkpt>
      <trkpt lat="43.44048" lon="5.75692">
        <ele>713.92</ele>
        <time>2019-01-26T12:19:25Z</time>
      </trkpt>
      <trkpt lat="43.44047" lon="5.75692">
        <ele>713.92</ele>
        <time>2019-01-26T12:19:26Z</time>
      </trkpt>
      <trkpt lat="43.44046" lon="5.75693">
        <ele>714.4</ele>
        <time>2019-01-26T12:19:27Z</time>
      </trkpt>
      <trkpt lat="43.44041" lon="5.75696">
        <ele>714.88</ele>
        <time>2019-01-26T12:19:33Z</time>
      </trkpt>
      <trkpt lat="43.4404" lon="5.75697">
        <ele>715.84</ele>
        <time>2019-01-26T12:19:34Z</time>
      </trkpt>
      <trkpt lat="43.44039" lon="5.75698">
        <ele>715.84</ele>
        <time>2019-01-26T12:19:35Z</time>
      </trkpt>
      <trkpt lat="43.44037" lon="5.75701">
        <ele>715.84</ele>
        <time>2019-01-26T12:19:38Z</time>
      </trkpt>
      <trkpt lat="43.44036" lon="5.75702">
        <ele>716.8</ele>
        <time>2019-01-26T12:19:39Z</time>
      </trkpt>
      <trkpt lat="43.44032" lon="5.75706">
        <ele>716.8</ele>
        <time>2019-01-26T12:19:44Z</time>
      </trkpt>
      <trkpt lat="43.44029" lon="5.75709">
        <ele>718.24</ele>
        <time>2019-01-26T12:19:49Z</time>
      </trkpt>
      <trkpt lat="43.44026" lon="5.75711">
        <ele>719.2</ele>
        <time>2019-01-26T12:19:53Z</time>
      </trkpt>
      <trkpt lat="43.44025" lon="5.75712">
        <ele>719.68</ele>
        <time>2019-01-26T12:19:54Z</time>
      </trkpt>
      <trkpt lat="43.44022" lon="5.75715">
        <ele>720.16</ele>
        <time>2019-01-26T12:19:58Z</time>
      </trkpt>
      <trkpt lat="43.44019" lon="5.75718">
        <ele>721.13</ele>
        <time>2019-01-26T12:20:01Z</time>
      </trkpt>
      <trkpt lat="43.44018" lon="5.75719">
        <ele>721.61</ele>
        <time>2019-01-26T12:20:02Z</time>
      </trkpt>
      <trkpt lat="43.44014" lon="5.75721">
        <ele>722.09</ele>
        <time>2019-01-26T12:20:06Z</time>
      </trkpt>
      <trkpt lat="43.44012" lon="5.75724">
        <ele>722.57</ele>
        <time>2019-01-26T12:20:10Z</time>
      </trkpt>
      <trkpt lat="43.44011" lon="5.75725">
        <ele>722.57</ele>
        <time>2019-01-26T12:20:11Z</time>
      </trkpt>
      <trkpt lat="43.44009" lon="5.75726">
        <ele>723.05</ele>
        <time>2019-01-26T12:20:12Z</time>
      </trkpt>
      <trkpt lat="43.44004" lon="5.75731">
        <ele>723.53</ele>
        <time>2019-01-26T12:20:18Z</time>
      </trkpt>
      <trkpt lat="43.44" lon="5.75736">
        <ele>724.49</ele>
        <time>2019-01-26T12:20:23Z</time>
      </trkpt>
      <trkpt lat="43.43999" lon="5.75737">
        <ele>725.45</ele>
        <time>2019-01-26T12:20:25Z</time>
      </trkpt>
      <trkpt lat="43.43998" lon="5.75738">
        <ele>725.45</ele>
        <time>2019-01-26T12:20:26Z</time>
      </trkpt>
      <trkpt lat="43.43996" lon="5.75739">
        <ele>725.93</ele>
        <time>2019-01-26T12:20:27Z</time>
      </trkpt>
      <trkpt lat="43.43994" lon="5.75742">
        <ele>726.89</ele>
        <time>2019-01-26T12:20:31Z</time>
      </trkpt>
      <trkpt lat="43.43993" lon="5.75744">
        <ele>726.89</ele>
        <time>2019-01-26T12:20:32Z</time>
      </trkpt>
      <trkpt lat="43.43992" lon="5.75745">
        <ele>726.89</ele>
        <time>2019-01-26T12:20:33Z</time>
      </trkpt>
      <trkpt lat="43.4399" lon="5.75752">
        <ele>727.37</ele>
        <time>2019-01-26T12:20:38Z</time>
      </trkpt>
      <trkpt lat="43.43988" lon="5.75761">
        <ele>728.34</ele>
        <time>2019-01-26T12:20:45Z</time>
      </trkpt>
      <trkpt lat="43.43987" lon="5.75768">
        <ele>728.82</ele>
        <time>2019-01-26T12:20:50Z</time>
      </trkpt>
      <trkpt lat="43.43987" lon="5.7577">
        <ele>728.82</ele>
        <time>2019-01-26T12:20:55Z</time>
      </trkpt>
      <trkpt lat="43.43985" lon="5.75775">
        <ele>728.82</ele>
        <time>2019-01-26T12:21:02Z</time>
      </trkpt>
      <trkpt lat="43.43982" lon="5.75776">
        <ele>727.86</ele>
        <time>2019-01-26T12:21:09Z</time>
      </trkpt>
      <trkpt lat="43.43983" lon="5.75777">
        <ele>727.86</ele>
        <time>2019-01-26T12:21:19Z</time>
      </trkpt>
      <trkpt lat="43.43981" lon="5.75777">
        <ele>727.86</ele>
        <time>2019-01-26T12:21:21Z</time>
      </trkpt>
      <trkpt lat="43.4398" lon="5.75778">
        <ele>727.86</ele>
        <time>2019-01-26T12:21:22Z</time>
      </trkpt>
      <trkpt lat="43.43978" lon="5.75778">
        <ele>727.86</ele>
        <time>2019-01-26T12:21:23Z</time>
      </trkpt>
      <trkpt lat="43.43972" lon="5.7578">
        <ele>726.89</ele>
        <time>2019-01-26T12:21:30Z</time>
      </trkpt>
      <trkpt lat="43.43965" lon="5.75782">
        <ele>726.41</ele>
        <time>2019-01-26T12:21:36Z</time>
      </trkpt>
      <trkpt lat="43.43963" lon="5.75782">
        <ele>725.93</ele>
        <time>2019-01-26T12:21:38Z</time>
      </trkpt>
      <trkpt lat="43.4396" lon="5.75783">
        <ele>725.93</ele>
        <time>2019-01-26T12:21:43Z</time>
      </trkpt>
      <trkpt lat="43.43957" lon="5.75786">
        <ele>724.97</ele>
        <time>2019-01-26T12:21:51Z</time>
      </trkpt>
      <trkpt lat="43.43953" lon="5.75789">
        <ele>724.01</ele>
        <time>2019-01-26T12:21:58Z</time>
      </trkpt>
      <trkpt lat="43.43948" lon="5.7579">
        <ele>723.05</ele>
        <time>2019-01-26T12:22:05Z</time>
      </trkpt>
      <trkpt lat="43.43945" lon="5.75789">
        <ele>723.05</ele>
        <time>2019-01-26T12:22:10Z</time>
      </trkpt>
      <trkpt lat="43.43946" lon="5.75789">
        <ele>723.05</ele>
        <time>2019-01-26T12:22:15Z</time>
      </trkpt>
      <trkpt lat="43.43945" lon="5.75789">
        <ele>723.05</ele>
        <time>2019-01-26T12:22:23Z</time>
      </trkpt>
      <trkpt lat="43.43944" lon="5.75787">
        <ele>723.05</ele>
        <time>2019-01-26T12:22:30Z</time>
      </trkpt>
      <trkpt lat="43.43945" lon="5.75784">
        <ele>723.05</ele>
        <time>2019-01-26T12:22:38Z</time>
      </trkpt>
      <trkpt lat="43.43946" lon="5.75784">
        <ele>723.05</ele>
        <time>2019-01-26T12:22:46Z</time>
      </trkpt>
      <trkpt lat="43.43946" lon="5.75786">
        <ele>724.01</ele>
        <time>2019-01-26T12:22:57Z</time>
      </trkpt>
      <trkpt lat="43.43948" lon="5.75788">
        <ele>722.57</ele>
        <time>2019-01-26T12:23:07Z</time>
      </trkpt>
      <trkpt lat="43.43948" lon="5.75788">
        <ele>722.57</ele>
        <time>2019-01-26T12:23:08Z</time>
      </trkpt>
      <trkpt lat="43.43948" lon="5.75788">
        <ele>722.57</ele>
        <time>2019-01-26T12:23:21Z</time>
      </trkpt>
      <trkpt lat="43.43946" lon="5.75786">
        <ele>722.57</ele>
        <time>2019-01-26T12:23:37Z</time>
      </trkpt>
      <trkpt lat="43.43947" lon="5.75787">
        <ele>722.09</ele>
        <time>2019-01-26T12:23:48Z</time>
      </trkpt>
      <trkpt lat="43.43947" lon="5.75787">
        <ele>722.09</ele>
        <time>2019-01-26T12:24:07Z</time>
      </trkpt>
      <trkpt lat="43.43947" lon="5.75787">
        <ele>721.61</ele>
        <time>2019-01-26T12:24:22Z</time>
      </trkpt>
      <trkpt lat="43.43945" lon="5.75787">
        <ele>721.61</ele>
        <time>2019-01-26T12:24:42Z</time>
      </trkpt>
      <trkpt lat="43.43946" lon="5.75786">
        <ele>721.61</ele>
        <time>2019-01-26T12:25:02Z</time>
      </trkpt>
      <trkpt lat="43.43945" lon="5.75787">
        <ele>721.61</ele>
        <time>2019-01-26T12:25:21Z</time>
      </trkpt>
      <trkpt lat="43.43945" lon="5.75787">
        <ele>721.61</ele>
        <time>2019-01-26T12:25:39Z</time>
      </trkpt>
      <trkpt lat="43.43946" lon="5.75787">
        <ele>721.61</ele>
        <time>2019-01-26T12:25:58Z</time>
      </trkpt>
      <trkpt lat="43.43947" lon="5.75786">
        <ele>721.61</ele>
        <time>2019-01-26T12:26:20Z</time>
      </trkpt>
      <trkpt lat="43.43945" lon="5.75787">
        <ele>721.61</ele>
        <time>2019-01-26T12:26:40Z</time>
      </trkpt>
      <trkpt lat="43.43945" lon="5.75787">
        <ele>721.61</ele>
        <time>2019-01-26T12:27:00Z</time>
      </trkpt>
      <trkpt lat="43.43947" lon="5.75788">
        <ele>721.13</ele>
        <time>2019-01-26T12:27:17Z</time>
      </trkpt>
      <trkpt lat="43.43946" lon="5.75788">
        <ele>721.13</ele>
        <time>2019-01-26T12:27:37Z</time>
      </trkpt>
      <trkpt lat="43.43946" lon="5.75788">
        <ele>721.13</ele>
        <time>2019-01-26T12:27:56Z</time>
      </trkpt>
      <trkpt lat="43.43943" lon="5.75788">
        <ele>721.13</ele>
        <time>2019-01-26T12:28:14Z</time>
      </trkpt>
      <trkpt lat="43.43945" lon="5.75787">
        <ele>721.13</ele>
        <time>2019-01-26T12:28:31Z</time>
      </trkpt>
      <trkpt lat="43.43945" lon="5.75788">
        <ele>721.13</ele>
        <time>2019-01-26T12:28:49Z</time>
      </trkpt>
      <trkpt lat="43.43946" lon="5.75787">
        <ele>721.13</ele>
        <time>2019-01-26T12:29:12Z</time>
      </trkpt>
      <trkpt lat="43.43948" lon="5.75788">
        <ele>721.13</ele>
        <time>2019-01-26T12:29:33Z</time>
      </trkpt>
      <trkpt lat="43.43947" lon="5.75788">
        <ele>721.13</ele>
        <time>2019-01-26T12:29:54Z</time>
      </trkpt>
      <trkpt lat="43.43949" lon="5.75786">
        <ele>721.13</ele>
        <time>2019-01-26T12:30:17Z</time>
      </trkpt>
      <trkpt lat="43.43949" lon="5.75785">
        <ele>721.13</ele>
        <time>2019-01-26T12:30:40Z</time>
      </trkpt>
      <trkpt lat="43.43949" lon="5.75786">
        <ele>721.13</ele>
        <time>2019-01-26T12:31:03Z</time>
      </trkpt>
      <trkpt lat="43.43946" lon="5.75786">
        <ele>721.13</ele>
        <time>2019-01-26T12:31:32Z</time>
      </trkpt>
      <trkpt lat="43.43947" lon="5.75786">
        <ele>721.13</ele>
        <time>2019-01-26T12:31:57Z</time>
      </trkpt>
      <trkpt lat="43.43948" lon="5.75788">
        <ele>721.13</ele>
        <time>2019-01-26T12:32:24Z</time>
      </trkpt>
      <trkpt lat="43.43949" lon="5.75788">
        <ele>722.09</ele>
        <time>2019-01-26T12:32:47Z</time>
      </trkpt>
      <trkpt lat="43.43947" lon="5.75787">
        <ele>722.09</ele>
        <time>2019-01-26T12:33:12Z</time>
      </trkpt>
      <trkpt lat="43.43947" lon="5.75787">
        <ele>722.57</ele>
        <time>2019-01-26T12:33:42Z</time>
      </trkpt>
      <trkpt lat="43.43946" lon="5.75788">
        <ele>722.57</ele>
        <time>2019-01-26T12:34:07Z</time>
      </trkpt>
      <trkpt lat="43.43948" lon="5.75787">
        <ele>722.57</ele>
        <time>2019-01-26T12:34:31Z</time>
      </trkpt>
      <trkpt lat="43.43949" lon="5.75788">
        <ele>722.57</ele>
        <time>2019-01-26T12:34:59Z</time>
      </trkpt>
      <trkpt lat="43.43949" lon="5.75787">
        <ele>722.09</ele>
        <time>2019-01-26T12:35:22Z</time>
      </trkpt>
      <trkpt lat="43.4395" lon="5.75787">
        <ele>722.09</ele>
        <time>2019-01-26T12:35:48Z</time>
      </trkpt>
      <trkpt lat="43.43951" lon="5.75787">
        <ele>722.09</ele>
        <time>2019-01-26T12:36:14Z</time>
      </trkpt>
      <trkpt lat="43.43949" lon="5.75786">
        <ele>722.09</ele>
        <time>2019-01-26T12:36:38Z</time>
      </trkpt>
      <trkpt lat="43.43949" lon="5.75786">
        <ele>722.09</ele>
        <time>2019-01-26T12:37:04Z</time>
      </trkpt>
      <trkpt lat="43.4395" lon="5.75787">
        <ele>722.57</ele>
        <time>2019-01-26T12:37:31Z</time>
      </trkpt>
      <trkpt lat="43.43949" lon="5.75786">
        <ele>722.57</ele>
        <time>2019-01-26T12:37:56Z</time>
      </trkpt>
      <trkpt lat="43.4395" lon="5.75786">
        <ele>722.57</ele>
        <time>2019-01-26T12:38:19Z</time>
      </trkpt>
      <trkpt lat="43.4395" lon="5.75787">
        <ele>722.57</ele>
        <time>2019-01-26T12:38:45Z</time>
      </trkpt>
      <trkpt lat="43.4395" lon="5.75787">
        <ele>722.57</ele>
        <time>2019-01-26T12:39:10Z</time>
      </trkpt>
      <trkpt lat="43.43949" lon="5.75787">
        <ele>722.57</ele>
        <time>2019-01-26T12:39:36Z</time>
      </trkpt>
      <trkpt lat="43.43949" lon="5.75788">
        <ele>721.13</ele>
        <time>2019-01-26T12:40:00Z</time>
      </trkpt>
      <trkpt lat="43.4395" lon="5.75787">
        <ele>721.13</ele>
        <time>2019-01-26T12:40:21Z</time>
      </trkpt>
      <trkpt lat="43.43947" lon="5.75787">
        <ele>721.13</ele>
        <time>2019-01-26T12:40:47Z</time>
      </trkpt>
      <trkpt lat="43.43946" lon="5.75787">
        <ele>721.13</ele>
        <time>2019-01-26T12:41:08Z</time>
      </trkpt>
      <trkpt lat="43.43948" lon="5.75786">
        <ele>721.13</ele>
        <time>2019-01-26T12:41:30Z</time>
      </trkpt>
      <trkpt lat="43.43949" lon="5.75787">
        <ele>721.13</ele>
        <time>2019-01-26T12:41:54Z</time>
      </trkpt>
      <trkpt lat="43.4395" lon="5.75787">
        <ele>721.13</ele>
        <time>2019-01-26T12:42:17Z</time>
      </trkpt>
      <trkpt lat="43.43948" lon="5.75787">
        <ele>720.65</ele>
        <time>2019-01-26T12:42:40Z</time>
      </trkpt>
      <trkpt lat="43.43948" lon="5.75787">
        <ele>720.65</ele>
        <time>2019-01-26T12:43:02Z</time>
      </trkpt>
      <trkpt lat="43.43948" lon="5.75787">
        <ele>720.65</ele>
        <time>2019-01-26T12:43:22Z</time>
      </trkpt>
      <trkpt lat="43.43948" lon="5.75787">
        <ele>720.65</ele>
        <time>2019-01-26T12:43:47Z</time>
      </trkpt>
      <trkpt lat="43.43948" lon="5.75786">
        <ele>720.65</ele>
        <time>2019-01-26T12:44:16Z</time>
      </trkpt>
      <trkpt lat="43.43947" lon="5.75786">
        <ele>720.65</ele>
        <time>2019-01-26T12:44:42Z</time>
      </trkpt>
      <trkpt lat="43.43946" lon="5.75786">
        <ele>720.65</ele>
        <time>2019-01-26T12:45:09Z</time>
      </trkpt>
      <trkpt lat="43.43948" lon="5.75786">
        <ele>720.16</ele>
        <time>2019-01-26T12:45:33Z</time>
      </trkpt>
      <trkpt lat="43.43948" lon="5.75786">
        <ele>721.13</ele>
        <time>2019-01-26T12:45:39Z</time>
      </trkpt>
      <trkpt lat="43.43947" lon="5.75786">
        <ele>721.13</ele>
        <time>2019-01-26T12:46:02Z</time>
      </trkpt>
      <trkpt lat="43.43947" lon="5.75786">
        <ele>721.13</ele>
        <time>2019-01-26T12:46:25Z</time>
      </trkpt>
      <trkpt lat="43.43948" lon="5.75785">
        <ele>721.13</ele>
        <time>2019-01-26T12:46:51Z</time>
      </trkpt>
      <trkpt lat="43.43947" lon="5.75785">
        <ele>721.13</ele>
        <time>2019-01-26T12:47:16Z</time>
      </trkpt>
      <trkpt lat="43.43947" lon="5.75785">
        <ele>721.13</ele>
        <time>2019-01-26T12:47:43Z</time>
      </trkpt>
      <trkpt lat="43.43947" lon="5.75785">
        <ele>721.13</ele>
        <time>2019-01-26T12:48:16Z</time>
      </trkpt>
      <trkpt lat="43.43949" lon="5.75787">
        <ele>721.13</ele>
        <time>2019-01-26T12:48:42Z</time>
      </trkpt>
      <trkpt lat="43.43947" lon="5.75785">
        <ele>721.13</ele>
        <time>2019-01-26T12:49:09Z</time>
      </trkpt>
      <trkpt lat="43.43948" lon="5.75786">
        <ele>721.13</ele>
        <time>2019-01-26T12:49:39Z</time>
      </trkpt>
      <trkpt lat="43.43949" lon="5.75786">
        <ele>721.13</ele>
        <time>2019-01-26T12:49:59Z</time>
      </trkpt>
      <trkpt lat="43.43948" lon="5.75785">
        <ele>720.65</ele>
        <time>2019-01-26T12:50:27Z</time>
      </trkpt>
      <trkpt lat="43.43947" lon="5.75785">
        <ele>720.65</ele>
        <time>2019-01-26T12:50:52Z</time>
      </trkpt>
      <trkpt lat="43.43948" lon="5.75787">
        <ele>720.65</ele>
        <time>2019-01-26T12:51:17Z</time>
      </trkpt>
      <trkpt lat="43.43947" lon="5.75786">
        <ele>720.65</ele>
        <time>2019-01-26T12:51:45Z</time>
      </trkpt>
      <trkpt lat="43.43949" lon="5.75788">
        <ele>721.13</ele>
        <time>2019-01-26T12:52:14Z</time>
      </trkpt>
      <trkpt lat="43.43948" lon="5.75787">
        <ele>721.13</ele>
        <time>2019-01-26T12:52:40Z</time>
      </trkpt>
      <trkpt lat="43.43948" lon="5.75787">
        <ele>721.13</ele>
        <time>2019-01-26T12:53:05Z</time>
      </trkpt>
      <trkpt lat="43.43947" lon="5.75786">
        <ele>721.13</ele>
        <time>2019-01-26T12:53:37Z</time>
      </trkpt>
      <trkpt lat="43.43947" lon="5.75786">
        <ele>721.13</ele>
        <time>2019-01-26T12:54:04Z</time>
      </trkpt>
      <trkpt lat="43.43948" lon="5.75787">
        <ele>721.13</ele>
        <time>2019-01-26T12:54:35Z</time>
      </trkpt>
      <trkpt lat="43.43947" lon="5.75786">
        <ele>720.65</ele>
        <time>2019-01-26T12:54:59Z</time>
      </trkpt>
      <trkpt lat="43.43947" lon="5.75787">
        <ele>721.13</ele>
        <time>2019-01-26T12:55:27Z</time>
      </trkpt>
      <trkpt lat="43.43947" lon="5.75786">
        <ele>721.13</ele>
        <time>2019-01-26T12:55:54Z</time>
      </trkpt>
      <trkpt lat="43.43949" lon="5.75786">
        <ele>721.13</ele>
        <time>2019-01-26T12:56:24Z</time>
      </trkpt>
      <trkpt lat="43.43949" lon="5.75785">
        <ele>721.13</ele>
        <time>2019-01-26T12:56:48Z</time>
      </trkpt>
      <trkpt lat="43.4395" lon="5.75787">
        <ele>721.13</ele>
        <time>2019-01-26T12:57:10Z</time>
      </trkpt>
      <trkpt lat="43.43948" lon="5.75786">
        <ele>721.13</ele>
        <time>2019-01-26T12:57:33Z</time>
      </trkpt>
      <trkpt lat="43.43948" lon="5.75786">
        <ele>721.13</ele>
        <time>2019-01-26T12:57:58Z</time>
      </trkpt>
      <trkpt lat="43.43948" lon="5.75786">
        <ele>721.13</ele>
        <time>2019-01-26T12:58:24Z</time>
      </trkpt>
      <trkpt lat="43.4395" lon="5.75787">
        <ele>721.13</ele>
        <time>2019-01-26T12:58:50Z</time>
      </trkpt>
      <trkpt lat="43.43951" lon="5.75787">
        <ele>721.13</ele>
        <time>2019-01-26T12:59:21Z</time>
      </trkpt>
      <trkpt lat="43.43951" lon="5.75787">
        <ele>721.13</ele>
        <time>2019-01-26T12:59:53Z</time>
      </trkpt>
      <trkpt lat="43.43949" lon="5.75785">
        <ele>720.65</ele>
        <time>2019-01-26T13:00:19Z</time>
      </trkpt>
      <trkpt lat="43.43947" lon="5.75784">
        <ele>720.65</ele>
        <time>2019-01-26T13:00:41Z</time>
      </trkpt>
      <trkpt lat="43.43945" lon="5.75783">
        <ele>720.65</ele>
        <time>2019-01-26T13:01:05Z</time>
      </trkpt>
      <trkpt lat="43.43948" lon="5.75784">
        <ele>720.65</ele>
        <time>2019-01-26T13:01:29Z</time>
      </trkpt>
      <trkpt lat="43.4395" lon="5.75787">
        <ele>720.16</ele>
        <time>2019-01-26T13:01:59Z</time>
      </trkpt>
      <trkpt lat="43.4395" lon="5.75786">
        <ele>720.16</ele>
        <time>2019-01-26T13:02:24Z</time>
      </trkpt>
      <trkpt lat="43.43948" lon="5.75785">
        <ele>720.65</ele>
        <time>2019-01-26T13:02:51Z</time>
      </trkpt>
      <trkpt lat="43.43946" lon="5.75786">
        <ele>720.65</ele>
        <time>2019-01-26T13:03:14Z</time>
      </trkpt>
      <trkpt lat="43.43945" lon="5.75784">
        <ele>720.65</ele>
        <time>2019-01-26T13:03:36Z</time>
      </trkpt>
      <trkpt lat="43.43947" lon="5.75785">
        <ele>720.16</ele>
        <time>2019-01-26T13:03:56Z</time>
      </trkpt>
      <trkpt lat="43.43947" lon="5.75785">
        <ele>720.16</ele>
        <time>2019-01-26T13:04:14Z</time>
      </trkpt>
      <trkpt lat="43.4395" lon="5.75786">
        <ele>720.16</ele>
        <time>2019-01-26T13:04:41Z</time>
      </trkpt>
      <trkpt lat="43.4395" lon="5.75785">
        <ele>720.16</ele>
        <time>2019-01-26T13:05:04Z</time>
      </trkpt>
      <trkpt lat="43.4395" lon="5.75786">
        <ele>720.65</ele>
        <time>2019-01-26T13:05:22Z</time>
      </trkpt>
      <trkpt lat="43.43949" lon="5.75785">
        <ele>720.65</ele>
        <time>2019-01-26T13:05:35Z</time>
      </trkpt>
      <trkpt lat="43.43947" lon="5.75785">
        <ele>720.16</ele>
        <time>2019-01-26T13:05:53Z</time>
      </trkpt>
      <trkpt lat="43.43946" lon="5.75785">
        <ele>720.16</ele>
        <time>2019-01-26T13:06:14Z</time>
      </trkpt>
      <trkpt lat="43.43949" lon="5.75785">
        <ele>720.16</ele>
        <time>2019-01-26T13:06:41Z</time>
      </trkpt>
      <trkpt lat="43.4395" lon="5.75786">
        <ele>720.16</ele>
        <time>2019-01-26T13:07:03Z</time>
      </trkpt>
      <trkpt lat="43.43949" lon="5.75787">
        <ele>720.16</ele>
        <time>2019-01-26T13:07:26Z</time>
      </trkpt>
      <trkpt lat="43.43947" lon="5.75788">
        <ele>720.16</ele>
        <time>2019-01-26T13:07:50Z</time>
      </trkpt>
      <trkpt lat="43.43949" lon="5.75788">
        <ele>720.65</ele>
        <time>2019-01-26T13:08:17Z</time>
      </trkpt>
      <trkpt lat="43.43946" lon="5.75787">
        <ele>720.65</ele>
        <time>2019-01-26T13:08:40Z</time>
      </trkpt>
      <trkpt lat="43.43944" lon="5.75786">
        <ele>720.16</ele>
        <time>2019-01-26T13:08:57Z</time>
      </trkpt>
      <trkpt lat="43.43944" lon="5.75785">
        <ele>720.16</ele>
        <time>2019-01-26T13:09:27Z</time>
      </trkpt>
      <trkpt lat="43.43944" lon="5.75784">
        <ele>720.16</ele>
        <time>2019-01-26T13:09:50Z</time>
      </trkpt>
      <trkpt lat="43.43946" lon="5.75786">
        <ele>720.16</ele>
        <time>2019-01-26T13:10:19Z</time>
      </trkpt>
      <trkpt lat="43.43948" lon="5.75787">
        <ele>720.16</ele>
        <time>2019-01-26T13:10:42Z</time>
      </trkpt>
      <trkpt lat="43.43947" lon="5.75786">
        <ele>720.16</ele>
        <time>2019-01-26T13:11:01Z</time>
      </trkpt>
      <trkpt lat="43.43947" lon="5.75786">
        <ele>720.16</ele>
        <time>2019-01-26T13:11:27Z</time>
      </trkpt>
      <trkpt lat="43.43947" lon="5.75786">
        <ele>720.16</ele>
        <time>2019-01-26T13:11:51Z</time>
      </trkpt>
      <trkpt lat="43.43948" lon="5.75786">
        <ele>720.16</ele>
        <time>2019-01-26T13:12:11Z</time>
      </trkpt>
      <trkpt lat="43.43949" lon="5.75786">
        <ele>720.16</ele>
        <time>2019-01-26T13:12:32Z</time>
      </trkpt>
      <trkpt lat="43.43951" lon="5.75786">
        <ele>720.16</ele>
        <time>2019-01-26T13:12:53Z</time>
      </trkpt>
      <trkpt lat="43.4395" lon="5.75787">
        <ele>720.16</ele>
        <time>2019-01-26T13:13:12Z</time>
      </trkpt>
      <trkpt lat="43.43949" lon="5.75786">
        <ele>719.68</ele>
        <time>2019-01-26T13:13:34Z</time>
      </trkpt>
      <trkpt lat="43.43947" lon="5.75785">
        <ele>720.16</ele>
        <time>2019-01-26T13:13:58Z</time>
      </trkpt>
      <trkpt lat="43.43947" lon="5.75784">
        <ele>720.16</ele>
        <time>2019-01-26T13:14:20Z</time>
      </trkpt>
      <trkpt lat="43.43946" lon="5.75784">
        <ele>720.16</ele>
        <time>2019-01-26T13:14:47Z</time>
      </trkpt>
      <trkpt lat="43.43947" lon="5.75785">
        <ele>720.16</ele>
        <time>2019-01-26T13:15:09Z</time>
      </trkpt>
      <trkpt lat="43.43947" lon="5.75785">
        <ele>720.16</ele>
        <time>2019-01-26T13:15:29Z</time>
      </trkpt>
      <trkpt lat="43.43949" lon="5.75786">
        <ele>720.16</ele>
        <time>2019-01-26T13:15:52Z</time>
      </trkpt>
      <trkpt lat="43.43948" lon="5.75786">
        <ele>720.16</ele>
        <time>2019-01-26T13:16:07Z</time>
      </trkpt>
      <trkpt lat="43.43949" lon="5.75786">
        <ele>720.16</ele>
        <time>2019-01-26T13:16:22Z</time>
      </trkpt>
      <trkpt lat="43.43948" lon="5.75786">
        <ele>720.16</ele>
        <time>2019-01-26T13:16:43Z</time>
      </trkpt>
      <trkpt lat="43.43947" lon="5.75786">
        <ele>720.16</ele>
        <time>2019-01-26T13:17:02Z</time>
      </trkpt>
      <trkpt lat="43.43948" lon="5.75786">
        <ele>720.16</ele>
        <time>2019-01-26T13:17:21Z</time>
      </trkpt>
      <trkpt lat="43.43948" lon="5.75783">
        <ele>720.16</ele>
        <time>2019-01-26T13:17:43Z</time>
      </trkpt>
      <trkpt lat="43.4395" lon="5.75784">
        <ele>720.16</ele>
        <time>2019-01-26T13:18:05Z</time>
      </trkpt>
      <trkpt lat="43.43949" lon="5.75785">
        <ele>719.68</ele>
        <time>2019-01-26T13:18:27Z</time>
      </trkpt>
      <trkpt lat="43.43949" lon="5.75787">
        <ele>719.68</ele>
        <time>2019-01-26T13:18:58Z</time>
      </trkpt>
      <trkpt lat="43.43949" lon="5.75786">
        <ele>718.24</ele>
        <time>2019-01-26T13:19:09Z</time>
      </trkpt>
      <trkpt lat="43.43948" lon="5.75785">
        <ele>719.68</ele>
        <time>2019-01-26T13:19:34Z</time>
      </trkpt>
      <trkpt lat="43.43948" lon="5.75785">
        <ele>719.2</ele>
        <time>2019-01-26T13:20:00Z</time>
      </trkpt>
      <trkpt lat="43.43949" lon="5.75786">
        <ele>719.2</ele>
        <time>2019-01-26T13:20:21Z</time>
      </trkpt>
      <trkpt lat="43.4395" lon="5.75786">
        <ele>719.2</ele>
        <time>2019-01-26T13:20:37Z</time>
      </trkpt>
      <trkpt lat="43.4395" lon="5.75787">
        <ele>719.2</ele>
        <time>2019-01-26T13:20:56Z</time>
      </trkpt>
      <trkpt lat="43.43949" lon="5.75787">
        <ele>719.68</ele>
        <time>2019-01-26T13:21:12Z</time>
      </trkpt>
      <trkpt lat="43.43949" lon="5.75788">
        <ele>719.68</ele>
        <time>2019-01-26T13:21:29Z</time>
      </trkpt>
      <trkpt lat="43.4395" lon="5.75788">
        <ele>720.16</ele>
        <time>2019-01-26T13:21:48Z</time>
      </trkpt>
      <trkpt lat="43.43949" lon="5.75787">
        <ele>720.16</ele>
        <time>2019-01-26T13:22:01Z</time>
      </trkpt>
      <trkpt lat="43.43948" lon="5.75787">
        <ele>720.65</ele>
        <time>2019-01-26T13:22:10Z</time>
      </trkpt>
      <trkpt lat="43.43947" lon="5.75787">
        <ele>720.65</ele>
        <time>2019-01-26T13:22:24Z</time>
      </trkpt>
      <trkpt lat="43.43946" lon="5.75788">
        <ele>719.2</ele>
        <time>2019-01-26T13:22:38Z</time>
      </trkpt>
      <trkpt lat="43.43946" lon="5.75789">
        <ele>720.65</ele>
        <time>2019-01-26T13:22:55Z</time>
      </trkpt>
      <trkpt lat="43.43948" lon="5.75787">
        <ele>720.65</ele>
        <time>2019-01-26T13:23:12Z</time>
      </trkpt>
      <trkpt lat="43.43948" lon="5.75784">
        <ele>720.65</ele>
        <time>2019-01-26T13:23:24Z</time>
      </trkpt>
      <trkpt lat="43.43947" lon="5.75785">
        <ele>720.65</ele>
        <time>2019-01-26T13:23:39Z</time>
      </trkpt>
      <trkpt lat="43.43947" lon="5.75788">
        <ele>720.65</ele>
        <time>2019-01-26T13:23:54Z</time>
      </trkpt>
      <trkpt lat="43.43947" lon="5.75788">
        <ele>719.2</ele>
        <time>2019-01-26T13:23:57Z</time>
      </trkpt>
      <trkpt lat="43.43948" lon="5.75789">
        <ele>720.16</ele>
        <time>2019-01-26T13:24:05Z</time>
      </trkpt>
      <trkpt lat="43.43948" lon="5.75788">
        <ele>720.65</ele>
        <time>2019-01-26T13:24:21Z</time>
      </trkpt>
      <trkpt lat="43.43949" lon="5.75788">
        <ele>720.65</ele>
        <time>2019-01-26T13:24:36Z</time>
      </trkpt>
      <trkpt lat="43.43949" lon="5.75789">
        <ele>720.65</ele>
        <time>2019-01-26T13:24:52Z</time>
      </trkpt>
      <trkpt lat="43.43949" lon="5.75787">
        <ele>720.65</ele>
        <time>2019-01-26T13:25:06Z</time>
      </trkpt>
      <trkpt lat="43.43948" lon="5.75789">
        <ele>720.65</ele>
        <time>2019-01-26T13:25:25Z</time>
      </trkpt>
      <trkpt lat="43.43947" lon="5.7579">
        <ele>720.65</ele>
        <time>2019-01-26T13:25:40Z</time>
      </trkpt>
      <trkpt lat="43.43947" lon="5.7579">
        <ele>720.65</ele>
        <time>2019-01-26T13:25:54Z</time>
      </trkpt>
      <trkpt lat="43.43947" lon="5.75788">
        <ele>720.65</ele>
        <time>2019-01-26T13:26:09Z</time>
      </trkpt>
      <trkpt lat="43.43947" lon="5.7579">
        <ele>720.65</ele>
        <time>2019-01-26T13:26:18Z</time>
      </trkpt>
      <trkpt lat="43.43949" lon="5.75789">
        <ele>721.13</ele>
        <time>2019-01-26T13:26:33Z</time>
      </trkpt>
      <trkpt lat="43.43948" lon="5.75787">
        <ele>721.61</ele>
        <time>2019-01-26T13:26:47Z</time>
      </trkpt>
      <trkpt lat="43.43948" lon="5.75787">
        <ele>721.61</ele>
        <time>2019-01-26T13:26:58Z</time>
      </trkpt>
      <trkpt lat="43.43948" lon="5.75785">
        <ele>720.16</ele>
        <time>2019-01-26T13:27:06Z</time>
      </trkpt>
      <trkpt lat="43.43947" lon="5.75785">
        <ele>720.16</ele>
        <time>2019-01-26T13:27:19Z</time>
      </trkpt>
      <trkpt lat="43.43947" lon="5.75787">
        <ele>720.16</ele>
        <time>2019-01-26T13:27:33Z</time>
      </trkpt>
      <trkpt lat="43.43947" lon="5.75787">
        <ele>722.09</ele>
        <time>2019-01-26T13:27:45Z</time>
      </trkpt>
      <trkpt lat="43.43948" lon="5.75787">
        <ele>721.13</ele>
        <time>2019-01-26T13:27:51Z</time>
      </trkpt>
      <trkpt lat="43.43947" lon="5.75785">
        <ele>721.13</ele>
        <time>2019-01-26T13:28:02Z</time>
      </trkpt>
      <trkpt lat="43.43947" lon="5.75785">
        <ele>720.65</ele>
        <time>2019-01-26T13:28:12Z</time>
      </trkpt>
      <trkpt lat="43.43947" lon="5.75784">
        <ele>720.65</ele>
        <time>2019-01-26T13:28:21Z</time>
      </trkpt>
      <trkpt lat="43.43946" lon="5.75784">
        <ele>720.65</ele>
        <time>2019-01-26T13:28:28Z</time>
      </trkpt>
      <trkpt lat="43.43946" lon="5.75785">
        <ele>720.65</ele>
        <time>2019-01-26T13:28:38Z</time>
      </trkpt>
      <trkpt lat="43.43947" lon="5.75785">
        <ele>720.65</ele>
        <time>2019-01-26T13:28:46Z</time>
      </trkpt>
      <trkpt lat="43.43947" lon="5.75784">
        <ele>719.68</ele>
        <time>2019-01-26T13:28:52Z</time>
      </trkpt>
      <trkpt lat="43.43947" lon="5.75786">
        <ele>719.68</ele>
        <time>2019-01-26T13:28:57Z</time>
      </trkpt>
      <trkpt lat="43.43947" lon="5.75786">
        <ele>721.13</ele>
        <time>2019-01-26T13:29:01Z</time>
      </trkpt>
      <trkpt lat="43.43947" lon="5.75786">
        <ele>721.13</ele>
        <time>2019-01-26T13:29:11Z</time>
      </trkpt>
      <trkpt lat="43.43947" lon="5.75786">
        <ele>721.13</ele>
        <time>2019-01-26T13:29:24Z</time>
      </trkpt>
      <trkpt lat="43.43947" lon="5.75787">
        <ele>721.13</ele>
        <time>2019-01-26T13:29:34Z</time>
      </trkpt>
      <trkpt lat="43.43947" lon="5.75786">
        <ele>721.13</ele>
        <time>2019-01-26T13:29:47Z</time>
      </trkpt>
      <trkpt lat="43.43947" lon="5.75786">
        <ele>721.13</ele>
        <time>2019-01-26T13:29:55Z</time>
      </trkpt>
      <trkpt lat="43.43946" lon="5.75786">
        <ele>721.13</ele>
        <time>2019-01-26T13:29:59Z</time>
      </trkpt>
      <trkpt lat="43.43946" lon="5.75785">
        <ele>721.13</ele>
        <time>2019-01-26T13:30:06Z</time>
      </trkpt>
      <trkpt lat="43.43946" lon="5.75786">
        <ele>721.13</ele>
        <time>2019-01-26T13:30:10Z</time>
      </trkpt>
      <trkpt lat="43.43946" lon="5.75787">
        <ele>721.13</ele>
        <time>2019-01-26T13:30:16Z</time>
      </trkpt>
      <trkpt lat="43.43947" lon="5.75784">
        <ele>721.13</ele>
        <time>2019-01-26T13:30:24Z</time>
      </trkpt>
      <trkpt lat="43.43947" lon="5.75784">
        <ele>721.13</ele>
        <time>2019-01-26T13:30:35Z</time>
      </trkpt>
      <trkpt lat="43.43946" lon="5.75785">
        <ele>719.68</ele>
        <time>2019-01-26T13:30:41Z</time>
      </trkpt>
      <trkpt lat="43.43947" lon="5.75786">
        <ele>719.68</ele>
        <time>2019-01-26T13:30:52Z</time>
      </trkpt>
      <trkpt lat="43.43947" lon="5.75785">
        <ele>719.68</ele>
        <time>2019-01-26T13:30:58Z</time>
      </trkpt>
      <trkpt lat="43.43947" lon="5.75785">
        <ele>719.68</ele>
        <time>2019-01-26T13:31:07Z</time>
      </trkpt>
      <trkpt lat="43.43948" lon="5.75787">
        <ele>720.65</ele>
        <time>2019-01-26T13:31:14Z</time>
      </trkpt>
      <trkpt lat="43.43947" lon="5.75788">
        <ele>720.65</ele>
        <time>2019-01-26T13:31:25Z</time>
      </trkpt>
      <trkpt lat="43.43947" lon="5.75789">
        <ele>720.65</ele>
        <time>2019-01-26T13:31:35Z</time>
      </trkpt>
      <trkpt lat="43.43946" lon="5.75789">
        <ele>719.68</ele>
        <time>2019-01-26T13:31:39Z</time>
      </trkpt>
      <trkpt lat="43.43948" lon="5.7579">
        <ele>719.2</ele>
        <time>2019-01-26T13:31:48Z</time>
      </trkpt>
      <trkpt lat="43.43949" lon="5.75794">
        <ele>719.2</ele>
        <time>2019-01-26T13:31:56Z</time>
      </trkpt>
      <trkpt lat="43.43949" lon="5.75794">
        <ele>719.2</ele>
        <time>2019-01-26T13:31:58Z</time>
      </trkpt>
      <trkpt lat="43.43952" lon="5.75797">
        <ele>719.2</ele>
        <time>2019-01-26T13:32:03Z</time>
      </trkpt>
      <trkpt lat="43.43953" lon="5.75797">
        <ele>719.2</ele>
        <time>2019-01-26T13:32:04Z</time>
      </trkpt>
      <trkpt lat="43.43957" lon="5.75793">
        <ele>719.2</ele>
        <time>2019-01-26T13:32:11Z</time>
      </trkpt>
      <trkpt lat="43.43958" lon="5.75792">
        <ele>719.2</ele>
        <time>2019-01-26T13:32:12Z</time>
      </trkpt>
      <trkpt lat="43.4396" lon="5.75789">
        <ele>720.65</ele>
        <time>2019-01-26T13:32:16Z</time>
      </trkpt>
      <trkpt lat="43.4396" lon="5.75787">
        <ele>720.65</ele>
        <time>2019-01-26T13:32:17Z</time>
      </trkpt>
      <trkpt lat="43.4396" lon="5.75786">
        <ele>720.65</ele>
        <time>2019-01-26T13:32:18Z</time>
      </trkpt>
      <trkpt lat="43.43961" lon="5.75782">
        <ele>722.09</ele>
        <time>2019-01-26T13:32:23Z</time>
      </trkpt>
      <trkpt lat="43.43962" lon="5.75781">
        <ele>722.09</ele>
        <time>2019-01-26T13:32:24Z</time>
      </trkpt>
      <trkpt lat="43.43964" lon="5.75778">
        <ele>722.57</ele>
        <time>2019-01-26T13:32:27Z</time>
      </trkpt>
      <trkpt lat="43.43966" lon="5.75776">
        <ele>723.05</ele>
        <time>2019-01-26T13:32:30Z</time>
      </trkpt>
      <trkpt lat="43.43967" lon="5.75776">
        <ele>723.53</ele>
        <time>2019-01-26T13:32:31Z</time>
      </trkpt>
      <trkpt lat="43.43971" lon="5.75774">
        <ele>723.53</ele>
        <time>2019-01-26T13:32:36Z</time>
      </trkpt>
      <trkpt lat="43.43972" lon="5.75773">
        <ele>723.53</ele>
        <time>2019-01-26T13:32:37Z</time>
      </trkpt>
      <trkpt lat="43.43975" lon="5.75771">
        <ele>723.53</ele>
        <time>2019-01-26T13:32:41Z</time>
      </trkpt>
      <trkpt lat="43.43978" lon="5.75769">
        <ele>724.01</ele>
        <time>2019-01-26T13:32:48Z</time>
      </trkpt>
      <trkpt lat="43.43979" lon="5.75765">
        <ele>725.45</ele>
        <time>2019-01-26T13:32:53Z</time>
      </trkpt>
      <trkpt lat="43.4398" lon="5.75764">
        <ele>725.45</ele>
        <time>2019-01-26T13:32:54Z</time>
      </trkpt>
      <trkpt lat="43.43983" lon="5.75757">
        <ele>726.89</ele>
        <time>2019-01-26T13:33:00Z</time>
      </trkpt>
      <trkpt lat="43.43985" lon="5.75748">
        <ele>724.49</ele>
        <time>2019-01-26T13:33:06Z</time>
      </trkpt>
      <trkpt lat="43.43989" lon="5.75738">
        <ele>723.05</ele>
        <time>2019-01-26T13:33:14Z</time>
      </trkpt>
      <trkpt lat="43.43991" lon="5.75734">
        <ele>722.57</ele>
        <time>2019-01-26T13:33:18Z</time>
      </trkpt>
      <trkpt lat="43.43993" lon="5.75732">
        <ele>722.09</ele>
        <time>2019-01-26T13:33:20Z</time>
      </trkpt>
      <trkpt lat="43.43994" lon="5.7573">
        <ele>721.13</ele>
        <time>2019-01-26T13:33:21Z</time>
      </trkpt>
      <trkpt lat="43.43995" lon="5.75729">
        <ele>721.13</ele>
        <time>2019-01-26T13:33:22Z</time>
      </trkpt>
      <trkpt lat="43.44001" lon="5.75723">
        <ele>719.68</ele>
        <time>2019-01-26T13:33:29Z</time>
      </trkpt>
      <trkpt lat="43.44001" lon="5.75722">
        <ele>719.68</ele>
        <time>2019-01-26T13:33:30Z</time>
      </trkpt>
      <trkpt lat="43.44002" lon="5.75721">
        <ele>719.68</ele>
        <time>2019-01-26T13:33:31Z</time>
      </trkpt>
      <trkpt lat="43.44007" lon="5.75717">
        <ele>718.72</ele>
        <time>2019-01-26T13:33:36Z</time>
      </trkpt>
      <trkpt lat="43.4401" lon="5.75713">
        <ele>717.76</ele>
        <time>2019-01-26T13:33:40Z</time>
      </trkpt>
      <trkpt lat="43.44013" lon="5.75712">
        <ele>717.76</ele>
        <time>2019-01-26T13:33:42Z</time>
      </trkpt>
      <trkpt lat="43.44018" lon="5.75708">
        <ele>716.8</ele>
        <time>2019-01-26T13:33:48Z</time>
      </trkpt>
      <trkpt lat="43.44019" lon="5.75707">
        <ele>716.32</ele>
        <time>2019-01-26T13:33:49Z</time>
      </trkpt>
      <trkpt lat="43.4402" lon="5.75707">
        <ele>715.36</ele>
        <time>2019-01-26T13:33:50Z</time>
      </trkpt>
      <trkpt lat="43.44021" lon="5.75706">
        <ele>714.88</ele>
        <time>2019-01-26T13:33:51Z</time>
      </trkpt>
      <trkpt lat="43.44027" lon="5.75701">
        <ele>713.44</ele>
        <time>2019-01-26T13:33:58Z</time>
      </trkpt>
      <trkpt lat="43.44033" lon="5.75698">
        <ele>712.47</ele>
        <time>2019-01-26T13:34:04Z</time>
      </trkpt>
      <trkpt lat="43.44039" lon="5.75693">
        <ele>711.03</ele>
        <time>2019-01-26T13:34:11Z</time>
      </trkpt>
      <trkpt lat="43.4404" lon="5.75692">
        <ele>711.03</ele>
        <time>2019-01-26T13:34:13Z</time>
      </trkpt>
      <trkpt lat="43.44041" lon="5.75692">
        <ele>710.55</ele>
        <time>2019-01-26T13:34:14Z</time>
      </trkpt>
      <trkpt lat="43.44042" lon="5.75691">
        <ele>710.55</ele>
        <time>2019-01-26T13:34:15Z</time>
      </trkpt>
      <trkpt lat="43.44044" lon="5.75691">
        <ele>710.55</ele>
        <time>2019-01-26T13:34:16Z</time>
      </trkpt>
      <trkpt lat="43.4405" lon="5.75686">
        <ele>708.63</ele>
        <time>2019-01-26T13:34:22Z</time>
      </trkpt>
      <trkpt lat="43.44055" lon="5.75681">
        <ele>707.67</ele>
        <time>2019-01-26T13:34:29Z</time>
      </trkpt>
      <trkpt lat="43.44057" lon="5.7568">
        <ele>707.67</ele>
        <time>2019-01-26T13:34:31Z</time>
      </trkpt>
      <trkpt lat="43.44063" lon="5.75674">
        <ele>706.71</ele>
        <time>2019-01-26T13:34:38Z</time>
      </trkpt>
      <trkpt lat="43.44066" lon="5.75672">
        <ele>706.23</ele>
        <time>2019-01-26T13:34:41Z</time>
      </trkpt>
      <trkpt lat="43.44068" lon="5.75672">
        <ele>705.26</ele>
        <time>2019-01-26T13:34:42Z</time>
      </trkpt>
      <trkpt lat="43.44068" lon="5.75671">
        <ele>705.26</ele>
        <time>2019-01-26T13:34:43Z</time>
      </trkpt>
      <trkpt lat="43.44069" lon="5.75671">
        <ele>705.26</ele>
        <time>2019-01-26T13:34:44Z</time>
      </trkpt>
      <trkpt lat="43.4407" lon="5.7567">
        <ele>705.26</ele>
        <time>2019-01-26T13:34:45Z</time>
      </trkpt>
      <trkpt lat="43.44077" lon="5.75665">
        <ele>703.82</ele>
        <time>2019-01-26T13:34:53Z</time>
      </trkpt>
      <trkpt lat="43.44078" lon="5.75663">
        <ele>703.82</ele>
        <time>2019-01-26T13:34:55Z</time>
      </trkpt>
      <trkpt lat="43.44079" lon="5.75662">
        <ele>703.82</ele>
        <time>2019-01-26T13:34:56Z</time>
      </trkpt>
      <trkpt lat="43.4408" lon="5.75661">
        <ele>703.82</ele>
        <time>2019-01-26T13:34:57Z</time>
      </trkpt>
      <trkpt lat="43.44087" lon="5.75659">
        <ele>701.9</ele>
        <time>2019-01-26T13:35:04Z</time>
      </trkpt>
      <trkpt lat="43.44092" lon="5.75656">
        <ele>700.46</ele>
        <time>2019-01-26T13:35:09Z</time>
      </trkpt>
      <trkpt lat="43.44097" lon="5.75654">
        <ele>699.02</ele>
        <time>2019-01-26T13:35:16Z</time>
      </trkpt>
      <trkpt lat="43.44099" lon="5.75653">
        <ele>699.02</ele>
        <time>2019-01-26T13:35:18Z</time>
      </trkpt>
      <trkpt lat="43.441" lon="5.75652">
        <ele>699.02</ele>
        <time>2019-01-26T13:35:19Z</time>
      </trkpt>
      <trkpt lat="43.44102" lon="5.75652">
        <ele>698.53</ele>
        <time>2019-01-26T13:35:20Z</time>
      </trkpt>
      <trkpt lat="43.44103" lon="5.75653">
        <ele>698.53</ele>
        <time>2019-01-26T13:35:21Z</time>
      </trkpt>
      <trkpt lat="43.44104" lon="5.75653">
        <ele>697.57</ele>
        <time>2019-01-26T13:35:22Z</time>
      </trkpt>
      <trkpt lat="43.44105" lon="5.75653">
        <ele>697.57</ele>
        <time>2019-01-26T13:35:23Z</time>
      </trkpt>
      <trkpt lat="43.44107" lon="5.75653">
        <ele>697.09</ele>
        <time>2019-01-26T13:35:24Z</time>
      </trkpt>
      <trkpt lat="43.44116" lon="5.75658">
        <ele>696.13</ele>
        <time>2019-01-26T13:35:32Z</time>
      </trkpt>
      <trkpt lat="43.44117" lon="5.75659">
        <ele>696.13</ele>
        <time>2019-01-26T13:35:33Z</time>
      </trkpt>
      <trkpt lat="43.4412" lon="5.7566">
        <ele>695.17</ele>
        <time>2019-01-26T13:35:37Z</time>
      </trkpt>
      <trkpt lat="43.44126" lon="5.75664">
        <ele>695.17</ele>
        <time>2019-01-26T13:35:42Z</time>
      </trkpt>
      <trkpt lat="43.44134" lon="5.75667">
        <ele>694.21</ele>
        <time>2019-01-26T13:35:49Z</time>
      </trkpt>
      <trkpt lat="43.44142" lon="5.75671">
        <ele>693.25</ele>
        <time>2019-01-26T13:35:56Z</time>
      </trkpt>
      <trkpt lat="43.4415" lon="5.75674">
        <ele>692.29</ele>
        <time>2019-01-26T13:36:03Z</time>
      </trkpt>
      <trkpt lat="43.44159" lon="5.75678">
        <ele>691.81</ele>
        <time>2019-01-26T13:36:10Z</time>
      </trkpt>
      <trkpt lat="43.44163" lon="5.75681">
        <ele>691.33</ele>
        <time>2019-01-26T13:36:15Z</time>
      </trkpt>
      <trkpt lat="43.44164" lon="5.75681">
        <ele>691.33</ele>
        <time>2019-01-26T13:36:16Z</time>
      </trkpt>
      <trkpt lat="43.44174" lon="5.75678">
        <ele>690.84</ele>
        <time>2019-01-26T13:36:23Z</time>
      </trkpt>
      <trkpt lat="43.4418" lon="5.7567">
        <ele>690.84</ele>
        <time>2019-01-26T13:36:31Z</time>
      </trkpt>
      <trkpt lat="43.4419" lon="5.75662">
        <ele>690.84</ele>
        <time>2019-01-26T13:36:38Z</time>
      </trkpt>
      <trkpt lat="43.44198" lon="5.75656">
        <ele>690.36</ele>
        <time>2019-01-26T13:36:46Z</time>
      </trkpt>
      <trkpt lat="43.44206" lon="5.75649">
        <ele>688.92</ele>
        <time>2019-01-26T13:36:53Z</time>
      </trkpt>
      <trkpt lat="43.44213" lon="5.75644">
        <ele>688.92</ele>
        <time>2019-01-26T13:37:00Z</time>
      </trkpt>
      <trkpt lat="43.4422" lon="5.75642">
        <ele>688.44</ele>
        <time>2019-01-26T13:37:06Z</time>
      </trkpt>
      <trkpt lat="43.44221" lon="5.75643">
        <ele>688.44</ele>
        <time>2019-01-26T13:37:07Z</time>
      </trkpt>
      <trkpt lat="43.44223" lon="5.75644">
        <ele>688.44</ele>
        <time>2019-01-26T13:37:08Z</time>
      </trkpt>
      <trkpt lat="43.44224" lon="5.75644">
        <ele>688.44</ele>
        <time>2019-01-26T13:37:09Z</time>
      </trkpt>
      <trkpt lat="43.44226" lon="5.75645">
        <ele>688.44</ele>
        <time>2019-01-26T13:37:10Z</time>
      </trkpt>
      <trkpt lat="43.44227" lon="5.75646">
        <ele>687.96</ele>
        <time>2019-01-26T13:37:11Z</time>
      </trkpt>
      <trkpt lat="43.44229" lon="5.75647">
        <ele>687.96</ele>
        <time>2019-01-26T13:37:12Z</time>
      </trkpt>
      <trkpt lat="43.4423" lon="5.75648">
        <ele>687.96</ele>
        <time>2019-01-26T13:37:13Z</time>
      </trkpt>
      <trkpt lat="43.44231" lon="5.75649">
        <ele>687.96</ele>
        <time>2019-01-26T13:37:14Z</time>
      </trkpt>
      <trkpt lat="43.44237" lon="5.75655">
        <ele>686.04</ele>
        <time>2019-01-26T13:37:21Z</time>
      </trkpt>
      <trkpt lat="43.4424" lon="5.75661">
        <ele>685.56</ele>
        <time>2019-01-26T13:37:26Z</time>
      </trkpt>
      <trkpt lat="43.44241" lon="5.75662">
        <ele>685.08</ele>
        <time>2019-01-26T13:37:27Z</time>
      </trkpt>
      <trkpt lat="43.44242" lon="5.75664">
        <ele>685.08</ele>
        <time>2019-01-26T13:37:28Z</time>
      </trkpt>
      <trkpt lat="43.44243" lon="5.75665">
        <ele>685.08</ele>
        <time>2019-01-26T13:37:29Z</time>
      </trkpt>
      <trkpt lat="43.44246" lon="5.7567">
        <ele>683.63</ele>
        <time>2019-01-26T13:37:33Z</time>
      </trkpt>
      <trkpt lat="43.4425" lon="5.75682">
        <ele>682.19</ele>
        <time>2019-01-26T13:37:42Z</time>
      </trkpt>
      <trkpt lat="43.44256" lon="5.75692">
        <ele>681.23</ele>
        <time>2019-01-26T13:37:48Z</time>
      </trkpt>
      <trkpt lat="43.44258" lon="5.75697">
        <ele>680.75</ele>
        <time>2019-01-26T13:37:54Z</time>
      </trkpt>
      <trkpt lat="43.44262" lon="5.757">
        <ele>680.27</ele>
        <time>2019-01-26T13:37:58Z</time>
      </trkpt>
      <trkpt lat="43.44263" lon="5.757">
        <ele>679.79</ele>
        <time>2019-01-26T13:37:59Z</time>
      </trkpt>
      <trkpt lat="43.44264" lon="5.757">
        <ele>679.79</ele>
        <time>2019-01-26T13:38:00Z</time>
      </trkpt>
      <trkpt lat="43.44265" lon="5.757">
        <ele>679.79</ele>
        <time>2019-01-26T13:38:01Z</time>
      </trkpt>
      <trkpt lat="43.44269" lon="5.75699">
        <ele>678.83</ele>
        <time>2019-01-26T13:38:06Z</time>
      </trkpt>
      <trkpt lat="43.4427" lon="5.75698">
        <ele>678.83</ele>
        <time>2019-01-26T13:38:07Z</time>
      </trkpt>
      <trkpt lat="43.44271" lon="5.75697">
        <ele>678.83</ele>
        <time>2019-01-26T13:38:08Z</time>
      </trkpt>
      <trkpt lat="43.44272" lon="5.75696">
        <ele>677.87</ele>
        <time>2019-01-26T13:38:09Z</time>
      </trkpt>
      <trkpt lat="43.44279" lon="5.75691">
        <ele>676.42</ele>
        <time>2019-01-26T13:38:15Z</time>
      </trkpt>
      <trkpt lat="43.44281" lon="5.75689">
        <ele>676.42</ele>
        <time>2019-01-26T13:38:17Z</time>
      </trkpt>
      <trkpt lat="43.44281" lon="5.75687">
        <ele>675.94</ele>
        <time>2019-01-26T13:38:18Z</time>
      </trkpt>
      <trkpt lat="43.44283" lon="5.75685">
        <ele>675.46</ele>
        <time>2019-01-26T13:38:20Z</time>
      </trkpt>
      <trkpt lat="43.44284" lon="5.75683">
        <ele>675.46</ele>
        <time>2019-01-26T13:38:21Z</time>
      </trkpt>
      <trkpt lat="43.4429" lon="5.75678">
        <ele>673.06</ele>
        <time>2019-01-26T13:38:28Z</time>
      </trkpt>
      <trkpt lat="43.44291" lon="5.75677">
        <ele>673.06</ele>
        <time>2019-01-26T13:38:29Z</time>
      </trkpt>
      <trkpt lat="43.44293" lon="5.75676">
        <ele>673.06</ele>
        <time>2019-01-26T13:38:30Z</time>
      </trkpt>
      <trkpt lat="43.44294" lon="5.75675">
        <ele>673.06</ele>
        <time>2019-01-26T13:38:31Z</time>
      </trkpt>
      <trkpt lat="43.44296" lon="5.75675">
        <ele>673.06</ele>
        <time>2019-01-26T13:38:32Z</time>
      </trkpt>
      <trkpt lat="43.44298" lon="5.75675">
        <ele>673.06</ele>
        <time>2019-01-26T13:38:33Z</time>
      </trkpt>
      <trkpt lat="43.443" lon="5.75675">
        <ele>672.58</ele>
        <time>2019-01-26T13:38:34Z</time>
      </trkpt>
      <trkpt lat="43.44302" lon="5.75675">
        <ele>672.58</ele>
        <time>2019-01-26T13:38:35Z</time>
      </trkpt>
      <trkpt lat="43.4431" lon="5.75675">
        <ele>671.14</ele>
        <time>2019-01-26T13:38:42Z</time>
      </trkpt>
      <trkpt lat="43.44314" lon="5.75676">
        <ele>670.66</ele>
        <time>2019-01-26T13:38:46Z</time>
      </trkpt>
      <trkpt lat="43.44315" lon="5.75676">
        <ele>670.66</ele>
        <time>2019-01-26T13:38:47Z</time>
      </trkpt>
      <trkpt lat="43.44316" lon="5.75675">
        <ele>670.66</ele>
        <time>2019-01-26T13:38:48Z</time>
      </trkpt>
      <trkpt lat="43.44318" lon="5.75675">
        <ele>670.66</ele>
        <time>2019-01-26T13:38:49Z</time>
      </trkpt>
      <trkpt lat="43.44321" lon="5.75677">
        <ele>669.7</ele>
        <time>2019-01-26T13:38:52Z</time>
      </trkpt>
      <trkpt lat="43.44328" lon="5.75682">
        <ele>668.25</ele>
        <time>2019-01-26T13:38:59Z</time>
      </trkpt>
      <trkpt lat="43.44329" lon="5.75683">
        <ele>668.25</ele>
        <time>2019-01-26T13:39:00Z</time>
      </trkpt>
      <trkpt lat="43.44331" lon="5.75684">
        <ele>668.25</ele>
        <time>2019-01-26T13:39:01Z</time>
      </trkpt>
      <trkpt lat="43.44332" lon="5.75685">
        <ele>667.77</ele>
        <time>2019-01-26T13:39:02Z</time>
      </trkpt>
      <trkpt lat="43.44333" lon="5.75685">
        <ele>667.77</ele>
        <time>2019-01-26T13:39:03Z</time>
      </trkpt>
      <trkpt lat="43.44339" lon="5.75686">
        <ele>666.33</ele>
        <time>2019-01-26T13:39:09Z</time>
      </trkpt>
      <trkpt lat="43.4434" lon="5.75686">
        <ele>666.33</ele>
        <time>2019-01-26T13:39:10Z</time>
      </trkpt>
      <trkpt lat="43.44341" lon="5.75685">
        <ele>666.33</ele>
        <time>2019-01-26T13:39:11Z</time>
      </trkpt>
      <trkpt lat="43.44342" lon="5.75684">
        <ele>666.33</ele>
        <time>2019-01-26T13:39:12Z</time>
      </trkpt>
      <trkpt lat="43.44343" lon="5.75684">
        <ele>665.85</ele>
        <time>2019-01-26T13:39:13Z</time>
      </trkpt>
      <trkpt lat="43.44344" lon="5.75683">
        <ele>665.85</ele>
        <time>2019-01-26T13:39:14Z</time>
      </trkpt>
      <trkpt lat="43.44345" lon="5.75682">
        <ele>665.85</ele>
        <time>2019-01-26T13:39:15Z</time>
      </trkpt>
      <trkpt lat="43.44346" lon="5.75681">
        <ele>665.37</ele>
        <time>2019-01-26T13:39:16Z</time>
      </trkpt>
      <trkpt lat="43.44348" lon="5.7568">
        <ele>665.37</ele>
        <time>2019-01-26T13:39:17Z</time>
      </trkpt>
      <trkpt lat="43.44349" lon="5.75679">
        <ele>665.37</ele>
        <time>2019-01-26T13:39:18Z</time>
      </trkpt>
      <trkpt lat="43.4435" lon="5.75678">
        <ele>665.37</ele>
        <time>2019-01-26T13:39:19Z</time>
      </trkpt>
      <trkpt lat="43.44352" lon="5.75677">
        <ele>664.89</ele>
        <time>2019-01-26T13:39:20Z</time>
      </trkpt>
      <trkpt lat="43.44358" lon="5.75665">
        <ele>663.93</ele>
        <time>2019-01-26T13:39:27Z</time>
      </trkpt>
      <trkpt lat="43.44362" lon="5.75659">
        <ele>662.49</ele>
        <time>2019-01-26T13:39:34Z</time>
      </trkpt>
      <trkpt lat="43.44364" lon="5.75659">
        <ele>662.49</ele>
        <time>2019-01-26T13:39:36Z</time>
      </trkpt>
      <trkpt lat="43.44366" lon="5.75658">
        <ele>662.49</ele>
        <time>2019-01-26T13:39:38Z</time>
      </trkpt>
      <trkpt lat="43.44372" lon="5.75649">
        <ele>660.56</ele>
        <time>2019-01-26T13:39:46Z</time>
      </trkpt>
      <trkpt lat="43.44377" lon="5.75646">
        <ele>660.08</ele>
        <time>2019-01-26T13:39:51Z</time>
      </trkpt>
      <trkpt lat="43.44378" lon="5.75646">
        <ele>660.08</ele>
        <time>2019-01-26T13:39:52Z</time>
      </trkpt>
      <trkpt lat="43.44379" lon="5.75646">
        <ele>660.08</ele>
        <time>2019-01-26T13:39:53Z</time>
      </trkpt>
      <trkpt lat="43.44381" lon="5.75646">
        <ele>659.6</ele>
        <time>2019-01-26T13:39:54Z</time>
      </trkpt>
      <trkpt lat="43.44382" lon="5.75645">
        <ele>659.6</ele>
        <time>2019-01-26T13:39:55Z</time>
      </trkpt>
      <trkpt lat="43.44383" lon="5.75643">
        <ele>659.12</ele>
        <time>2019-01-26T13:39:56Z</time>
      </trkpt>
      <trkpt lat="43.44388" lon="5.75644">
        <ele>658.16</ele>
        <time>2019-01-26T13:40:03Z</time>
      </trkpt>
      <trkpt lat="43.44389" lon="5.75644">
        <ele>657.68</ele>
        <time>2019-01-26T13:40:04Z</time>
      </trkpt>
      <trkpt lat="43.44397" lon="5.75647">
        <ele>656.24</ele>
        <time>2019-01-26T13:40:10Z</time>
      </trkpt>
      <trkpt lat="43.44398" lon="5.75647">
        <ele>656.24</ele>
        <time>2019-01-26T13:40:11Z</time>
      </trkpt>
      <trkpt lat="43.44399" lon="5.75647">
        <ele>655.76</ele>
        <time>2019-01-26T13:40:12Z</time>
      </trkpt>
      <trkpt lat="43.44401" lon="5.75648">
        <ele>655.76</ele>
        <time>2019-01-26T13:40:13Z</time>
      </trkpt>
      <trkpt lat="43.44405" lon="5.7565">
        <ele>654.8</ele>
        <time>2019-01-26T13:40:16Z</time>
      </trkpt>
      <trkpt lat="43.44408" lon="5.75651">
        <ele>654.31</ele>
        <time>2019-01-26T13:40:20Z</time>
      </trkpt>
      <trkpt lat="43.44409" lon="5.75651">
        <ele>653.83</ele>
        <time>2019-01-26T13:40:21Z</time>
      </trkpt>
      <trkpt lat="43.4441" lon="5.75652">
        <ele>653.83</ele>
        <time>2019-01-26T13:40:22Z</time>
      </trkpt>
      <trkpt lat="43.44412" lon="5.75653">
        <ele>653.83</ele>
        <time>2019-01-26T13:40:23Z</time>
      </trkpt>
      <trkpt lat="43.44414" lon="5.75654">
        <ele>653.83</ele>
        <time>2019-01-26T13:40:24Z</time>
      </trkpt>
      <trkpt lat="43.44415" lon="5.75655">
        <ele>653.83</ele>
        <time>2019-01-26T13:40:25Z</time>
      </trkpt>
      <trkpt lat="43.44421" lon="5.75658">
        <ele>652.87</ele>
        <time>2019-01-26T13:40:31Z</time>
      </trkpt>
      <trkpt lat="43.44425" lon="5.75662">
        <ele>651.91</ele>
        <time>2019-01-26T13:40:37Z</time>
      </trkpt>
      <trkpt lat="43.44429" lon="5.75665">
        <ele>651.43</ele>
        <time>2019-01-26T13:40:41Z</time>
      </trkpt>
      <trkpt lat="43.4443" lon="5.75666">
        <ele>650.95</ele>
        <time>2019-01-26T13:40:42Z</time>
      </trkpt>
      <trkpt lat="43.44435" lon="5.7567">
        <ele>649.03</ele>
        <time>2019-01-26T13:40:49Z</time>
      </trkpt>
      <trkpt lat="43.44441" lon="5.75673">
        <ele>647.59</ele>
        <time>2019-01-26T13:40:57Z</time>
      </trkpt>
      <trkpt lat="43.44452" lon="5.75676">
        <ele>646.14</ele>
        <time>2019-01-26T13:41:04Z</time>
      </trkpt>
      <trkpt lat="43.44457" lon="5.75677">
        <ele>645.66</ele>
        <time>2019-01-26T13:41:07Z</time>
      </trkpt>
      <trkpt lat="43.44468" lon="5.7567">
        <ele>644.7</ele>
        <time>2019-01-26T13:41:16Z</time>
      </trkpt>
      <trkpt lat="43.44473" lon="5.75668">
        <ele>644.7</ele>
        <time>2019-01-26T13:41:23Z</time>
      </trkpt>
      <trkpt lat="43.44474" lon="5.75668">
        <ele>644.22</ele>
        <time>2019-01-26T13:41:24Z</time>
      </trkpt>
      <trkpt lat="43.44482" lon="5.75666">
        <ele>643.26</ele>
        <time>2019-01-26T13:41:31Z</time>
      </trkpt>
      <trkpt lat="43.44484" lon="5.75667">
        <ele>642.3</ele>
        <time>2019-01-26T13:41:34Z</time>
      </trkpt>
      <trkpt lat="43.44486" lon="5.75667">
        <ele>641.82</ele>
        <time>2019-01-26T13:41:35Z</time>
      </trkpt>
      <trkpt lat="43.44487" lon="5.75668">
        <ele>641.82</ele>
        <time>2019-01-26T13:41:36Z</time>
      </trkpt>
      <trkpt lat="43.44489" lon="5.75668">
        <ele>641.82</ele>
        <time>2019-01-26T13:41:37Z</time>
      </trkpt>
      <trkpt lat="43.44492" lon="5.75669">
        <ele>641.34</ele>
        <time>2019-01-26T13:41:40Z</time>
      </trkpt>
      <trkpt lat="43.44494" lon="5.75669">
        <ele>640.86</ele>
        <time>2019-01-26T13:41:41Z</time>
      </trkpt>
      <trkpt lat="43.44499" lon="5.7567">
        <ele>639.89</ele>
        <time>2019-01-26T13:41:48Z</time>
      </trkpt>
      <trkpt lat="43.44501" lon="5.7567">
        <ele>639.89</ele>
        <time>2019-01-26T13:41:50Z</time>
      </trkpt>
      <trkpt lat="43.44506" lon="5.7567">
        <ele>638.93</ele>
        <time>2019-01-26T13:41:54Z</time>
      </trkpt>
      <trkpt lat="43.44508" lon="5.75669">
        <ele>638.93</ele>
        <time>2019-01-26T13:41:55Z</time>
      </trkpt>
      <trkpt lat="43.44509" lon="5.75668">
        <ele>638.93</ele>
        <time>2019-01-26T13:41:56Z</time>
      </trkpt>
      <trkpt lat="43.44511" lon="5.75667">
        <ele>638.45</ele>
        <time>2019-01-26T13:41:57Z</time>
      </trkpt>
      <trkpt lat="43.44512" lon="5.75666">
        <ele>638.45</ele>
        <time>2019-01-26T13:41:58Z</time>
      </trkpt>
      <trkpt lat="43.44514" lon="5.75666">
        <ele>638.45</ele>
        <time>2019-01-26T13:41:59Z</time>
      </trkpt>
      <trkpt lat="43.44515" lon="5.75665">
        <ele>638.45</ele>
        <time>2019-01-26T13:42:00Z</time>
      </trkpt>
      <trkpt lat="43.44517" lon="5.75665">
        <ele>638.45</ele>
        <time>2019-01-26T13:42:01Z</time>
      </trkpt>
      <trkpt lat="43.44519" lon="5.75665">
        <ele>637.49</ele>
        <time>2019-01-26T13:42:02Z</time>
      </trkpt>
      <trkpt lat="43.4453" lon="5.7567">
        <ele>636.05</ele>
        <time>2019-01-26T13:42:09Z</time>
      </trkpt>
      <trkpt lat="43.44536" lon="5.75668">
        <ele>635.57</ele>
        <time>2019-01-26T13:42:15Z</time>
      </trkpt>
      <trkpt lat="43.44542" lon="5.75665">
        <ele>634.13</ele>
        <time>2019-01-26T13:42:23Z</time>
      </trkpt>
      <trkpt lat="43.44551" lon="5.75662">
        <ele>633.17</ele>
        <time>2019-01-26T13:42:30Z</time>
      </trkpt>
      <trkpt lat="43.44561" lon="5.75659">
        <ele>631.24</ele>
        <time>2019-01-26T13:42:37Z</time>
      </trkpt>
      <trkpt lat="43.44567" lon="5.75662">
        <ele>630.76</ele>
        <time>2019-01-26T13:42:44Z</time>
      </trkpt>
      <trkpt lat="43.44582" lon="5.75669">
        <ele>629.8</ele>
        <time>2019-01-26T13:42:54Z</time>
      </trkpt>
      <trkpt lat="43.44592" lon="5.75672">
        <ele>629.8</ele>
        <time>2019-01-26T13:43:02Z</time>
      </trkpt>
      <trkpt lat="43.44601" lon="5.75673">
        <ele>629.8</ele>
        <time>2019-01-26T13:43:10Z</time>
      </trkpt>
      <trkpt lat="43.44605" lon="5.75665">
        <ele>629.8</ele>
        <time>2019-01-26T13:43:17Z</time>
      </trkpt>
      <trkpt lat="43.44606" lon="5.75664">
        <ele>629.8</ele>
        <time>2019-01-26T13:43:24Z</time>
      </trkpt>
      <trkpt lat="43.44607" lon="5.75665">
        <ele>629.8</ele>
        <time>2019-01-26T13:43:32Z</time>
      </trkpt>
      <trkpt lat="43.44605" lon="5.75662">
        <ele>629.8</ele>
        <time>2019-01-26T13:43:43Z</time>
      </trkpt>
      <trkpt lat="43.44607" lon="5.75664">
        <ele>629.8</ele>
        <time>2019-01-26T13:43:55Z</time>
      </trkpt>
      <trkpt lat="43.44607" lon="5.75661">
        <ele>629.8</ele>
        <time>2019-01-26T13:44:04Z</time>
      </trkpt>
      <trkpt lat="43.44608" lon="5.7566">
        <ele>629.8</ele>
        <time>2019-01-26T13:44:18Z</time>
      </trkpt>
      <trkpt lat="43.44606" lon="5.7566">
        <ele>629.8</ele>
        <time>2019-01-26T13:44:29Z</time>
      </trkpt>
      <trkpt lat="43.44606" lon="5.75661">
        <ele>629.8</ele>
        <time>2019-01-26T13:44:43Z</time>
      </trkpt>
      <trkpt lat="43.44607" lon="5.75659">
        <ele>629.8</ele>
        <time>2019-01-26T13:44:53Z</time>
      </trkpt>
      <trkpt lat="43.44609" lon="5.75648">
        <ele>630.76</ele>
        <time>2019-01-26T13:45:00Z</time>
      </trkpt>
      <trkpt lat="43.4461" lon="5.75647">
        <ele>630.76</ele>
        <time>2019-01-26T13:45:01Z</time>
      </trkpt>
      <trkpt lat="43.44612" lon="5.75643">
        <ele>630.76</ele>
        <time>2019-01-26T13:45:05Z</time>
      </trkpt>
      <trkpt lat="43.44617" lon="5.75635">
        <ele>630.76</ele>
        <time>2019-01-26T13:45:12Z</time>
      </trkpt>
      <trkpt lat="43.44617" lon="5.75633">
        <ele>630.76</ele>
        <time>2019-01-26T13:45:18Z</time>
      </trkpt>
      <trkpt lat="43.44618" lon="5.75636">
        <ele>631.24</ele>
        <time>2019-01-26T13:45:26Z</time>
      </trkpt>
      <trkpt lat="43.44622" lon="5.75633">
        <ele>631.72</ele>
        <time>2019-01-26T13:45:31Z</time>
      </trkpt>
      <trkpt lat="43.44623" lon="5.75633">
        <ele>631.72</ele>
        <time>2019-01-26T13:45:32Z</time>
      </trkpt>
      <trkpt lat="43.44624" lon="5.75632">
        <ele>631.72</ele>
        <time>2019-01-26T13:45:33Z</time>
      </trkpt>
      <trkpt lat="43.44635" lon="5.75626">
        <ele>631.72</ele>
        <time>2019-01-26T13:45:41Z</time>
      </trkpt>
      <trkpt lat="43.44645" lon="5.75626">
        <ele>630.28</ele>
        <time>2019-01-26T13:45:48Z</time>
      </trkpt>
      <trkpt lat="43.44647" lon="5.75626">
        <ele>630.28</ele>
        <time>2019-01-26T13:45:50Z</time>
      </trkpt>
      <trkpt lat="43.44648" lon="5.75627">
        <ele>629.8</ele>
        <time>2019-01-26T13:45:51Z</time>
      </trkpt>
      <trkpt lat="43.44649" lon="5.75627">
        <ele>629.8</ele>
        <time>2019-01-26T13:45:52Z</time>
      </trkpt>
      <trkpt lat="43.4465" lon="5.75627">
        <ele>629.8</ele>
        <time>2019-01-26T13:45:53Z</time>
      </trkpt>
      <trkpt lat="43.4465" lon="5.75626">
        <ele>629.8</ele>
        <time>2019-01-26T13:45:54Z</time>
      </trkpt>
      <trkpt lat="43.44651" lon="5.75625">
        <ele>629.8</ele>
        <time>2019-01-26T13:45:55Z</time>
      </trkpt>
      <trkpt lat="43.44657" lon="5.75615">
        <ele>629.8</ele>
        <time>2019-01-26T13:46:02Z</time>
      </trkpt>
      <trkpt lat="43.44658" lon="5.75615">
        <ele>629.8</ele>
        <time>2019-01-26T13:46:03Z</time>
      </trkpt>
      <trkpt lat="43.44665" lon="5.7561">
        <ele>631.24</ele>
        <time>2019-01-26T13:46:09Z</time>
      </trkpt>
      <trkpt lat="43.44676" lon="5.75603">
        <ele>632.2</ele>
        <time>2019-01-26T13:46:17Z</time>
      </trkpt>
      <trkpt lat="43.44679" lon="5.75601">
        <ele>632.2</ele>
        <time>2019-01-26T13:46:20Z</time>
      </trkpt>
      <trkpt lat="43.4468" lon="5.756">
        <ele>632.2</ele>
        <time>2019-01-26T13:46:21Z</time>
      </trkpt>
      <trkpt lat="43.44691" lon="5.75594">
        <ele>632.2</ele>
        <time>2019-01-26T13:46:30Z</time>
      </trkpt>
      <trkpt lat="43.447" lon="5.7559">
        <ele>630.76</ele>
        <time>2019-01-26T13:46:38Z</time>
      </trkpt>
      <trkpt lat="43.44701" lon="5.7559">
        <ele>630.76</ele>
        <time>2019-01-26T13:46:39Z</time>
      </trkpt>
      <trkpt lat="43.4471" lon="5.75585">
        <ele>629.32</ele>
        <time>2019-01-26T13:46:49Z</time>
      </trkpt>
      <trkpt lat="43.44712" lon="5.75585">
        <ele>628.84</ele>
        <time>2019-01-26T13:46:51Z</time>
      </trkpt>
      <trkpt lat="43.44714" lon="5.75585">
        <ele>628.36</ele>
        <time>2019-01-26T13:46:53Z</time>
      </trkpt>
      <trkpt lat="43.44721" lon="5.75583">
        <ele>627.88</ele>
        <time>2019-01-26T13:46:59Z</time>
      </trkpt>
      <trkpt lat="43.44724" lon="5.75582">
        <ele>627.4</ele>
        <time>2019-01-26T13:47:01Z</time>
      </trkpt>
      <trkpt lat="43.44726" lon="5.75582">
        <ele>627.4</ele>
        <time>2019-01-26T13:47:02Z</time>
      </trkpt>
      <trkpt lat="43.44727" lon="5.75581">
        <ele>627.4</ele>
        <time>2019-01-26T13:47:03Z</time>
      </trkpt>
      <trkpt lat="43.44729" lon="5.75582">
        <ele>627.4</ele>
        <time>2019-01-26T13:47:04Z</time>
      </trkpt>
      <trkpt lat="43.44732" lon="5.75582">
        <ele>627.4</ele>
        <time>2019-01-26T13:47:05Z</time>
      </trkpt>
      <trkpt lat="43.44734" lon="5.75581">
        <ele>627.4</ele>
        <time>2019-01-26T13:47:06Z</time>
      </trkpt>
      <trkpt lat="43.44745" lon="5.75581">
        <ele>627.88</ele>
        <time>2019-01-26T13:47:10Z</time>
      </trkpt>
      <trkpt lat="43.44747" lon="5.75581">
        <ele>627.88</ele>
        <time>2019-01-26T13:47:11Z</time>
      </trkpt>
      <trkpt lat="43.4476" lon="5.7558">
        <ele>627.88</ele>
        <time>2019-01-26T13:47:19Z</time>
      </trkpt>
      <trkpt lat="43.44771" lon="5.75578">
        <ele>627.88</ele>
        <time>2019-01-26T13:47:27Z</time>
      </trkpt>
      <trkpt lat="43.44782" lon="5.75576">
        <ele>629.32</ele>
        <time>2019-01-26T13:47:36Z</time>
      </trkpt>
      <trkpt lat="43.44791" lon="5.75574">
        <ele>629.32</ele>
        <time>2019-01-26T13:47:43Z</time>
      </trkpt>
      <trkpt lat="43.44805" lon="5.7557">
        <ele>629.32</ele>
        <time>2019-01-26T13:47:52Z</time>
      </trkpt>
      <trkpt lat="43.44815" lon="5.75569">
        <ele>629.32</ele>
        <time>2019-01-26T13:48:00Z</time>
      </trkpt>
      <trkpt lat="43.44819" lon="5.7556">
        <ele>629.32</ele>
        <time>2019-01-26T13:48:07Z</time>
      </trkpt>
      <trkpt lat="43.44821" lon="5.75557">
        <ele>629.32</ele>
        <time>2019-01-26T13:48:13Z</time>
      </trkpt>
      <trkpt lat="43.44823" lon="5.75558">
        <ele>629.32</ele>
        <time>2019-01-26T13:48:15Z</time>
      </trkpt>
      <trkpt lat="43.44826" lon="5.75563">
        <ele>629.32</ele>
        <time>2019-01-26T13:48:21Z</time>
      </trkpt>
      <trkpt lat="43.44827" lon="5.75563">
        <ele>628.36</ele>
        <time>2019-01-26T13:48:35Z</time>
      </trkpt>
      <trkpt lat="43.44826" lon="5.75564">
        <ele>628.36</ele>
        <time>2019-01-26T13:48:49Z</time>
      </trkpt>
      <trkpt lat="43.44827" lon="5.75566">
        <ele>628.36</ele>
        <time>2019-01-26T13:49:06Z</time>
      </trkpt>
      <trkpt lat="43.44825" lon="5.75565">
        <ele>628.36</ele>
        <time>2019-01-26T13:49:24Z</time>
      </trkpt>
      <trkpt lat="43.44824" lon="5.75567">
        <ele>628.36</ele>
        <time>2019-01-26T13:49:27Z</time>
      </trkpt>
      <trkpt lat="43.44824" lon="5.75568">
        <ele>628.36</ele>
        <time>2019-01-26T13:49:28Z</time>
      </trkpt>
      <trkpt lat="43.44817" lon="5.75574">
        <ele>629.32</ele>
        <time>2019-01-26T13:49:36Z</time>
      </trkpt>
      <trkpt lat="43.4481" lon="5.75579">
        <ele>629.8</ele>
        <time>2019-01-26T13:49:45Z</time>
      </trkpt>
      <trkpt lat="43.44809" lon="5.75578">
        <ele>629.8</ele>
        <time>2019-01-26T13:49:54Z</time>
      </trkpt>
      <trkpt lat="43.44808" lon="5.7558">
        <ele>629.8</ele>
        <time>2019-01-26T13:50:03Z</time>
      </trkpt>
      <trkpt lat="43.44808" lon="5.75577">
        <ele>629.8</ele>
        <time>2019-01-26T13:50:14Z</time>
      </trkpt>
      <trkpt lat="43.44807" lon="5.75575">
        <ele>629.8</ele>
        <time>2019-01-26T13:50:25Z</time>
      </trkpt>
      <trkpt lat="43.4481" lon="5.75573">
        <ele>629.8</ele>
        <time>2019-01-26T13:50:32Z</time>
      </trkpt>
      <trkpt lat="43.44812" lon="5.75571">
        <ele>629.8</ele>
        <time>2019-01-26T13:50:33Z</time>
      </trkpt>
      <trkpt lat="43.44813" lon="5.75571">
        <ele>629.8</ele>
        <time>2019-01-26T13:50:34Z</time>
      </trkpt>
      <trkpt lat="43.44814" lon="5.75569">
        <ele>629.8</ele>
        <time>2019-01-26T13:50:35Z</time>
      </trkpt>
      <trkpt lat="43.44815" lon="5.75567">
        <ele>629.8</ele>
        <time>2019-01-26T13:50:36Z</time>
      </trkpt>
      <trkpt lat="43.44816" lon="5.75565">
        <ele>629.8</ele>
        <time>2019-01-26T13:50:37Z</time>
      </trkpt>
      <trkpt lat="43.44817" lon="5.75563">
        <ele>629.8</ele>
        <time>2019-01-26T13:50:38Z</time>
      </trkpt>
      <trkpt lat="43.44819" lon="5.75561">
        <ele>629.8</ele>
        <time>2019-01-26T13:50:39Z</time>
      </trkpt>
      <trkpt lat="43.4482" lon="5.75559">
        <ele>629.8</ele>
        <time>2019-01-26T13:50:40Z</time>
      </trkpt>
      <trkpt lat="43.44821" lon="5.75557">
        <ele>629.8</ele>
        <time>2019-01-26T13:50:41Z</time>
      </trkpt>
      <trkpt lat="43.44822" lon="5.75555">
        <ele>629.8</ele>
        <time>2019-01-26T13:50:42Z</time>
      </trkpt>
      <trkpt lat="43.44822" lon="5.75547">
        <ele>629.8</ele>
        <time>2019-01-26T13:50:48Z</time>
      </trkpt>
      <trkpt lat="43.44823" lon="5.75539">
        <ele>630.76</ele>
        <time>2019-01-26T13:50:57Z</time>
      </trkpt>
      <trkpt lat="43.44823" lon="5.75539">
        <ele>631.72</ele>
        <time>2019-01-26T13:51:11Z</time>
      </trkpt>
      <trkpt lat="43.44824" lon="5.7554">
        <ele>631.72</ele>
        <time>2019-01-26T13:51:21Z</time>
      </trkpt>
      <trkpt lat="43.44825" lon="5.75541">
        <ele>631.72</ele>
        <time>2019-01-26T13:51:37Z</time>
      </trkpt>
      <trkpt lat="43.44824" lon="5.75539">
        <ele>631.72</ele>
        <time>2019-01-26T13:51:49Z</time>
      </trkpt>
      <trkpt lat="43.44824" lon="5.75544">
        <ele>631.72</ele>
        <time>2019-01-26T13:51:59Z</time>
      </trkpt>
      <trkpt lat="43.44824" lon="5.75545">
        <ele>630.28</ele>
        <time>2019-01-26T13:52:06Z</time>
      </trkpt>
      <trkpt lat="43.44825" lon="5.75545">
        <ele>630.28</ele>
        <time>2019-01-26T13:52:09Z</time>
      </trkpt>
      <trkpt lat="43.44825" lon="5.75536">
        <ele>630.28</ele>
        <time>2019-01-26T13:52:16Z</time>
      </trkpt>
      <trkpt lat="43.44825" lon="5.7553">
        <ele>631.72</ele>
        <time>2019-01-26T13:52:20Z</time>
      </trkpt>
      <trkpt lat="43.44824" lon="5.75519">
        <ele>632.68</ele>
        <time>2019-01-26T13:52:26Z</time>
      </trkpt>
      <trkpt lat="43.44821" lon="5.75517">
        <ele>634.61</ele>
        <time>2019-01-26T13:52:31Z</time>
      </trkpt>
      <trkpt lat="43.44816" lon="5.75512">
        <ele>635.57</ele>
        <time>2019-01-26T13:52:37Z</time>
      </trkpt>
      <trkpt lat="43.44813" lon="5.75512">
        <ele>636.05</ele>
        <time>2019-01-26T13:52:43Z</time>
      </trkpt>
      <trkpt lat="43.44813" lon="5.75509">
        <ele>636.05</ele>
        <time>2019-01-26T13:52:49Z</time>
      </trkpt>
      <trkpt lat="43.44813" lon="5.75509">
        <ele>636.53</ele>
        <time>2019-01-26T13:52:50Z</time>
      </trkpt>
      <trkpt lat="43.44816" lon="5.7551">
        <ele>636.05</ele>
        <time>2019-01-26T13:52:54Z</time>
      </trkpt>
      <trkpt lat="43.4482" lon="5.75515">
        <ele>634.61</ele>
        <time>2019-01-26T13:53:00Z</time>
      </trkpt>
      <trkpt lat="43.44822" lon="5.75516">
        <ele>632.68</ele>
        <time>2019-01-26T13:53:06Z</time>
      </trkpt>
      <trkpt lat="43.4482" lon="5.75527">
        <ele>632.2</ele>
        <time>2019-01-26T13:53:11Z</time>
      </trkpt>
      <trkpt lat="43.4482" lon="5.75542">
        <ele>630.28</ele>
        <time>2019-01-26T13:53:18Z</time>
      </trkpt>
      <trkpt lat="43.44819" lon="5.75549">
        <ele>630.28</ele>
        <time>2019-01-26T13:53:24Z</time>
      </trkpt>
      <trkpt lat="43.44819" lon="5.7556">
        <ele>629.32</ele>
        <time>2019-01-26T13:53:32Z</time>
      </trkpt>
      <trkpt lat="43.44812" lon="5.75575">
        <ele>629.32</ele>
        <time>2019-01-26T13:53:39Z</time>
      </trkpt>
      <trkpt lat="43.4481" lon="5.75578">
        <ele>629.32</ele>
        <time>2019-01-26T13:53:44Z</time>
      </trkpt>
      <trkpt lat="43.44809" lon="5.75578">
        <ele>629.32</ele>
        <time>2019-01-26T13:53:45Z</time>
      </trkpt>
      <trkpt lat="43.44808" lon="5.75579">
        <ele>629.32</ele>
        <time>2019-01-26T13:53:46Z</time>
      </trkpt>
      <trkpt lat="43.44807" lon="5.7558">
        <ele>629.32</ele>
        <time>2019-01-26T13:53:47Z</time>
      </trkpt>
      <trkpt lat="43.44806" lon="5.7558">
        <ele>629.32</ele>
        <time>2019-01-26T13:53:48Z</time>
      </trkpt>
      <trkpt lat="43.44804" lon="5.75582">
        <ele>629.32</ele>
        <time>2019-01-26T13:53:50Z</time>
      </trkpt>
      <trkpt lat="43.44802" lon="5.75582">
        <ele>629.32</ele>
        <time>2019-01-26T13:53:51Z</time>
      </trkpt>
      <trkpt lat="43.44786" lon="5.75583">
        <ele>629.32</ele>
        <time>2019-01-26T13:54:00Z</time>
      </trkpt>
      <trkpt lat="43.44771" lon="5.75585">
        <ele>629.32</ele>
        <time>2019-01-26T13:54:09Z</time>
      </trkpt>
      <trkpt lat="43.44765" lon="5.75585">
        <ele>628.84</ele>
        <time>2019-01-26T13:54:16Z</time>
      </trkpt>
      <trkpt lat="43.44751" lon="5.75585">
        <ele>628.36</ele>
        <time>2019-01-26T13:54:26Z</time>
      </trkpt>
      <trkpt lat="43.4474" lon="5.75587">
        <ele>627.88</ele>
        <time>2019-01-26T13:54:34Z</time>
      </trkpt>
      <trkpt lat="43.4473" lon="5.75589">
        <ele>628.36</ele>
        <time>2019-01-26T13:54:42Z</time>
      </trkpt>
      <trkpt lat="43.4473" lon="5.75589">
        <ele>628.36</ele>
        <time>2019-01-26T13:54:50Z</time>
      </trkpt>
      <trkpt lat="43.44727" lon="5.75585">
        <ele>628.36</ele>
        <time>2019-01-26T13:54:56Z</time>
      </trkpt>
      <trkpt lat="43.44727" lon="5.75585">
        <ele>627.88</ele>
        <time>2019-01-26T13:55:06Z</time>
      </trkpt>
      <trkpt lat="43.44729" lon="5.75586">
        <ele>627.88</ele>
        <time>2019-01-26T13:55:19Z</time>
      </trkpt>
      <trkpt lat="43.44729" lon="5.75589">
        <ele>627.88</ele>
        <time>2019-01-26T13:55:39Z</time>
      </trkpt>
      <trkpt lat="43.4473" lon="5.75589">
        <ele>628.36</ele>
        <time>2019-01-26T13:55:53Z</time>
      </trkpt>
      <trkpt lat="43.4473" lon="5.7559">
        <ele>628.36</ele>
        <time>2019-01-26T13:56:05Z</time>
      </trkpt>
      <trkpt lat="43.44729" lon="5.75591">
        <ele>628.36</ele>
        <time>2019-01-26T13:56:18Z</time>
      </trkpt>
      <trkpt lat="43.4473" lon="5.75586">
        <ele>628.36</ele>
        <time>2019-01-26T13:56:37Z</time>
      </trkpt>
      <trkpt lat="43.4473" lon="5.75586">
        <ele>629.32</ele>
        <time>2019-01-26T13:56:47Z</time>
      </trkpt>
      <trkpt lat="43.4473" lon="5.75588">
        <ele>629.32</ele>
        <time>2019-01-26T13:57:03Z</time>
      </trkpt>
      <trkpt lat="43.44728" lon="5.75587">
        <ele>629.32</ele>
        <time>2019-01-26T13:57:21Z</time>
      </trkpt>
      <trkpt lat="43.44725" lon="5.75598">
        <ele>629.8</ele>
        <time>2019-01-26T13:57:43Z</time>
      </trkpt>
      <trkpt lat="43.44726" lon="5.75594">
        <ele>629.8</ele>
        <time>2019-01-26T13:58:06Z</time>
      </trkpt>
      <trkpt lat="43.44726" lon="5.75592">
        <ele>629.8</ele>
        <time>2019-01-26T13:58:20Z</time>
      </trkpt>
      <trkpt lat="43.44729" lon="5.75584">
        <ele>629.8</ele>
        <time>2019-01-26T13:58:36Z</time>
      </trkpt>
      <trkpt lat="43.44728" lon="5.75583">
        <ele>629.8</ele>
        <time>2019-01-26T13:58:58Z</time>
      </trkpt>
      <trkpt lat="43.44728" lon="5.75587">
        <ele>629.8</ele>
        <time>2019-01-26T13:59:06Z</time>
      </trkpt>
      <trkpt lat="43.44726" lon="5.7559">
        <ele>629.8</ele>
        <time>2019-01-26T13:59:24Z</time>
      </trkpt>
      <trkpt lat="43.44728" lon="5.75589">
        <ele>629.8</ele>
        <time>2019-01-26T13:59:39Z</time>
      </trkpt>
      <trkpt lat="43.44729" lon="5.75588">
        <ele>629.8</ele>
        <time>2019-01-26T13:59:55Z</time>
      </trkpt>
      <trkpt lat="43.44727" lon="5.75592">
        <ele>629.8</ele>
        <time>2019-01-26T14:00:09Z</time>
      </trkpt>
      <trkpt lat="43.44726" lon="5.75591">
        <ele>629.8</ele>
        <time>2019-01-26T14:00:27Z</time>
      </trkpt>
      <trkpt lat="43.44727" lon="5.75588">
        <ele>629.8</ele>
        <time>2019-01-26T14:00:39Z</time>
      </trkpt>
      <trkpt lat="43.44724" lon="5.7558">
        <ele>628.36</ele>
        <time>2019-01-26T14:00:47Z</time>
      </trkpt>
      <trkpt lat="43.44727" lon="5.75573">
        <ele>626.92</ele>
        <time>2019-01-26T14:00:53Z</time>
      </trkpt>
      <trkpt lat="43.4473" lon="5.75568">
        <ele>625.47</ele>
        <time>2019-01-26T14:00:58Z</time>
      </trkpt>
      <trkpt lat="43.44733" lon="5.75559">
        <ele>624.51</ele>
        <time>2019-01-26T14:01:06Z</time>
      </trkpt>
      <trkpt lat="43.44732" lon="5.75554">
        <ele>623.55</ele>
        <time>2019-01-26T14:01:10Z</time>
      </trkpt>
      <trkpt lat="43.4473" lon="5.75546">
        <ele>622.59</ele>
        <time>2019-01-26T14:01:16Z</time>
      </trkpt>
      <trkpt lat="43.44731" lon="5.75539">
        <ele>621.15</ele>
        <time>2019-01-26T14:01:22Z</time>
      </trkpt>
      <trkpt lat="43.44727" lon="5.75535">
        <ele>620.19</ele>
        <time>2019-01-26T14:01:29Z</time>
      </trkpt>
      <trkpt lat="43.44719" lon="5.75528">
        <ele>619.23</ele>
        <time>2019-01-26T14:01:39Z</time>
      </trkpt>
      <trkpt lat="43.44714" lon="5.75524">
        <ele>618.75</ele>
        <time>2019-01-26T14:01:48Z</time>
      </trkpt>
      <trkpt lat="43.44708" lon="5.75521">
        <ele>617.78</ele>
        <time>2019-01-26T14:01:55Z</time>
      </trkpt>
      <trkpt lat="43.44702" lon="5.75521">
        <ele>617.3</ele>
        <time>2019-01-26T14:02:01Z</time>
      </trkpt>
      <trkpt lat="43.44696" lon="5.75526">
        <ele>615.86</ele>
        <time>2019-01-26T14:02:08Z</time>
      </trkpt>
      <trkpt lat="43.44694" lon="5.75527">
        <ele>615.86</ele>
        <time>2019-01-26T14:02:11Z</time>
      </trkpt>
      <trkpt lat="43.44692" lon="5.75527">
        <ele>615.86</ele>
        <time>2019-01-26T14:02:12Z</time>
      </trkpt>
      <trkpt lat="43.44685" lon="5.75528">
        <ele>614.9</ele>
        <time>2019-01-26T14:02:19Z</time>
      </trkpt>
      <trkpt lat="43.44675" lon="5.75528">
        <ele>613.94</ele>
        <time>2019-01-26T14:02:28Z</time>
      </trkpt>
      <trkpt lat="43.4467" lon="5.75527">
        <ele>611.54</ele>
        <time>2019-01-26T14:02:34Z</time>
      </trkpt>
      <trkpt lat="43.44665" lon="5.75529">
        <ele>610.57</ele>
        <time>2019-01-26T14:02:40Z</time>
      </trkpt>
      <trkpt lat="43.44655" lon="5.7553">
        <ele>609.61</ele>
        <time>2019-01-26T14:02:48Z</time>
      </trkpt>
      <trkpt lat="43.44646" lon="5.75529">
        <ele>608.65</ele>
        <time>2019-01-26T14:02:54Z</time>
      </trkpt>
      <trkpt lat="43.44635" lon="5.75531">
        <ele>607.69</ele>
        <time>2019-01-26T14:03:01Z</time>
      </trkpt>
      <trkpt lat="43.44628" lon="5.75532">
        <ele>606.73</ele>
        <time>2019-01-26T14:03:07Z</time>
      </trkpt>
      <trkpt lat="43.44623" lon="5.75533">
        <ele>605.77</ele>
        <time>2019-01-26T14:03:15Z</time>
      </trkpt>
      <trkpt lat="43.44625" lon="5.7553">
        <ele>605.77</ele>
        <time>2019-01-26T14:03:28Z</time>
      </trkpt>
      <trkpt lat="43.44625" lon="5.75529">
        <ele>605.77</ele>
        <time>2019-01-26T14:03:42Z</time>
      </trkpt>
      <trkpt lat="43.44621" lon="5.75531">
        <ele>605.29</ele>
        <time>2019-01-26T14:03:50Z</time>
      </trkpt>
      <trkpt lat="43.44611" lon="5.75533">
        <ele>602.88</ele>
        <time>2019-01-26T14:03:59Z</time>
      </trkpt>
      <trkpt lat="43.44604" lon="5.7553">
        <ele>600.96</ele>
        <time>2019-01-26T14:04:08Z</time>
      </trkpt>
      <trkpt lat="43.44602" lon="5.7553">
        <ele>600.96</ele>
        <time>2019-01-26T14:04:09Z</time>
      </trkpt>
      <trkpt lat="43.44601" lon="5.7553">
        <ele>600.96</ele>
        <time>2019-01-26T14:04:10Z</time>
      </trkpt>
      <trkpt lat="43.44599" lon="5.75529">
        <ele>600</ele>
        <time>2019-01-26T14:04:11Z</time>
      </trkpt>
      <trkpt lat="43.44598" lon="5.75529">
        <ele>600</ele>
        <time>2019-01-26T14:04:12Z</time>
      </trkpt>
      <trkpt lat="43.44592" lon="5.75524">
        <ele>599.04</ele>
        <time>2019-01-26T14:04:20Z</time>
      </trkpt>
      <trkpt lat="43.44585" lon="5.75523">
        <ele>598.08</ele>
        <time>2019-01-26T14:04:28Z</time>
      </trkpt>
      <trkpt lat="43.44582" lon="5.75524">
        <ele>597.6</ele>
        <time>2019-01-26T14:04:32Z</time>
      </trkpt>
      <trkpt lat="43.44581" lon="5.75525">
        <ele>597.12</ele>
        <time>2019-01-26T14:04:33Z</time>
      </trkpt>
      <trkpt lat="43.44571" lon="5.75531">
        <ele>596.15</ele>
        <time>2019-01-26T14:04:42Z</time>
      </trkpt>
      <trkpt lat="43.44563" lon="5.7553">
        <ele>595.67</ele>
        <time>2019-01-26T14:04:50Z</time>
      </trkpt>
      <trkpt lat="43.44561" lon="5.75529">
        <ele>595.19</ele>
        <time>2019-01-26T14:04:51Z</time>
      </trkpt>
      <trkpt lat="43.44557" lon="5.75527">
        <ele>594.23</ele>
        <time>2019-01-26T14:04:55Z</time>
      </trkpt>
      <trkpt lat="43.44551" lon="5.75525">
        <ele>592.79</ele>
        <time>2019-01-26T14:05:02Z</time>
      </trkpt>
      <trkpt lat="43.4455" lon="5.75525">
        <ele>592.79</ele>
        <time>2019-01-26T14:05:03Z</time>
      </trkpt>
      <trkpt lat="43.44543" lon="5.75523">
        <ele>590.87</ele>
        <time>2019-01-26T14:05:10Z</time>
      </trkpt>
      <trkpt lat="43.44541" lon="5.75522">
        <ele>590.87</ele>
        <time>2019-01-26T14:05:12Z</time>
      </trkpt>
      <trkpt lat="43.44538" lon="5.75517">
        <ele>590.39</ele>
        <time>2019-01-26T14:05:17Z</time>
      </trkpt>
      <trkpt lat="43.44529" lon="5.75508">
        <ele>589.43</ele>
        <time>2019-01-26T14:05:25Z</time>
      </trkpt>
      <trkpt lat="43.44524" lon="5.75498">
        <ele>588.95</ele>
        <time>2019-01-26T14:05:31Z</time>
      </trkpt>
      <trkpt lat="43.44517" lon="5.75491">
        <ele>587.98</ele>
        <time>2019-01-26T14:05:38Z</time>
      </trkpt>
      <trkpt lat="43.44509" lon="5.75481">
        <ele>587.5</ele>
        <time>2019-01-26T14:05:47Z</time>
      </trkpt>
      <trkpt lat="43.44506" lon="5.75468">
        <ele>587.5</ele>
        <time>2019-01-26T14:05:54Z</time>
      </trkpt>
      <trkpt lat="43.44504" lon="5.75465">
        <ele>587.5</ele>
        <time>2019-01-26T14:05:55Z</time>
      </trkpt>
      <trkpt lat="43.44503" lon="5.75463">
        <ele>587.5</ele>
        <time>2019-01-26T14:05:56Z</time>
      </trkpt>
      <trkpt lat="43.44502" lon="5.75461">
        <ele>587.5</ele>
        <time>2019-01-26T14:05:57Z</time>
      </trkpt>
      <trkpt lat="43.445" lon="5.75459">
        <ele>587.5</ele>
        <time>2019-01-26T14:05:58Z</time>
      </trkpt>
      <trkpt lat="43.445" lon="5.75456">
        <ele>587.5</ele>
        <time>2019-01-26T14:05:59Z</time>
      </trkpt>
      <trkpt lat="43.44498" lon="5.75454">
        <ele>587.5</ele>
        <time>2019-01-26T14:06:00Z</time>
      </trkpt>
      <trkpt lat="43.44498" lon="5.75452">
        <ele>587.5</ele>
        <time>2019-01-26T14:06:01Z</time>
      </trkpt>
      <trkpt lat="43.44497" lon="5.75451">
        <ele>587.5</ele>
        <time>2019-01-26T14:06:02Z</time>
      </trkpt>
      <trkpt lat="43.44496" lon="5.75449">
        <ele>587.5</ele>
        <time>2019-01-26T14:06:03Z</time>
      </trkpt>
      <trkpt lat="43.44495" lon="5.75447">
        <ele>587.5</ele>
        <time>2019-01-26T14:06:04Z</time>
      </trkpt>
      <trkpt lat="43.44494" lon="5.75445">
        <ele>587.5</ele>
        <time>2019-01-26T14:06:05Z</time>
      </trkpt>
      <trkpt lat="43.44488" lon="5.75435">
        <ele>587.5</ele>
        <time>2019-01-26T14:06:11Z</time>
      </trkpt>
      <trkpt lat="43.44487" lon="5.75433">
        <ele>587.5</ele>
        <time>2019-01-26T14:06:12Z</time>
      </trkpt>
      <trkpt lat="43.44487" lon="5.75432">
        <ele>587.5</ele>
        <time>2019-01-26T14:06:13Z</time>
      </trkpt>
      <trkpt lat="43.44486" lon="5.75431">
        <ele>587.5</ele>
        <time>2019-01-26T14:06:14Z</time>
      </trkpt>
      <trkpt lat="43.44485" lon="5.75429">
        <ele>586.54</ele>
        <time>2019-01-26T14:06:15Z</time>
      </trkpt>
      <trkpt lat="43.44486" lon="5.75427">
        <ele>586.54</ele>
        <time>2019-01-26T14:06:17Z</time>
      </trkpt>
      <trkpt lat="43.44486" lon="5.75424">
        <ele>586.06</ele>
        <time>2019-01-26T14:06:18Z</time>
      </trkpt>
      <trkpt lat="43.44485" lon="5.75422">
        <ele>586.06</ele>
        <time>2019-01-26T14:06:19Z</time>
      </trkpt>
      <trkpt lat="43.44484" lon="5.7542">
        <ele>585.58</ele>
        <time>2019-01-26T14:06:20Z</time>
      </trkpt>
      <trkpt lat="43.44484" lon="5.75418">
        <ele>585.58</ele>
        <time>2019-01-26T14:06:21Z</time>
      </trkpt>
      <trkpt lat="43.44483" lon="5.75417">
        <ele>585.58</ele>
        <time>2019-01-26T14:06:22Z</time>
      </trkpt>
      <trkpt lat="43.44482" lon="5.75416">
        <ele>585.1</ele>
        <time>2019-01-26T14:06:23Z</time>
      </trkpt>
      <trkpt lat="43.4448" lon="5.75415">
        <ele>585.1</ele>
        <time>2019-01-26T14:06:24Z</time>
      </trkpt>
      <trkpt lat="43.44479" lon="5.75414">
        <ele>585.1</ele>
        <time>2019-01-26T14:06:25Z</time>
      </trkpt>
      <trkpt lat="43.44478" lon="5.75413">
        <ele>585.1</ele>
        <time>2019-01-26T14:06:26Z</time>
      </trkpt>
      <trkpt lat="43.44477" lon="5.75413">
        <ele>584.62</ele>
        <time>2019-01-26T14:06:27Z</time>
      </trkpt>
      <trkpt lat="43.44476" lon="5.75412">
        <ele>584.62</ele>
        <time>2019-01-26T14:06:28Z</time>
      </trkpt>
      <trkpt lat="43.44474" lon="5.75412">
        <ele>584.62</ele>
        <time>2019-01-26T14:06:29Z</time>
      </trkpt>
      <trkpt lat="43.44473" lon="5.75411">
        <ele>584.14</ele>
        <time>2019-01-26T14:06:30Z</time>
      </trkpt>
      <trkpt lat="43.44472" lon="5.75411">
        <ele>584.14</ele>
        <time>2019-01-26T14:06:31Z</time>
      </trkpt>
      <trkpt lat="43.44471" lon="5.75411">
        <ele>584.14</ele>
        <time>2019-01-26T14:06:32Z</time>
      </trkpt>
      <trkpt lat="43.4447" lon="5.7541">
        <ele>584.14</ele>
        <time>2019-01-26T14:06:33Z</time>
      </trkpt>
      <trkpt lat="43.44468" lon="5.75408">
        <ele>583.66</ele>
        <time>2019-01-26T14:06:35Z</time>
      </trkpt>
      <trkpt lat="43.44466" lon="5.75406">
        <ele>582.7</ele>
        <time>2019-01-26T14:06:38Z</time>
      </trkpt>
      <trkpt lat="43.44458" lon="5.75405">
        <ele>581.25</ele>
        <time>2019-01-26T14:06:45Z</time>
      </trkpt>
      <trkpt lat="43.44452" lon="5.75405">
        <ele>579.81</ele>
        <time>2019-01-26T14:06:51Z</time>
      </trkpt>
      <trkpt lat="43.44442" lon="5.75401">
        <ele>577.89</ele>
        <time>2019-01-26T14:06:59Z</time>
      </trkpt>
      <trkpt lat="43.44431" lon="5.75399">
        <ele>575.97</ele>
        <time>2019-01-26T14:07:07Z</time>
      </trkpt>
      <trkpt lat="43.44423" lon="5.75398">
        <ele>575.49</ele>
        <time>2019-01-26T14:07:14Z</time>
      </trkpt>
      <trkpt lat="43.44415" lon="5.75396">
        <ele>573.56</ele>
        <time>2019-01-26T14:07:20Z</time>
      </trkpt>
      <trkpt lat="43.44414" lon="5.75396">
        <ele>573.56</ele>
        <time>2019-01-26T14:07:21Z</time>
      </trkpt>
      <trkpt lat="43.44404" lon="5.75392">
        <ele>572.12</ele>
        <time>2019-01-26T14:07:29Z</time>
      </trkpt>
      <trkpt lat="43.444" lon="5.75387">
        <ele>571.64</ele>
        <time>2019-01-26T14:07:33Z</time>
      </trkpt>
      <trkpt lat="43.44392" lon="5.75365">
        <ele>570.68</ele>
        <time>2019-01-26T14:07:45Z</time>
      </trkpt>
      <trkpt lat="43.44387" lon="5.75357">
        <ele>569.24</ele>
        <time>2019-01-26T14:07:51Z</time>
      </trkpt>
      <trkpt lat="43.4438" lon="5.75345">
        <ele>567.32</ele>
        <time>2019-01-26T14:08:00Z</time>
      </trkpt>
      <trkpt lat="43.44376" lon="5.75337">
        <ele>565.39</ele>
        <time>2019-01-26T14:08:07Z</time>
      </trkpt>
      <trkpt lat="43.4437" lon="5.75333">
        <ele>563.95</ele>
        <time>2019-01-26T14:08:15Z</time>
      </trkpt>
      <trkpt lat="43.44366" lon="5.75329">
        <ele>561.55</ele>
        <time>2019-01-26T14:08:21Z</time>
      </trkpt>
      <trkpt lat="43.4436" lon="5.75325">
        <ele>560.11</ele>
        <time>2019-01-26T14:08:29Z</time>
      </trkpt>
      <trkpt lat="43.44359" lon="5.75324">
        <ele>559.62</ele>
        <time>2019-01-26T14:08:30Z</time>
      </trkpt>
      <trkpt lat="43.44354" lon="5.75324">
        <ele>558.66</ele>
        <time>2019-01-26T14:08:34Z</time>
      </trkpt>
      <trkpt lat="43.4435" lon="5.75324">
        <ele>557.22</ele>
        <time>2019-01-26T14:08:39Z</time>
      </trkpt>
      <trkpt lat="43.44348" lon="5.75324">
        <ele>556.26</ele>
        <time>2019-01-26T14:08:42Z</time>
      </trkpt>
      <trkpt lat="43.44344" lon="5.75324">
        <ele>555.78</ele>
        <time>2019-01-26T14:08:45Z</time>
      </trkpt>
      <trkpt lat="43.4434" lon="5.75323">
        <ele>553.86</ele>
        <time>2019-01-26T14:08:50Z</time>
      </trkpt>
      <trkpt lat="43.4434" lon="5.75323">
        <ele>553.86</ele>
        <time>2019-01-26T14:08:51Z</time>
      </trkpt>
      <trkpt lat="43.44333" lon="5.75322">
        <ele>552.41</ele>
        <time>2019-01-26T14:08:56Z</time>
      </trkpt>
      <trkpt lat="43.44324" lon="5.7532">
        <ele>550.01</ele>
        <time>2019-01-26T14:09:04Z</time>
      </trkpt>
      <trkpt lat="43.44321" lon="5.7532">
        <ele>549.53</ele>
        <time>2019-01-26T14:09:07Z</time>
      </trkpt>
      <trkpt lat="43.44319" lon="5.7532">
        <ele>549.05</ele>
        <time>2019-01-26T14:09:09Z</time>
      </trkpt>
      <trkpt lat="43.44309" lon="5.75321">
        <ele>548.09</ele>
        <time>2019-01-26T14:09:16Z</time>
      </trkpt>
      <trkpt lat="43.44306" lon="5.75321">
        <ele>547.61</ele>
        <time>2019-01-26T14:09:19Z</time>
      </trkpt>
      <trkpt lat="43.44305" lon="5.75322">
        <ele>547.61</ele>
        <time>2019-01-26T14:09:20Z</time>
      </trkpt>
      <trkpt lat="43.44303" lon="5.75322">
        <ele>547.61</ele>
        <time>2019-01-26T14:09:21Z</time>
      </trkpt>
      <trkpt lat="43.44302" lon="5.75322">
        <ele>547.61</ele>
        <time>2019-01-26T14:09:22Z</time>
      </trkpt>
      <trkpt lat="43.443" lon="5.75322">
        <ele>547.61</ele>
        <time>2019-01-26T14:09:23Z</time>
      </trkpt>
      <trkpt lat="43.44298" lon="5.75321">
        <ele>547.13</ele>
        <time>2019-01-26T14:09:24Z</time>
      </trkpt>
      <trkpt lat="43.44297" lon="5.7532">
        <ele>547.13</ele>
        <time>2019-01-26T14:09:25Z</time>
      </trkpt>
      <trkpt lat="43.44296" lon="5.75316">
        <ele>546.17</ele>
        <time>2019-01-26T14:09:28Z</time>
      </trkpt>
      <trkpt lat="43.44295" lon="5.75315">
        <ele>546.17</ele>
        <time>2019-01-26T14:09:29Z</time>
      </trkpt>
      <trkpt lat="43.44293" lon="5.75314">
        <ele>546.17</ele>
        <time>2019-01-26T14:09:30Z</time>
      </trkpt>
      <trkpt lat="43.44291" lon="5.75309">
        <ele>545.2</ele>
        <time>2019-01-26T14:09:34Z</time>
      </trkpt>
      <trkpt lat="43.44289" lon="5.75308">
        <ele>544.24</ele>
        <time>2019-01-26T14:09:35Z</time>
      </trkpt>
      <trkpt lat="43.44288" lon="5.75304">
        <ele>544.24</ele>
        <time>2019-01-26T14:09:37Z</time>
      </trkpt>
      <trkpt lat="43.44288" lon="5.75301">
        <ele>543.76</ele>
        <time>2019-01-26T14:09:39Z</time>
      </trkpt>
      <trkpt lat="43.44291" lon="5.7529">
        <ele>541.84</ele>
        <time>2019-01-26T14:09:45Z</time>
      </trkpt>
      <trkpt lat="43.44291" lon="5.75289">
        <ele>541.84</ele>
        <time>2019-01-26T14:09:46Z</time>
      </trkpt>
      <trkpt lat="43.44294" lon="5.75283">
        <ele>540.4</ele>
        <time>2019-01-26T14:09:51Z</time>
      </trkpt>
      <trkpt lat="43.44295" lon="5.75274">
        <ele>539.44</ele>
        <time>2019-01-26T14:09:57Z</time>
      </trkpt>
      <trkpt lat="43.44295" lon="5.75272">
        <ele>538.96</ele>
        <time>2019-01-26T14:09:58Z</time>
      </trkpt>
      <trkpt lat="43.44297" lon="5.75266">
        <ele>537.99</ele>
        <time>2019-01-26T14:10:02Z</time>
      </trkpt>
      <trkpt lat="43.44301" lon="5.75254">
        <ele>537.03</ele>
        <time>2019-01-26T14:10:10Z</time>
      </trkpt>
      <trkpt lat="43.44303" lon="5.75251">
        <ele>536.55</ele>
        <time>2019-01-26T14:10:12Z</time>
      </trkpt>
      <trkpt lat="43.44306" lon="5.75248">
        <ele>535.59</ele>
        <time>2019-01-26T14:10:15Z</time>
      </trkpt>
      <trkpt lat="43.44308" lon="5.75248">
        <ele>535.59</ele>
        <time>2019-01-26T14:10:16Z</time>
      </trkpt>
      <trkpt lat="43.44309" lon="5.75249">
        <ele>535.11</ele>
        <time>2019-01-26T14:10:17Z</time>
      </trkpt>
      <trkpt lat="43.44314" lon="5.75245">
        <ele>533.67</ele>
        <time>2019-01-26T14:10:22Z</time>
      </trkpt>
      <trkpt lat="43.44317" lon="5.75237">
        <ele>532.23</ele>
        <time>2019-01-26T14:10:28Z</time>
      </trkpt>
      <trkpt lat="43.44317" lon="5.75237">
        <ele>532.23</ele>
        <time>2019-01-26T14:10:29Z</time>
      </trkpt>
      <trkpt lat="43.44319" lon="5.75231">
        <ele>531.27</ele>
        <time>2019-01-26T14:10:33Z</time>
      </trkpt>
      <trkpt lat="43.44319" lon="5.75229">
        <ele>530.79</ele>
        <time>2019-01-26T14:10:34Z</time>
      </trkpt>
      <trkpt lat="43.44327" lon="5.75222">
        <ele>529.34</ele>
        <time>2019-01-26T14:10:41Z</time>
      </trkpt>
      <trkpt lat="43.44328" lon="5.75221">
        <ele>529.34</ele>
        <time>2019-01-26T14:10:42Z</time>
      </trkpt>
      <trkpt lat="43.44329" lon="5.7522">
        <ele>529.34</ele>
        <time>2019-01-26T14:10:43Z</time>
      </trkpt>
      <trkpt lat="43.44331" lon="5.75219">
        <ele>528.86</ele>
        <time>2019-01-26T14:10:45Z</time>
      </trkpt>
      <trkpt lat="43.44332" lon="5.75218">
        <ele>528.86</ele>
        <time>2019-01-26T14:10:46Z</time>
      </trkpt>
      <trkpt lat="43.44332" lon="5.75217">
        <ele>528.86</ele>
        <time>2019-01-26T14:10:47Z</time>
      </trkpt>
      <trkpt lat="43.44333" lon="5.75216">
        <ele>528.38</ele>
        <time>2019-01-26T14:10:48Z</time>
      </trkpt>
      <trkpt lat="43.44334" lon="5.75215">
        <ele>528.38</ele>
        <time>2019-01-26T14:10:49Z</time>
      </trkpt>
      <trkpt lat="43.44335" lon="5.75213">
        <ele>527.9</ele>
        <time>2019-01-26T14:10:50Z</time>
      </trkpt>
      <trkpt lat="43.44339" lon="5.75208">
        <ele>526.94</ele>
        <time>2019-01-26T14:10:56Z</time>
      </trkpt>
      <trkpt lat="43.44343" lon="5.75204">
        <ele>524.54</ele>
        <time>2019-01-26T14:11:04Z</time>
      </trkpt>
      <trkpt lat="43.44346" lon="5.75203">
        <ele>524.06</ele>
        <time>2019-01-26T14:11:11Z</time>
      </trkpt>
      <trkpt lat="43.44349" lon="5.75199">
        <ele>522.61</ele>
        <time>2019-01-26T14:11:19Z</time>
      </trkpt>
      <trkpt lat="43.44355" lon="5.75198">
        <ele>521.65</ele>
        <time>2019-01-26T14:11:26Z</time>
      </trkpt>
      <trkpt lat="43.44359" lon="5.75196">
        <ele>520.69</ele>
        <time>2019-01-26T14:11:32Z</time>
      </trkpt>
      <trkpt lat="43.44367" lon="5.75194">
        <ele>519.25</ele>
        <time>2019-01-26T14:11:41Z</time>
      </trkpt>
      <trkpt lat="43.44374" lon="5.75192">
        <ele>517.33</ele>
        <time>2019-01-26T14:11:49Z</time>
      </trkpt>
      <trkpt lat="43.44379" lon="5.75189">
        <ele>516.37</ele>
        <time>2019-01-26T14:11:53Z</time>
      </trkpt>
      <trkpt lat="43.44381" lon="5.75188">
        <ele>515.88</ele>
        <time>2019-01-26T14:11:54Z</time>
      </trkpt>
      <trkpt lat="43.44383" lon="5.75186">
        <ele>515.88</ele>
        <time>2019-01-26T14:11:55Z</time>
      </trkpt>
      <trkpt lat="43.44384" lon="5.75184">
        <ele>515.4</ele>
        <time>2019-01-26T14:11:56Z</time>
      </trkpt>
      <trkpt lat="43.44393" lon="5.75178">
        <ele>514.44</ele>
        <time>2019-01-26T14:12:02Z</time>
      </trkpt>
      <trkpt lat="43.44394" lon="5.75177">
        <ele>513.96</ele>
        <time>2019-01-26T14:12:03Z</time>
      </trkpt>
      <trkpt lat="43.444" lon="5.75172">
        <ele>512.52</ele>
        <time>2019-01-26T14:12:09Z</time>
      </trkpt>
      <trkpt lat="43.44403" lon="5.75165">
        <ele>511.08</ele>
        <time>2019-01-26T14:12:14Z</time>
      </trkpt>
      <trkpt lat="43.44409" lon="5.75157">
        <ele>509.16</ele>
        <time>2019-01-26T14:12:21Z</time>
      </trkpt>
      <trkpt lat="43.44411" lon="5.75148">
        <ele>507.71</ele>
        <time>2019-01-26T14:12:28Z</time>
      </trkpt>
      <trkpt lat="43.44413" lon="5.75142">
        <ele>506.75</ele>
        <time>2019-01-26T14:12:32Z</time>
      </trkpt>
      <trkpt lat="43.44414" lon="5.75141">
        <ele>506.75</ele>
        <time>2019-01-26T14:12:33Z</time>
      </trkpt>
      <trkpt lat="43.44415" lon="5.75138">
        <ele>506.27</ele>
        <time>2019-01-26T14:12:35Z</time>
      </trkpt>
      <trkpt lat="43.44415" lon="5.75131">
        <ele>505.79</ele>
        <time>2019-01-26T14:12:41Z</time>
      </trkpt>
      <trkpt lat="43.44415" lon="5.75126">
        <ele>505.31</ele>
        <time>2019-01-26T14:12:44Z</time>
      </trkpt>
      <trkpt lat="43.44415" lon="5.75122">
        <ele>505.31</ele>
        <time>2019-01-26T14:12:47Z</time>
      </trkpt>
      <trkpt lat="43.44415" lon="5.75119">
        <ele>504.83</ele>
        <time>2019-01-26T14:12:49Z</time>
      </trkpt>
      <trkpt lat="43.44415" lon="5.75117">
        <ele>504.83</ele>
        <time>2019-01-26T14:12:50Z</time>
      </trkpt>
      <trkpt lat="43.44412" lon="5.7511">
        <ele>503.87</ele>
        <time>2019-01-26T14:12:58Z</time>
      </trkpt>
      <trkpt lat="43.44411" lon="5.75109">
        <ele>503.87</ele>
        <time>2019-01-26T14:12:59Z</time>
      </trkpt>
      <trkpt lat="43.4441" lon="5.75107">
        <ele>503.39</ele>
        <time>2019-01-26T14:13:00Z</time>
      </trkpt>
      <trkpt lat="43.4441" lon="5.75105">
        <ele>503.39</ele>
        <time>2019-01-26T14:13:01Z</time>
      </trkpt>
      <trkpt lat="43.44409" lon="5.75103">
        <ele>503.39</ele>
        <time>2019-01-26T14:13:02Z</time>
      </trkpt>
      <trkpt lat="43.44408" lon="5.75101">
        <ele>503.39</ele>
        <time>2019-01-26T14:13:03Z</time>
      </trkpt>
      <trkpt lat="43.44407" lon="5.75098">
        <ele>503.39</ele>
        <time>2019-01-26T14:13:04Z</time>
      </trkpt>
      <trkpt lat="43.44407" lon="5.75097">
        <ele>503.39</ele>
        <time>2019-01-26T14:13:05Z</time>
      </trkpt>
      <trkpt lat="43.44407" lon="5.75095">
        <ele>502.91</ele>
        <time>2019-01-26T14:13:06Z</time>
      </trkpt>
      <trkpt lat="43.44406" lon="5.75093">
        <ele>502.91</ele>
        <time>2019-01-26T14:13:07Z</time>
      </trkpt>
      <trkpt lat="43.44406" lon="5.75091">
        <ele>502.43</ele>
        <time>2019-01-26T14:13:08Z</time>
      </trkpt>
      <trkpt lat="43.44408" lon="5.75082">
        <ele>501.46</ele>
        <time>2019-01-26T14:13:14Z</time>
      </trkpt>
      <trkpt lat="43.44408" lon="5.75077">
        <ele>500.5</ele>
        <time>2019-01-26T14:13:18Z</time>
      </trkpt>
      <trkpt lat="43.44409" lon="5.7507">
        <ele>499.54</ele>
        <time>2019-01-26T14:13:24Z</time>
      </trkpt>
      <trkpt lat="43.44409" lon="5.75063">
        <ele>498.1</ele>
        <time>2019-01-26T14:13:29Z</time>
      </trkpt>
      <trkpt lat="43.44411" lon="5.75057">
        <ele>497.62</ele>
        <time>2019-01-26T14:13:34Z</time>
      </trkpt>
      <trkpt lat="43.44412" lon="5.75056">
        <ele>497.62</ele>
        <time>2019-01-26T14:13:35Z</time>
      </trkpt>
      <trkpt lat="43.44412" lon="5.75053">
        <ele>497.62</ele>
        <time>2019-01-26T14:13:37Z</time>
      </trkpt>
      <trkpt lat="43.44413" lon="5.75046">
        <ele>496.66</ele>
        <time>2019-01-26T14:13:43Z</time>
      </trkpt>
      <trkpt lat="43.44411" lon="5.7504">
        <ele>496.18</ele>
        <time>2019-01-26T14:13:46Z</time>
      </trkpt>
      <trkpt lat="43.44411" lon="5.75038">
        <ele>495.7</ele>
        <time>2019-01-26T14:13:47Z</time>
      </trkpt>
      <trkpt lat="43.44411" lon="5.75036">
        <ele>495.7</ele>
        <time>2019-01-26T14:13:48Z</time>
      </trkpt>
      <trkpt lat="43.44411" lon="5.75027">
        <ele>494.74</ele>
        <time>2019-01-26T14:13:55Z</time>
      </trkpt>
      <trkpt lat="43.44411" lon="5.75013">
        <ele>492.81</ele>
        <time>2019-01-26T14:14:04Z</time>
      </trkpt>
      <trkpt lat="43.44412" lon="5.75006">
        <ele>491.37</ele>
        <time>2019-01-26T14:14:10Z</time>
      </trkpt>
      <trkpt lat="43.44415" lon="5.75">
        <ele>490.89</ele>
        <time>2019-01-26T14:14:15Z</time>
      </trkpt>
      <trkpt lat="43.44415" lon="5.74998">
        <ele>490.89</ele>
        <time>2019-01-26T14:14:16Z</time>
      </trkpt>
      <trkpt lat="43.44415" lon="5.74993">
        <ele>489.93</ele>
        <time>2019-01-26T14:14:19Z</time>
      </trkpt>
      <trkpt lat="43.44415" lon="5.74991">
        <ele>489.93</ele>
        <time>2019-01-26T14:14:20Z</time>
      </trkpt>
      <trkpt lat="43.44415" lon="5.74989">
        <ele>489.93</ele>
        <time>2019-01-26T14:14:21Z</time>
      </trkpt>
      <trkpt lat="43.44415" lon="5.74987">
        <ele>489.93</ele>
        <time>2019-01-26T14:14:22Z</time>
      </trkpt>
      <trkpt lat="43.44416" lon="5.74985">
        <ele>489.45</ele>
        <time>2019-01-26T14:14:23Z</time>
      </trkpt>
      <trkpt lat="43.44415" lon="5.74983">
        <ele>489.45</ele>
        <time>2019-01-26T14:14:24Z</time>
      </trkpt>
      <trkpt lat="43.44414" lon="5.74981">
        <ele>489.45</ele>
        <time>2019-01-26T14:14:25Z</time>
      </trkpt>
      <trkpt lat="43.44413" lon="5.74979">
        <ele>489.45</ele>
        <time>2019-01-26T14:14:26Z</time>
      </trkpt>
      <trkpt lat="43.44414" lon="5.74975">
        <ele>488.49</ele>
        <time>2019-01-26T14:14:29Z</time>
      </trkpt>
      <trkpt lat="43.44416" lon="5.74969">
        <ele>488.01</ele>
        <time>2019-01-26T14:14:33Z</time>
      </trkpt>
      <trkpt lat="43.44417" lon="5.74965">
        <ele>487.53</ele>
        <time>2019-01-26T14:14:36Z</time>
      </trkpt>
      <trkpt lat="43.44417" lon="5.74958">
        <ele>486.56</ele>
        <time>2019-01-26T14:14:40Z</time>
      </trkpt>
      <trkpt lat="43.44417" lon="5.74956">
        <ele>486.08</ele>
        <time>2019-01-26T14:14:41Z</time>
      </trkpt>
      <trkpt lat="43.4442" lon="5.74948">
        <ele>485.12</ele>
        <time>2019-01-26T14:14:45Z</time>
      </trkpt>
      <trkpt lat="43.44421" lon="5.74939">
        <ele>484.64</ele>
        <time>2019-01-26T14:14:50Z</time>
      </trkpt>
      <trkpt lat="43.44421" lon="5.74937">
        <ele>484.64</ele>
        <time>2019-01-26T14:14:51Z</time>
      </trkpt>
      <trkpt lat="43.44421" lon="5.74936">
        <ele>483.68</ele>
        <time>2019-01-26T14:14:52Z</time>
      </trkpt>
      <trkpt lat="43.44421" lon="5.74933">
        <ele>483.68</ele>
        <time>2019-01-26T14:14:53Z</time>
      </trkpt>
      <trkpt lat="43.4442" lon="5.74932">
        <ele>483.68</ele>
        <time>2019-01-26T14:14:54Z</time>
      </trkpt>
      <trkpt lat="43.4442" lon="5.7493">
        <ele>483.68</ele>
        <time>2019-01-26T14:14:55Z</time>
      </trkpt>
      <trkpt lat="43.44424" lon="5.74924">
        <ele>482.24</ele>
        <time>2019-01-26T14:15:00Z</time>
      </trkpt>
      <trkpt lat="43.44426" lon="5.74923">
        <ele>482.24</ele>
        <time>2019-01-26T14:15:01Z</time>
      </trkpt>
      <trkpt lat="43.44433" lon="5.74918">
        <ele>481.28</ele>
        <time>2019-01-26T14:15:07Z</time>
      </trkpt>
      <trkpt lat="43.44438" lon="5.74909">
        <ele>479.35</ele>
        <time>2019-01-26T14:15:15Z</time>
      </trkpt>
      <trkpt lat="43.4444" lon="5.74906">
        <ele>478.87</ele>
        <time>2019-01-26T14:15:18Z</time>
      </trkpt>
      <trkpt lat="43.44442" lon="5.74906">
        <ele>478.39</ele>
        <time>2019-01-26T14:15:19Z</time>
      </trkpt>
      <trkpt lat="43.44444" lon="5.74904">
        <ele>478.39</ele>
        <time>2019-01-26T14:15:21Z</time>
      </trkpt>
      <trkpt lat="43.44446" lon="5.74903">
        <ele>477.91</ele>
        <time>2019-01-26T14:15:22Z</time>
      </trkpt>
      <trkpt lat="43.44446" lon="5.74895">
        <ele>476.47</ele>
        <time>2019-01-26T14:15:27Z</time>
      </trkpt>
      <trkpt lat="43.44447" lon="5.74892">
        <ele>475.99</ele>
        <time>2019-01-26T14:15:30Z</time>
      </trkpt>
      <trkpt lat="43.44448" lon="5.74891">
        <ele>475.51</ele>
        <time>2019-01-26T14:15:31Z</time>
      </trkpt>
      <trkpt lat="43.44449" lon="5.7489">
        <ele>475.51</ele>
        <time>2019-01-26T14:15:32Z</time>
      </trkpt>
      <trkpt lat="43.44449" lon="5.74889">
        <ele>475.51</ele>
        <time>2019-01-26T14:15:33Z</time>
      </trkpt>
      <trkpt lat="43.44449" lon="5.74885">
        <ele>475.03</ele>
        <time>2019-01-26T14:15:35Z</time>
      </trkpt>
      <trkpt lat="43.44447" lon="5.74877">
        <ele>474.07</ele>
        <time>2019-01-26T14:15:39Z</time>
      </trkpt>
      <trkpt lat="43.44446" lon="5.74871">
        <ele>473.11</ele>
        <time>2019-01-26T14:15:45Z</time>
      </trkpt>
      <trkpt lat="43.44447" lon="5.74865">
        <ele>472.14</ele>
        <time>2019-01-26T14:15:51Z</time>
      </trkpt>
      <trkpt lat="43.44446" lon="5.74861">
        <ele>471.66</ele>
        <time>2019-01-26T14:15:55Z</time>
      </trkpt>
      <trkpt lat="43.44445" lon="5.74859">
        <ele>471.66</ele>
        <time>2019-01-26T14:15:56Z</time>
      </trkpt>
      <trkpt lat="43.44444" lon="5.74855">
        <ele>470.7</ele>
        <time>2019-01-26T14:16:01Z</time>
      </trkpt>
      <trkpt lat="43.44442" lon="5.74853">
        <ele>470.22</ele>
        <time>2019-01-26T14:16:07Z</time>
      </trkpt>
      <trkpt lat="43.44443" lon="5.74856">
        <ele>470.22</ele>
        <time>2019-01-26T14:16:22Z</time>
      </trkpt>
      <trkpt lat="43.44441" lon="5.74851">
        <ele>470.22</ele>
        <time>2019-01-26T14:16:34Z</time>
      </trkpt>
      <trkpt lat="43.44441" lon="5.74851">
        <ele>470.22</ele>
        <time>2019-01-26T14:16:43Z</time>
      </trkpt>
      <trkpt lat="43.44439" lon="5.74851">
        <ele>470.22</ele>
        <time>2019-01-26T14:16:57Z</time>
      </trkpt>
      <trkpt lat="43.4444" lon="5.74851">
        <ele>470.22</ele>
        <time>2019-01-26T14:17:14Z</time>
      </trkpt>
      <trkpt lat="43.44441" lon="5.74853">
        <ele>470.22</ele>
        <time>2019-01-26T14:17:31Z</time>
      </trkpt>
      <trkpt lat="43.44441" lon="5.74851">
        <ele>470.22</ele>
        <time>2019-01-26T14:17:44Z</time>
      </trkpt>
      <trkpt lat="43.44441" lon="5.74848">
        <ele>470.7</ele>
        <time>2019-01-26T14:17:59Z</time>
      </trkpt>
      <trkpt lat="43.44444" lon="5.74849">
        <ele>470.7</ele>
        <time>2019-01-26T14:18:06Z</time>
      </trkpt>
      <trkpt lat="43.44443" lon="5.74854">
        <ele>470.7</ele>
        <time>2019-01-26T14:18:16Z</time>
      </trkpt>
      <trkpt lat="43.44446" lon="5.74855">
        <ele>470.7</ele>
        <time>2019-01-26T14:18:36Z</time>
      </trkpt>
      <trkpt lat="43.44449" lon="5.74852">
        <ele>470.7</ele>
        <time>2019-01-26T14:18:53Z</time>
      </trkpt>
      <trkpt lat="43.44446" lon="5.7485">
        <ele>470.7</ele>
        <time>2019-01-26T14:19:05Z</time>
      </trkpt>
      <trkpt lat="43.44446" lon="5.74845">
        <ele>470.22</ele>
        <time>2019-01-26T14:19:12Z</time>
      </trkpt>
      <trkpt lat="43.44448" lon="5.74841">
        <ele>469.26</ele>
        <time>2019-01-26T14:19:16Z</time>
      </trkpt>
      <trkpt lat="43.44451" lon="5.74833">
        <ele>468.3</ele>
        <time>2019-01-26T14:19:22Z</time>
      </trkpt>
      <trkpt lat="43.44452" lon="5.74828">
        <ele>467.82</ele>
        <time>2019-01-26T14:19:27Z</time>
      </trkpt>
      <trkpt lat="43.44453" lon="5.74824">
        <ele>467.34</ele>
        <time>2019-01-26T14:19:31Z</time>
      </trkpt>
      <trkpt lat="43.44453" lon="5.7482">
        <ele>466.86</ele>
        <time>2019-01-26T14:19:36Z</time>
      </trkpt>
      <trkpt lat="43.44454" lon="5.74817">
        <ele>466.38</ele>
        <time>2019-01-26T14:19:39Z</time>
      </trkpt>
      <trkpt lat="43.44455" lon="5.74816">
        <ele>466.38</ele>
        <time>2019-01-26T14:19:40Z</time>
      </trkpt>
      <trkpt lat="43.44458" lon="5.74811">
        <ele>465.42</ele>
        <time>2019-01-26T14:19:46Z</time>
      </trkpt>
      <trkpt lat="43.44462" lon="5.74806">
        <ele>464.45</ele>
        <time>2019-01-26T14:19:52Z</time>
      </trkpt>
      <trkpt lat="43.44465" lon="5.74803">
        <ele>464.45</ele>
        <time>2019-01-26T14:19:56Z</time>
      </trkpt>
      <trkpt lat="43.44472" lon="5.74798">
        <ele>463.01</ele>
        <time>2019-01-26T14:20:04Z</time>
      </trkpt>
      <trkpt lat="43.44472" lon="5.74788">
        <ele>462.05</ele>
        <time>2019-01-26T14:20:11Z</time>
      </trkpt>
      <trkpt lat="43.44469" lon="5.74781">
        <ele>461.09</ele>
        <time>2019-01-26T14:20:16Z</time>
      </trkpt>
      <trkpt lat="43.44466" lon="5.74774">
        <ele>460.61</ele>
        <time>2019-01-26T14:20:22Z</time>
      </trkpt>
      <trkpt lat="43.44464" lon="5.74766">
        <ele>460.13</ele>
        <time>2019-01-26T14:20:28Z</time>
      </trkpt>
      <trkpt lat="43.44463" lon="5.74761">
        <ele>459.65</ele>
        <time>2019-01-26T14:20:32Z</time>
      </trkpt>
      <trkpt lat="43.44463" lon="5.74756">
        <ele>459.17</ele>
        <time>2019-01-26T14:20:37Z</time>
      </trkpt>
      <trkpt lat="43.44462" lon="5.74751">
        <ele>458.21</ele>
        <time>2019-01-26T14:20:43Z</time>
      </trkpt>
      <trkpt lat="43.44465" lon="5.74749">
        <ele>457.72</ele>
        <time>2019-01-26T14:20:49Z</time>
      </trkpt>
      <trkpt lat="43.44469" lon="5.74747">
        <ele>456.76</ele>
        <time>2019-01-26T14:20:54Z</time>
      </trkpt>
      <trkpt lat="43.44472" lon="5.74741">
        <ele>455.8</ele>
        <time>2019-01-26T14:21:00Z</time>
      </trkpt>
      <trkpt lat="43.44474" lon="5.74738">
        <ele>455.32</ele>
        <time>2019-01-26T14:21:06Z</time>
      </trkpt>
      <trkpt lat="43.44474" lon="5.74731">
        <ele>453.88</ele>
        <time>2019-01-26T14:21:12Z</time>
      </trkpt>
      <trkpt lat="43.44475" lon="5.74731">
        <ele>453.88</ele>
        <time>2019-01-26T14:21:13Z</time>
      </trkpt>
      <trkpt lat="43.44477" lon="5.74731">
        <ele>453.88</ele>
        <time>2019-01-26T14:21:15Z</time>
      </trkpt>
      <trkpt lat="43.44478" lon="5.7473">
        <ele>453.4</ele>
        <time>2019-01-26T14:21:19Z</time>
      </trkpt>
      <trkpt lat="43.44479" lon="5.74727">
        <ele>452.92</ele>
        <time>2019-01-26T14:21:30Z</time>
      </trkpt>
      <trkpt lat="43.44478" lon="5.74727">
        <ele>451.96</ele>
        <time>2019-01-26T14:21:34Z</time>
      </trkpt>
      <trkpt lat="43.44475" lon="5.74727">
        <ele>451.96</ele>
        <time>2019-01-26T14:21:52Z</time>
      </trkpt>
      <trkpt lat="43.44473" lon="5.74728">
        <ele>451.96</ele>
        <time>2019-01-26T14:22:03Z</time>
      </trkpt>
      <trkpt lat="43.44469" lon="5.74723">
        <ele>451.96</ele>
        <time>2019-01-26T14:22:16Z</time>
      </trkpt>
      <trkpt lat="43.44469" lon="5.74724">
        <ele>451.96</ele>
        <time>2019-01-26T14:22:18Z</time>
      </trkpt>
      <trkpt lat="43.44469" lon="5.74728">
        <ele>453.4</ele>
        <time>2019-01-26T14:22:22Z</time>
      </trkpt>
      <trkpt lat="43.4447" lon="5.74731">
        <ele>453.4</ele>
        <time>2019-01-26T14:22:28Z</time>
      </trkpt>
      <trkpt lat="43.44471" lon="5.74733">
        <ele>454.36</ele>
        <time>2019-01-26T14:22:34Z</time>
      </trkpt>
      <trkpt lat="43.44472" lon="5.74732">
        <ele>454.84</ele>
        <time>2019-01-26T14:22:43Z</time>
      </trkpt>
      <trkpt lat="43.44473" lon="5.74731">
        <ele>454.84</ele>
        <time>2019-01-26T14:22:52Z</time>
      </trkpt>
      <trkpt lat="43.44474" lon="5.74732">
        <ele>454.84</ele>
        <time>2019-01-26T14:22:59Z</time>
      </trkpt>
      <trkpt lat="43.44471" lon="5.74729">
        <ele>454.84</ele>
        <time>2019-01-26T14:23:09Z</time>
      </trkpt>
      <trkpt lat="43.44471" lon="5.74729">
        <ele>454.84</ele>
        <time>2019-01-26T14:23:20Z</time>
      </trkpt>
      <trkpt lat="43.44474" lon="5.74731">
        <ele>454.84</ele>
        <time>2019-01-26T14:23:31Z</time>
      </trkpt>
      <trkpt lat="43.44476" lon="5.74733">
        <ele>454.84</ele>
        <time>2019-01-26T14:23:39Z</time>
      </trkpt>
      <trkpt lat="43.4447" lon="5.74727">
        <ele>454.84</ele>
        <time>2019-01-26T14:23:50Z</time>
      </trkpt>
      <trkpt lat="43.44466" lon="5.74724">
        <ele>454.84</ele>
        <time>2019-01-26T14:24:04Z</time>
      </trkpt>
      <trkpt lat="43.4446" lon="5.7472">
        <ele>454.84</ele>
        <time>2019-01-26T14:24:21Z</time>
      </trkpt>
      <trkpt lat="43.44463" lon="5.74723">
        <ele>454.84</ele>
        <time>2019-01-26T14:24:29Z</time>
      </trkpt>
      <trkpt lat="43.44473" lon="5.7473">
        <ele>454.36</ele>
        <time>2019-01-26T14:24:38Z</time>
      </trkpt>
      <trkpt lat="43.44476" lon="5.74733">
        <ele>454.36</ele>
        <time>2019-01-26T14:24:47Z</time>
      </trkpt>
      <trkpt lat="43.44476" lon="5.74732">
        <ele>454.36</ele>
        <time>2019-01-26T14:24:51Z</time>
      </trkpt>
      <trkpt lat="43.44475" lon="5.74732">
        <ele>454.36</ele>
        <time>2019-01-26T14:24:52Z</time>
      </trkpt>
      <trkpt lat="43.44474" lon="5.74731">
        <ele>454.36</ele>
        <time>2019-01-26T14:24:56Z</time>
      </trkpt>
      <trkpt lat="43.44473" lon="5.74727">
        <ele>452.92</ele>
        <time>2019-01-26T14:25:04Z</time>
      </trkpt>
      <trkpt lat="43.44477" lon="5.74724">
        <ele>452.44</ele>
        <time>2019-01-26T14:25:11Z</time>
      </trkpt>
      <trkpt lat="43.4448" lon="5.74719">
        <ele>451.48</ele>
        <time>2019-01-26T14:25:18Z</time>
      </trkpt>
      <trkpt lat="43.4448" lon="5.74718">
        <ele>451.48</ele>
        <time>2019-01-26T14:25:19Z</time>
      </trkpt>
      <trkpt lat="43.44483" lon="5.74715">
        <ele>450.03</ele>
        <time>2019-01-26T14:25:25Z</time>
      </trkpt>
      <trkpt lat="43.44488" lon="5.74711">
        <ele>449.55</ele>
        <time>2019-01-26T14:25:30Z</time>
      </trkpt>
      <trkpt lat="43.44494" lon="5.7471">
        <ele>449.07</ele>
        <time>2019-01-26T14:25:35Z</time>
      </trkpt>
      <trkpt lat="43.44499" lon="5.7471">
        <ele>448.11</ele>
        <time>2019-01-26T14:25:39Z</time>
      </trkpt>
      <trkpt lat="43.445" lon="5.74709">
        <ele>447.63</ele>
        <time>2019-01-26T14:25:40Z</time>
      </trkpt>
      <trkpt lat="43.44501" lon="5.74708">
        <ele>447.63</ele>
        <time>2019-01-26T14:25:41Z</time>
      </trkpt>
      <trkpt lat="43.44502" lon="5.74708">
        <ele>447.63</ele>
        <time>2019-01-26T14:25:42Z</time>
      </trkpt>
      <trkpt lat="43.44503" lon="5.74708">
        <ele>447.63</ele>
        <time>2019-01-26T14:25:43Z</time>
      </trkpt>
      <trkpt lat="43.44505" lon="5.74705">
        <ele>447.15</ele>
        <time>2019-01-26T14:25:48Z</time>
      </trkpt>
      <trkpt lat="43.44505" lon="5.74704">
        <ele>447.15</ele>
        <time>2019-01-26T14:25:49Z</time>
      </trkpt>
      <trkpt lat="43.44506" lon="5.74703">
        <ele>446.67</ele>
        <time>2019-01-26T14:25:50Z</time>
      </trkpt>
      <trkpt lat="43.44507" lon="5.74702">
        <ele>446.67</ele>
        <time>2019-01-26T14:25:51Z</time>
      </trkpt>
      <trkpt lat="43.44509" lon="5.74699">
        <ele>446.19</ele>
        <time>2019-01-26T14:25:54Z</time>
      </trkpt>
      <trkpt lat="43.4451" lon="5.74698">
        <ele>445.71</ele>
        <time>2019-01-26T14:25:55Z</time>
      </trkpt>
      <trkpt lat="43.44511" lon="5.74696">
        <ele>445.71</ele>
        <time>2019-01-26T14:25:56Z</time>
      </trkpt>
      <trkpt lat="43.44512" lon="5.74696">
        <ele>445.23</ele>
        <time>2019-01-26T14:25:57Z</time>
      </trkpt>
      <trkpt lat="43.44513" lon="5.74695">
        <ele>445.23</ele>
        <time>2019-01-26T14:25:58Z</time>
      </trkpt>
      <trkpt lat="43.44515" lon="5.74694">
        <ele>444.75</ele>
        <time>2019-01-26T14:26:01Z</time>
      </trkpt>
      <trkpt lat="43.44517" lon="5.74694">
        <ele>444.75</ele>
        <time>2019-01-26T14:26:02Z</time>
      </trkpt>
      <trkpt lat="43.44519" lon="5.74692">
        <ele>444.27</ele>
        <time>2019-01-26T14:26:04Z</time>
      </trkpt>
      <trkpt lat="43.44522" lon="5.74687">
        <ele>443.31</ele>
        <time>2019-01-26T14:26:10Z</time>
      </trkpt>
      <trkpt lat="43.44526" lon="5.74686">
        <ele>442.82</ele>
        <time>2019-01-26T14:26:14Z</time>
      </trkpt>
      <trkpt lat="43.44531" lon="5.74682">
        <ele>441.38</ele>
        <time>2019-01-26T14:26:21Z</time>
      </trkpt>
      <trkpt lat="43.44535" lon="5.74674">
        <ele>440.42</ele>
        <time>2019-01-26T14:26:28Z</time>
      </trkpt>
      <trkpt lat="43.44539" lon="5.74666">
        <ele>438.98</ele>
        <time>2019-01-26T14:26:35Z</time>
      </trkpt>
      <trkpt lat="43.44541" lon="5.74663">
        <ele>438.5</ele>
        <time>2019-01-26T14:26:39Z</time>
      </trkpt>
      <trkpt lat="43.44542" lon="5.74662">
        <ele>438.5</ele>
        <time>2019-01-26T14:26:40Z</time>
      </trkpt>
      <trkpt lat="43.44542" lon="5.74661">
        <ele>438.02</ele>
        <time>2019-01-26T14:26:41Z</time>
      </trkpt>
      <trkpt lat="43.44543" lon="5.74655">
        <ele>437.54</ele>
        <time>2019-01-26T14:26:47Z</time>
      </trkpt>
      <trkpt lat="43.44545" lon="5.74653">
        <ele>437.06</ele>
        <time>2019-01-26T14:26:51Z</time>
      </trkpt>
      <trkpt lat="43.44546" lon="5.74653">
        <ele>437.06</ele>
        <time>2019-01-26T14:26:52Z</time>
      </trkpt>
      <trkpt lat="43.4455" lon="5.7465">
        <ele>437.06</ele>
        <time>2019-01-26T14:26:57Z</time>
      </trkpt>
      <trkpt lat="43.44552" lon="5.74649">
        <ele>437.06</ele>
        <time>2019-01-26T14:27:00Z</time>
      </trkpt>
      <trkpt lat="43.44555" lon="5.74647">
        <ele>437.06</ele>
        <time>2019-01-26T14:27:05Z</time>
      </trkpt>
      <trkpt lat="43.44558" lon="5.74645">
        <ele>436.58</ele>
        <time>2019-01-26T14:27:10Z</time>
      </trkpt>
      <trkpt lat="43.4456" lon="5.74643">
        <ele>436.58</ele>
        <time>2019-01-26T14:27:13Z</time>
      </trkpt>
      <trkpt lat="43.44562" lon="5.74642">
        <ele>436.1</ele>
        <time>2019-01-26T14:27:16Z</time>
      </trkpt>
      <trkpt lat="43.44565" lon="5.74639">
        <ele>434.65</ele>
        <time>2019-01-26T14:27:21Z</time>
      </trkpt>
      <trkpt lat="43.44567" lon="5.74637">
        <ele>434.17</ele>
        <time>2019-01-26T14:27:24Z</time>
      </trkpt>
      <trkpt lat="43.44572" lon="5.74634">
        <ele>433.21</ele>
        <time>2019-01-26T14:27:29Z</time>
      </trkpt>
      <trkpt lat="43.44572" lon="5.74633">
        <ele>432.73</ele>
        <time>2019-01-26T14:27:30Z</time>
      </trkpt>
      <trkpt lat="43.44573" lon="5.74631">
        <ele>432.73</ele>
        <time>2019-01-26T14:27:31Z</time>
      </trkpt>
      <trkpt lat="43.44574" lon="5.7463">
        <ele>432.73</ele>
        <time>2019-01-26T14:27:32Z</time>
      </trkpt>
      <trkpt lat="43.44574" lon="5.74628">
        <ele>432.73</ele>
        <time>2019-01-26T14:27:33Z</time>
      </trkpt>
      <trkpt lat="43.44577" lon="5.74622">
        <ele>431.29</ele>
        <time>2019-01-26T14:27:39Z</time>
      </trkpt>
      <trkpt lat="43.44579" lon="5.74617">
        <ele>431.29</ele>
        <time>2019-01-26T14:27:43Z</time>
      </trkpt>
      <trkpt lat="43.44582" lon="5.74615">
        <ele>430.81</ele>
        <time>2019-01-26T14:27:46Z</time>
      </trkpt>
      <trkpt lat="43.44583" lon="5.74614">
        <ele>430.81</ele>
        <time>2019-01-26T14:27:47Z</time>
      </trkpt>
      <trkpt lat="43.44589" lon="5.74613">
        <ele>430.33</ele>
        <time>2019-01-26T14:27:51Z</time>
      </trkpt>
      <trkpt lat="43.44591" lon="5.74612">
        <ele>429.85</ele>
        <time>2019-01-26T14:27:53Z</time>
      </trkpt>
      <trkpt lat="43.44593" lon="5.7461">
        <ele>429.85</ele>
        <time>2019-01-26T14:27:55Z</time>
      </trkpt>
      <trkpt lat="43.44596" lon="5.74604">
        <ele>429.37</ele>
        <time>2019-01-26T14:28:02Z</time>
      </trkpt>
      <trkpt lat="43.44598" lon="5.74602">
        <ele>429.37</ele>
        <time>2019-01-26T14:28:04Z</time>
      </trkpt>
      <trkpt lat="43.44604" lon="5.74596">
        <ele>427.44</ele>
        <time>2019-01-26T14:28:12Z</time>
      </trkpt>
      <trkpt lat="43.44608" lon="5.74591">
        <ele>426.48</ele>
        <time>2019-01-26T14:28:18Z</time>
      </trkpt>
      <trkpt lat="43.44614" lon="5.74583">
        <ele>425.04</ele>
        <time>2019-01-26T14:28:25Z</time>
      </trkpt>
      <trkpt lat="43.44616" lon="5.74577">
        <ele>424.08</ele>
        <time>2019-01-26T14:28:30Z</time>
      </trkpt>
      <trkpt lat="43.44618" lon="5.74568">
        <ele>423.6</ele>
        <time>2019-01-26T14:28:36Z</time>
      </trkpt>
      <trkpt lat="43.4462" lon="5.74566">
        <ele>423.6</ele>
        <time>2019-01-26T14:28:42Z</time>
      </trkpt>
      <trkpt lat="43.44621" lon="5.74564">
        <ele>423.6</ele>
        <time>2019-01-26T14:28:47Z</time>
      </trkpt>
      <trkpt lat="43.44623" lon="5.74562">
        <ele>423.12</ele>
        <time>2019-01-26T14:28:52Z</time>
      </trkpt>
      <trkpt lat="43.44625" lon="5.74561">
        <ele>422.16</ele>
        <time>2019-01-26T14:28:55Z</time>
      </trkpt>
      <trkpt lat="43.44627" lon="5.74556">
        <ele>421.68</ele>
        <time>2019-01-26T14:29:00Z</time>
      </trkpt>
      <trkpt lat="43.44631" lon="5.74554">
        <ele>421.68</ele>
        <time>2019-01-26T14:29:05Z</time>
      </trkpt>
      <trkpt lat="43.44635" lon="5.74552">
        <ele>421.68</ele>
        <time>2019-01-26T14:29:10Z</time>
      </trkpt>
      <trkpt lat="43.44641" lon="5.74553">
        <ele>423.12</ele>
        <time>2019-01-26T14:29:14Z</time>
      </trkpt>
      <trkpt lat="43.44644" lon="5.74552">
        <ele>424.08</ele>
        <time>2019-01-26T14:29:18Z</time>
      </trkpt>
      <trkpt lat="43.44648" lon="5.74551">
        <ele>424.08</ele>
        <time>2019-01-26T14:29:22Z</time>
      </trkpt>
      <trkpt lat="43.44653" lon="5.74545">
        <ele>424.08</ele>
        <time>2019-01-26T14:29:29Z</time>
      </trkpt>
      <trkpt lat="43.44655" lon="5.74546">
        <ele>422.64</ele>
        <time>2019-01-26T14:29:31Z</time>
      </trkpt>
      <trkpt lat="43.44657" lon="5.74546">
        <ele>422.16</ele>
        <time>2019-01-26T14:29:33Z</time>
      </trkpt>
      <trkpt lat="43.44659" lon="5.74546">
        <ele>422.16</ele>
        <time>2019-01-26T14:29:36Z</time>
      </trkpt>
      <trkpt lat="43.44662" lon="5.74544">
        <ele>422.16</ele>
        <time>2019-01-26T14:29:40Z</time>
      </trkpt>
      <trkpt lat="43.44664" lon="5.74541">
        <ele>422.16</ele>
        <time>2019-01-26T14:29:44Z</time>
      </trkpt>
      <trkpt lat="43.4467" lon="5.74532">
        <ele>421.68</ele>
        <time>2019-01-26T14:29:53Z</time>
      </trkpt>
      <trkpt lat="43.44671" lon="5.74531">
        <ele>421.19</ele>
        <time>2019-01-26T14:29:55Z</time>
      </trkpt>
      <trkpt lat="43.44673" lon="5.74524">
        <ele>420.71</ele>
        <time>2019-01-26T14:30:02Z</time>
      </trkpt>
      <trkpt lat="43.44673" lon="5.74519">
        <ele>420.71</ele>
        <time>2019-01-26T14:30:06Z</time>
      </trkpt>
      <trkpt lat="43.44678" lon="5.74514">
        <ele>419.75</ele>
        <time>2019-01-26T14:30:13Z</time>
      </trkpt>
      <trkpt lat="43.44681" lon="5.74511">
        <ele>419.75</ele>
        <time>2019-01-26T14:30:17Z</time>
      </trkpt>
      <trkpt lat="43.44686" lon="5.74513">
        <ele>419.75</ele>
        <time>2019-01-26T14:30:22Z</time>
      </trkpt>
      <trkpt lat="43.44691" lon="5.74516">
        <ele>419.75</ele>
        <time>2019-01-26T14:30:26Z</time>
      </trkpt>
      <trkpt lat="43.44697" lon="5.74513">
        <ele>417.83</ele>
        <time>2019-01-26T14:30:34Z</time>
      </trkpt>
      <trkpt lat="43.44697" lon="5.74512">
        <ele>417.83</ele>
        <time>2019-01-26T14:30:35Z</time>
      </trkpt>
      <trkpt lat="43.44701" lon="5.74504">
        <ele>416.39</ele>
        <time>2019-01-26T14:30:43Z</time>
      </trkpt>
      <trkpt lat="43.44705" lon="5.74501">
        <ele>416.39</ele>
        <time>2019-01-26T14:30:52Z</time>
      </trkpt>
      <trkpt lat="43.44709" lon="5.745">
        <ele>415.43</ele>
        <time>2019-01-26T14:30:59Z</time>
      </trkpt>
      <trkpt lat="43.44709" lon="5.74499">
        <ele>414.95</ele>
        <time>2019-01-26T14:31:03Z</time>
      </trkpt>
      <trkpt lat="43.44709" lon="5.74499">
        <ele>414.95</ele>
        <time>2019-01-26T14:31:08Z</time>
      </trkpt>
      <trkpt lat="43.4471" lon="5.745">
        <ele>414.95</ele>
        <time>2019-01-26T14:31:09Z</time>
      </trkpt>
      <trkpt lat="43.44712" lon="5.74501">
        <ele>414.95</ele>
        <time>2019-01-26T14:31:12Z</time>
      </trkpt>
      <trkpt lat="43.44719" lon="5.74495">
        <ele>414.95</ele>
        <time>2019-01-26T14:31:20Z</time>
      </trkpt>
      <trkpt lat="43.44723" lon="5.74493">
        <ele>414.95</ele>
        <time>2019-01-26T14:31:25Z</time>
      </trkpt>
      <trkpt lat="43.44726" lon="5.74491">
        <ele>414.47</ele>
        <time>2019-01-26T14:31:29Z</time>
      </trkpt>
      <trkpt lat="43.4473" lon="5.74489">
        <ele>414.47</ele>
        <time>2019-01-26T14:31:34Z</time>
      </trkpt>
      <trkpt lat="43.44738" lon="5.74486">
        <ele>414.47</ele>
        <time>2019-01-26T14:31:40Z</time>
      </trkpt>
      <trkpt lat="43.44742" lon="5.74481">
        <ele>413.98</ele>
        <time>2019-01-26T14:31:46Z</time>
      </trkpt>
      <trkpt lat="43.44742" lon="5.74478">
        <ele>413.5</ele>
        <time>2019-01-26T14:31:48Z</time>
      </trkpt>
      <trkpt lat="43.44749" lon="5.74471">
        <ele>412.54</ele>
        <time>2019-01-26T14:31:54Z</time>
      </trkpt>
      <trkpt lat="43.44752" lon="5.74458">
        <ele>412.06</ele>
        <time>2019-01-26T14:32:01Z</time>
      </trkpt>
      <trkpt lat="43.4475" lon="5.74447">
        <ele>411.58</ele>
        <time>2019-01-26T14:32:07Z</time>
      </trkpt>
      <trkpt lat="43.4475" lon="5.74436">
        <ele>410.14</ele>
        <time>2019-01-26T14:32:15Z</time>
      </trkpt>
      <trkpt lat="43.44752" lon="5.74432">
        <ele>409.18</ele>
        <time>2019-01-26T14:32:18Z</time>
      </trkpt>
      <trkpt lat="43.44755" lon="5.74417">
        <ele>408.22</ele>
        <time>2019-01-26T14:32:26Z</time>
      </trkpt>
      <trkpt lat="43.44755" lon="5.7441">
        <ele>408.22</ele>
        <time>2019-01-26T14:32:30Z</time>
      </trkpt>
      <trkpt lat="43.44763" lon="5.74399">
        <ele>407.74</ele>
        <time>2019-01-26T14:32:38Z</time>
      </trkpt>
      <trkpt lat="43.44767" lon="5.74388">
        <ele>406.29</ele>
        <time>2019-01-26T14:32:46Z</time>
      </trkpt>
      <trkpt lat="43.44767" lon="5.74384">
        <ele>405.33</ele>
        <time>2019-01-26T14:32:48Z</time>
      </trkpt>
      <trkpt lat="43.44774" lon="5.74373">
        <ele>404.85</ele>
        <time>2019-01-26T14:32:56Z</time>
      </trkpt>
      <trkpt lat="43.44774" lon="5.74363">
        <ele>402.93</ele>
        <time>2019-01-26T14:33:03Z</time>
      </trkpt>
      <trkpt lat="43.44774" lon="5.74362">
        <ele>402.93</ele>
        <time>2019-01-26T14:33:04Z</time>
      </trkpt>
      <trkpt lat="43.44778" lon="5.7435">
        <ele>401.01</ele>
        <time>2019-01-26T14:33:13Z</time>
      </trkpt>
      <trkpt lat="43.44784" lon="5.74338">
        <ele>400.53</ele>
        <time>2019-01-26T14:33:21Z</time>
      </trkpt>
      <trkpt lat="43.44783" lon="5.74332">
        <ele>399.57</ele>
        <time>2019-01-26T14:33:25Z</time>
      </trkpt>
      <trkpt lat="43.44788" lon="5.74321">
        <ele>398.12</ele>
        <time>2019-01-26T14:33:33Z</time>
      </trkpt>
      <trkpt lat="43.4479" lon="5.74314">
        <ele>397.16</ele>
        <time>2019-01-26T14:33:39Z</time>
      </trkpt>
      <trkpt lat="43.44791" lon="5.74313">
        <ele>397.16</ele>
        <time>2019-01-26T14:33:40Z</time>
      </trkpt>
      <trkpt lat="43.44797" lon="5.74303">
        <ele>397.16</ele>
        <time>2019-01-26T14:33:46Z</time>
      </trkpt>
      <trkpt lat="43.44798" lon="5.74302">
        <ele>397.16</ele>
        <time>2019-01-26T14:33:47Z</time>
      </trkpt>
      <trkpt lat="43.44801" lon="5.74291">
        <ele>396.2</ele>
        <time>2019-01-26T14:33:52Z</time>
      </trkpt>
      <trkpt lat="43.44803" lon="5.74284">
        <ele>395.72</ele>
        <time>2019-01-26T14:33:57Z</time>
      </trkpt>
      <trkpt lat="43.44807" lon="5.74281">
        <ele>395.72</ele>
        <time>2019-01-26T14:34:00Z</time>
      </trkpt>
      <trkpt lat="43.44812" lon="5.74276">
        <ele>395.24</ele>
        <time>2019-01-26T14:34:07Z</time>
      </trkpt>
      <trkpt lat="43.44823" lon="5.74267">
        <ele>394.76</ele>
        <time>2019-01-26T14:34:15Z</time>
      </trkpt>
      <trkpt lat="43.44827" lon="5.74265">
        <ele>394.76</ele>
        <time>2019-01-26T14:34:20Z</time>
      </trkpt>
      <trkpt lat="43.44827" lon="5.74264">
        <ele>394.76</ele>
        <time>2019-01-26T14:34:21Z</time>
      </trkpt>
      <trkpt lat="43.44833" lon="5.74258">
        <ele>393.32</ele>
        <time>2019-01-26T14:34:27Z</time>
      </trkpt>
      <trkpt lat="43.44834" lon="5.74254">
        <ele>392.84</ele>
        <time>2019-01-26T14:34:31Z</time>
      </trkpt>
      <trkpt lat="43.44836" lon="5.74245">
        <ele>392.84</ele>
        <time>2019-01-26T14:34:35Z</time>
      </trkpt>
      <trkpt lat="43.44837" lon="5.74241">
        <ele>392.84</ele>
        <time>2019-01-26T14:34:37Z</time>
      </trkpt>
      <trkpt lat="43.44841" lon="5.7423">
        <ele>392.36</ele>
        <time>2019-01-26T14:34:45Z</time>
      </trkpt>
      <trkpt lat="43.44847" lon="5.74217">
        <ele>391.39</ele>
        <time>2019-01-26T14:34:54Z</time>
      </trkpt>
      <trkpt lat="43.44849" lon="5.74214">
        <ele>390.91</ele>
        <time>2019-01-26T14:34:56Z</time>
      </trkpt>
      <trkpt lat="43.44851" lon="5.74203">
        <ele>390.43</ele>
        <time>2019-01-26T14:35:04Z</time>
      </trkpt>
      <trkpt lat="43.44854" lon="5.7419">
        <ele>389.95</ele>
        <time>2019-01-26T14:35:12Z</time>
      </trkpt>
      <trkpt lat="43.44854" lon="5.74182">
        <ele>389.95</ele>
        <time>2019-01-26T14:35:18Z</time>
      </trkpt>
      <trkpt lat="43.44855" lon="5.74174">
        <ele>389.47</ele>
        <time>2019-01-26T14:35:23Z</time>
      </trkpt>
      <trkpt lat="43.44859" lon="5.74162">
        <ele>388.99</ele>
        <time>2019-01-26T14:35:30Z</time>
      </trkpt>
      <trkpt lat="43.44861" lon="5.74148">
        <ele>388.99</ele>
        <time>2019-01-26T14:35:39Z</time>
      </trkpt>
      <trkpt lat="43.44862" lon="5.74144">
        <ele>388.99</ele>
        <time>2019-01-26T14:35:42Z</time>
      </trkpt>
      <trkpt lat="43.4486" lon="5.7413">
        <ele>388.51</ele>
        <time>2019-01-26T14:35:50Z</time>
      </trkpt>
      <trkpt lat="43.44861" lon="5.74126">
        <ele>388.51</ele>
        <time>2019-01-26T14:35:53Z</time>
      </trkpt>
      <trkpt lat="43.44863" lon="5.74108">
        <ele>388.03</ele>
        <time>2019-01-26T14:36:02Z</time>
      </trkpt>
      <trkpt lat="43.44866" lon="5.74096">
        <ele>387.55</ele>
        <time>2019-01-26T14:36:10Z</time>
      </trkpt>
      <trkpt lat="43.4487" lon="5.74086">
        <ele>387.07</ele>
        <time>2019-01-26T14:36:17Z</time>
      </trkpt>
      <trkpt lat="43.44873" lon="5.74076">
        <ele>385.63</ele>
        <time>2019-01-26T14:36:25Z</time>
      </trkpt>
      <trkpt lat="43.44871" lon="5.74066">
        <ele>383.7</ele>
        <time>2019-01-26T14:36:33Z</time>
      </trkpt>
      <trkpt lat="43.44867" lon="5.74058">
        <ele>381.3</ele>
        <time>2019-01-26T14:36:40Z</time>
      </trkpt>
      <trkpt lat="43.44867" lon="5.74047">
        <ele>380.82</ele>
        <time>2019-01-26T14:36:46Z</time>
      </trkpt>
      <trkpt lat="43.44869" lon="5.7404">
        <ele>380.34</ele>
        <time>2019-01-26T14:36:52Z</time>
      </trkpt>
      <trkpt lat="43.44872" lon="5.74032">
        <ele>380.34</ele>
        <time>2019-01-26T14:36:56Z</time>
      </trkpt>
      <trkpt lat="43.44876" lon="5.74022">
        <ele>379.38</ele>
        <time>2019-01-26T14:37:03Z</time>
      </trkpt>
      <trkpt lat="43.44876" lon="5.74019">
        <ele>379.38</ele>
        <time>2019-01-26T14:37:05Z</time>
      </trkpt>
      <trkpt lat="43.4488" lon="5.74">
        <ele>378.42</ele>
        <time>2019-01-26T14:37:16Z</time>
      </trkpt>
      <trkpt lat="43.44881" lon="5.73996">
        <ele>378.42</ele>
        <time>2019-01-26T14:37:18Z</time>
      </trkpt>
      <trkpt lat="43.44885" lon="5.73984">
        <ele>377.45</ele>
        <time>2019-01-26T14:37:25Z</time>
      </trkpt>
      <trkpt lat="43.44888" lon="5.73977">
        <ele>376.97</ele>
        <time>2019-01-26T14:37:30Z</time>
      </trkpt>
      <trkpt lat="43.44896" lon="5.73967">
        <ele>376.49</ele>
        <time>2019-01-26T14:37:39Z</time>
      </trkpt>
      <trkpt lat="43.44897" lon="5.73967">
        <ele>376.01</ele>
        <time>2019-01-26T14:37:40Z</time>
      </trkpt>
      <trkpt lat="43.44908" lon="5.73965">
        <ele>375.53</ele>
        <time>2019-01-26T14:37:48Z</time>
      </trkpt>
      <trkpt lat="43.44911" lon="5.73966">
        <ele>375.05</ele>
        <time>2019-01-26T14:37:53Z</time>
      </trkpt>
      <trkpt lat="43.44917" lon="5.73969">
        <ele>374.57</ele>
        <time>2019-01-26T14:37:57Z</time>
      </trkpt>
      <trkpt lat="43.44924" lon="5.73968">
        <ele>373.61</ele>
        <time>2019-01-26T14:38:06Z</time>
      </trkpt>
      <trkpt lat="43.44928" lon="5.73967">
        <ele>373.61</ele>
        <time>2019-01-26T14:38:09Z</time>
      </trkpt>
      <trkpt lat="43.44933" lon="5.7397">
        <ele>372.65</ele>
        <time>2019-01-26T14:38:13Z</time>
      </trkpt>
      <trkpt lat="43.44942" lon="5.73978">
        <ele>371.69</ele>
        <time>2019-01-26T14:38:21Z</time>
      </trkpt>
      <trkpt lat="43.44947" lon="5.73985">
        <ele>371.21</ele>
        <time>2019-01-26T14:38:27Z</time>
      </trkpt>
      <trkpt lat="43.44948" lon="5.73987">
        <ele>371.69</ele>
        <time>2019-01-26T14:38:29Z</time>
      </trkpt>
      <trkpt lat="43.44957" lon="5.74002">
        <ele>370.73</ele>
        <time>2019-01-26T14:38:39Z</time>
      </trkpt>
      <trkpt lat="43.44958" lon="5.74004">
        <ele>370.73</ele>
        <time>2019-01-26T14:38:40Z</time>
      </trkpt>
      <trkpt lat="43.44965" lon="5.74014">
        <ele>369.76</ele>
        <time>2019-01-26T14:38:48Z</time>
      </trkpt>
      <trkpt lat="43.44971" lon="5.7402">
        <ele>369.28</ele>
        <time>2019-01-26T14:38:56Z</time>
      </trkpt>
      <trkpt lat="43.44978" lon="5.74033">
        <ele>369.28</ele>
        <time>2019-01-26T14:39:04Z</time>
      </trkpt>
      <trkpt lat="43.44985" lon="5.7404">
        <ele>368.8</ele>
        <time>2019-01-26T14:39:12Z</time>
      </trkpt>
      <trkpt lat="43.44989" lon="5.74043">
        <ele>367.36</ele>
        <time>2019-01-26T14:39:19Z</time>
      </trkpt>
      <trkpt lat="43.44991" lon="5.74046">
        <ele>367.36</ele>
        <time>2019-01-26T14:39:34Z</time>
      </trkpt>
      <trkpt lat="43.44992" lon="5.74047">
        <ele>367.36</ele>
        <time>2019-01-26T14:39:43Z</time>
      </trkpt>
      <trkpt lat="43.44993" lon="5.74048">
        <ele>367.36</ele>
        <time>2019-01-26T14:40:03Z</time>
      </trkpt>
      <trkpt lat="43.44993" lon="5.74049">
        <ele>366.88</ele>
        <time>2019-01-26T14:40:15Z</time>
      </trkpt>
      <trkpt lat="43.4499" lon="5.74048">
        <ele>366.88</ele>
        <time>2019-01-26T14:40:32Z</time>
      </trkpt>
      <trkpt lat="43.44991" lon="5.74048">
        <ele>366.88</ele>
        <time>2019-01-26T14:40:44Z</time>
      </trkpt>
      <trkpt lat="43.44994" lon="5.7405">
        <ele>366.88</ele>
        <time>2019-01-26T14:41:00Z</time>
      </trkpt>
      <trkpt lat="43.44995" lon="5.74049">
        <ele>366.88</ele>
        <time>2019-01-26T14:41:19Z</time>
      </trkpt>
      <trkpt lat="43.44996" lon="5.74051">
        <ele>366.88</ele>
        <time>2019-01-26T14:41:22Z</time>
      </trkpt>
      <trkpt lat="43.45003" lon="5.74057">
        <ele>366.88</ele>
        <time>2019-01-26T14:41:30Z</time>
      </trkpt>
      <trkpt lat="43.45009" lon="5.74065">
        <ele>366.4</ele>
        <time>2019-01-26T14:41:39Z</time>
      </trkpt>
      <trkpt lat="43.45015" lon="5.74078">
        <ele>365.44</ele>
        <time>2019-01-26T14:41:47Z</time>
      </trkpt>
      <trkpt lat="43.45017" lon="5.74082">
        <ele>365.44</ele>
        <time>2019-01-26T14:41:49Z</time>
      </trkpt>
      <trkpt lat="43.45023" lon="5.74093">
        <ele>364.96</ele>
        <time>2019-01-26T14:41:54Z</time>
      </trkpt>
      <trkpt lat="43.45034" lon="5.74098">
        <ele>364</ele>
        <time>2019-01-26T14:42:03Z</time>
      </trkpt>
      <trkpt lat="43.4504" lon="5.74104">
        <ele>363.52</ele>
        <time>2019-01-26T14:42:11Z</time>
      </trkpt>
      <trkpt lat="43.45041" lon="5.74104">
        <ele>363.52</ele>
        <time>2019-01-26T14:42:12Z</time>
      </trkpt>
      <trkpt lat="43.45047" lon="5.74108">
        <ele>362.55</ele>
        <time>2019-01-26T14:42:19Z</time>
      </trkpt>
      <trkpt lat="43.45053" lon="5.74112">
        <ele>362.07</ele>
        <time>2019-01-26T14:42:24Z</time>
      </trkpt>
      <trkpt lat="43.4506" lon="5.74117">
        <ele>361.11</ele>
        <time>2019-01-26T14:42:31Z</time>
      </trkpt>
      <trkpt lat="43.45061" lon="5.74118">
        <ele>361.11</ele>
        <time>2019-01-26T14:42:33Z</time>
      </trkpt>
      <trkpt lat="43.45073" lon="5.74117">
        <ele>359.67</ele>
        <time>2019-01-26T14:42:43Z</time>
      </trkpt>
      <trkpt lat="43.45078" lon="5.74117">
        <ele>359.19</ele>
        <time>2019-01-26T14:42:46Z</time>
      </trkpt>
      <trkpt lat="43.45087" lon="5.74113">
        <ele>358.71</ele>
        <time>2019-01-26T14:42:55Z</time>
      </trkpt>
      <trkpt lat="43.45089" lon="5.74112">
        <ele>358.23</ele>
        <time>2019-01-26T14:42:57Z</time>
      </trkpt>
      <trkpt lat="43.451" lon="5.74116">
        <ele>356.79</ele>
        <time>2019-01-26T14:43:05Z</time>
      </trkpt>
      <trkpt lat="43.45107" lon="5.74118">
        <ele>356.31</ele>
        <time>2019-01-26T14:43:13Z</time>
      </trkpt>
      <trkpt lat="43.45109" lon="5.7412">
        <ele>356.31</ele>
        <time>2019-01-26T14:43:15Z</time>
      </trkpt>
      <trkpt lat="43.45117" lon="5.74126">
        <ele>355.83</ele>
        <time>2019-01-26T14:43:22Z</time>
      </trkpt>
      <trkpt lat="43.45127" lon="5.7413">
        <ele>354.86</ele>
        <time>2019-01-26T14:43:30Z</time>
      </trkpt>
      <trkpt lat="43.45129" lon="5.74132">
        <ele>354.86</ele>
        <time>2019-01-26T14:43:33Z</time>
      </trkpt>
      <trkpt lat="43.45135" lon="5.74137">
        <ele>354.86</ele>
        <time>2019-01-26T14:43:40Z</time>
      </trkpt>
      <trkpt lat="43.45136" lon="5.74137">
        <ele>354.38</ele>
        <time>2019-01-26T14:43:41Z</time>
      </trkpt>
      <trkpt lat="43.45141" lon="5.74146">
        <ele>353.9</ele>
        <time>2019-01-26T14:43:47Z</time>
      </trkpt>
      <trkpt lat="43.45146" lon="5.74154">
        <ele>352.94</ele>
        <time>2019-01-26T14:43:53Z</time>
      </trkpt>
      <trkpt lat="43.45146" lon="5.74156">
        <ele>352.94</ele>
        <time>2019-01-26T14:43:54Z</time>
      </trkpt>
      <trkpt lat="43.45153" lon="5.74165">
        <ele>352.94</ele>
        <time>2019-01-26T14:44:02Z</time>
      </trkpt>
      <trkpt lat="43.45164" lon="5.74169">
        <ele>352.94</ele>
        <time>2019-01-26T14:44:11Z</time>
      </trkpt>
      <trkpt lat="43.45176" lon="5.7417">
        <ele>352.46</ele>
        <time>2019-01-26T14:44:19Z</time>
      </trkpt>
      <trkpt lat="43.45182" lon="5.74171">
        <ele>351.98</ele>
        <time>2019-01-26T14:44:27Z</time>
      </trkpt>
      <trkpt lat="43.4519" lon="5.74175">
        <ele>351.5</ele>
        <time>2019-01-26T14:44:33Z</time>
      </trkpt>
      <trkpt lat="43.45197" lon="5.74177">
        <ele>351.5</ele>
        <time>2019-01-26T14:44:39Z</time>
      </trkpt>
      <trkpt lat="43.45203" lon="5.74185">
        <ele>351.02</ele>
        <time>2019-01-26T14:44:45Z</time>
      </trkpt>
      <trkpt lat="43.45215" lon="5.74192">
        <ele>351.5</ele>
        <time>2019-01-26T14:44:53Z</time>
      </trkpt>
      <trkpt lat="43.45225" lon="5.74194">
        <ele>351.5</ele>
        <time>2019-01-26T14:45:01Z</time>
      </trkpt>
      <trkpt lat="43.45235" lon="5.74197">
        <ele>350.54</ele>
        <time>2019-01-26T14:45:11Z</time>
      </trkpt>
      <trkpt lat="43.45238" lon="5.74196">
        <ele>350.54</ele>
        <time>2019-01-26T14:45:17Z</time>
      </trkpt>
      <trkpt lat="43.45242" lon="5.742">
        <ele>350.54</ele>
        <time>2019-01-26T14:45:27Z</time>
      </trkpt>
      <trkpt lat="43.45243" lon="5.74203">
        <ele>350.06</ele>
        <time>2019-01-26T14:45:32Z</time>
      </trkpt>
      <trkpt lat="43.45243" lon="5.74205">
        <ele>350.06</ele>
        <time>2019-01-26T14:45:51Z</time>
      </trkpt>
      <trkpt lat="43.45242" lon="5.74205">
        <ele>350.06</ele>
        <time>2019-01-26T14:45:59Z</time>
      </trkpt>
      <trkpt lat="43.4524" lon="5.74202">
        <ele>350.06</ele>
        <time>2019-01-26T14:46:07Z</time>
      </trkpt>
      <trkpt lat="43.45239" lon="5.74203">
        <ele>350.06</ele>
        <time>2019-01-26T14:46:22Z</time>
      </trkpt>
      <trkpt lat="43.45239" lon="5.74202">
        <ele>350.06</ele>
        <time>2019-01-26T14:46:34Z</time>
      </trkpt>
      <trkpt lat="43.45237" lon="5.74204">
        <ele>350.06</ele>
        <time>2019-01-26T14:46:37Z</time>
      </trkpt>
      <trkpt lat="43.45232" lon="5.74206">
        <ele>350.06</ele>
        <time>2019-01-26T14:46:44Z</time>
      </trkpt>
      <trkpt lat="43.45233" lon="5.74204">
        <ele>351.02</ele>
        <time>2019-01-26T14:46:48Z</time>
      </trkpt>
      <trkpt lat="43.45235" lon="5.74203">
        <ele>351.02</ele>
        <time>2019-01-26T14:47:05Z</time>
      </trkpt>
      <trkpt lat="43.45236" lon="5.74204">
        <ele>351.02</ele>
        <time>2019-01-26T14:47:11Z</time>
      </trkpt>
      <trkpt lat="43.45241" lon="5.74207">
        <ele>351.02</ele>
        <time>2019-01-26T14:47:16Z</time>
      </trkpt>
      <trkpt lat="43.45243" lon="5.74209">
        <ele>351.02</ele>
        <time>2019-01-26T14:47:17Z</time>
      </trkpt>
      <trkpt lat="43.45246" lon="5.74216">
        <ele>351.02</ele>
        <time>2019-01-26T14:47:23Z</time>
      </trkpt>
      <trkpt lat="43.45248" lon="5.74233">
        <ele>351.02</ele>
        <time>2019-01-26T14:47:31Z</time>
      </trkpt>
      <trkpt lat="43.45249" lon="5.74244">
        <ele>351.02</ele>
        <time>2019-01-26T14:47:39Z</time>
      </trkpt>
      <trkpt lat="43.45249" lon="5.7426">
        <ele>351.5</ele>
        <time>2019-01-26T14:47:47Z</time>
      </trkpt>
      <trkpt lat="43.45251" lon="5.74277">
        <ele>351.5</ele>
        <time>2019-01-26T14:47:55Z</time>
      </trkpt>
      <trkpt lat="43.45253" lon="5.74292">
        <ele>351.5</ele>
        <time>2019-01-26T14:48:06Z</time>
      </trkpt>
      <trkpt lat="43.45255" lon="5.74313">
        <ele>351.5</ele>
        <time>2019-01-26T14:48:16Z</time>
      </trkpt>
      <trkpt lat="43.45256" lon="5.74331">
        <ele>351.5</ele>
        <time>2019-01-26T14:48:24Z</time>
      </trkpt>
      <trkpt lat="43.45258" lon="5.7435">
        <ele>351.5</ele>
        <time>2019-01-26T14:48:32Z</time>
      </trkpt>
      <trkpt lat="43.4526" lon="5.74364">
        <ele>351.5</ele>
        <time>2019-01-26T14:48:40Z</time>
      </trkpt>
      <trkpt lat="43.45262" lon="5.74376">
        <ele>351.98</ele>
        <time>2019-01-26T14:48:49Z</time>
      </trkpt>
      <trkpt lat="43.45263" lon="5.74391">
        <ele>352.46</ele>
        <time>2019-01-26T14:48:56Z</time>
      </trkpt>
      <trkpt lat="43.45264" lon="5.74407">
        <ele>352.94</ele>
        <time>2019-01-26T14:49:03Z</time>
      </trkpt>
      <trkpt lat="43.45268" lon="5.74418">
        <ele>353.9</ele>
        <time>2019-01-26T14:49:10Z</time>
      </trkpt>
      <trkpt lat="43.45273" lon="5.74433">
        <ele>354.38</ele>
        <time>2019-01-26T14:49:19Z</time>
      </trkpt>
      <trkpt lat="43.45277" lon="5.74439">
        <ele>355.34</ele>
        <time>2019-01-26T14:49:26Z</time>
      </trkpt>
      <trkpt lat="43.45279" lon="5.7444">
        <ele>355.34</ele>
        <time>2019-01-26T14:49:28Z</time>
      </trkpt>
      <trkpt lat="43.45286" lon="5.74449">
        <ele>355.34</ele>
        <time>2019-01-26T14:49:35Z</time>
      </trkpt>
      <trkpt lat="43.4529" lon="5.74451">
        <ele>355.34</ele>
        <time>2019-01-26T14:49:40Z</time>
      </trkpt>
      <trkpt lat="43.45291" lon="5.74451">
        <ele>355.34</ele>
        <time>2019-01-26T14:49:41Z</time>
      </trkpt>
      <trkpt lat="43.45292" lon="5.74452">
        <ele>355.34</ele>
        <time>2019-01-26T14:49:42Z</time>
      </trkpt>
      <trkpt lat="43.45299" lon="5.74455">
        <ele>355.34</ele>
        <time>2019-01-26T14:49:50Z</time>
      </trkpt>
      <trkpt lat="43.45305" lon="5.74463">
        <ele>355.34</ele>
        <time>2019-01-26T14:49:58Z</time>
      </trkpt>
      <trkpt lat="43.45306" lon="5.74464">
        <ele>355.34</ele>
        <time>2019-01-26T14:49:59Z</time>
      </trkpt>
      <trkpt lat="43.45312" lon="5.74471">
        <ele>355.34</ele>
        <time>2019-01-26T14:50:05Z</time>
      </trkpt>
      <trkpt lat="43.45317" lon="5.74477">
        <ele>355.34</ele>
        <time>2019-01-26T14:50:11Z</time>
      </trkpt>
      <trkpt lat="43.45324" lon="5.74485">
        <ele>355.34</ele>
        <time>2019-01-26T14:50:19Z</time>
      </trkpt>
      <trkpt lat="43.45325" lon="5.74486">
        <ele>355.34</ele>
        <time>2019-01-26T14:50:20Z</time>
      </trkpt>
      <trkpt lat="43.45335" lon="5.74499">
        <ele>355.34</ele>
        <time>2019-01-26T14:50:28Z</time>
      </trkpt>
      <trkpt lat="43.45337" lon="5.745">
        <ele>355.34</ele>
        <time>2019-01-26T14:50:30Z</time>
      </trkpt>
      <trkpt lat="43.45341" lon="5.7451">
        <ele>355.34</ele>
        <time>2019-01-26T14:50:37Z</time>
      </trkpt>
      <trkpt lat="43.45342" lon="5.74513">
        <ele>354.38</ele>
        <time>2019-01-26T14:50:39Z</time>
      </trkpt>
      <trkpt lat="43.45348" lon="5.74524">
        <ele>354.38</ele>
        <time>2019-01-26T14:50:45Z</time>
      </trkpt>
      <trkpt lat="43.45353" lon="5.74533">
        <ele>354.38</ele>
        <time>2019-01-26T14:50:52Z</time>
      </trkpt>
      <trkpt lat="43.4536" lon="5.74542">
        <ele>353.9</ele>
        <time>2019-01-26T14:51:01Z</time>
      </trkpt>
      <trkpt lat="43.45372" lon="5.74551">
        <ele>353.9</ele>
        <time>2019-01-26T14:51:09Z</time>
      </trkpt>
      <trkpt lat="43.45383" lon="5.74556">
        <ele>353.42</ele>
        <time>2019-01-26T14:51:16Z</time>
      </trkpt>
      <trkpt lat="43.45397" lon="5.74559">
        <ele>353.42</ele>
        <time>2019-01-26T14:51:24Z</time>
      </trkpt>
      <trkpt lat="43.45409" lon="5.74566">
        <ele>353.42</ele>
        <time>2019-01-26T14:51:33Z</time>
      </trkpt>
      <trkpt lat="43.45415" lon="5.74572">
        <ele>354.86</ele>
        <time>2019-01-26T14:51:41Z</time>
      </trkpt>
      <trkpt lat="43.45424" lon="5.74584">
        <ele>355.34</ele>
        <time>2019-01-26T14:51:49Z</time>
      </trkpt>
      <trkpt lat="43.45436" lon="5.74595">
        <ele>356.31</ele>
        <time>2019-01-26T14:51:57Z</time>
      </trkpt>
      <trkpt lat="43.45443" lon="5.74602">
        <ele>356.31</ele>
        <time>2019-01-26T14:52:04Z</time>
      </trkpt>
      <trkpt lat="43.45452" lon="5.74614">
        <ele>357.27</ele>
        <time>2019-01-26T14:52:14Z</time>
      </trkpt>
      <trkpt lat="43.45465" lon="5.74628">
        <ele>357.75</ele>
        <time>2019-01-26T14:52:23Z</time>
      </trkpt>
      <trkpt lat="43.45473" lon="5.74636">
        <ele>357.75</ele>
        <time>2019-01-26T14:52:31Z</time>
      </trkpt>
      <trkpt lat="43.45479" lon="5.74642">
        <ele>358.23</ele>
        <time>2019-01-26T14:52:38Z</time>
      </trkpt>
      <trkpt lat="43.45485" lon="5.7465">
        <ele>358.23</ele>
        <time>2019-01-26T14:52:46Z</time>
      </trkpt>
      <trkpt lat="43.45495" lon="5.74659">
        <ele>358.23</ele>
        <time>2019-01-26T14:52:54Z</time>
      </trkpt>
      <trkpt lat="43.45506" lon="5.74672">
        <ele>358.23</ele>
        <time>2019-01-26T14:53:02Z</time>
      </trkpt>
      <trkpt lat="43.45518" lon="5.74689">
        <ele>357.27</ele>
        <time>2019-01-26T14:53:11Z</time>
      </trkpt>
      <trkpt lat="43.45524" lon="5.74703">
        <ele>356.79</ele>
        <time>2019-01-26T14:53:18Z</time>
      </trkpt>
      <trkpt lat="43.45527" lon="5.74714">
        <ele>356.31</ele>
        <time>2019-01-26T14:53:25Z</time>
      </trkpt>
      <trkpt lat="43.45527" lon="5.74717">
        <ele>356.31</ele>
        <time>2019-01-26T14:53:33Z</time>
      </trkpt>
      <trkpt lat="43.45524" lon="5.74719">
        <ele>356.31</ele>
        <time>2019-01-26T14:53:49Z</time>
      </trkpt>
      <trkpt lat="43.45524" lon="5.74719">
        <ele>356.31</ele>
        <time>2019-01-26T14:53:55Z</time>
      </trkpt>
      <trkpt lat="43.45524" lon="5.7472">
        <ele>356.31</ele>
        <time>2019-01-26T14:54:01Z</time>
      </trkpt>
      <trkpt lat="43.45526" lon="5.74723">
        <ele>356.31</ele>
        <time>2019-01-26T14:54:12Z</time>
      </trkpt>
      <trkpt lat="43.45529" lon="5.74721">
        <ele>356.79</ele>
        <time>2019-01-26T14:54:28Z</time>
      </trkpt>
      <trkpt lat="43.45528" lon="5.74721">
        <ele>357.75</ele>
        <time>2019-01-26T14:54:39Z</time>
      </trkpt>
      <trkpt lat="43.45527" lon="5.74721">
        <ele>357.75</ele>
        <time>2019-01-26T14:54:55Z</time>
      </trkpt>
      <trkpt lat="43.45525" lon="5.7472">
        <ele>357.75</ele>
        <time>2019-01-26T14:55:12Z</time>
      </trkpt>
      <trkpt lat="43.45526" lon="5.7472">
        <ele>357.75</ele>
        <time>2019-01-26T14:55:25Z</time>
      </trkpt>
      <trkpt lat="43.45527" lon="5.7472">
        <ele>358.23</ele>
        <time>2019-01-26T14:55:45Z</time>
      </trkpt>
      <trkpt lat="43.45528" lon="5.74722">
        <ele>358.23</ele>
        <time>2019-01-26T14:56:06Z</time>
      </trkpt>
      <trkpt lat="43.45528" lon="5.74718">
        <ele>358.23</ele>
        <time>2019-01-26T14:56:26Z</time>
      </trkpt>
      <trkpt lat="43.45527" lon="5.74717">
        <ele>358.23</ele>
        <time>2019-01-26T14:56:42Z</time>
      </trkpt>
      <trkpt lat="43.45529" lon="5.7472">
        <ele>358.23</ele>
        <time>2019-01-26T14:57:00Z</time>
      </trkpt>
      <trkpt lat="43.45529" lon="5.74723">
        <ele>358.23</ele>
        <time>2019-01-26T14:57:18Z</time>
      </trkpt>
      <trkpt lat="43.45529" lon="5.74721">
        <ele>358.23</ele>
        <time>2019-01-26T14:57:26Z</time>
      </trkpt>
      <trkpt lat="43.45529" lon="5.74723">
        <ele>358.23</ele>
        <time>2019-01-26T14:57:27Z</time>
      </trkpt>
      <trkpt lat="43.4553" lon="5.74724">
        <ele>358.23</ele>
        <time>2019-01-26T14:57:28Z</time>
      </trkpt>
      <trkpt lat="43.45531" lon="5.74725">
        <ele>358.23</ele>
        <time>2019-01-26T14:57:29Z</time>
      </trkpt>
      <trkpt lat="43.45531" lon="5.74727">
        <ele>358.23</ele>
        <time>2019-01-26T14:57:30Z</time>
      </trkpt>
      <trkpt lat="43.45532" lon="5.74736">
        <ele>358.71</ele>
        <time>2019-01-26T14:57:37Z</time>
      </trkpt>
      <trkpt lat="43.45532" lon="5.74748">
        <ele>359.67</ele>
        <time>2019-01-26T14:57:45Z</time>
      </trkpt>
      <trkpt lat="43.45531" lon="5.7475">
        <ele>359.67</ele>
        <time>2019-01-26T14:57:46Z</time>
      </trkpt>
      <trkpt lat="43.45531" lon="5.74752">
        <ele>359.67</ele>
        <time>2019-01-26T14:57:47Z</time>
      </trkpt>
      <trkpt lat="43.45531" lon="5.74755">
        <ele>360.15</ele>
        <time>2019-01-26T14:57:48Z</time>
      </trkpt>
      <trkpt lat="43.4553" lon="5.74757">
        <ele>360.15</ele>
        <time>2019-01-26T14:57:49Z</time>
      </trkpt>
      <trkpt lat="43.45529" lon="5.7476">
        <ele>360.15</ele>
        <time>2019-01-26T14:57:50Z</time>
      </trkpt>
      <trkpt lat="43.45529" lon="5.74762">
        <ele>360.15</ele>
        <time>2019-01-26T14:57:51Z</time>
      </trkpt>
      <trkpt lat="43.45528" lon="5.74765">
        <ele>360.15</ele>
        <time>2019-01-26T14:57:52Z</time>
      </trkpt>
      <trkpt lat="43.45528" lon="5.74767">
        <ele>360.15</ele>
        <time>2019-01-26T14:57:53Z</time>
      </trkpt>
      <trkpt lat="43.45525" lon="5.74786">
        <ele>360.63</ele>
        <time>2019-01-26T14:58:01Z</time>
      </trkpt>
      <trkpt lat="43.45525" lon="5.74797">
        <ele>360.63</ele>
        <time>2019-01-26T14:58:08Z</time>
      </trkpt>
      <trkpt lat="43.45525" lon="5.74799">
        <ele>360.63</ele>
        <time>2019-01-26T14:58:09Z</time>
      </trkpt>
      <trkpt lat="43.45525" lon="5.74801">
        <ele>360.63</ele>
        <time>2019-01-26T14:58:10Z</time>
      </trkpt>
      <trkpt lat="43.45526" lon="5.74802">
        <ele>360.63</ele>
        <time>2019-01-26T14:58:11Z</time>
      </trkpt>
      <trkpt lat="43.45529" lon="5.74812">
        <ele>361.11</ele>
        <time>2019-01-26T14:58:18Z</time>
      </trkpt>
      <trkpt lat="43.45533" lon="5.74819">
        <ele>361.59</ele>
        <time>2019-01-26T14:58:26Z</time>
      </trkpt>
      <trkpt lat="43.45539" lon="5.74825">
        <ele>362.07</ele>
        <time>2019-01-26T14:58:34Z</time>
      </trkpt>
      <trkpt lat="43.4554" lon="5.74826">
        <ele>362.07</ele>
        <time>2019-01-26T14:58:35Z</time>
      </trkpt>
      <trkpt lat="43.45542" lon="5.74827">
        <ele>362.07</ele>
        <time>2019-01-26T14:58:36Z</time>
      </trkpt>
      <trkpt lat="43.45543" lon="5.74829">
        <ele>362.07</ele>
        <time>2019-01-26T14:58:37Z</time>
      </trkpt>
      <trkpt lat="43.4555" lon="5.74837">
        <ele>362.55</ele>
        <time>2019-01-26T14:58:44Z</time>
      </trkpt>
      <trkpt lat="43.45553" lon="5.74846">
        <ele>363.04</ele>
        <time>2019-01-26T14:58:51Z</time>
      </trkpt>
      <trkpt lat="43.45563" lon="5.74874">
        <ele>363.52</ele>
        <time>2019-01-26T14:59:00Z</time>
      </trkpt>
      <trkpt lat="43.45573" lon="5.74892">
        <ele>364</ele>
        <time>2019-01-26T14:59:08Z</time>
      </trkpt>
      <trkpt lat="43.4558" lon="5.74901">
        <ele>364.96</ele>
        <time>2019-01-26T14:59:16Z</time>
      </trkpt>
      <trkpt lat="43.45585" lon="5.7491">
        <ele>364.96</ele>
        <time>2019-01-26T14:59:25Z</time>
      </trkpt>
      <trkpt lat="43.45592" lon="5.74918">
        <ele>365.44</ele>
        <time>2019-01-26T14:59:34Z</time>
      </trkpt>
      <trkpt lat="43.45605" lon="5.74929">
        <ele>365.92</ele>
        <time>2019-01-26T14:59:42Z</time>
      </trkpt>
      <trkpt lat="43.45619" lon="5.74941">
        <ele>366.4</ele>
        <time>2019-01-26T14:59:51Z</time>
      </trkpt>
      <trkpt lat="43.45629" lon="5.74951">
        <ele>366.88</ele>
        <time>2019-01-26T14:59:58Z</time>
      </trkpt>
      <trkpt lat="43.45637" lon="5.74957">
        <ele>367.84</ele>
        <time>2019-01-26T15:00:05Z</time>
      </trkpt>
      <trkpt lat="43.45644" lon="5.74964">
        <ele>367.84</ele>
        <time>2019-01-26T15:00:12Z</time>
      </trkpt>
      <trkpt lat="43.45653" lon="5.7497">
        <ele>368.32</ele>
        <time>2019-01-26T15:00:20Z</time>
      </trkpt>
      <trkpt lat="43.45662" lon="5.74976">
        <ele>368.32</ele>
        <time>2019-01-26T15:00:27Z</time>
      </trkpt>
      <trkpt lat="43.45673" lon="5.74989">
        <ele>368.32</ele>
        <time>2019-01-26T15:00:34Z</time>
      </trkpt>
      <trkpt lat="43.45676" lon="5.74998">
        <ele>368.32</ele>
        <time>2019-01-26T15:00:37Z</time>
      </trkpt>
      <trkpt lat="43.45677" lon="5.74999">
        <ele>368.32</ele>
        <time>2019-01-26T15:00:38Z</time>
      </trkpt>
      <trkpt lat="43.45679" lon="5.75001">
        <ele>368.32</ele>
        <time>2019-01-26T15:00:39Z</time>
      </trkpt>
      <trkpt lat="43.4568" lon="5.75003">
        <ele>368.32</ele>
        <time>2019-01-26T15:00:40Z</time>
      </trkpt>
      <trkpt lat="43.45681" lon="5.75005">
        <ele>368.8</ele>
        <time>2019-01-26T15:00:41Z</time>
      </trkpt>
      <trkpt lat="43.45682" lon="5.75007">
        <ele>368.8</ele>
        <time>2019-01-26T15:00:42Z</time>
      </trkpt>
      <trkpt lat="43.4569" lon="5.7503">
        <ele>369.28</ele>
        <time>2019-01-26T15:00:51Z</time>
      </trkpt>
      <trkpt lat="43.45695" lon="5.75046">
        <ele>369.76</ele>
        <time>2019-01-26T15:00:58Z</time>
      </trkpt>
      <trkpt lat="43.45699" lon="5.75061">
        <ele>369.76</ele>
        <time>2019-01-26T15:01:06Z</time>
      </trkpt>
      <trkpt lat="43.457" lon="5.75068">
        <ele>369.76</ele>
        <time>2019-01-26T15:01:10Z</time>
      </trkpt>
      <trkpt lat="43.457" lon="5.7507">
        <ele>369.76</ele>
        <time>2019-01-26T15:01:11Z</time>
      </trkpt>
      <trkpt lat="43.457" lon="5.75071">
        <ele>369.76</ele>
        <time>2019-01-26T15:01:12Z</time>
      </trkpt>
      <trkpt lat="43.457" lon="5.75074">
        <ele>370.24</ele>
        <time>2019-01-26T15:01:14Z</time>
      </trkpt>
      <trkpt lat="43.457" lon="5.75074">
        <ele>370.24</ele>
        <time>2019-01-26T15:01:15Z</time>
      </trkpt>
      <trkpt lat="43.45702" lon="5.75085">
        <ele>370.73</ele>
        <time>2019-01-26T15:01:23Z</time>
      </trkpt>
      <trkpt lat="43.45703" lon="5.75094">
        <ele>371.69</ele>
        <time>2019-01-26T15:01:31Z</time>
      </trkpt>
      <trkpt lat="43.45703" lon="5.75101">
        <ele>372.17</ele>
        <time>2019-01-26T15:01:35Z</time>
      </trkpt>
      <trkpt lat="43.45703" lon="5.75103">
        <ele>372.65</ele>
        <time>2019-01-26T15:01:36Z</time>
      </trkpt>
      <trkpt lat="43.45702" lon="5.75107">
        <ele>372.65</ele>
        <time>2019-01-26T15:01:38Z</time>
      </trkpt>
      <trkpt lat="43.45701" lon="5.75122">
        <ele>374.09</ele>
        <time>2019-01-26T15:01:45Z</time>
      </trkpt>
      <trkpt lat="43.45701" lon="5.75131">
        <ele>375.05</ele>
        <time>2019-01-26T15:01:49Z</time>
      </trkpt>
      <trkpt lat="43.45701" lon="5.75134">
        <ele>375.53</ele>
        <time>2019-01-26T15:01:50Z</time>
      </trkpt>
      <trkpt lat="43.45701" lon="5.75137">
        <ele>375.53</ele>
        <time>2019-01-26T15:01:51Z</time>
      </trkpt>
      <trkpt lat="43.45701" lon="5.75139">
        <ele>376.01</ele>
        <time>2019-01-26T15:01:52Z</time>
      </trkpt>
      <trkpt lat="43.45702" lon="5.75152">
        <ele>376.49</ele>
        <time>2019-01-26T15:01:59Z</time>
      </trkpt>
      <trkpt lat="43.45703" lon="5.75168">
        <ele>377.45</ele>
        <time>2019-01-26T15:02:06Z</time>
      </trkpt>
      <trkpt lat="43.45702" lon="5.75181">
        <ele>378.42</ele>
        <time>2019-01-26T15:02:14Z</time>
      </trkpt>
      <trkpt lat="43.45698" lon="5.75196">
        <ele>379.38</ele>
        <time>2019-01-26T15:02:21Z</time>
      </trkpt>
      <trkpt lat="43.45695" lon="5.75207">
        <ele>380.82</ele>
        <time>2019-01-26T15:02:28Z</time>
      </trkpt>
      <trkpt lat="43.45693" lon="5.75215">
        <ele>381.78</ele>
        <time>2019-01-26T15:02:34Z</time>
      </trkpt>
      <trkpt lat="43.4569" lon="5.7523">
        <ele>383.22</ele>
        <time>2019-01-26T15:02:41Z</time>
      </trkpt>
      <trkpt lat="43.45689" lon="5.75238">
        <ele>384.66</ele>
        <time>2019-01-26T15:02:48Z</time>
      </trkpt>
      <trkpt lat="43.45689" lon="5.7524">
        <ele>384.66</ele>
        <time>2019-01-26T15:02:49Z</time>
      </trkpt>
      <trkpt lat="43.45689" lon="5.75242">
        <ele>385.15</ele>
        <time>2019-01-26T15:02:50Z</time>
      </trkpt>
      <trkpt lat="43.45688" lon="5.75244">
        <ele>385.15</ele>
        <time>2019-01-26T15:02:51Z</time>
      </trkpt>
      <trkpt lat="43.45688" lon="5.75247">
        <ele>385.15</ele>
        <time>2019-01-26T15:02:52Z</time>
      </trkpt>
      <trkpt lat="43.45686" lon="5.75256">
        <ele>386.59</ele>
        <time>2019-01-26T15:02:58Z</time>
      </trkpt>
      <trkpt lat="43.45685" lon="5.7527">
        <ele>388.03</ele>
        <time>2019-01-26T15:03:05Z</time>
      </trkpt>
      <trkpt lat="43.45685" lon="5.75279">
        <ele>389.47</ele>
        <time>2019-01-26T15:03:12Z</time>
      </trkpt>
      <trkpt lat="43.45684" lon="5.75284">
        <ele>389.95</ele>
        <time>2019-01-26T15:03:14Z</time>
      </trkpt>
      <trkpt lat="43.45684" lon="5.75287">
        <ele>389.95</ele>
        <time>2019-01-26T15:03:15Z</time>
      </trkpt>
      <trkpt lat="43.45684" lon="5.75289">
        <ele>389.95</ele>
        <time>2019-01-26T15:03:16Z</time>
      </trkpt>
      <trkpt lat="43.45684" lon="5.75291">
        <ele>390.43</ele>
        <time>2019-01-26T15:03:17Z</time>
      </trkpt>
      <trkpt lat="43.45686" lon="5.75298">
        <ele>390.91</ele>
        <time>2019-01-26T15:03:24Z</time>
      </trkpt>
      <trkpt lat="43.45687" lon="5.75307">
        <ele>390.91</ele>
        <time>2019-01-26T15:03:28Z</time>
      </trkpt>
      <trkpt lat="43.45687" lon="5.75309">
        <ele>390.91</ele>
        <time>2019-01-26T15:03:29Z</time>
      </trkpt>
      <trkpt lat="43.45688" lon="5.75314">
        <ele>391.39</ele>
        <time>2019-01-26T15:03:31Z</time>
      </trkpt>
      <trkpt lat="43.45689" lon="5.75315">
        <ele>391.39</ele>
        <time>2019-01-26T15:03:32Z</time>
      </trkpt>
      <trkpt lat="43.45689" lon="5.75316">
        <ele>391.39</ele>
        <time>2019-01-26T15:03:33Z</time>
      </trkpt>
      <trkpt lat="43.45694" lon="5.75319">
        <ele>391.39</ele>
        <time>2019-01-26T15:03:40Z</time>
      </trkpt>
      <trkpt lat="43.45695" lon="5.75319">
        <ele>391.39</ele>
        <time>2019-01-26T15:03:41Z</time>
      </trkpt>
      <trkpt lat="43.45699" lon="5.75318">
        <ele>391.39</ele>
        <time>2019-01-26T15:03:44Z</time>
      </trkpt>
      <trkpt lat="43.45707" lon="5.75314">
        <ele>389.47</ele>
        <time>2019-01-26T15:03:52Z</time>
      </trkpt>
      <trkpt lat="43.45715" lon="5.75305">
        <ele>388.99</ele>
        <time>2019-01-26T15:03:59Z</time>
      </trkpt>
      <trkpt lat="43.45718" lon="5.753">
        <ele>388.99</ele>
        <time>2019-01-26T15:04:03Z</time>
      </trkpt>
      <trkpt lat="43.45724" lon="5.75285">
        <ele>387.55</ele>
        <time>2019-01-26T15:04:13Z</time>
      </trkpt>
      <trkpt lat="43.45728" lon="5.75271">
        <ele>387.07</ele>
        <time>2019-01-26T15:04:22Z</time>
      </trkpt>
      <trkpt lat="43.45729" lon="5.75255">
        <ele>386.11</ele>
        <time>2019-01-26T15:04:31Z</time>
      </trkpt>
      <trkpt lat="43.4573" lon="5.75249">
        <ele>386.11</ele>
        <time>2019-01-26T15:04:34Z</time>
      </trkpt>
      <trkpt lat="43.4573" lon="5.75245">
        <ele>385.63</ele>
        <time>2019-01-26T15:04:36Z</time>
      </trkpt>
      <trkpt lat="43.45733" lon="5.75222">
        <ele>384.18</ele>
        <time>2019-01-26T15:04:45Z</time>
      </trkpt>
      <trkpt lat="43.45734" lon="5.75211">
        <ele>384.18</ele>
        <time>2019-01-26T15:04:50Z</time>
      </trkpt>
      <trkpt lat="43.45736" lon="5.75195">
        <ele>382.74</ele>
        <time>2019-01-26T15:05:00Z</time>
      </trkpt>
      <trkpt lat="43.45746" lon="5.75175">
        <ele>381.3</ele>
        <time>2019-01-26T15:05:09Z</time>
      </trkpt>
      <trkpt lat="43.45755" lon="5.75165">
        <ele>380.82</ele>
        <time>2019-01-26T15:05:15Z</time>
      </trkpt>
      <trkpt lat="43.4577" lon="5.75154">
        <ele>379.86</ele>
        <time>2019-01-26T15:05:23Z</time>
      </trkpt>
      <trkpt lat="43.45782" lon="5.75145">
        <ele>379.38</ele>
        <time>2019-01-26T15:05:31Z</time>
      </trkpt>
      <trkpt lat="43.45791" lon="5.75138">
        <ele>377.94</ele>
        <time>2019-01-26T15:05:38Z</time>
      </trkpt>
      <trkpt lat="43.45797" lon="5.75135">
        <ele>376.97</ele>
        <time>2019-01-26T15:05:45Z</time>
      </trkpt>
      <trkpt lat="43.45799" lon="5.75134">
        <ele>376.97</ele>
        <time>2019-01-26T15:05:48Z</time>
      </trkpt>
      <trkpt lat="43.45806" lon="5.75128">
        <ele>376.01</ele>
        <time>2019-01-26T15:05:57Z</time>
      </trkpt>
      <trkpt lat="43.45813" lon="5.75121">
        <ele>375.53</ele>
        <time>2019-01-26T15:06:06Z</time>
      </trkpt>
      <trkpt lat="43.4582" lon="5.75113">
        <ele>374.57</ele>
        <time>2019-01-26T15:06:14Z</time>
      </trkpt>
      <trkpt lat="43.45828" lon="5.75099">
        <ele>373.61</ele>
        <time>2019-01-26T15:06:23Z</time>
      </trkpt>
      <trkpt lat="43.4583" lon="5.75093">
        <ele>373.13</ele>
        <time>2019-01-26T15:06:26Z</time>
      </trkpt>
      <trkpt lat="43.45837" lon="5.75082">
        <ele>372.65</ele>
        <time>2019-01-26T15:06:31Z</time>
      </trkpt>
      <trkpt lat="43.45839" lon="5.7508">
        <ele>372.65</ele>
        <time>2019-01-26T15:06:32Z</time>
      </trkpt>
      <trkpt lat="43.45857" lon="5.7507">
        <ele>371.69</ele>
        <time>2019-01-26T15:06:41Z</time>
      </trkpt>
      <trkpt lat="43.45872" lon="5.75064">
        <ele>371.21</ele>
        <time>2019-01-26T15:06:50Z</time>
      </trkpt>
      <trkpt lat="43.45883" lon="5.75058">
        <ele>370.24</ele>
        <time>2019-01-26T15:06:59Z</time>
      </trkpt>
      <trkpt lat="43.45891" lon="5.75056">
        <ele>369.76</ele>
        <time>2019-01-26T15:07:07Z</time>
      </trkpt>
      <trkpt lat="43.45899" lon="5.75051">
        <ele>369.28</ele>
        <time>2019-01-26T15:07:14Z</time>
      </trkpt>
      <trkpt lat="43.45906" lon="5.75046">
        <ele>369.28</ele>
        <time>2019-01-26T15:07:20Z</time>
      </trkpt>
      <trkpt lat="43.45907" lon="5.75045">
        <ele>369.28</ele>
        <time>2019-01-26T15:07:21Z</time>
      </trkpt>
      <trkpt lat="43.45908" lon="5.75044">
        <ele>369.28</ele>
        <time>2019-01-26T15:07:22Z</time>
      </trkpt>
      <trkpt lat="43.45911" lon="5.7504">
        <ele>369.28</ele>
        <time>2019-01-26T15:07:25Z</time>
      </trkpt>
      <trkpt lat="43.45912" lon="5.75039">
        <ele>369.28</ele>
        <time>2019-01-26T15:07:26Z</time>
      </trkpt>
      <trkpt lat="43.4592" lon="5.75031">
        <ele>369.28</ele>
        <time>2019-01-26T15:07:33Z</time>
      </trkpt>
      <trkpt lat="43.4592" lon="5.7503">
        <ele>369.28</ele>
        <time>2019-01-26T15:07:34Z</time>
      </trkpt>
      <trkpt lat="43.45928" lon="5.75023">
        <ele>368.8</ele>
        <time>2019-01-26T15:07:41Z</time>
      </trkpt>
      <trkpt lat="43.45936" lon="5.75019">
        <ele>367.84</ele>
        <time>2019-01-26T15:07:48Z</time>
      </trkpt>
      <trkpt lat="43.45938" lon="5.75018">
        <ele>367.84</ele>
        <time>2019-01-26T15:07:49Z</time>
      </trkpt>
      <trkpt lat="43.45939" lon="5.75017">
        <ele>367.84</ele>
        <time>2019-01-26T15:07:50Z</time>
      </trkpt>
      <trkpt lat="43.45941" lon="5.75016">
        <ele>367.84</ele>
        <time>2019-01-26T15:07:51Z</time>
      </trkpt>
      <trkpt lat="43.45942" lon="5.75015">
        <ele>367.36</ele>
        <time>2019-01-26T15:07:52Z</time>
      </trkpt>
      <trkpt lat="43.45948" lon="5.7501">
        <ele>366.88</ele>
        <time>2019-01-26T15:07:57Z</time>
      </trkpt>
      <trkpt lat="43.45958" lon="5.75004">
        <ele>364.48</ele>
        <time>2019-01-26T15:08:04Z</time>
      </trkpt>
      <trkpt lat="43.45968" lon="5.74996">
        <ele>362.55</ele>
        <time>2019-01-26T15:08:13Z</time>
      </trkpt>
      <trkpt lat="43.45975" lon="5.74991">
        <ele>361.11</ele>
        <time>2019-01-26T15:08:19Z</time>
      </trkpt>
      <trkpt lat="43.45982" lon="5.7499">
        <ele>360.63</ele>
        <time>2019-01-26T15:08:26Z</time>
      </trkpt>
      <trkpt lat="43.45986" lon="5.74988">
        <ele>360.15</ele>
        <time>2019-01-26T15:08:37Z</time>
      </trkpt>
      <trkpt lat="43.45991" lon="5.7498">
        <ele>359.67</ele>
        <time>2019-01-26T15:08:42Z</time>
      </trkpt>
      <trkpt lat="43.45992" lon="5.74979">
        <ele>359.67</ele>
        <time>2019-01-26T15:08:43Z</time>
      </trkpt>
      <trkpt lat="43.45993" lon="5.74978">
        <ele>359.67</ele>
        <time>2019-01-26T15:08:44Z</time>
      </trkpt>
      <trkpt lat="43.45997" lon="5.74971">
        <ele>359.19</ele>
        <time>2019-01-26T15:08:49Z</time>
      </trkpt>
      <trkpt lat="43.45998" lon="5.74971">
        <ele>359.19</ele>
        <time>2019-01-26T15:08:50Z</time>
      </trkpt>
      <trkpt lat="43.46" lon="5.74969">
        <ele>358.71</ele>
        <time>2019-01-26T15:08:52Z</time>
      </trkpt>
      <trkpt lat="43.46001" lon="5.74968">
        <ele>358.23</ele>
        <time>2019-01-26T15:08:53Z</time>
      </trkpt>
      <trkpt lat="43.46006" lon="5.74961">
        <ele>357.27</ele>
        <time>2019-01-26T15:08:59Z</time>
      </trkpt>
      <trkpt lat="43.46011" lon="5.74955">
        <ele>356.31</ele>
        <time>2019-01-26T15:09:04Z</time>
      </trkpt>
      <trkpt lat="43.46018" lon="5.74946">
        <ele>355.34</ele>
        <time>2019-01-26T15:09:12Z</time>
      </trkpt>
      <trkpt lat="43.46019" lon="5.74944">
        <ele>355.34</ele>
        <time>2019-01-26T15:09:13Z</time>
      </trkpt>
      <trkpt lat="43.4602" lon="5.74943">
        <ele>354.86</ele>
        <time>2019-01-26T15:09:14Z</time>
      </trkpt>
      <trkpt lat="43.46022" lon="5.74941">
        <ele>354.86</ele>
        <time>2019-01-26T15:09:16Z</time>
      </trkpt>
      <trkpt lat="43.46023" lon="5.7494">
        <ele>354.38</ele>
        <time>2019-01-26T15:09:17Z</time>
      </trkpt>
      <trkpt lat="43.46024" lon="5.74938">
        <ele>354.38</ele>
        <time>2019-01-26T15:09:18Z</time>
      </trkpt>
      <trkpt lat="43.46025" lon="5.74936">
        <ele>354.38</ele>
        <time>2019-01-26T15:09:19Z</time>
      </trkpt>
      <trkpt lat="43.46026" lon="5.74934">
        <ele>353.9</ele>
        <time>2019-01-26T15:09:20Z</time>
      </trkpt>
      <trkpt lat="43.46027" lon="5.74933">
        <ele>353.9</ele>
        <time>2019-01-26T15:09:21Z</time>
      </trkpt>
      <trkpt lat="43.46036" lon="5.74921">
        <ele>352.94</ele>
        <time>2019-01-26T15:09:29Z</time>
      </trkpt>
      <trkpt lat="43.46044" lon="5.74907">
        <ele>351.98</ele>
        <time>2019-01-26T15:09:36Z</time>
      </trkpt>
      <trkpt lat="43.46045" lon="5.74906">
        <ele>351.98</ele>
        <time>2019-01-26T15:09:37Z</time>
      </trkpt>
      <trkpt lat="43.46046" lon="5.74905">
        <ele>351.5</ele>
        <time>2019-01-26T15:09:38Z</time>
      </trkpt>
      <trkpt lat="43.46048" lon="5.74904">
        <ele>351.5</ele>
        <time>2019-01-26T15:09:39Z</time>
      </trkpt>
      <trkpt lat="43.46051" lon="5.74899">
        <ele>351.02</ele>
        <time>2019-01-26T15:09:42Z</time>
      </trkpt>
      <trkpt lat="43.46052" lon="5.74898">
        <ele>351.02</ele>
        <time>2019-01-26T15:09:43Z</time>
      </trkpt>
      <trkpt lat="43.46053" lon="5.74897">
        <ele>351.02</ele>
        <time>2019-01-26T15:09:44Z</time>
      </trkpt>
      <trkpt lat="43.46054" lon="5.74895">
        <ele>350.54</ele>
        <time>2019-01-26T15:09:45Z</time>
      </trkpt>
      <trkpt lat="43.46054" lon="5.74893">
        <ele>350.54</ele>
        <time>2019-01-26T15:09:46Z</time>
      </trkpt>
      <trkpt lat="43.46055" lon="5.74892">
        <ele>350.06</ele>
        <time>2019-01-26T15:09:47Z</time>
      </trkpt>
      <trkpt lat="43.46056" lon="5.74891">
        <ele>350.54</ele>
        <time>2019-01-26T15:09:48Z</time>
      </trkpt>
      <trkpt lat="43.46057" lon="5.74889">
        <ele>349.58</ele>
        <time>2019-01-26T15:09:49Z</time>
      </trkpt>
      <trkpt lat="43.46058" lon="5.74887">
        <ele>349.58</ele>
        <time>2019-01-26T15:09:50Z</time>
      </trkpt>
      <trkpt lat="43.46058" lon="5.74886">
        <ele>349.58</ele>
        <time>2019-01-26T15:09:51Z</time>
      </trkpt>
      <trkpt lat="43.46066" lon="5.7488">
        <ele>348.62</ele>
        <time>2019-01-26T15:09:57Z</time>
      </trkpt>
      <trkpt lat="43.46069" lon="5.7488">
        <ele>348.62</ele>
        <time>2019-01-26T15:09:59Z</time>
      </trkpt>
      <trkpt lat="43.4607" lon="5.74878">
        <ele>348.62</ele>
        <time>2019-01-26T15:10:00Z</time>
      </trkpt>
      <trkpt lat="43.46073" lon="5.74875">
        <ele>348.62</ele>
        <time>2019-01-26T15:10:03Z</time>
      </trkpt>
      <trkpt lat="43.46075" lon="5.74865">
        <ele>347.17</ele>
        <time>2019-01-26T15:10:10Z</time>
      </trkpt>
      <trkpt lat="43.46079" lon="5.74859">
        <ele>346.21</ele>
        <time>2019-01-26T15:10:16Z</time>
      </trkpt>
      <trkpt lat="43.46079" lon="5.74857">
        <ele>346.21</ele>
        <time>2019-01-26T15:10:17Z</time>
      </trkpt>
      <trkpt lat="43.46084" lon="5.7485">
        <ele>345.25</ele>
        <time>2019-01-26T15:10:23Z</time>
      </trkpt>
      <trkpt lat="43.46087" lon="5.74843">
        <ele>344.77</ele>
        <time>2019-01-26T15:10:28Z</time>
      </trkpt>
      <trkpt lat="43.46093" lon="5.74831">
        <ele>343.81</ele>
        <time>2019-01-26T15:10:36Z</time>
      </trkpt>
      <trkpt lat="43.46098" lon="5.74824">
        <ele>342.37</ele>
        <time>2019-01-26T15:10:43Z</time>
      </trkpt>
      <trkpt lat="43.46102" lon="5.74819">
        <ele>341.89</ele>
        <time>2019-01-26T15:10:47Z</time>
      </trkpt>
      <trkpt lat="43.46107" lon="5.74811">
        <ele>340.92</ele>
        <time>2019-01-26T15:10:53Z</time>
      </trkpt>
      <trkpt lat="43.4611" lon="5.74808">
        <ele>340.44</ele>
        <time>2019-01-26T15:10:56Z</time>
      </trkpt>
      <trkpt lat="43.46117" lon="5.74804">
        <ele>339.48</ele>
        <time>2019-01-26T15:11:02Z</time>
      </trkpt>
      <trkpt lat="43.46121" lon="5.74799">
        <ele>338.52</ele>
        <time>2019-01-26T15:11:09Z</time>
      </trkpt>
      <trkpt lat="43.46124" lon="5.74794">
        <ele>338.04</ele>
        <time>2019-01-26T15:11:14Z</time>
      </trkpt>
      <trkpt lat="43.46126" lon="5.74791">
        <ele>338.04</ele>
        <time>2019-01-26T15:11:17Z</time>
      </trkpt>
      <trkpt lat="43.46127" lon="5.74789">
        <ele>338.04</ele>
        <time>2019-01-26T15:11:18Z</time>
      </trkpt>
      <trkpt lat="43.46128" lon="5.74788">
        <ele>338.04</ele>
        <time>2019-01-26T15:11:19Z</time>
      </trkpt>
      <trkpt lat="43.4613" lon="5.74788">
        <ele>338.04</ele>
        <time>2019-01-26T15:11:20Z</time>
      </trkpt>
      <trkpt lat="43.46131" lon="5.74788">
        <ele>338.04</ele>
        <time>2019-01-26T15:11:21Z</time>
      </trkpt>
      <trkpt lat="43.46134" lon="5.74789">
        <ele>338.04</ele>
        <time>2019-01-26T15:11:24Z</time>
      </trkpt>
      <trkpt lat="43.46135" lon="5.74788">
        <ele>338.04</ele>
        <time>2019-01-26T15:11:25Z</time>
      </trkpt>
      <trkpt lat="43.46139" lon="5.74786">
        <ele>338.04</ele>
        <time>2019-01-26T15:11:32Z</time>
      </trkpt>
      <trkpt lat="43.46141" lon="5.74788">
        <ele>338.04</ele>
        <time>2019-01-26T15:11:42Z</time>
      </trkpt>
      <trkpt lat="43.4614" lon="5.74785">
        <ele>338.04</ele>
        <time>2019-01-26T15:11:54Z</time>
      </trkpt>
      <trkpt lat="43.4614" lon="5.74787">
        <ele>338.04</ele>
        <time>2019-01-26T15:12:03Z</time>
      </trkpt>
      <trkpt lat="43.46139" lon="5.74786">
        <ele>338.04</ele>
        <time>2019-01-26T15:12:12Z</time>
      </trkpt>
      <trkpt lat="43.4614" lon="5.74786">
        <ele>338.04</ele>
        <time>2019-01-26T15:12:25Z</time>
      </trkpt>
      <trkpt lat="43.46143" lon="5.7479">
        <ele>338.04</ele>
        <time>2019-01-26T15:12:32Z</time>
      </trkpt>
      <trkpt lat="43.46144" lon="5.74789">
        <ele>338.04</ele>
        <time>2019-01-26T15:12:33Z</time>
      </trkpt>
      <trkpt lat="43.46154" lon="5.7479">
        <ele>338.04</ele>
        <time>2019-01-26T15:12:42Z</time>
      </trkpt>
      <trkpt lat="43.46163" lon="5.74788">
        <ele>338.04</ele>
        <time>2019-01-26T15:12:49Z</time>
      </trkpt>
      <trkpt lat="43.46171" lon="5.74789">
        <ele>337.56</ele>
        <time>2019-01-26T15:12:58Z</time>
      </trkpt>
      <trkpt lat="43.46173" lon="5.74789">
        <ele>337.08</ele>
        <time>2019-01-26T15:13:00Z</time>
      </trkpt>
      <trkpt lat="43.46179" lon="5.74788">
        <ele>336.6</ele>
        <time>2019-01-26T15:13:04Z</time>
      </trkpt>
      <trkpt lat="43.46185" lon="5.74791">
        <ele>336.12</ele>
        <time>2019-01-26T15:13:12Z</time>
      </trkpt>
      <trkpt lat="43.46185" lon="5.74791">
        <ele>336.12</ele>
        <time>2019-01-26T15:13:14Z</time>
      </trkpt>
      <trkpt lat="43.46188" lon="5.74791">
        <ele>336.12</ele>
        <time>2019-01-26T15:13:17Z</time>
      </trkpt>
      <trkpt lat="43.46194" lon="5.74794">
        <ele>334.68</ele>
        <time>2019-01-26T15:13:26Z</time>
      </trkpt>
      <trkpt lat="43.46195" lon="5.74794">
        <ele>334.68</ele>
        <time>2019-01-26T15:13:35Z</time>
      </trkpt>
      <trkpt lat="43.46194" lon="5.74795">
        <ele>334.68</ele>
        <time>2019-01-26T15:13:42Z</time>
      </trkpt>
      <trkpt lat="43.46193" lon="5.74795">
        <ele>334.68</ele>
        <time>2019-01-26T15:13:50Z</time>
      </trkpt>
      <trkpt lat="43.46193" lon="5.74795">
        <ele>334.68</ele>
        <time>2019-01-26T15:13:55Z</time>
      </trkpt>
      <trkpt lat="43.46193" lon="5.7479">
        <ele>334.68</ele>
        <time>2019-01-26T15:14:00Z</time>
      </trkpt>
      <trkpt lat="43.46194" lon="5.74785">
        <ele>334.68</ele>
        <time>2019-01-26T15:14:06Z</time>
      </trkpt>
      <trkpt lat="43.46197" lon="5.74784">
        <ele>334.68</ele>
        <time>2019-01-26T15:14:12Z</time>
      </trkpt>
      <trkpt lat="43.46198" lon="5.74784">
        <ele>334.68</ele>
        <time>2019-01-26T15:14:18Z</time>
      </trkpt>
      <trkpt lat="43.46198" lon="5.74786">
        <ele>334.68</ele>
        <time>2019-01-26T15:14:31Z</time>
      </trkpt>
      <trkpt lat="43.46198" lon="5.74786">
        <ele>334.68</ele>
        <time>2019-01-26T15:14:39Z</time>
      </trkpt>
      <trkpt lat="43.46199" lon="5.74786">
        <ele>334.2</ele>
        <time>2019-01-26T15:14:54Z</time>
      </trkpt>
      <trkpt lat="43.46198" lon="5.74785">
        <ele>334.2</ele>
        <time>2019-01-26T15:15:10Z</time>
      </trkpt>
      <trkpt lat="43.46197" lon="5.74786">
        <ele>334.2</ele>
        <time>2019-01-26T15:15:22Z</time>
      </trkpt>
      <trkpt lat="43.46197" lon="5.74786">
        <ele>334.2</ele>
        <time>2019-01-26T15:15:35Z</time>
      </trkpt>
      <trkpt lat="43.46197" lon="5.74786">
        <ele>334.2</ele>
        <time>2019-01-26T15:15:42Z</time>
      </trkpt>
      <trkpt lat="43.46198" lon="5.74788">
        <ele>334.2</ele>
        <time>2019-01-26T15:15:52Z</time>
      </trkpt>
      <trkpt lat="43.46196" lon="5.74788">
        <ele>334.2</ele>
        <time>2019-01-26T15:16:04Z</time>
      </trkpt>
      <trkpt lat="43.46197" lon="5.74787">
        <ele>334.2</ele>
        <time>2019-01-26T15:16:19Z</time>
      </trkpt>
      <trkpt lat="43.46196" lon="5.74789">
        <ele>334.2</ele>
        <time>2019-01-26T15:16:33Z</time>
      </trkpt>
      <trkpt lat="43.46195" lon="5.74787">
        <ele>334.68</ele>
        <time>2019-01-26T15:16:40Z</time>
      </trkpt>
      <trkpt lat="43.46196" lon="5.74781">
        <ele>334.68</ele>
        <time>2019-01-26T15:16:48Z</time>
      </trkpt>
      <trkpt lat="43.462" lon="5.74776">
        <ele>334.2</ele>
        <time>2019-01-26T15:16:57Z</time>
      </trkpt>
      <trkpt lat="43.462" lon="5.74777">
        <ele>334.2</ele>
        <time>2019-01-26T15:17:03Z</time>
      </trkpt>
      <trkpt lat="43.462" lon="5.74778">
        <ele>334.2</ele>
        <time>2019-01-26T15:17:18Z</time>
      </trkpt>
      <trkpt lat="43.462" lon="5.74775">
        <ele>334.2</ele>
        <time>2019-01-26T15:17:29Z</time>
      </trkpt>
      <trkpt lat="43.46207" lon="5.74766">
        <ele>333.71</ele>
        <time>2019-01-26T15:17:37Z</time>
      </trkpt>
      <trkpt lat="43.4621" lon="5.74764">
        <ele>333.23</ele>
        <time>2019-01-26T15:17:40Z</time>
      </trkpt>
      <trkpt lat="43.46224" lon="5.74757">
        <ele>332.75</ele>
        <time>2019-01-26T15:17:49Z</time>
      </trkpt>
      <trkpt lat="43.46229" lon="5.74755">
        <ele>332.75</ele>
        <time>2019-01-26T15:17:53Z</time>
      </trkpt>
      <trkpt lat="43.46239" lon="5.7475">
        <ele>331.79</ele>
        <time>2019-01-26T15:18:00Z</time>
      </trkpt>
      <trkpt lat="43.46251" lon="5.74746">
        <ele>331.31</ele>
        <time>2019-01-26T15:18:10Z</time>
      </trkpt>
      <trkpt lat="43.46264" lon="5.74741">
        <ele>330.35</ele>
        <time>2019-01-26T15:18:20Z</time>
      </trkpt>
      <trkpt lat="43.4628" lon="5.74733">
        <ele>329.87</ele>
        <time>2019-01-26T15:18:30Z</time>
      </trkpt>
      <trkpt lat="43.46294" lon="5.74727">
        <ele>329.39</ele>
        <time>2019-01-26T15:18:39Z</time>
      </trkpt>
      <trkpt lat="43.46306" lon="5.74723">
        <ele>328.91</ele>
        <time>2019-01-26T15:18:49Z</time>
      </trkpt>
      <trkpt lat="43.46317" lon="5.7472">
        <ele>328.43</ele>
        <time>2019-01-26T15:18:57Z</time>
      </trkpt>
      <trkpt lat="43.46335" lon="5.74716">
        <ele>327.95</ele>
        <time>2019-01-26T15:19:07Z</time>
      </trkpt>
      <trkpt lat="43.46348" lon="5.74713">
        <ele>326.99</ele>
        <time>2019-01-26T15:19:16Z</time>
      </trkpt>
      <trkpt lat="43.46351" lon="5.74712">
        <ele>326.99</ele>
        <time>2019-01-26T15:19:18Z</time>
      </trkpt>
      <trkpt lat="43.46352" lon="5.74712">
        <ele>326.99</ele>
        <time>2019-01-26T15:19:19Z</time>
      </trkpt>
      <trkpt lat="43.46353" lon="5.74712">
        <ele>326.99</ele>
        <time>2019-01-26T15:19:20Z</time>
      </trkpt>
      <trkpt lat="43.46364" lon="5.74708">
        <ele>326.02</ele>
        <time>2019-01-26T15:19:29Z</time>
      </trkpt>
      <trkpt lat="43.46379" lon="5.74704">
        <ele>325.54</ele>
        <time>2019-01-26T15:19:37Z</time>
      </trkpt>
      <trkpt lat="43.46391" lon="5.74701">
        <ele>324.58</ele>
        <time>2019-01-26T15:19:46Z</time>
      </trkpt>
      <trkpt lat="43.46408" lon="5.74692">
        <ele>323.62</ele>
        <time>2019-01-26T15:19:56Z</time>
      </trkpt>
      <trkpt lat="43.46418" lon="5.74687">
        <ele>322.66</ele>
        <time>2019-01-26T15:20:04Z</time>
      </trkpt>
      <trkpt lat="43.46434" lon="5.74678">
        <ele>321.7</ele>
        <time>2019-01-26T15:20:14Z</time>
      </trkpt>
      <trkpt lat="43.46442" lon="5.74672">
        <ele>321.22</ele>
        <time>2019-01-26T15:20:21Z</time>
      </trkpt>
      <trkpt lat="43.46456" lon="5.74666">
        <ele>320.26</ele>
        <time>2019-01-26T15:20:29Z</time>
      </trkpt>
      <trkpt lat="43.46466" lon="5.74662">
        <ele>319.78</ele>
        <time>2019-01-26T15:20:36Z</time>
      </trkpt>
      <trkpt lat="43.46467" lon="5.74662">
        <ele>319.78</ele>
        <time>2019-01-26T15:20:37Z</time>
      </trkpt>
      <trkpt lat="43.4648" lon="5.74658">
        <ele>318.81</ele>
        <time>2019-01-26T15:20:46Z</time>
      </trkpt>
      <trkpt lat="43.46498" lon="5.74653">
        <ele>317.85</ele>
        <time>2019-01-26T15:20:57Z</time>
      </trkpt>
      <trkpt lat="43.46505" lon="5.74649">
        <ele>317.37</ele>
        <time>2019-01-26T15:21:03Z</time>
      </trkpt>
      <trkpt lat="43.46521" lon="5.74643">
        <ele>315.93</ele>
        <time>2019-01-26T15:21:14Z</time>
      </trkpt>
      <trkpt lat="43.46534" lon="5.74635">
        <ele>315.45</ele>
        <time>2019-01-26T15:21:23Z</time>
      </trkpt>
      <trkpt lat="43.46544" lon="5.7463">
        <ele>314.49</ele>
        <time>2019-01-26T15:21:29Z</time>
      </trkpt>
      <trkpt lat="43.46556" lon="5.74625">
        <ele>313.53</ele>
        <time>2019-01-26T15:21:38Z</time>
      </trkpt>
      <trkpt lat="43.46573" lon="5.74621">
        <ele>313.53</ele>
        <time>2019-01-26T15:21:48Z</time>
      </trkpt>
      <trkpt lat="43.46588" lon="5.74616">
        <ele>312.09</ele>
        <time>2019-01-26T15:21:59Z</time>
      </trkpt>
      <trkpt lat="43.46603" lon="5.74612">
        <ele>311.12</ele>
        <time>2019-01-26T15:22:08Z</time>
      </trkpt>
      <trkpt lat="43.46604" lon="5.74612">
        <ele>310.64</ele>
        <time>2019-01-26T15:22:09Z</time>
      </trkpt>
      <trkpt lat="43.46606" lon="5.74612">
        <ele>310.64</ele>
        <time>2019-01-26T15:22:10Z</time>
      </trkpt>
      <trkpt lat="43.46607" lon="5.74611">
        <ele>310.64</ele>
        <time>2019-01-26T15:22:11Z</time>
      </trkpt>
      <trkpt lat="43.46608" lon="5.74611">
        <ele>310.64</ele>
        <time>2019-01-26T15:22:12Z</time>
      </trkpt>
      <trkpt lat="43.46609" lon="5.74611">
        <ele>310.16</ele>
        <time>2019-01-26T15:22:13Z</time>
      </trkpt>
      <trkpt lat="43.46612" lon="5.74609">
        <ele>309.68</ele>
        <time>2019-01-26T15:22:16Z</time>
      </trkpt>
      <trkpt lat="43.46624" lon="5.74602">
        <ele>308.72</ele>
        <time>2019-01-26T15:22:25Z</time>
      </trkpt>
      <trkpt lat="43.46634" lon="5.74596">
        <ele>308.72</ele>
        <time>2019-01-26T15:22:31Z</time>
      </trkpt>
      <trkpt lat="43.46645" lon="5.74594">
        <ele>308.24</ele>
        <time>2019-01-26T15:22:38Z</time>
      </trkpt>
      <trkpt lat="43.46659" lon="5.74594">
        <ele>306.8</ele>
        <time>2019-01-26T15:22:49Z</time>
      </trkpt>
      <trkpt lat="43.46666" lon="5.74594">
        <ele>306.32</ele>
        <time>2019-01-26T15:22:55Z</time>
      </trkpt>
      <trkpt lat="43.46677" lon="5.74596">
        <ele>305.84</ele>
        <time>2019-01-26T15:23:02Z</time>
      </trkpt>
      <trkpt lat="43.46683" lon="5.74596">
        <ele>304.88</ele>
        <time>2019-01-26T15:23:06Z</time>
      </trkpt>
      <trkpt lat="43.46684" lon="5.74596">
        <ele>304.88</ele>
        <time>2019-01-26T15:23:07Z</time>
      </trkpt>
      <trkpt lat="43.46685" lon="5.74595">
        <ele>304.88</ele>
        <time>2019-01-26T15:23:08Z</time>
      </trkpt>
      <trkpt lat="43.46686" lon="5.74594">
        <ele>304.88</ele>
        <time>2019-01-26T15:23:09Z</time>
      </trkpt>
      <trkpt lat="43.46686" lon="5.74593">
        <ele>304.39</ele>
        <time>2019-01-26T15:23:10Z</time>
      </trkpt>
      <trkpt lat="43.46691" lon="5.74587">
        <ele>304.39</ele>
        <time>2019-01-26T15:23:18Z</time>
      </trkpt>
      <trkpt lat="43.46702" lon="5.74565">
        <ele>303.91</ele>
        <time>2019-01-26T15:23:27Z</time>
      </trkpt>
      <trkpt lat="43.46705" lon="5.7455">
        <ele>303.91</ele>
        <time>2019-01-26T15:23:36Z</time>
      </trkpt>
      <trkpt lat="43.46713" lon="5.74537">
        <ele>302.95</ele>
        <time>2019-01-26T15:23:46Z</time>
      </trkpt>
      <trkpt lat="43.4672" lon="5.74535">
        <ele>302.95</ele>
        <time>2019-01-26T15:23:54Z</time>
      </trkpt>
      <trkpt lat="43.46723" lon="5.74534">
        <ele>302.95</ele>
        <time>2019-01-26T15:24:04Z</time>
      </trkpt>
      <trkpt lat="43.46723" lon="5.74532">
        <ele>302.95</ele>
        <time>2019-01-26T15:24:12Z</time>
      </trkpt>
      <trkpt lat="43.46723" lon="5.74533">
        <ele>302.47</ele>
        <time>2019-01-26T15:24:17Z</time>
      </trkpt>
      <trkpt lat="43.46723" lon="5.74536">
        <ele>302.47</ele>
        <time>2019-01-26T15:24:26Z</time>
      </trkpt>
      <trkpt lat="43.46725" lon="5.74536">
        <ele>302.47</ele>
        <time>2019-01-26T15:24:37Z</time>
      </trkpt>
      <trkpt lat="43.46724" lon="5.74535">
        <ele>302.47</ele>
        <time>2019-01-26T15:24:47Z</time>
      </trkpt>
      <trkpt lat="43.46723" lon="5.74535">
        <ele>302.47</ele>
        <time>2019-01-26T15:24:53Z</time>
      </trkpt>
      <trkpt lat="43.46721" lon="5.74535">
        <ele>302.47</ele>
        <time>2019-01-26T15:24:58Z</time>
      </trkpt>
      <trkpt lat="43.4672" lon="5.74535">
        <ele>302.47</ele>
        <time>2019-01-26T15:25:07Z</time>
      </trkpt>
      <trkpt lat="43.46722" lon="5.74535">
        <ele>302.47</ele>
        <time>2019-01-26T15:25:17Z</time>
      </trkpt>
      <trkpt lat="43.46721" lon="5.74536">
        <ele>303.43</ele>
        <time>2019-01-26T15:25:33Z</time>
      </trkpt>
      <trkpt lat="43.46721" lon="5.74536">
        <ele>301.99</ele>
        <time>2019-01-26T15:25:41Z</time>
      </trkpt>
    </trkseg>
  </trk>
</gpx>